<?xml version="1.0" encoding="UTF-8" standalone="no" ?>
<gpx xmlns="http://www.topografix.com/GPX/1/1" xmlns:xsi="http://www.w3.org/2001/XMLSchema-instance" xsi:schemaLocation="http://www.topografix.com/GPX/1/1 http://www.topografix.com/GPX/1/1/gpx.xsd" version="1.1" creator="VisuGPX - https://www.visugpx.com">
  <metadata>
    <name>St Denis Du Pin (17) - 26km</name>
    <desc><![CDATA[St. Denis Du Pin Nathan Léo Sam Julien]]></desc>
  </metadata>
  <trk>
    <name><![CDATA[St Denis Du Pin (17) - 26km_1]]></name>
    <trkseg>
      <trkpt lat="45.98907" lon="-0.52245">
        <ele>52.014789581299</ele>
        <time>2014-08-10T07:22:26.000Z</time>
      </trkpt>
      <trkpt lat="45.98891" lon="-0.52242">
        <ele>52.081695556641</ele>
        <time>2014-08-10T07:24:44.000Z</time>
      </trkpt>
      <trkpt lat="45.98888" lon="-0.52243">
        <ele>52.120403289795</ele>
        <time>2014-08-10T07:24:45.000Z</time>
      </trkpt>
      <trkpt lat="45.98878" lon="-0.52243">
        <ele>52.172882080078</ele>
        <time>2014-08-10T07:25:02.000Z</time>
      </trkpt>
      <trkpt lat="45.98878" lon="-0.5225">
        <ele>52.230690002441</ele>
        <time>2014-08-10T07:25:05.000Z</time>
      </trkpt>
      <trkpt lat="45.98878" lon="-0.52256">
        <ele>52.321086883545</ele>
        <time>2014-08-10T07:25:07.000Z</time>
      </trkpt>
      <trkpt lat="45.98877" lon="-0.52261">
        <ele>52.385704040527</ele>
        <time>2014-08-10T07:25:09.000Z</time>
      </trkpt>
      <trkpt lat="45.98877" lon="-0.52268">
        <ele>52.441455841064</ele>
        <time>2014-08-10T07:25:12.000Z</time>
      </trkpt>
      <trkpt lat="45.98877" lon="-0.52275">
        <ele>52.470703125</ele>
        <time>2014-08-10T07:25:14.000Z</time>
      </trkpt>
      <trkpt lat="45.98876" lon="-0.52284">
        <ele>52.4755859375</ele>
        <time>2014-08-10T07:25:17.000Z</time>
      </trkpt>
      <trkpt lat="45.98876" lon="-0.52291">
        <ele>52.4794921875</ele>
        <time>2014-08-10T07:25:19.000Z</time>
      </trkpt>
      <trkpt lat="45.98874" lon="-0.52299">
        <ele>52.4873046875</ele>
        <time>2014-08-10T07:25:22.000Z</time>
      </trkpt>
      <trkpt lat="45.98872" lon="-0.52302">
        <ele>52.5</ele>
        <time>2014-08-10T07:25:24.000Z</time>
      </trkpt>
      <trkpt lat="45.98868" lon="-0.52304">
        <ele>52.521484375</ele>
        <time>2014-08-10T07:25:26.000Z</time>
      </trkpt>
      <trkpt lat="45.98864" lon="-0.52304">
        <ele>52.55078125</ele>
        <time>2014-08-10T07:25:28.000Z</time>
      </trkpt>
      <trkpt lat="45.98859" lon="-0.52307">
        <ele>52.591796875</ele>
        <time>2014-08-10T07:25:31.000Z</time>
      </trkpt>
      <trkpt lat="45.98854" lon="-0.5231">
        <ele>52.6396484375</ele>
        <time>2014-08-10T07:25:34.000Z</time>
      </trkpt>
      <trkpt lat="45.98847" lon="-0.52306">
        <ele>52.69921875</ele>
        <time>2014-08-10T07:25:37.000Z</time>
      </trkpt>
      <trkpt lat="45.9884" lon="-0.52304">
        <ele>52.765625</ele>
        <time>2014-08-10T07:25:39.000Z</time>
      </trkpt>
      <trkpt lat="45.9883" lon="-0.52302">
        <ele>52.834938049316</ele>
        <time>2014-08-10T07:25:42.000Z</time>
      </trkpt>
      <trkpt lat="45.98824" lon="-0.52301">
        <ele>52.88289642334</ele>
        <time>2014-08-10T07:25:44.000Z</time>
      </trkpt>
      <trkpt lat="45.98815" lon="-0.52305">
        <ele>52.904167175293</ele>
        <time>2014-08-10T07:25:47.000Z</time>
      </trkpt>
      <trkpt lat="45.98806" lon="-0.52309">
        <ele>52.890239715576</ele>
        <time>2014-08-10T07:25:50.000Z</time>
      </trkpt>
      <trkpt lat="45.98792" lon="-0.52314">
        <ele>52.829978942871</ele>
        <time>2014-08-10T07:25:53.000Z</time>
      </trkpt>
      <trkpt lat="45.98786" lon="-0.5232">
        <ele>52.738536834717</ele>
        <time>2014-08-10T07:25:55.000Z</time>
      </trkpt>
      <trkpt lat="45.98785" lon="-0.52328">
        <ele>52.64444732666</ele>
        <time>2014-08-10T07:25:57.000Z</time>
      </trkpt>
      <trkpt lat="45.98788" lon="-0.52345">
        <ele>52.579578399658</ele>
        <time>2014-08-10T07:26:00.000Z</time>
      </trkpt>
      <trkpt lat="45.98789" lon="-0.52355">
        <ele>52.547302246094</ele>
        <time>2014-08-10T07:26:02.000Z</time>
      </trkpt>
      <trkpt lat="45.98793" lon="-0.52371">
        <ele>52.571483612061</ele>
        <time>2014-08-10T07:26:05.000Z</time>
      </trkpt>
      <trkpt lat="45.98795" lon="-0.52381">
        <ele>52.62718963623</ele>
        <time>2014-08-10T07:26:07.000Z</time>
      </trkpt>
      <trkpt lat="45.98798" lon="-0.52395">
        <ele>52.712768554688</ele>
        <time>2014-08-10T07:26:10.000Z</time>
      </trkpt>
      <trkpt lat="45.988" lon="-0.52404">
        <ele>52.794273376465</ele>
        <time>2014-08-10T07:26:12.000Z</time>
      </trkpt>
      <trkpt lat="45.98803" lon="-0.52418">
        <ele>52.876586914062</ele>
        <time>2014-08-10T07:26:15.000Z</time>
      </trkpt>
      <trkpt lat="45.98808" lon="-0.52432">
        <ele>52.96573638916</ele>
        <time>2014-08-10T07:26:18.000Z</time>
      </trkpt>
      <trkpt lat="45.98812" lon="-0.5244">
        <ele>53.062561035156</ele>
        <time>2014-08-10T07:26:20.000Z</time>
      </trkpt>
      <trkpt lat="45.98819" lon="-0.52452">
        <ele>53.168983459473</ele>
        <time>2014-08-10T07:26:23.000Z</time>
      </trkpt>
      <trkpt lat="45.98824" lon="-0.5246">
        <ele>53.284656524658</ele>
        <time>2014-08-10T07:26:25.000Z</time>
      </trkpt>
      <trkpt lat="45.98829" lon="-0.52468">
        <ele>53.403343200684</ele>
        <time>2014-08-10T07:26:27.000Z</time>
      </trkpt>
      <trkpt lat="45.98837" lon="-0.52479">
        <ele>53.484840393066</ele>
        <time>2014-08-10T07:26:30.000Z</time>
      </trkpt>
      <trkpt lat="45.98843" lon="-0.52487">
        <ele>53.513050079346</ele>
        <time>2014-08-10T07:26:32.000Z</time>
      </trkpt>
      <trkpt lat="45.98854" lon="-0.52503">
        <ele>53.423686981201</ele>
        <time>2014-08-10T07:26:35.000Z</time>
      </trkpt>
      <trkpt lat="45.98864" lon="-0.52519">
        <ele>53.193389892578</ele>
        <time>2014-08-10T07:26:38.000Z</time>
      </trkpt>
      <trkpt lat="45.98871" lon="-0.5253">
        <ele>52.867835998535</ele>
        <time>2014-08-10T07:26:40.000Z</time>
      </trkpt>
      <trkpt lat="45.98878" lon="-0.52542">
        <ele>52.473400115967</ele>
        <time>2014-08-10T07:26:42.000Z</time>
      </trkpt>
      <trkpt lat="45.9889" lon="-0.52559">
        <ele>52.002540588379</ele>
        <time>2014-08-10T07:26:45.000Z</time>
      </trkpt>
      <trkpt lat="45.98899" lon="-0.5257">
        <ele>51.545276641846</ele>
        <time>2014-08-10T07:26:47.000Z</time>
      </trkpt>
      <trkpt lat="45.98909" lon="-0.52579">
        <ele>51.127338409424</ele>
        <time>2014-08-10T07:26:49.000Z</time>
      </trkpt>
      <trkpt lat="45.9892" lon="-0.52589">
        <ele>50.693408966064</ele>
        <time>2014-08-10T07:26:51.000Z</time>
      </trkpt>
      <trkpt lat="45.98937" lon="-0.52604">
        <ele>50.176441192627</ele>
        <time>2014-08-10T07:26:54.000Z</time>
      </trkpt>
      <trkpt lat="45.98955" lon="-0.52619">
        <ele>49.602363586426</ele>
        <time>2014-08-10T07:26:57.000Z</time>
      </trkpt>
      <trkpt lat="45.98974" lon="-0.52637">
        <ele>48.925811767578</ele>
        <time>2014-08-10T07:27:00.000Z</time>
      </trkpt>
      <trkpt lat="45.98994" lon="-0.52654">
        <ele>48.13988494873</ele>
        <time>2014-08-10T07:27:03.000Z</time>
      </trkpt>
      <trkpt lat="45.99007" lon="-0.52666">
        <ele>47.359519958496</ele>
        <time>2014-08-10T07:27:05.000Z</time>
      </trkpt>
      <trkpt lat="45.99025" lon="-0.52681">
        <ele>46.737403869629</ele>
        <time>2014-08-10T07:27:08.000Z</time>
      </trkpt>
      <trkpt lat="45.9904" lon="-0.52699">
        <ele>46.317268371582</ele>
        <time>2014-08-10T07:27:11.000Z</time>
      </trkpt>
      <trkpt lat="45.99047" lon="-0.52725">
        <ele>46.160606384277</ele>
        <time>2014-08-10T07:27:14.000Z</time>
      </trkpt>
      <trkpt lat="45.99054" lon="-0.52748">
        <ele>46.284248352051</ele>
        <time>2014-08-10T07:27:17.000Z</time>
      </trkpt>
      <trkpt lat="45.99061" lon="-0.52769">
        <ele>46.57935333252</ele>
        <time>2014-08-10T07:27:20.000Z</time>
      </trkpt>
      <trkpt lat="45.99065" lon="-0.52782">
        <ele>46.931667327881</ele>
        <time>2014-08-10T07:27:22.000Z</time>
      </trkpt>
      <trkpt lat="45.99071" lon="-0.528">
        <ele>47.335487365723</ele>
        <time>2014-08-10T07:27:25.000Z</time>
      </trkpt>
      <trkpt lat="45.99075" lon="-0.52813">
        <ele>47.71724319458</ele>
        <time>2014-08-10T07:27:27.000Z</time>
      </trkpt>
      <trkpt lat="45.9908" lon="-0.5283">
        <ele>48.101165771484</ele>
        <time>2014-08-10T07:27:30.000Z</time>
      </trkpt>
      <trkpt lat="45.99086" lon="-0.52848">
        <ele>48.488990783691</ele>
        <time>2014-08-10T07:27:33.000Z</time>
      </trkpt>
      <trkpt lat="45.99091" lon="-0.52866">
        <ele>48.884075164795</ele>
        <time>2014-08-10T07:27:36.000Z</time>
      </trkpt>
      <trkpt lat="45.99096" lon="-0.52881">
        <ele>49.242835998535</ele>
        <time>2014-08-10T07:27:39.000Z</time>
      </trkpt>
      <trkpt lat="45.991" lon="-0.52897">
        <ele>49.589500427246</ele>
        <time>2014-08-10T07:27:42.000Z</time>
      </trkpt>
      <trkpt lat="45.99104" lon="-0.52907">
        <ele>49.875305175781</ele>
        <time>2014-08-10T07:27:44.000Z</time>
      </trkpt>
      <trkpt lat="45.99109" lon="-0.52924">
        <ele>50.123973846436</ele>
        <time>2014-08-10T07:27:47.000Z</time>
      </trkpt>
      <trkpt lat="45.99112" lon="-0.52935">
        <ele>50.34351348877</ele>
        <time>2014-08-10T07:27:49.000Z</time>
      </trkpt>
      <trkpt lat="45.99114" lon="-0.52954">
        <ele>50.592655181885</ele>
        <time>2014-08-10T07:27:52.000Z</time>
      </trkpt>
      <trkpt lat="45.99121" lon="-0.52963">
        <ele>50.804237365723</ele>
        <time>2014-08-10T07:27:54.000Z</time>
      </trkpt>
      <trkpt lat="45.99125" lon="-0.52979">
        <ele>51.039703369141</ele>
        <time>2014-08-10T07:27:57.000Z</time>
      </trkpt>
      <trkpt lat="45.99129" lon="-0.5299">
        <ele>51.257446289062</ele>
        <time>2014-08-10T07:27:59.000Z</time>
      </trkpt>
      <trkpt lat="45.99132" lon="-0.53">
        <ele>51.474254608154</ele>
        <time>2014-08-10T07:28:01.000Z</time>
      </trkpt>
      <trkpt lat="45.99137" lon="-0.53016">
        <ele>51.611316680908</ele>
        <time>2014-08-10T07:28:04.000Z</time>
      </trkpt>
      <trkpt lat="45.99141" lon="-0.53031">
        <ele>51.740562438965</ele>
        <time>2014-08-10T07:28:07.000Z</time>
      </trkpt>
      <trkpt lat="45.99141" lon="-0.53051">
        <ele>51.850364685059</ele>
        <time>2014-08-10T07:28:10.000Z</time>
      </trkpt>
      <trkpt lat="45.99144" lon="-0.53062">
        <ele>51.935127258301</ele>
        <time>2014-08-10T07:28:12.000Z</time>
      </trkpt>
      <trkpt lat="45.99147" lon="-0.53072">
        <ele>51.99340057373</ele>
        <time>2014-08-10T07:28:14.000Z</time>
      </trkpt>
      <trkpt lat="45.99152" lon="-0.53088">
        <ele>52.067790985107</ele>
        <time>2014-08-10T07:28:17.000Z</time>
      </trkpt>
      <trkpt lat="45.99156" lon="-0.53099">
        <ele>52.153491973877</ele>
        <time>2014-08-10T07:28:19.000Z</time>
      </trkpt>
      <trkpt lat="45.99159" lon="-0.53111">
        <ele>52.222602844238</ele>
        <time>2014-08-10T07:28:21.000Z</time>
      </trkpt>
      <trkpt lat="45.99164" lon="-0.53127">
        <ele>52.314525604248</ele>
        <time>2014-08-10T07:28:24.000Z</time>
      </trkpt>
      <trkpt lat="45.99168" lon="-0.53139">
        <ele>52.414741516113</ele>
        <time>2014-08-10T07:28:26.000Z</time>
      </trkpt>
      <trkpt lat="45.99171" lon="-0.5315">
        <ele>52.497142791748</ele>
        <time>2014-08-10T07:28:28.000Z</time>
      </trkpt>
      <trkpt lat="45.99176" lon="-0.53167">
        <ele>52.568370819092</ele>
        <time>2014-08-10T07:28:31.000Z</time>
      </trkpt>
      <trkpt lat="45.99182" lon="-0.53183">
        <ele>52.648094177246</ele>
        <time>2014-08-10T07:28:34.000Z</time>
      </trkpt>
      <trkpt lat="45.99185" lon="-0.53194">
        <ele>52.706573486328</ele>
        <time>2014-08-10T07:28:36.000Z</time>
      </trkpt>
      <trkpt lat="45.99188" lon="-0.53204">
        <ele>52.758964538574</ele>
        <time>2014-08-10T07:28:38.000Z</time>
      </trkpt>
      <trkpt lat="45.99192" lon="-0.53219">
        <ele>52.823829650879</ele>
        <time>2014-08-10T07:28:41.000Z</time>
      </trkpt>
      <trkpt lat="45.99195" lon="-0.5323">
        <ele>52.882629394531</ele>
        <time>2014-08-10T07:28:43.000Z</time>
      </trkpt>
      <trkpt lat="45.99199" lon="-0.5324">
        <ele>52.910442352295</ele>
        <time>2014-08-10T07:28:45.000Z</time>
      </trkpt>
      <trkpt lat="45.99204" lon="-0.53256">
        <ele>52.87703704834</ele>
        <time>2014-08-10T07:28:48.000Z</time>
      </trkpt>
      <trkpt lat="45.99207" lon="-0.53267">
        <ele>52.754516601562</ele>
        <time>2014-08-10T07:28:50.000Z</time>
      </trkpt>
      <trkpt lat="45.99212" lon="-0.53282">
        <ele>52.509582519531</ele>
        <time>2014-08-10T07:28:53.000Z</time>
      </trkpt>
      <trkpt lat="45.99222" lon="-0.53294">
        <ele>52.116271972656</ele>
        <time>2014-08-10T07:28:56.000Z</time>
      </trkpt>
      <trkpt lat="45.99225" lon="-0.53304">
        <ele>51.663513183594</ele>
        <time>2014-08-10T07:28:58.000Z</time>
      </trkpt>
      <trkpt lat="45.99228" lon="-0.53315">
        <ele>51.194553375244</ele>
        <time>2014-08-10T07:29:01.000Z</time>
      </trkpt>
      <trkpt lat="45.99229" lon="-0.53319">
        <ele>50.77827835083</ele>
        <time>2014-08-10T07:29:04.000Z</time>
      </trkpt>
      <trkpt lat="45.9924" lon="-0.53312">
        <ele>50.382808685303</ele>
        <time>2014-08-10T07:33:12.000Z</time>
      </trkpt>
      <trkpt lat="45.99246" lon="-0.53306">
        <ele>50.093677520752</ele>
        <time>2014-08-10T07:33:14.000Z</time>
      </trkpt>
      <trkpt lat="45.9925" lon="-0.53302">
        <ele>49.837608337402</ele>
        <time>2014-08-10T07:33:16.000Z</time>
      </trkpt>
      <trkpt lat="45.99252" lon="-0.533">
        <ele>49.641525268555</ele>
        <time>2014-08-10T07:33:18.000Z</time>
      </trkpt>
      <trkpt lat="45.99251" lon="-0.53301">
        <ele>49.474529266357</ele>
        <time>2014-08-10T07:33:21.000Z</time>
      </trkpt>
      <trkpt lat="45.99249" lon="-0.53307">
        <ele>49.399284362793</ele>
        <time>2014-08-10T07:33:23.000Z</time>
      </trkpt>
      <trkpt lat="45.99245" lon="-0.53312">
        <ele>49.392372131348</ele>
        <time>2014-08-10T07:33:25.000Z</time>
      </trkpt>
      <trkpt lat="45.99233" lon="-0.5332">
        <ele>49.51309967041</ele>
        <time>2014-08-10T07:33:28.000Z</time>
      </trkpt>
      <trkpt lat="45.99231" lon="-0.53323">
        <ele>49.661659240723</ele>
        <time>2014-08-10T07:33:31.000Z</time>
      </trkpt>
      <trkpt lat="45.99207" lon="-0.5335">
        <ele>50.005752563477</ele>
        <time>2014-08-10T07:33:36.000Z</time>
      </trkpt>
      <trkpt lat="45.992" lon="-0.53357">
        <ele>50.40665435791</ele>
        <time>2014-08-10T07:33:38.000Z</time>
      </trkpt>
      <trkpt lat="45.99195" lon="-0.53367">
        <ele>50.829399108887</ele>
        <time>2014-08-10T07:33:40.000Z</time>
      </trkpt>
      <trkpt lat="45.99189" lon="-0.53373">
        <ele>51.217945098877</ele>
        <time>2014-08-10T07:33:42.000Z</time>
      </trkpt>
      <trkpt lat="45.99179" lon="-0.53382">
        <ele>51.68359375</ele>
        <time>2014-08-10T07:33:45.000Z</time>
      </trkpt>
      <trkpt lat="45.99168" lon="-0.53393">
        <ele>52.05078125</ele>
        <time>2014-08-10T07:33:48.000Z</time>
      </trkpt>
      <trkpt lat="45.99152" lon="-0.534">
        <ele>52.470775604248</ele>
        <time>2014-08-10T07:33:51.000Z</time>
      </trkpt>
      <trkpt lat="45.99143" lon="-0.53407">
        <ele>52.911689758301</ele>
        <time>2014-08-10T07:33:53.000Z</time>
      </trkpt>
      <trkpt lat="45.99131" lon="-0.53417">
        <ele>53.386901855469</ele>
        <time>2014-08-10T07:33:56.000Z</time>
      </trkpt>
      <trkpt lat="45.99122" lon="-0.53424">
        <ele>53.817237854004</ele>
        <time>2014-08-10T07:33:58.000Z</time>
      </trkpt>
      <trkpt lat="45.99114" lon="-0.5343">
        <ele>54.193634033203</ele>
        <time>2014-08-10T07:34:00.000Z</time>
      </trkpt>
      <trkpt lat="45.99106" lon="-0.53436">
        <ele>54.503406524658</ele>
        <time>2014-08-10T07:34:02.000Z</time>
      </trkpt>
      <trkpt lat="45.99094" lon="-0.53445">
        <ele>54.804706573486</ele>
        <time>2014-08-10T07:34:05.000Z</time>
      </trkpt>
      <trkpt lat="45.99082" lon="-0.53457">
        <ele>55.053173065186</ele>
        <time>2014-08-10T07:34:08.000Z</time>
      </trkpt>
      <trkpt lat="45.99073" lon="-0.53462">
        <ele>55.277454376221</ele>
        <time>2014-08-10T07:34:10.000Z</time>
      </trkpt>
      <trkpt lat="45.99067" lon="-0.53467">
        <ele>55.476726531982</ele>
        <time>2014-08-10T07:34:12.000Z</time>
      </trkpt>
      <trkpt lat="45.99057" lon="-0.53472">
        <ele>55.665954589844</ele>
        <time>2014-08-10T07:34:15.000Z</time>
      </trkpt>
      <trkpt lat="45.99048" lon="-0.53483">
        <ele>55.811401367188</ele>
        <time>2014-08-10T07:34:18.000Z</time>
      </trkpt>
      <trkpt lat="45.99042" lon="-0.53488">
        <ele>55.931121826172</ele>
        <time>2014-08-10T07:34:20.000Z</time>
      </trkpt>
      <trkpt lat="45.99031" lon="-0.53496">
        <ele>56.050720214844</ele>
        <time>2014-08-10T07:34:23.000Z</time>
      </trkpt>
      <trkpt lat="45.99024" lon="-0.53502">
        <ele>56.169322967529</ele>
        <time>2014-08-10T07:34:25.000Z</time>
      </trkpt>
      <trkpt lat="45.99013" lon="-0.5351">
        <ele>56.287292480469</ele>
        <time>2014-08-10T07:34:28.000Z</time>
      </trkpt>
      <trkpt lat="45.99006" lon="-0.53515">
        <ele>56.414733886719</ele>
        <time>2014-08-10T07:34:30.000Z</time>
      </trkpt>
      <trkpt lat="45.98994" lon="-0.53522">
        <ele>56.584999084473</ele>
        <time>2014-08-10T07:34:33.000Z</time>
      </trkpt>
      <trkpt lat="45.98988" lon="-0.53532">
        <ele>56.762168884277</ele>
        <time>2014-08-10T07:34:35.000Z</time>
      </trkpt>
      <trkpt lat="45.98979" lon="-0.53532">
        <ele>57.010459899902</ele>
        <time>2014-08-10T07:34:37.000Z</time>
      </trkpt>
      <trkpt lat="45.98971" lon="-0.53537">
        <ele>57.28279876709</ele>
        <time>2014-08-10T07:34:39.000Z</time>
      </trkpt>
      <trkpt lat="45.9896" lon="-0.53545">
        <ele>57.624134063721</ele>
        <time>2014-08-10T07:34:42.000Z</time>
      </trkpt>
      <trkpt lat="45.98952" lon="-0.53549">
        <ele>57.970081329346</ele>
        <time>2014-08-10T07:34:44.000Z</time>
      </trkpt>
      <trkpt lat="45.9894" lon="-0.53557">
        <ele>58.370086669922</ele>
        <time>2014-08-10T07:34:47.000Z</time>
      </trkpt>
      <trkpt lat="45.98928" lon="-0.53562">
        <ele>58.787261962891</ele>
        <time>2014-08-10T07:34:50.000Z</time>
      </trkpt>
      <trkpt lat="45.9892" lon="-0.53567">
        <ele>59.205261230469</ele>
        <time>2014-08-10T07:34:52.000Z</time>
      </trkpt>
      <trkpt lat="45.98913" lon="-0.53571">
        <ele>59.581726074219</ele>
        <time>2014-08-10T07:34:54.000Z</time>
      </trkpt>
      <trkpt lat="45.98906" lon="-0.53576">
        <ele>59.931163787842</ele>
        <time>2014-08-10T07:34:56.000Z</time>
      </trkpt>
      <trkpt lat="45.98895" lon="-0.53583">
        <ele>60.25142288208</ele>
        <time>2014-08-10T07:34:59.000Z</time>
      </trkpt>
      <trkpt lat="45.98886" lon="-0.53592">
        <ele>60.471435546875</ele>
        <time>2014-08-10T07:35:02.000Z</time>
      </trkpt>
      <trkpt lat="45.98878" lon="-0.53596">
        <ele>60.664215087891</ele>
        <time>2014-08-10T07:35:04.000Z</time>
      </trkpt>
      <trkpt lat="45.98872" lon="-0.53601">
        <ele>60.826335906982</ele>
        <time>2014-08-10T07:35:06.000Z</time>
      </trkpt>
      <trkpt lat="45.9886" lon="-0.53609">
        <ele>60.997581481934</ele>
        <time>2014-08-10T07:35:09.000Z</time>
      </trkpt>
      <trkpt lat="45.98853" lon="-0.53613">
        <ele>61.142333984375</ele>
        <time>2014-08-10T07:35:11.000Z</time>
      </trkpt>
      <trkpt lat="45.98842" lon="-0.5362">
        <ele>61.329151153564</ele>
        <time>2014-08-10T07:35:14.000Z</time>
      </trkpt>
      <trkpt lat="45.98836" lon="-0.53624">
        <ele>61.515083312988</ele>
        <time>2014-08-10T07:35:16.000Z</time>
      </trkpt>
      <trkpt lat="45.98829" lon="-0.53629">
        <ele>61.712230682373</ele>
        <time>2014-08-10T07:35:18.000Z</time>
      </trkpt>
      <trkpt lat="45.98818" lon="-0.53635">
        <ele>61.915428161621</ele>
        <time>2014-08-10T07:35:21.000Z</time>
      </trkpt>
      <trkpt lat="45.98809" lon="-0.53641">
        <ele>62.141021728516</ele>
        <time>2014-08-10T07:35:24.000Z</time>
      </trkpt>
      <trkpt lat="45.98809" lon="-0.5365">
        <ele>62.283760070801</ele>
        <time>2014-08-10T07:35:26.000Z</time>
      </trkpt>
      <trkpt lat="45.98814" lon="-0.53657">
        <ele>62.325328826904</ele>
        <time>2014-08-10T07:35:29.000Z</time>
      </trkpt>
      <trkpt lat="45.98823" lon="-0.53658">
        <ele>62.247406005859</ele>
        <time>2014-08-10T07:35:32.000Z</time>
      </trkpt>
      <trkpt lat="45.98835" lon="-0.53658">
        <ele>62.006858825684</ele>
        <time>2014-08-10T07:35:35.000Z</time>
      </trkpt>
      <trkpt lat="45.98848" lon="-0.5366">
        <ele>61.581592559814</ele>
        <time>2014-08-10T07:35:38.000Z</time>
      </trkpt>
      <trkpt lat="45.98866" lon="-0.5366">
        <ele>61.018177032471</ele>
        <time>2014-08-10T07:35:41.000Z</time>
      </trkpt>
      <trkpt lat="45.98879" lon="-0.53661">
        <ele>60.389610290527</ele>
        <time>2014-08-10T07:35:44.000Z</time>
      </trkpt>
      <trkpt lat="45.98891" lon="-0.53662">
        <ele>59.724189758301</ele>
        <time>2014-08-10T07:35:47.000Z</time>
      </trkpt>
      <trkpt lat="45.98903" lon="-0.53662">
        <ele>59.062217712402</ele>
        <time>2014-08-10T07:35:49.000Z</time>
      </trkpt>
      <trkpt lat="45.98912" lon="-0.53662">
        <ele>58.437854766846</ele>
        <time>2014-08-10T07:35:51.000Z</time>
      </trkpt>
      <trkpt lat="45.98924" lon="-0.53663">
        <ele>57.914894104004</ele>
        <time>2014-08-10T07:35:53.000Z</time>
      </trkpt>
      <trkpt lat="45.98944" lon="-0.53664">
        <ele>57.466430664062</ele>
        <time>2014-08-10T07:35:56.000Z</time>
      </trkpt>
      <trkpt lat="45.98962" lon="-0.53666">
        <ele>57.087593078613</ele>
        <time>2014-08-10T07:35:59.000Z</time>
      </trkpt>
      <trkpt lat="45.98972" lon="-0.53667">
        <ele>56.788475036621</ele>
        <time>2014-08-10T07:36:01.000Z</time>
      </trkpt>
      <trkpt lat="45.98992" lon="-0.53668">
        <ele>56.539733886719</ele>
        <time>2014-08-10T07:36:04.000Z</time>
      </trkpt>
      <trkpt lat="45.99007" lon="-0.5367">
        <ele>56.361988067627</ele>
        <time>2014-08-10T07:36:06.000Z</time>
      </trkpt>
      <trkpt lat="45.99026" lon="-0.53671">
        <ele>56.2958984375</ele>
        <time>2014-08-10T07:36:09.000Z</time>
      </trkpt>
      <trkpt lat="45.99044" lon="-0.53673">
        <ele>56.331565856934</ele>
        <time>2014-08-10T07:36:12.000Z</time>
      </trkpt>
      <trkpt lat="45.99057" lon="-0.53674">
        <ele>56.423278808594</ele>
        <time>2014-08-10T07:36:14.000Z</time>
      </trkpt>
      <trkpt lat="45.99076" lon="-0.53675">
        <ele>56.601734161377</ele>
        <time>2014-08-10T07:36:17.000Z</time>
      </trkpt>
      <trkpt lat="45.99086" lon="-0.53676">
        <ele>56.788318634033</ele>
        <time>2014-08-10T07:36:19.000Z</time>
      </trkpt>
      <trkpt lat="45.99104" lon="-0.53678">
        <ele>56.883850097656</ele>
        <time>2014-08-10T07:36:22.000Z</time>
      </trkpt>
      <trkpt lat="45.99121" lon="-0.53679">
        <ele>56.893745422363</ele>
        <time>2014-08-10T07:36:25.000Z</time>
      </trkpt>
      <trkpt lat="45.9914" lon="-0.53681">
        <ele>56.832939147949</ele>
        <time>2014-08-10T07:36:28.000Z</time>
      </trkpt>
      <trkpt lat="45.9915" lon="-0.53682">
        <ele>56.702819824219</ele>
        <time>2014-08-10T07:36:30.000Z</time>
      </trkpt>
      <trkpt lat="45.99163" lon="-0.53683">
        <ele>56.533905029297</ele>
        <time>2014-08-10T07:36:32.000Z</time>
      </trkpt>
      <trkpt lat="45.99181" lon="-0.53684">
        <ele>56.373420715332</ele>
        <time>2014-08-10T07:36:35.000Z</time>
      </trkpt>
      <trkpt lat="45.99201" lon="-0.53683">
        <ele>56.207557678223</ele>
        <time>2014-08-10T07:36:38.000Z</time>
      </trkpt>
      <trkpt lat="45.9922" lon="-0.53688">
        <ele>56.065055847168</ele>
        <time>2014-08-10T07:36:41.000Z</time>
      </trkpt>
      <trkpt lat="45.99239" lon="-0.53689">
        <ele>55.919593811035</ele>
        <time>2014-08-10T07:36:44.000Z</time>
      </trkpt>
      <trkpt lat="45.99256" lon="-0.53692">
        <ele>55.762828826904</ele>
        <time>2014-08-10T07:36:47.000Z</time>
      </trkpt>
      <trkpt lat="45.99268" lon="-0.53693">
        <ele>55.588695526123</ele>
        <time>2014-08-10T07:36:49.000Z</time>
      </trkpt>
      <trkpt lat="45.99281" lon="-0.53695">
        <ele>55.405059814453</ele>
        <time>2014-08-10T07:36:51.000Z</time>
      </trkpt>
      <trkpt lat="45.99299" lon="-0.53698">
        <ele>55.163440704346</ele>
        <time>2014-08-10T07:36:54.000Z</time>
      </trkpt>
      <trkpt lat="45.99317" lon="-0.53701">
        <ele>54.874053955078</ele>
        <time>2014-08-10T07:36:57.000Z</time>
      </trkpt>
      <trkpt lat="45.99329" lon="-0.53702">
        <ele>54.577392578125</ele>
        <time>2014-08-10T07:36:59.000Z</time>
      </trkpt>
      <trkpt lat="45.9934" lon="-0.53704">
        <ele>54.302562713623</ele>
        <time>2014-08-10T07:37:01.000Z</time>
      </trkpt>
      <trkpt lat="45.99352" lon="-0.53706">
        <ele>54.061656951904</ele>
        <time>2014-08-10T07:37:03.000Z</time>
      </trkpt>
      <trkpt lat="45.99369" lon="-0.53709">
        <ele>53.863670349121</ele>
        <time>2014-08-10T07:37:06.000Z</time>
      </trkpt>
      <trkpt lat="45.99383" lon="-0.53711">
        <ele>53.709949493408</ele>
        <time>2014-08-10T07:37:08.000Z</time>
      </trkpt>
      <trkpt lat="45.99404" lon="-0.53714">
        <ele>53.550708770752</ele>
        <time>2014-08-10T07:37:11.000Z</time>
      </trkpt>
      <trkpt lat="45.99422" lon="-0.53716">
        <ele>53.347373962402</ele>
        <time>2014-08-10T07:37:14.000Z</time>
      </trkpt>
      <trkpt lat="45.99435" lon="-0.53718">
        <ele>53.083168029785</ele>
        <time>2014-08-10T07:37:16.000Z</time>
      </trkpt>
      <trkpt lat="45.99448" lon="-0.5372">
        <ele>52.770225524902</ele>
        <time>2014-08-10T07:37:18.000Z</time>
      </trkpt>
      <trkpt lat="45.99466" lon="-0.53722">
        <ele>52.367614746094</ele>
        <time>2014-08-10T07:37:21.000Z</time>
      </trkpt>
      <trkpt lat="45.99478" lon="-0.53724">
        <ele>51.938488006592</ele>
        <time>2014-08-10T07:37:23.000Z</time>
      </trkpt>
      <trkpt lat="45.99489" lon="-0.53725">
        <ele>51.504295349121</ele>
        <time>2014-08-10T07:37:25.000Z</time>
      </trkpt>
      <trkpt lat="45.99509" lon="-0.53728">
        <ele>51.14453125</ele>
        <time>2014-08-10T07:37:28.000Z</time>
      </trkpt>
      <trkpt lat="45.99521" lon="-0.53729">
        <ele>50.965061187744</ele>
        <time>2014-08-10T07:37:30.000Z</time>
      </trkpt>
      <trkpt lat="45.99539" lon="-0.53732">
        <ele>51.061992645264</ele>
        <time>2014-08-10T07:37:33.000Z</time>
      </trkpt>
      <trkpt lat="45.99556" lon="-0.53734">
        <ele>51.381603240967</ele>
        <time>2014-08-10T07:37:36.000Z</time>
      </trkpt>
      <trkpt lat="45.99574" lon="-0.53736">
        <ele>51.934112548828</ele>
        <time>2014-08-10T07:37:39.000Z</time>
      </trkpt>
      <trkpt lat="45.9959" lon="-0.53739">
        <ele>52.675193786621</ele>
        <time>2014-08-10T07:37:42.000Z</time>
      </trkpt>
      <trkpt lat="45.99601" lon="-0.5374">
        <ele>53.470348358154</ele>
        <time>2014-08-10T07:37:44.000Z</time>
      </trkpt>
      <trkpt lat="45.99613" lon="-0.53742">
        <ele>54.292945861816</ele>
        <time>2014-08-10T07:37:47.000Z</time>
      </trkpt>
      <trkpt lat="45.99626" lon="-0.53747">
        <ele>55.167640686035</ele>
        <time>2014-08-10T07:37:50.000Z</time>
      </trkpt>
      <trkpt lat="45.99634" lon="-0.53748">
        <ele>56.004127502441</ele>
        <time>2014-08-10T07:37:52.000Z</time>
      </trkpt>
      <trkpt lat="45.99642" lon="-0.5375">
        <ele>56.788928985596</ele>
        <time>2014-08-10T07:37:54.000Z</time>
      </trkpt>
      <trkpt lat="45.99653" lon="-0.53753">
        <ele>57.580272674561</ele>
        <time>2014-08-10T07:37:57.000Z</time>
      </trkpt>
      <trkpt lat="45.99664" lon="-0.53755">
        <ele>58.33814239502</ele>
        <time>2014-08-10T07:38:00.000Z</time>
      </trkpt>
      <trkpt lat="45.99671" lon="-0.53756">
        <ele>58.982872009277</ele>
        <time>2014-08-10T07:38:02.000Z</time>
      </trkpt>
      <trkpt lat="45.99682" lon="-0.53756">
        <ele>59.612800598145</ele>
        <time>2014-08-10T07:38:05.000Z</time>
      </trkpt>
      <trkpt lat="45.99689" lon="-0.53756">
        <ele>60.182525634766</ele>
        <time>2014-08-10T07:38:07.000Z</time>
      </trkpt>
      <trkpt lat="45.997" lon="-0.53754">
        <ele>60.693828582764</ele>
        <time>2014-08-10T07:38:10.000Z</time>
      </trkpt>
      <trkpt lat="45.99707" lon="-0.53754">
        <ele>61.120594024658</ele>
        <time>2014-08-10T07:38:12.000Z</time>
      </trkpt>
      <trkpt lat="45.99717" lon="-0.53755">
        <ele>61.564502716064</ele>
        <time>2014-08-10T07:38:15.000Z</time>
      </trkpt>
      <trkpt lat="45.99728" lon="-0.53758">
        <ele>62.017372131348</ele>
        <time>2014-08-10T07:38:18.000Z</time>
      </trkpt>
      <trkpt lat="45.99738" lon="-0.5376">
        <ele>62.506645202637</ele>
        <time>2014-08-10T07:38:21.000Z</time>
      </trkpt>
      <trkpt lat="45.99749" lon="-0.53762">
        <ele>63.008800506592</ele>
        <time>2014-08-10T07:38:24.000Z</time>
      </trkpt>
      <trkpt lat="45.99756" lon="-0.53763">
        <ele>63.454833984375</ele>
        <time>2014-08-10T07:38:26.000Z</time>
      </trkpt>
      <trkpt lat="45.99767" lon="-0.53764">
        <ele>63.805553436279</ele>
        <time>2014-08-10T07:38:29.000Z</time>
      </trkpt>
      <trkpt lat="45.99774" lon="-0.53764">
        <ele>64.047439575195</ele>
        <time>2014-08-10T07:38:31.000Z</time>
      </trkpt>
      <trkpt lat="45.99782" lon="-0.53764">
        <ele>64.186279296875</ele>
        <time>2014-08-10T07:38:33.000Z</time>
      </trkpt>
      <trkpt lat="45.99793" lon="-0.53765">
        <ele>64.217506408691</ele>
        <time>2014-08-10T07:38:36.000Z</time>
      </trkpt>
      <trkpt lat="45.99805" lon="-0.53768">
        <ele>64.25431060791</ele>
        <time>2014-08-10T07:38:39.000Z</time>
      </trkpt>
      <trkpt lat="45.99817" lon="-0.5377">
        <ele>64.302017211914</ele>
        <time>2014-08-10T07:38:42.000Z</time>
      </trkpt>
      <trkpt lat="45.99829" lon="-0.53773">
        <ele>64.367477416992</ele>
        <time>2014-08-10T07:38:45.000Z</time>
      </trkpt>
      <trkpt lat="45.99837" lon="-0.53776">
        <ele>64.445045471191</ele>
        <time>2014-08-10T07:38:47.000Z</time>
      </trkpt>
      <trkpt lat="45.99849" lon="-0.53777">
        <ele>64.532943725586</ele>
        <time>2014-08-10T07:38:50.000Z</time>
      </trkpt>
      <trkpt lat="45.99857" lon="-0.53779">
        <ele>64.622230529785</ele>
        <time>2014-08-10T07:38:52.000Z</time>
      </trkpt>
      <trkpt lat="45.9987" lon="-0.53783">
        <ele>64.729637145996</ele>
        <time>2014-08-10T07:38:55.000Z</time>
      </trkpt>
      <trkpt lat="45.99882" lon="-0.53787">
        <ele>64.853790283203</ele>
        <time>2014-08-10T07:38:58.000Z</time>
      </trkpt>
      <trkpt lat="45.99895" lon="-0.53794">
        <ele>65.018890380859</ele>
        <time>2014-08-10T07:39:01.000Z</time>
      </trkpt>
      <trkpt lat="45.99904" lon="-0.53798">
        <ele>65.207847595215</ele>
        <time>2014-08-10T07:39:03.000Z</time>
      </trkpt>
      <trkpt lat="45.99913" lon="-0.53804">
        <ele>65.431289672852</ele>
        <time>2014-08-10T07:39:05.000Z</time>
      </trkpt>
      <trkpt lat="45.99928" lon="-0.53815">
        <ele>65.610900878906</ele>
        <time>2014-08-10T07:39:08.000Z</time>
      </trkpt>
      <trkpt lat="45.99942" lon="-0.53817">
        <ele>65.643814086914</ele>
        <time>2014-08-10T07:39:10.000Z</time>
      </trkpt>
      <trkpt lat="45.99953" lon="-0.53824">
        <ele>65.55647277832</ele>
        <time>2014-08-10T07:39:12.000Z</time>
      </trkpt>
      <trkpt lat="45.99966" lon="-0.53829">
        <ele>65.332092285156</ele>
        <time>2014-08-10T07:39:15.000Z</time>
      </trkpt>
      <trkpt lat="45.99986" lon="-0.5383">
        <ele>64.870750427246</ele>
        <time>2014-08-10T07:39:18.000Z</time>
      </trkpt>
      <trkpt lat="45.99998" lon="-0.53832">
        <ele>64.31282043457</ele>
        <time>2014-08-10T07:39:20.000Z</time>
      </trkpt>
      <trkpt lat="46.00018" lon="-0.53835">
        <ele>63.677299499512</ele>
        <time>2014-08-10T07:39:23.000Z</time>
      </trkpt>
      <trkpt lat="46.00031" lon="-0.53838">
        <ele>62.971160888672</ele>
        <time>2014-08-10T07:39:25.000Z</time>
      </trkpt>
      <trkpt lat="46.00045" lon="-0.5384">
        <ele>62.228065490723</ele>
        <time>2014-08-10T07:39:27.000Z</time>
      </trkpt>
      <trkpt lat="46.00069" lon="-0.53844">
        <ele>61.462352752686</ele>
        <time>2014-08-10T07:39:30.000Z</time>
      </trkpt>
      <trkpt lat="46.00085" lon="-0.53847">
        <ele>60.674835205078</ele>
        <time>2014-08-10T07:39:32.000Z</time>
      </trkpt>
      <trkpt lat="46.00107" lon="-0.53849">
        <ele>60.038116455078</ele>
        <time>2014-08-10T07:39:35.000Z</time>
      </trkpt>
      <trkpt lat="46.00119" lon="-0.5385">
        <ele>59.513572692871</ele>
        <time>2014-08-10T07:39:37.000Z</time>
      </trkpt>
      <trkpt lat="46.00127" lon="-0.53851">
        <ele>59.109630584717</ele>
        <time>2014-08-10T07:39:39.000Z</time>
      </trkpt>
      <trkpt lat="46.00135" lon="-0.53852">
        <ele>58.900157928467</ele>
        <time>2014-08-10T07:39:41.000Z</time>
      </trkpt>
      <trkpt lat="46.00147" lon="-0.53853">
        <ele>58.801013946533</ele>
        <time>2014-08-10T07:39:43.000Z</time>
      </trkpt>
      <trkpt lat="46.00165" lon="-0.53854">
        <ele>58.712364196777</ele>
        <time>2014-08-10T07:39:46.000Z</time>
      </trkpt>
      <trkpt lat="46.00183" lon="-0.53856">
        <ele>58.715782165527</ele>
        <time>2014-08-10T07:39:49.000Z</time>
      </trkpt>
      <trkpt lat="46.00193" lon="-0.53866">
        <ele>58.813579559326</ele>
        <time>2014-08-10T07:39:51.000Z</time>
      </trkpt>
      <trkpt lat="46.00204" lon="-0.53858">
        <ele>58.939136505127</ele>
        <time>2014-08-10T07:39:53.000Z</time>
      </trkpt>
      <trkpt lat="46.00223" lon="-0.5386">
        <ele>59.163818359375</ele>
        <time>2014-08-10T07:39:56.000Z</time>
      </trkpt>
      <trkpt lat="46.00225" lon="-0.53857">
        <ele>59.411914825439</ele>
        <time>2014-08-10T07:39:58.000Z</time>
      </trkpt>
      <trkpt lat="46.00225" lon="-0.53824">
        <ele>59.514427185059</ele>
        <time>2014-08-10T07:40:02.000Z</time>
      </trkpt>
      <trkpt lat="46.00225" lon="-0.53815">
        <ele>59.534729003906</ele>
        <time>2014-08-10T07:40:04.000Z</time>
      </trkpt>
      <trkpt lat="46.00225" lon="-0.53803">
        <ele>59.540550231934</ele>
        <time>2014-08-10T07:40:06.000Z</time>
      </trkpt>
      <trkpt lat="46.00238" lon="-0.53784">
        <ele>59.531127929688</ele>
        <time>2014-08-10T07:40:09.000Z</time>
      </trkpt>
      <trkpt lat="46.00253" lon="-0.53789">
        <ele>59.609077453613</ele>
        <time>2014-08-10T07:40:12.000Z</time>
      </trkpt>
      <trkpt lat="46.00267" lon="-0.53794">
        <ele>59.895080566406</ele>
        <time>2014-08-10T07:40:15.000Z</time>
      </trkpt>
      <trkpt lat="46.00276" lon="-0.53797">
        <ele>60.257530212402</ele>
        <time>2014-08-10T07:40:17.000Z</time>
      </trkpt>
      <trkpt lat="46.00289" lon="-0.53802">
        <ele>60.733421325684</ele>
        <time>2014-08-10T07:40:20.000Z</time>
      </trkpt>
      <trkpt lat="46.00298" lon="-0.53805">
        <ele>61.207847595215</ele>
        <time>2014-08-10T07:40:22.000Z</time>
      </trkpt>
      <trkpt lat="46.0031" lon="-0.53812">
        <ele>61.679481506348</ele>
        <time>2014-08-10T07:40:25.000Z</time>
      </trkpt>
      <trkpt lat="46.00319" lon="-0.53813">
        <ele>62.096160888672</ele>
        <time>2014-08-10T07:40:27.000Z</time>
      </trkpt>
      <trkpt lat="46.00333" lon="-0.5382">
        <ele>62.519176483154</ele>
        <time>2014-08-10T07:40:30.000Z</time>
      </trkpt>
      <trkpt lat="46.00348" lon="-0.53824">
        <ele>62.886833190918</ele>
        <time>2014-08-10T07:40:33.000Z</time>
      </trkpt>
      <trkpt lat="46.00359" lon="-0.53833">
        <ele>63.19393157959</ele>
        <time>2014-08-10T07:40:36.000Z</time>
      </trkpt>
      <trkpt lat="46.00373" lon="-0.53842">
        <ele>63.472686767578</ele>
        <time>2014-08-10T07:40:39.000Z</time>
      </trkpt>
      <trkpt lat="46.00381" lon="-0.53848">
        <ele>63.702861785889</ele>
        <time>2014-08-10T07:40:41.000Z</time>
      </trkpt>
      <trkpt lat="46.00394" lon="-0.53858">
        <ele>63.888134002686</ele>
        <time>2014-08-10T07:40:44.000Z</time>
      </trkpt>
      <trkpt lat="46.00409" lon="-0.53863">
        <ele>64.063339233398</ele>
        <time>2014-08-10T07:40:47.000Z</time>
      </trkpt>
      <trkpt lat="46.00422" lon="-0.53872">
        <ele>64.278884887695</ele>
        <time>2014-08-10T07:40:50.000Z</time>
      </trkpt>
      <trkpt lat="46.0043" lon="-0.53887">
        <ele>64.465110778809</ele>
        <time>2014-08-10T07:40:53.000Z</time>
      </trkpt>
      <trkpt lat="46.00437" lon="-0.53894">
        <ele>64.654800415039</ele>
        <time>2014-08-10T07:40:55.000Z</time>
      </trkpt>
      <trkpt lat="46.00443" lon="-0.53902">
        <ele>64.828514099121</ele>
        <time>2014-08-10T07:40:57.000Z</time>
      </trkpt>
      <trkpt lat="46.00452" lon="-0.53915">
        <ele>64.987838745117</ele>
        <time>2014-08-10T07:41:00.000Z</time>
      </trkpt>
      <trkpt lat="46.00463" lon="-0.53928">
        <ele>65.174118041992</ele>
        <time>2014-08-10T07:41:03.000Z</time>
      </trkpt>
      <trkpt lat="46.0047" lon="-0.53935">
        <ele>65.36686706543</ele>
        <time>2014-08-10T07:41:05.000Z</time>
      </trkpt>
      <trkpt lat="46.00481" lon="-0.53945">
        <ele>65.554122924805</ele>
        <time>2014-08-10T07:41:08.000Z</time>
      </trkpt>
      <trkpt lat="46.00489" lon="-0.53953">
        <ele>65.723777770996</ele>
        <time>2014-08-10T07:41:10.000Z</time>
      </trkpt>
      <trkpt lat="46.00503" lon="-0.53964">
        <ele>65.862197875977</ele>
        <time>2014-08-10T07:41:13.000Z</time>
      </trkpt>
      <trkpt lat="46.00512" lon="-0.53964">
        <ele>65.981391906738</ele>
        <time>2014-08-10T07:41:15.000Z</time>
      </trkpt>
      <trkpt lat="46.00526" lon="-0.53968">
        <ele>66.119842529297</ele>
        <time>2014-08-10T07:41:18.000Z</time>
      </trkpt>
      <trkpt lat="46.00538" lon="-0.5397">
        <ele>66.29216003418</ele>
        <time>2014-08-10T07:41:21.000Z</time>
      </trkpt>
      <trkpt lat="46.00548" lon="-0.53975">
        <ele>66.483688354492</ele>
        <time>2014-08-10T07:41:24.000Z</time>
      </trkpt>
      <trkpt lat="46.00554" lon="-0.53977">
        <ele>66.694198608398</ele>
        <time>2014-08-10T07:41:26.000Z</time>
      </trkpt>
      <trkpt lat="46.00565" lon="-0.53978">
        <ele>66.907028198242</ele>
        <time>2014-08-10T07:41:29.000Z</time>
      </trkpt>
      <trkpt lat="46.00573" lon="-0.53979">
        <ele>67.10319519043</ele>
        <time>2014-08-10T07:41:31.000Z</time>
      </trkpt>
      <trkpt lat="46.0058" lon="-0.5398">
        <ele>67.26830291748</ele>
        <time>2014-08-10T07:41:33.000Z</time>
      </trkpt>
      <trkpt lat="46.00587" lon="-0.53982">
        <ele>67.456565856934</ele>
        <time>2014-08-10T07:41:35.000Z</time>
      </trkpt>
      <trkpt lat="46.00594" lon="-0.53987">
        <ele>67.671234130859</ele>
        <time>2014-08-10T07:41:38.000Z</time>
      </trkpt>
      <trkpt lat="46.00598" lon="-0.5399">
        <ele>67.849220275879</ele>
        <time>2014-08-10T07:41:40.000Z</time>
      </trkpt>
      <trkpt lat="46.00605" lon="-0.53991">
        <ele>68.064079284668</ele>
        <time>2014-08-10T07:41:43.000Z</time>
      </trkpt>
      <trkpt lat="46.00612" lon="-0.53992">
        <ele>68.332412719727</ele>
        <time>2014-08-10T07:41:46.000Z</time>
      </trkpt>
      <trkpt lat="46.00619" lon="-0.53992">
        <ele>68.625762939453</ele>
        <time>2014-08-10T07:41:48.000Z</time>
      </trkpt>
      <trkpt lat="46.00628" lon="-0.53995">
        <ele>68.967872619629</ele>
        <time>2014-08-10T07:41:51.000Z</time>
      </trkpt>
      <trkpt lat="46.00635" lon="-0.53998">
        <ele>69.360679626465</ele>
        <time>2014-08-10T07:41:53.000Z</time>
      </trkpt>
      <trkpt lat="46.00642" lon="-0.54">
        <ele>69.751449584961</ele>
        <time>2014-08-10T07:41:55.000Z</time>
      </trkpt>
      <trkpt lat="46.00652" lon="-0.54006">
        <ele>70.171371459961</ele>
        <time>2014-08-10T07:41:58.000Z</time>
      </trkpt>
      <trkpt lat="46.00659" lon="-0.54008">
        <ele>70.596450805664</ele>
        <time>2014-08-10T07:42:00.000Z</time>
      </trkpt>
      <trkpt lat="46.00665" lon="-0.54009">
        <ele>70.996543884277</ele>
        <time>2014-08-10T07:42:02.000Z</time>
      </trkpt>
      <trkpt lat="46.00676" lon="-0.54012">
        <ele>71.40225982666</ele>
        <time>2014-08-10T07:42:05.000Z</time>
      </trkpt>
      <trkpt lat="46.00683" lon="-0.54014">
        <ele>71.777244567871</ele>
        <time>2014-08-10T07:42:07.000Z</time>
      </trkpt>
      <trkpt lat="46.00691" lon="-0.54015">
        <ele>72.093124389648</ele>
        <time>2014-08-10T07:42:10.000Z</time>
      </trkpt>
      <trkpt lat="46.00698" lon="-0.54011">
        <ele>72.391044616699</ele>
        <time>2014-08-10T07:42:13.000Z</time>
      </trkpt>
      <trkpt lat="46.00702" lon="-0.54007">
        <ele>72.65746307373</ele>
        <time>2014-08-10T07:42:15.000Z</time>
      </trkpt>
      <trkpt lat="46.00705" lon="-0.54001">
        <ele>72.89453125</ele>
        <time>2014-08-10T07:42:17.000Z</time>
      </trkpt>
      <trkpt lat="46.00713" lon="-0.53992">
        <ele>73.177742004395</ele>
        <time>2014-08-10T07:42:20.000Z</time>
      </trkpt>
      <trkpt lat="46.00721" lon="-0.53985">
        <ele>73.497856140137</ele>
        <time>2014-08-10T07:42:23.000Z</time>
      </trkpt>
      <trkpt lat="46.00729" lon="-0.53977">
        <ele>73.854873657227</ele>
        <time>2014-08-10T07:42:26.000Z</time>
      </trkpt>
      <trkpt lat="46.00734" lon="-0.53973">
        <ele>74.227798461914</ele>
        <time>2014-08-10T07:42:28.000Z</time>
      </trkpt>
      <trkpt lat="46.00742" lon="-0.53968">
        <ele>74.63786315918</ele>
        <time>2014-08-10T07:42:31.000Z</time>
      </trkpt>
      <trkpt lat="46.00747" lon="-0.53965">
        <ele>75.021324157715</ele>
        <time>2014-08-10T07:42:33.000Z</time>
      </trkpt>
      <trkpt lat="46.00751" lon="-0.53962">
        <ele>75.37174987793</ele>
        <time>2014-08-10T07:42:35.000Z</time>
      </trkpt>
      <trkpt lat="46.00759" lon="-0.53958">
        <ele>75.733833312988</ele>
        <time>2014-08-10T07:42:38.000Z</time>
      </trkpt>
      <trkpt lat="46.00763" lon="-0.53954">
        <ele>76.114517211914</ele>
        <time>2014-08-10T07:42:40.000Z</time>
      </trkpt>
      <trkpt lat="46.00771" lon="-0.53948">
        <ele>76.526947021484</ele>
        <time>2014-08-10T07:42:43.000Z</time>
      </trkpt>
      <trkpt lat="46.00777" lon="-0.53942">
        <ele>76.984527587891</ele>
        <time>2014-08-10T07:42:46.000Z</time>
      </trkpt>
      <trkpt lat="46.00783" lon="-0.53936">
        <ele>77.487335205078</ele>
        <time>2014-08-10T07:42:49.000Z</time>
      </trkpt>
      <trkpt lat="46.00786" lon="-0.5393">
        <ele>77.947235107422</ele>
        <time>2014-08-10T07:42:51.000Z</time>
      </trkpt>
      <trkpt lat="46.00792" lon="-0.53925">
        <ele>78.431823730469</ele>
        <time>2014-08-10T07:42:54.000Z</time>
      </trkpt>
      <trkpt lat="46.00797" lon="-0.53917">
        <ele>78.897521972656</ele>
        <time>2014-08-10T07:42:57.000Z</time>
      </trkpt>
      <trkpt lat="46.00801" lon="-0.53909">
        <ele>79.382736206055</ele>
        <time>2014-08-10T07:43:00.000Z</time>
      </trkpt>
      <trkpt lat="46.00806" lon="-0.53899">
        <ele>79.88631439209</ele>
        <time>2014-08-10T07:43:03.000Z</time>
      </trkpt>
      <trkpt lat="46.00808" lon="-0.53892">
        <ele>80.408981323242</ele>
        <time>2014-08-10T07:43:05.000Z</time>
      </trkpt>
      <trkpt lat="46.00809" lon="-0.53886">
        <ele>80.892303466797</ele>
        <time>2014-08-10T07:43:07.000Z</time>
      </trkpt>
      <trkpt lat="46.00808" lon="-0.53881">
        <ele>81.311340332031</ele>
        <time>2014-08-10T07:43:09.000Z</time>
      </trkpt>
      <trkpt lat="46.00807" lon="-0.53872">
        <ele>81.673461914062</ele>
        <time>2014-08-10T07:43:12.000Z</time>
      </trkpt>
      <trkpt lat="46.00805" lon="-0.53861">
        <ele>81.965156555176</ele>
        <time>2014-08-10T07:43:15.000Z</time>
      </trkpt>
      <trkpt lat="46.00803" lon="-0.53852">
        <ele>82.229904174805</ele>
        <time>2014-08-10T07:43:18.000Z</time>
      </trkpt>
      <trkpt lat="46.00802" lon="-0.53846">
        <ele>82.483047485352</ele>
        <time>2014-08-10T07:43:20.000Z</time>
      </trkpt>
      <trkpt lat="46.00801" lon="-0.5384">
        <ele>82.747215270996</ele>
        <time>2014-08-10T07:43:22.000Z</time>
      </trkpt>
      <trkpt lat="46.00803" lon="-0.5383">
        <ele>83.037643432617</ele>
        <time>2014-08-10T07:43:25.000Z</time>
      </trkpt>
      <trkpt lat="46.00807" lon="-0.53821">
        <ele>83.402420043945</ele>
        <time>2014-08-10T07:43:28.000Z</time>
      </trkpt>
      <trkpt lat="46.0081" lon="-0.53812">
        <ele>83.817253112793</ele>
        <time>2014-08-10T07:43:31.000Z</time>
      </trkpt>
      <trkpt lat="46.0081" lon="-0.53806">
        <ele>84.243614196777</ele>
        <time>2014-08-10T07:43:33.000Z</time>
      </trkpt>
      <trkpt lat="46.00808" lon="-0.53801">
        <ele>84.656112670898</ele>
        <time>2014-08-10T07:43:35.000Z</time>
      </trkpt>
      <trkpt lat="46.00802" lon="-0.53797">
        <ele>84.985397338867</ele>
        <time>2014-08-10T07:43:38.000Z</time>
      </trkpt>
      <trkpt lat="46.00797" lon="-0.53794">
        <ele>85.179809570312</ele>
        <time>2014-08-10T07:43:40.000Z</time>
      </trkpt>
      <trkpt lat="46.00791" lon="-0.53791">
        <ele>85.267074584961</ele>
        <time>2014-08-10T07:43:43.000Z</time>
      </trkpt>
      <trkpt lat="46.00785" lon="-0.53788">
        <ele>85.281211853027</ele>
        <time>2014-08-10T07:43:46.000Z</time>
      </trkpt>
      <trkpt lat="46.0078" lon="-0.53788">
        <ele>85.250961303711</ele>
        <time>2014-08-10T07:43:48.000Z</time>
      </trkpt>
      <trkpt lat="46.00773" lon="-0.53787">
        <ele>85.18327331543</ele>
        <time>2014-08-10T07:43:51.000Z</time>
      </trkpt>
      <trkpt lat="46.00765" lon="-0.53784">
        <ele>85.114151000977</ele>
        <time>2014-08-10T07:43:54.000Z</time>
      </trkpt>
      <trkpt lat="46.00761" lon="-0.53776">
        <ele>85.133560180664</ele>
        <time>2014-08-10T07:43:57.000Z</time>
      </trkpt>
      <trkpt lat="46.0076" lon="-0.5377">
        <ele>85.249794006348</ele>
        <time>2014-08-10T07:43:59.000Z</time>
      </trkpt>
      <trkpt lat="46.0076" lon="-0.5376">
        <ele>85.508338928223</ele>
        <time>2014-08-10T07:44:02.000Z</time>
      </trkpt>
      <trkpt lat="46.00761" lon="-0.53755">
        <ele>85.87215423584</ele>
        <time>2014-08-10T07:44:04.000Z</time>
      </trkpt>
      <trkpt lat="46.00761" lon="-0.53749">
        <ele>86.315780639648</ele>
        <time>2014-08-10T07:44:06.000Z</time>
      </trkpt>
      <trkpt lat="46.0076" lon="-0.53741">
        <ele>86.77645111084</ele>
        <time>2014-08-10T07:44:09.000Z</time>
      </trkpt>
      <trkpt lat="46.0076" lon="-0.53734">
        <ele>87.231742858887</ele>
        <time>2014-08-10T07:44:11.000Z</time>
      </trkpt>
      <trkpt lat="46.0076" lon="-0.53725">
        <ele>87.680374145508</ele>
        <time>2014-08-10T07:44:14.000Z</time>
      </trkpt>
      <trkpt lat="46.0076" lon="-0.53718">
        <ele>88.132133483887</ele>
        <time>2014-08-10T07:44:16.000Z</time>
      </trkpt>
      <trkpt lat="46.0076" lon="-0.5371">
        <ele>88.61555480957</ele>
        <time>2014-08-10T07:44:19.000Z</time>
      </trkpt>
      <trkpt lat="46.00761" lon="-0.53707">
        <ele>89.030639648438</ele>
        <time>2014-08-10T07:44:21.000Z</time>
      </trkpt>
      <trkpt lat="46.00766" lon="-0.53708">
        <ele>89.381538391113</ele>
        <time>2014-08-10T07:44:54.000Z</time>
      </trkpt>
      <trkpt lat="46.00768" lon="-0.53706">
        <ele>89.642372131348</ele>
        <time>2014-08-10T07:44:56.000Z</time>
      </trkpt>
      <trkpt lat="46.00771" lon="-0.53708">
        <ele>89.804130554199</ele>
        <time>2014-08-10T07:44:59.000Z</time>
      </trkpt>
      <trkpt lat="46.00773" lon="-0.5371">
        <ele>89.853103637695</ele>
        <time>2014-08-10T07:45:01.000Z</time>
      </trkpt>
      <trkpt lat="46.00776" lon="-0.53709">
        <ele>89.880264282227</ele>
        <time>2014-08-10T07:45:03.000Z</time>
      </trkpt>
      <trkpt lat="46.00778" lon="-0.53709">
        <ele>89.905136108398</ele>
        <time>2014-08-10T07:45:05.000Z</time>
      </trkpt>
      <trkpt lat="46.00782" lon="-0.53709">
        <ele>89.920303344727</ele>
        <time>2014-08-10T07:45:08.000Z</time>
      </trkpt>
      <trkpt lat="46.00785" lon="-0.53709">
        <ele>89.966796875</ele>
        <time>2014-08-10T07:45:10.000Z</time>
      </trkpt>
      <trkpt lat="46.00791" lon="-0.53709">
        <ele>90.043869018555</ele>
        <time>2014-08-10T07:45:12.000Z</time>
      </trkpt>
      <trkpt lat="46.00799" lon="-0.53709">
        <ele>90.134986877441</ele>
        <time>2014-08-10T07:45:15.000Z</time>
      </trkpt>
      <trkpt lat="46.00805" lon="-0.53709">
        <ele>90.235298156738</ele>
        <time>2014-08-10T07:45:17.000Z</time>
      </trkpt>
      <trkpt lat="46.00813" lon="-0.53709">
        <ele>90.341819763184</ele>
        <time>2014-08-10T07:45:20.000Z</time>
      </trkpt>
      <trkpt lat="46.00819" lon="-0.53709">
        <ele>90.458351135254</ele>
        <time>2014-08-10T07:45:22.000Z</time>
      </trkpt>
      <trkpt lat="46.00827" lon="-0.53708">
        <ele>90.604583740234</ele>
        <time>2014-08-10T07:45:25.000Z</time>
      </trkpt>
      <trkpt lat="46.00833" lon="-0.53707">
        <ele>90.753143310547</ele>
        <time>2014-08-10T07:45:27.000Z</time>
      </trkpt>
      <trkpt lat="46.00839" lon="-0.53706">
        <ele>90.926849365234</ele>
        <time>2014-08-10T07:45:29.000Z</time>
      </trkpt>
      <trkpt lat="46.00848" lon="-0.53704">
        <ele>91.15225982666</ele>
        <time>2014-08-10T07:45:32.000Z</time>
      </trkpt>
      <trkpt lat="46.00854" lon="-0.53703">
        <ele>91.404708862305</ele>
        <time>2014-08-10T07:45:34.000Z</time>
      </trkpt>
      <trkpt lat="46.0086" lon="-0.53702">
        <ele>91.665023803711</ele>
        <time>2014-08-10T07:45:36.000Z</time>
      </trkpt>
      <trkpt lat="46.00869" lon="-0.537">
        <ele>91.970687866211</ele>
        <time>2014-08-10T07:45:39.000Z</time>
      </trkpt>
      <trkpt lat="46.00875" lon="-0.53699">
        <ele>92.276161193848</ele>
        <time>2014-08-10T07:45:41.000Z</time>
      </trkpt>
      <trkpt lat="46.00883" lon="-0.53698">
        <ele>92.568557739258</ele>
        <time>2014-08-10T07:45:44.000Z</time>
      </trkpt>
      <trkpt lat="46.0089" lon="-0.53697">
        <ele>92.866775512695</ele>
        <time>2014-08-10T07:45:46.000Z</time>
      </trkpt>
      <trkpt lat="46.00896" lon="-0.53696">
        <ele>93.156883239746</ele>
        <time>2014-08-10T07:45:48.000Z</time>
      </trkpt>
      <trkpt lat="46.00905" lon="-0.53694">
        <ele>93.445190429688</ele>
        <time>2014-08-10T07:45:51.000Z</time>
      </trkpt>
      <trkpt lat="46.00915" lon="-0.53691">
        <ele>93.766731262207</ele>
        <time>2014-08-10T07:45:54.000Z</time>
      </trkpt>
      <trkpt lat="46.00924" lon="-0.5369">
        <ele>94.100463867188</ele>
        <time>2014-08-10T07:45:57.000Z</time>
      </trkpt>
      <trkpt lat="46.00932" lon="-0.53689">
        <ele>94.426551818848</ele>
        <time>2014-08-10T07:45:59.000Z</time>
      </trkpt>
      <trkpt lat="46.00938" lon="-0.53688">
        <ele>94.748069763184</ele>
        <time>2014-08-10T07:46:01.000Z</time>
      </trkpt>
      <trkpt lat="46.00945" lon="-0.53687">
        <ele>95.04761505127</ele>
        <time>2014-08-10T07:46:03.000Z</time>
      </trkpt>
      <trkpt lat="46.00951" lon="-0.53685">
        <ele>95.315071105957</ele>
        <time>2014-08-10T07:46:05.000Z</time>
      </trkpt>
      <trkpt lat="46.00962" lon="-0.53684">
        <ele>95.57869720459</ele>
        <time>2014-08-10T07:46:08.000Z</time>
      </trkpt>
      <trkpt lat="46.00969" lon="-0.53683">
        <ele>95.844017028809</ele>
        <time>2014-08-10T07:46:10.000Z</time>
      </trkpt>
      <trkpt lat="46.00979" lon="-0.53681">
        <ele>96.137107849121</ele>
        <time>2014-08-10T07:46:13.000Z</time>
      </trkpt>
      <trkpt lat="46.00985" lon="-0.5368">
        <ele>96.424980163574</ele>
        <time>2014-08-10T07:46:15.000Z</time>
      </trkpt>
      <trkpt lat="46.00992" lon="-0.53678">
        <ele>96.7177734375</ele>
        <time>2014-08-10T07:46:17.000Z</time>
      </trkpt>
      <trkpt lat="46.01003" lon="-0.53676">
        <ele>96.99609375</ele>
        <time>2014-08-10T07:46:20.000Z</time>
      </trkpt>
      <trkpt lat="46.01013" lon="-0.53674">
        <ele>97.23811340332</ele>
        <time>2014-08-10T07:46:23.000Z</time>
      </trkpt>
      <trkpt lat="46.01023" lon="-0.53673">
        <ele>97.421401977539</ele>
        <time>2014-08-10T07:46:26.000Z</time>
      </trkpt>
      <trkpt lat="46.01032" lon="-0.53671">
        <ele>97.578262329102</ele>
        <time>2014-08-10T07:46:29.000Z</time>
      </trkpt>
      <trkpt lat="46.01043" lon="-0.53669">
        <ele>97.706008911133</ele>
        <time>2014-08-10T07:46:32.000Z</time>
      </trkpt>
      <trkpt lat="46.01049" lon="-0.53668">
        <ele>97.782501220703</ele>
        <time>2014-08-10T07:46:34.000Z</time>
      </trkpt>
      <trkpt lat="46.01057" lon="-0.53666">
        <ele>97.866287231445</ele>
        <time>2014-08-10T07:46:36.000Z</time>
      </trkpt>
      <trkpt lat="46.01066" lon="-0.53663">
        <ele>97.96558380127</ele>
        <time>2014-08-10T07:46:39.000Z</time>
      </trkpt>
      <trkpt lat="46.01073" lon="-0.53663">
        <ele>98.049652099609</ele>
        <time>2014-08-10T07:46:41.000Z</time>
      </trkpt>
      <trkpt lat="46.0108" lon="-0.53662">
        <ele>98.111228942871</ele>
        <time>2014-08-10T07:46:43.000Z</time>
      </trkpt>
      <trkpt lat="46.0109" lon="-0.53661">
        <ele>98.087921142578</ele>
        <time>2014-08-10T07:46:46.000Z</time>
      </trkpt>
      <trkpt lat="46.01101" lon="-0.53659">
        <ele>97.909927368164</ele>
        <time>2014-08-10T07:46:49.000Z</time>
      </trkpt>
      <trkpt lat="46.01111" lon="-0.53656">
        <ele>97.584320068359</ele>
        <time>2014-08-10T07:46:52.000Z</time>
      </trkpt>
      <trkpt lat="46.01123" lon="-0.53653">
        <ele>97.119110107422</ele>
        <time>2014-08-10T07:46:55.000Z</time>
      </trkpt>
      <trkpt lat="46.01141" lon="-0.53651">
        <ele>96.435432434082</ele>
        <time>2014-08-10T07:46:58.000Z</time>
      </trkpt>
      <trkpt lat="46.0115" lon="-0.53647">
        <ele>95.730880737305</ele>
        <time>2014-08-10T07:47:00.000Z</time>
      </trkpt>
      <trkpt lat="46.0116" lon="-0.53645">
        <ele>95.063659667969</ele>
        <time>2014-08-10T07:47:02.000Z</time>
      </trkpt>
      <trkpt lat="46.01174" lon="-0.53642">
        <ele>94.385696411133</ele>
        <time>2014-08-10T07:47:05.000Z</time>
      </trkpt>
      <trkpt lat="46.01187" lon="-0.5364">
        <ele>93.771324157715</ele>
        <time>2014-08-10T07:47:07.000Z</time>
      </trkpt>
      <trkpt lat="46.01206" lon="-0.53636">
        <ele>93.270263671875</ele>
        <time>2014-08-10T07:47:10.000Z</time>
      </trkpt>
      <trkpt lat="46.01229" lon="-0.53632">
        <ele>92.719543457031</ele>
        <time>2014-08-10T07:47:13.000Z</time>
      </trkpt>
      <trkpt lat="46.01245" lon="-0.53629">
        <ele>92.163124084473</ele>
        <time>2014-08-10T07:47:15.000Z</time>
      </trkpt>
      <trkpt lat="46.01268" lon="-0.53627">
        <ele>91.757858276367</ele>
        <time>2014-08-10T07:47:18.000Z</time>
      </trkpt>
      <trkpt lat="46.01281" lon="-0.53626">
        <ele>91.458930969238</ele>
        <time>2014-08-10T07:47:20.000Z</time>
      </trkpt>
      <trkpt lat="46.01292" lon="-0.53625">
        <ele>91.305778503418</ele>
        <time>2014-08-10T07:47:22.000Z</time>
      </trkpt>
      <trkpt lat="46.01307" lon="-0.53621">
        <ele>91.370536804199</ele>
        <time>2014-08-10T07:47:25.000Z</time>
      </trkpt>
      <trkpt lat="46.01324" lon="-0.53616">
        <ele>91.629150390625</ele>
        <time>2014-08-10T07:47:28.000Z</time>
      </trkpt>
      <trkpt lat="46.01341" lon="-0.53612">
        <ele>91.964004516602</ele>
        <time>2014-08-10T07:47:31.000Z</time>
      </trkpt>
      <trkpt lat="46.0136" lon="-0.5361">
        <ele>92.368553161621</ele>
        <time>2014-08-10T07:47:34.000Z</time>
      </trkpt>
      <trkpt lat="46.01368" lon="-0.53608">
        <ele>92.785308837891</ele>
        <time>2014-08-10T07:47:36.000Z</time>
      </trkpt>
      <trkpt lat="46.01381" lon="-0.53604">
        <ele>93.21418762207</ele>
        <time>2014-08-10T07:47:39.000Z</time>
      </trkpt>
      <trkpt lat="46.01392" lon="-0.53601">
        <ele>93.609085083008</ele>
        <time>2014-08-10T07:47:42.000Z</time>
      </trkpt>
      <trkpt lat="46.01402" lon="-0.53597">
        <ele>93.961135864258</ele>
        <time>2014-08-10T07:47:45.000Z</time>
      </trkpt>
      <trkpt lat="46.01408" lon="-0.53596">
        <ele>94.235130310059</ele>
        <time>2014-08-10T07:47:47.000Z</time>
      </trkpt>
      <trkpt lat="46.01415" lon="-0.53595">
        <ele>94.481178283691</ele>
        <time>2014-08-10T07:47:49.000Z</time>
      </trkpt>
      <trkpt lat="46.01422" lon="-0.53594">
        <ele>94.654518127441</ele>
        <time>2014-08-10T07:47:51.000Z</time>
      </trkpt>
      <trkpt lat="46.01432" lon="-0.53593">
        <ele>94.777526855469</ele>
        <time>2014-08-10T07:47:54.000Z</time>
      </trkpt>
      <trkpt lat="46.01441" lon="-0.53591">
        <ele>94.851448059082</ele>
        <time>2014-08-10T07:47:57.000Z</time>
      </trkpt>
      <trkpt lat="46.01446" lon="-0.53591">
        <ele>94.898933410645</ele>
        <time>2014-08-10T07:47:59.000Z</time>
      </trkpt>
      <trkpt lat="46.01454" lon="-0.53588">
        <ele>94.926109313965</ele>
        <time>2014-08-10T07:48:02.000Z</time>
      </trkpt>
      <trkpt lat="46.01462" lon="-0.53587">
        <ele>94.946853637695</ele>
        <time>2014-08-10T07:48:05.000Z</time>
      </trkpt>
      <trkpt lat="46.01467" lon="-0.53586">
        <ele>94.962875366211</ele>
        <time>2014-08-10T07:48:08.000Z</time>
      </trkpt>
      <trkpt lat="46.01475" lon="-0.53585">
        <ele>94.974685668945</ele>
        <time>2014-08-10T07:48:11.000Z</time>
      </trkpt>
      <trkpt lat="46.01479" lon="-0.53584">
        <ele>94.985809326172</ele>
        <time>2014-08-10T07:48:13.000Z</time>
      </trkpt>
      <trkpt lat="46.01486" lon="-0.53582">
        <ele>94.992820739746</ele>
        <time>2014-08-10T07:48:16.000Z</time>
      </trkpt>
      <trkpt lat="46.01492" lon="-0.53582">
        <ele>94.997177124023</ele>
        <time>2014-08-10T07:48:19.000Z</time>
      </trkpt>
      <trkpt lat="46.01497" lon="-0.5358">
        <ele>94.999885559082</ele>
        <time>2014-08-10T07:48:22.000Z</time>
      </trkpt>
      <trkpt lat="46.01501" lon="-0.53577">
        <ele>95.000755310059</ele>
        <time>2014-08-10T07:48:24.000Z</time>
      </trkpt>
      <trkpt lat="46.01508" lon="-0.53575">
        <ele>94.999038696289</ele>
        <time>2014-08-10T07:48:27.000Z</time>
      </trkpt>
      <trkpt lat="46.01512" lon="-0.53573">
        <ele>94.994964599609</ele>
        <time>2014-08-10T07:48:29.000Z</time>
      </trkpt>
      <trkpt lat="46.01517" lon="-0.53572">
        <ele>94.989013671875</ele>
        <time>2014-08-10T07:48:31.000Z</time>
      </trkpt>
      <trkpt lat="46.01525" lon="-0.53571">
        <ele>94.979446411133</ele>
        <time>2014-08-10T07:48:34.000Z</time>
      </trkpt>
      <trkpt lat="46.01534" lon="-0.5357">
        <ele>94.966079711914</ele>
        <time>2014-08-10T07:48:37.000Z</time>
      </trkpt>
      <trkpt lat="46.01539" lon="-0.53569">
        <ele>94.951324462891</ele>
        <time>2014-08-10T07:48:39.000Z</time>
      </trkpt>
      <trkpt lat="46.01543" lon="-0.53568">
        <ele>94.935455322266</ele>
        <time>2014-08-10T07:48:41.000Z</time>
      </trkpt>
      <trkpt lat="46.01551" lon="-0.53566">
        <ele>94.915756225586</ele>
        <time>2014-08-10T07:48:44.000Z</time>
      </trkpt>
      <trkpt lat="46.01555" lon="-0.53565">
        <ele>94.895309448242</ele>
        <time>2014-08-10T07:48:46.000Z</time>
      </trkpt>
      <trkpt lat="46.0156" lon="-0.53564">
        <ele>94.875373840332</ele>
        <time>2014-08-10T07:48:48.000Z</time>
      </trkpt>
      <trkpt lat="46.01565" lon="-0.53563">
        <ele>94.854202270508</ele>
        <time>2014-08-10T07:48:50.000Z</time>
      </trkpt>
      <trkpt lat="46.01572" lon="-0.53563">
        <ele>94.830947875977</ele>
        <time>2014-08-10T07:48:53.000Z</time>
      </trkpt>
      <trkpt lat="46.01578" lon="-0.53563">
        <ele>94.81169128418</ele>
        <time>2014-08-10T07:48:56.000Z</time>
      </trkpt>
      <trkpt lat="46.01586" lon="-0.53562">
        <ele>94.786491394043</ele>
        <time>2014-08-10T07:48:59.000Z</time>
      </trkpt>
      <trkpt lat="46.0159" lon="-0.53566">
        <ele>94.764877319336</ele>
        <time>2014-08-10T07:49:01.000Z</time>
      </trkpt>
      <trkpt lat="46.01594" lon="-0.53573">
        <ele>94.755661010742</ele>
        <time>2014-08-10T07:49:03.000Z</time>
      </trkpt>
      <trkpt lat="46.01597" lon="-0.53585">
        <ele>94.756759643555</ele>
        <time>2014-08-10T07:49:06.000Z</time>
      </trkpt>
      <trkpt lat="46.01599" lon="-0.53597">
        <ele>94.709823608398</ele>
        <time>2014-08-10T07:49:09.000Z</time>
      </trkpt>
      <trkpt lat="46.016" lon="-0.53608">
        <ele>94.628692626953</ele>
        <time>2014-08-10T07:49:12.000Z</time>
      </trkpt>
      <trkpt lat="46.01601" lon="-0.53619">
        <ele>94.508277893066</ele>
        <time>2014-08-10T07:49:15.000Z</time>
      </trkpt>
      <trkpt lat="46.01602" lon="-0.53629">
        <ele>94.340942382812</ele>
        <time>2014-08-10T07:49:18.000Z</time>
      </trkpt>
      <trkpt lat="46.01601" lon="-0.53639">
        <ele>94.130500793457</ele>
        <time>2014-08-10T07:49:21.000Z</time>
      </trkpt>
      <trkpt lat="46.01602" lon="-0.53646">
        <ele>93.943061828613</ele>
        <time>2014-08-10T07:49:23.000Z</time>
      </trkpt>
      <trkpt lat="46.01602" lon="-0.53653">
        <ele>93.776718139648</ele>
        <time>2014-08-10T07:49:25.000Z</time>
      </trkpt>
      <trkpt lat="46.01602" lon="-0.53662">
        <ele>93.613792419434</ele>
        <time>2014-08-10T07:49:28.000Z</time>
      </trkpt>
      <trkpt lat="46.01602" lon="-0.53672">
        <ele>93.460258483887</ele>
        <time>2014-08-10T07:49:31.000Z</time>
      </trkpt>
      <trkpt lat="46.01601" lon="-0.53679">
        <ele>93.32649230957</ele>
        <time>2014-08-10T07:49:33.000Z</time>
      </trkpt>
      <trkpt lat="46.01602" lon="-0.53689">
        <ele>93.197174072266</ele>
        <time>2014-08-10T07:49:36.000Z</time>
      </trkpt>
      <trkpt lat="46.01603" lon="-0.53697">
        <ele>93.073127746582</ele>
        <time>2014-08-10T07:49:38.000Z</time>
      </trkpt>
      <trkpt lat="46.01603" lon="-0.53709">
        <ele>92.956939697266</ele>
        <time>2014-08-10T07:49:41.000Z</time>
      </trkpt>
      <trkpt lat="46.01603" lon="-0.53717">
        <ele>92.850708007812</ele>
        <time>2014-08-10T07:49:43.000Z</time>
      </trkpt>
      <trkpt lat="46.01605" lon="-0.53731">
        <ele>92.732513427734</ele>
        <time>2014-08-10T07:49:46.000Z</time>
      </trkpt>
      <trkpt lat="46.01606" lon="-0.5374">
        <ele>92.618438720703</ele>
        <time>2014-08-10T07:49:48.000Z</time>
      </trkpt>
      <trkpt lat="46.01607" lon="-0.53754">
        <ele>92.498161315918</ele>
        <time>2014-08-10T07:49:51.000Z</time>
      </trkpt>
      <trkpt lat="46.01608" lon="-0.53764">
        <ele>92.398849487305</ele>
        <time>2014-08-10T07:49:53.000Z</time>
      </trkpt>
      <trkpt lat="46.01608" lon="-0.53775">
        <ele>92.307540893555</ele>
        <time>2014-08-10T07:49:55.000Z</time>
      </trkpt>
      <trkpt lat="46.01609" lon="-0.53791">
        <ele>92.234649658203</ele>
        <time>2014-08-10T07:49:58.000Z</time>
      </trkpt>
      <trkpt lat="46.0161" lon="-0.53802">
        <ele>92.174545288086</ele>
        <time>2014-08-10T07:50:00.000Z</time>
      </trkpt>
      <trkpt lat="46.0161" lon="-0.53812">
        <ele>92.129776000977</ele>
        <time>2014-08-10T07:50:02.000Z</time>
      </trkpt>
      <trkpt lat="46.01611" lon="-0.53828">
        <ele>92.083961486816</ele>
        <time>2014-08-10T07:50:05.000Z</time>
      </trkpt>
      <trkpt lat="46.01611" lon="-0.53842">
        <ele>92.001983642578</ele>
        <time>2014-08-10T07:50:08.000Z</time>
      </trkpt>
      <trkpt lat="46.01612" lon="-0.53851">
        <ele>91.887733459473</ele>
        <time>2014-08-10T07:50:10.000Z</time>
      </trkpt>
      <trkpt lat="46.01613" lon="-0.53864">
        <ele>91.713279724121</ele>
        <time>2014-08-10T07:50:13.000Z</time>
      </trkpt>
      <trkpt lat="46.01615" lon="-0.53876">
        <ele>91.497535705566</ele>
        <time>2014-08-10T07:50:16.000Z</time>
      </trkpt>
      <trkpt lat="46.01621" lon="-0.53881">
        <ele>91.330261230469</ele>
        <time>2014-08-10T07:50:19.000Z</time>
      </trkpt>
      <trkpt lat="46.01626" lon="-0.53876">
        <ele>91.286209106445</ele>
        <time>2014-08-10T07:50:21.000Z</time>
      </trkpt>
      <trkpt lat="46.01632" lon="-0.53865">
        <ele>91.389724731445</ele>
        <time>2014-08-10T07:50:24.000Z</time>
      </trkpt>
      <trkpt lat="46.01636" lon="-0.53858">
        <ele>91.626335144043</ele>
        <time>2014-08-10T07:50:26.000Z</time>
      </trkpt>
      <trkpt lat="46.01643" lon="-0.53846">
        <ele>92.015197753906</ele>
        <time>2014-08-10T07:50:29.000Z</time>
      </trkpt>
      <trkpt lat="46.01648" lon="-0.53839">
        <ele>92.429153442383</ele>
        <time>2014-08-10T07:50:31.000Z</time>
      </trkpt>
      <trkpt lat="46.01655" lon="-0.53827">
        <ele>92.825302124023</ele>
        <time>2014-08-10T07:50:34.000Z</time>
      </trkpt>
      <trkpt lat="46.0166" lon="-0.5382">
        <ele>93.13639831543</ele>
        <time>2014-08-10T07:50:36.000Z</time>
      </trkpt>
      <trkpt lat="46.01664" lon="-0.53812">
        <ele>93.39200592041</ele>
        <time>2014-08-10T07:50:38.000Z</time>
      </trkpt>
      <trkpt lat="46.01671" lon="-0.53801">
        <ele>93.591293334961</ele>
        <time>2014-08-10T07:50:41.000Z</time>
      </trkpt>
      <trkpt lat="46.01677" lon="-0.53793">
        <ele>93.776992797852</ele>
        <time>2014-08-10T07:50:43.000Z</time>
      </trkpt>
      <trkpt lat="46.01681" lon="-0.53786">
        <ele>93.953628540039</ele>
        <time>2014-08-10T07:50:45.000Z</time>
      </trkpt>
      <trkpt lat="46.01688" lon="-0.53775">
        <ele>94.185668945312</ele>
        <time>2014-08-10T07:50:48.000Z</time>
      </trkpt>
      <trkpt lat="46.01693" lon="-0.53768">
        <ele>94.460838317871</ele>
        <time>2014-08-10T07:50:50.000Z</time>
      </trkpt>
      <trkpt lat="46.01699" lon="-0.53757">
        <ele>94.764930725098</ele>
        <time>2014-08-10T07:50:53.000Z</time>
      </trkpt>
      <trkpt lat="46.01704" lon="-0.5375">
        <ele>95.077339172363</ele>
        <time>2014-08-10T07:50:55.000Z</time>
      </trkpt>
      <trkpt lat="46.01709" lon="-0.53743">
        <ele>95.405090332031</ele>
        <time>2014-08-10T07:50:57.000Z</time>
      </trkpt>
      <trkpt lat="46.01714" lon="-0.53736">
        <ele>95.724624633789</ele>
        <time>2014-08-10T07:50:59.000Z</time>
      </trkpt>
      <trkpt lat="46.01721" lon="-0.53726">
        <ele>96.076103210449</ele>
        <time>2014-08-10T07:51:02.000Z</time>
      </trkpt>
      <trkpt lat="46.01726" lon="-0.53719">
        <ele>96.415298461914</ele>
        <time>2014-08-10T07:51:04.000Z</time>
      </trkpt>
      <trkpt lat="46.01731" lon="-0.53713">
        <ele>96.742897033691</ele>
        <time>2014-08-10T07:51:06.000Z</time>
      </trkpt>
      <trkpt lat="46.01737" lon="-0.53702">
        <ele>97.068572998047</ele>
        <time>2014-08-10T07:51:09.000Z</time>
      </trkpt>
      <trkpt lat="46.01741" lon="-0.53695">
        <ele>97.361862182617</ele>
        <time>2014-08-10T07:51:11.000Z</time>
      </trkpt>
      <trkpt lat="46.01745" lon="-0.53688">
        <ele>97.600090026855</ele>
        <time>2014-08-10T07:51:13.000Z</time>
      </trkpt>
      <trkpt lat="46.01753" lon="-0.53679">
        <ele>97.832313537598</ele>
        <time>2014-08-10T07:51:16.000Z</time>
      </trkpt>
      <trkpt lat="46.01761" lon="-0.53668">
        <ele>98.068923950195</ele>
        <time>2014-08-10T07:51:19.000Z</time>
      </trkpt>
      <trkpt lat="46.01765" lon="-0.5366">
        <ele>98.283378601074</ele>
        <time>2014-08-10T07:51:21.000Z</time>
      </trkpt>
      <trkpt lat="46.0177" lon="-0.53653">
        <ele>98.507179260254</ele>
        <time>2014-08-10T07:51:23.000Z</time>
      </trkpt>
      <trkpt lat="46.01775" lon="-0.53645">
        <ele>98.742141723633</ele>
        <time>2014-08-10T07:51:25.000Z</time>
      </trkpt>
      <trkpt lat="46.01781" lon="-0.53634">
        <ele>98.987327575684</ele>
        <time>2014-08-10T07:51:28.000Z</time>
      </trkpt>
      <trkpt lat="46.01786" lon="-0.53627">
        <ele>99.22265625</ele>
        <time>2014-08-10T07:51:30.000Z</time>
      </trkpt>
      <trkpt lat="46.01791" lon="-0.5362">
        <ele>99.46484375</ele>
        <time>2014-08-10T07:51:32.000Z</time>
      </trkpt>
      <trkpt lat="46.01797" lon="-0.53609">
        <ele>99.72265625</ele>
        <time>2014-08-10T07:51:35.000Z</time>
      </trkpt>
      <trkpt lat="46.01801" lon="-0.53602">
        <ele>99.9765625</ele>
        <time>2014-08-10T07:51:37.000Z</time>
      </trkpt>
      <trkpt lat="46.01807" lon="-0.53594">
        <ele>100.2265625</ele>
        <time>2014-08-10T07:51:40.000Z</time>
      </trkpt>
      <trkpt lat="46.01812" lon="-0.53587">
        <ele>100.4765625</ele>
        <time>2014-08-10T07:51:42.000Z</time>
      </trkpt>
      <trkpt lat="46.01817" lon="-0.53579">
        <ele>100.7205657959</ele>
        <time>2014-08-10T07:51:44.000Z</time>
      </trkpt>
      <trkpt lat="46.01824" lon="-0.5357">
        <ele>100.97463226318</ele>
        <time>2014-08-10T07:51:47.000Z</time>
      </trkpt>
      <trkpt lat="46.01829" lon="-0.53564">
        <ele>101.24173736572</ele>
        <time>2014-08-10T07:51:49.000Z</time>
      </trkpt>
      <trkpt lat="46.01837" lon="-0.53556">
        <ele>101.51471710205</ele>
        <time>2014-08-10T07:51:52.000Z</time>
      </trkpt>
      <trkpt lat="46.01842" lon="-0.53551">
        <ele>101.77723693848</ele>
        <time>2014-08-10T07:51:54.000Z</time>
      </trkpt>
      <trkpt lat="46.01851" lon="-0.53543">
        <ele>102.04832458496</ele>
        <time>2014-08-10T07:51:57.000Z</time>
      </trkpt>
      <trkpt lat="46.01859" lon="-0.53534">
        <ele>102.29331207275</ele>
        <time>2014-08-10T07:52:00.000Z</time>
      </trkpt>
      <trkpt lat="46.01865" lon="-0.53529">
        <ele>102.51442718506</ele>
        <time>2014-08-10T07:52:02.000Z</time>
      </trkpt>
      <trkpt lat="46.0187" lon="-0.53523">
        <ele>102.69132995605</ele>
        <time>2014-08-10T07:52:04.000Z</time>
      </trkpt>
      <trkpt lat="46.01878" lon="-0.53515">
        <ele>102.86546325684</ele>
        <time>2014-08-10T07:52:07.000Z</time>
      </trkpt>
      <trkpt lat="46.01883" lon="-0.53508">
        <ele>103.00986480713</ele>
        <time>2014-08-10T07:52:09.000Z</time>
      </trkpt>
      <trkpt lat="46.0189" lon="-0.53499">
        <ele>103.13132476807</ele>
        <time>2014-08-10T07:52:12.000Z</time>
      </trkpt>
      <trkpt lat="46.01897" lon="-0.53492">
        <ele>103.2386932373</ele>
        <time>2014-08-10T07:52:15.000Z</time>
      </trkpt>
      <trkpt lat="46.01904" lon="-0.53486">
        <ele>103.34162902832</ele>
        <time>2014-08-10T07:52:18.000Z</time>
      </trkpt>
      <trkpt lat="46.0191" lon="-0.53481">
        <ele>103.43005371094</ele>
        <time>2014-08-10T07:52:20.000Z</time>
      </trkpt>
      <trkpt lat="46.01914" lon="-0.53475">
        <ele>103.5068359375</ele>
        <time>2014-08-10T07:52:22.000Z</time>
      </trkpt>
      <trkpt lat="46.01919" lon="-0.5347">
        <ele>103.57664489746</ele>
        <time>2014-08-10T07:52:24.000Z</time>
      </trkpt>
      <trkpt lat="46.01922" lon="-0.53465">
        <ele>103.63531494141</ele>
        <time>2014-08-10T07:52:27.000Z</time>
      </trkpt>
      <trkpt lat="46.01925" lon="-0.53461">
        <ele>103.68202972412</ele>
        <time>2014-08-10T07:52:29.000Z</time>
      </trkpt>
      <trkpt lat="46.01928" lon="-0.53458">
        <ele>103.7174911499</ele>
        <time>2014-08-10T07:52:31.000Z</time>
      </trkpt>
      <trkpt lat="46.01933" lon="-0.53452">
        <ele>103.74687194824</ele>
        <time>2014-08-10T07:52:34.000Z</time>
      </trkpt>
      <trkpt lat="46.01939" lon="-0.53444">
        <ele>103.76169586182</ele>
        <time>2014-08-10T07:52:37.000Z</time>
      </trkpt>
      <trkpt lat="46.01943" lon="-0.5344">
        <ele>103.77541351318</ele>
        <time>2014-08-10T07:52:39.000Z</time>
      </trkpt>
      <trkpt lat="46.01949" lon="-0.53435">
        <ele>103.78019714355</ele>
        <time>2014-08-10T07:52:42.000Z</time>
      </trkpt>
      <trkpt lat="46.01952" lon="-0.5343">
        <ele>103.76756286621</ele>
        <time>2014-08-10T07:52:44.000Z</time>
      </trkpt>
      <trkpt lat="46.01957" lon="-0.53423">
        <ele>103.73359680176</ele>
        <time>2014-08-10T07:52:47.000Z</time>
      </trkpt>
      <trkpt lat="46.01963" lon="-0.53412">
        <ele>103.67338562012</ele>
        <time>2014-08-10T07:52:50.000Z</time>
      </trkpt>
      <trkpt lat="46.01968" lon="-0.53407">
        <ele>103.6063079834</ele>
        <time>2014-08-10T07:52:52.000Z</time>
      </trkpt>
      <trkpt lat="46.01974" lon="-0.53397">
        <ele>103.52742004395</ele>
        <time>2014-08-10T07:52:55.000Z</time>
      </trkpt>
      <trkpt lat="46.01979" lon="-0.53391">
        <ele>103.45896148682</ele>
        <time>2014-08-10T07:52:57.000Z</time>
      </trkpt>
      <trkpt lat="46.01984" lon="-0.53385">
        <ele>103.40586090088</ele>
        <time>2014-08-10T07:52:59.000Z</time>
      </trkpt>
      <trkpt lat="46.0199" lon="-0.53375">
        <ele>103.37477874756</ele>
        <time>2014-08-10T07:53:02.000Z</time>
      </trkpt>
      <trkpt lat="46.01996" lon="-0.53365">
        <ele>103.34727478027</ele>
        <time>2014-08-10T07:53:05.000Z</time>
      </trkpt>
      <trkpt lat="46.02" lon="-0.53357">
        <ele>103.32765197754</ele>
        <time>2014-08-10T07:53:07.000Z</time>
      </trkpt>
      <trkpt lat="46.02006" lon="-0.5335">
        <ele>103.2993927002</ele>
        <time>2014-08-10T07:53:09.000Z</time>
      </trkpt>
      <trkpt lat="46.02016" lon="-0.53341">
        <ele>103.25556945801</ele>
        <time>2014-08-10T07:53:12.000Z</time>
      </trkpt>
      <trkpt lat="46.02022" lon="-0.53334">
        <ele>103.19482421875</ele>
        <time>2014-08-10T07:53:14.000Z</time>
      </trkpt>
      <trkpt lat="46.02027" lon="-0.53326">
        <ele>103.11457824707</ele>
        <time>2014-08-10T07:53:16.000Z</time>
      </trkpt>
      <trkpt lat="46.02034" lon="-0.53312">
        <ele>102.99617004395</ele>
        <time>2014-08-10T07:53:19.000Z</time>
      </trkpt>
      <trkpt lat="46.02043" lon="-0.53301">
        <ele>102.83115386963</ele>
        <time>2014-08-10T07:53:22.000Z</time>
      </trkpt>
      <trkpt lat="46.02053" lon="-0.5329">
        <ele>102.6050567627</ele>
        <time>2014-08-10T07:53:25.000Z</time>
      </trkpt>
      <trkpt lat="46.02066" lon="-0.53274">
        <ele>102.2631072998</ele>
        <time>2014-08-10T07:53:28.000Z</time>
      </trkpt>
      <trkpt lat="46.02077" lon="-0.53258">
        <ele>101.77490997314</ele>
        <time>2014-08-10T07:53:31.000Z</time>
      </trkpt>
      <trkpt lat="46.02086" lon="-0.53239">
        <ele>101.18489074707</ele>
        <time>2014-08-10T07:53:34.000Z</time>
      </trkpt>
      <trkpt lat="46.02099" lon="-0.5323">
        <ele>100.61833953857</ele>
        <time>2014-08-10T07:53:37.000Z</time>
      </trkpt>
      <trkpt lat="46.0211" lon="-0.53222">
        <ele>100.086769104</ele>
        <time>2014-08-10T07:53:39.000Z</time>
      </trkpt>
      <trkpt lat="46.02118" lon="-0.53209">
        <ele>99.585914611816</ele>
        <time>2014-08-10T07:53:41.000Z</time>
      </trkpt>
      <trkpt lat="46.02132" lon="-0.53189">
        <ele>99.060501098633</ele>
        <time>2014-08-10T07:53:44.000Z</time>
      </trkpt>
      <trkpt lat="46.02143" lon="-0.53172">
        <ele>98.479499816895</ele>
        <time>2014-08-10T07:53:46.000Z</time>
      </trkpt>
      <trkpt lat="46.02159" lon="-0.53155">
        <ele>97.686447143555</ele>
        <time>2014-08-10T07:53:49.000Z</time>
      </trkpt>
      <trkpt lat="46.02169" lon="-0.53138">
        <ele>96.726455688477</ele>
        <time>2014-08-10T07:53:51.000Z</time>
      </trkpt>
      <trkpt lat="46.02179" lon="-0.53126">
        <ele>95.702796936035</ele>
        <time>2014-08-10T07:53:53.000Z</time>
      </trkpt>
      <trkpt lat="46.02191" lon="-0.53105">
        <ele>94.614189147949</ele>
        <time>2014-08-10T07:53:56.000Z</time>
      </trkpt>
      <trkpt lat="46.02197" lon="-0.53094">
        <ele>93.595138549805</ele>
        <time>2014-08-10T07:53:58.000Z</time>
      </trkpt>
      <trkpt lat="46.02214" lon="-0.53083">
        <ele>92.644012451172</ele>
        <time>2014-08-10T07:54:01.000Z</time>
      </trkpt>
      <trkpt lat="46.02223" lon="-0.53071">
        <ele>91.681129455566</ele>
        <time>2014-08-10T07:54:03.000Z</time>
      </trkpt>
      <trkpt lat="46.02233" lon="-0.53056">
        <ele>90.656555175781</ele>
        <time>2014-08-10T07:54:06.000Z</time>
      </trkpt>
      <trkpt lat="46.0224" lon="-0.53047">
        <ele>89.759048461914</ele>
        <time>2014-08-10T07:54:09.000Z</time>
      </trkpt>
      <trkpt lat="46.0225" lon="-0.53041">
        <ele>88.898826599121</ele>
        <time>2014-08-10T07:54:11.000Z</time>
      </trkpt>
      <trkpt lat="46.02254" lon="-0.53035">
        <ele>88.121139526367</ele>
        <time>2014-08-10T07:54:13.000Z</time>
      </trkpt>
      <trkpt lat="46.02261" lon="-0.53028">
        <ele>87.459671020508</ele>
        <time>2014-08-10T07:54:16.000Z</time>
      </trkpt>
      <trkpt lat="46.02269" lon="-0.53016">
        <ele>86.869720458984</ele>
        <time>2014-08-10T07:54:19.000Z</time>
      </trkpt>
      <trkpt lat="46.02279" lon="-0.53">
        <ele>86.220672607422</ele>
        <time>2014-08-10T07:54:22.000Z</time>
      </trkpt>
      <trkpt lat="46.02288" lon="-0.52987">
        <ele>85.527618408203</ele>
        <time>2014-08-10T07:54:25.000Z</time>
      </trkpt>
      <trkpt lat="46.02294" lon="-0.52978">
        <ele>84.84383392334</ele>
        <time>2014-08-10T07:54:27.000Z</time>
      </trkpt>
      <trkpt lat="46.02299" lon="-0.5297">
        <ele>84.196044921875</ele>
        <time>2014-08-10T07:54:30.000Z</time>
      </trkpt>
      <trkpt lat="46.02305" lon="-0.52963">
        <ele>83.648498535156</ele>
        <time>2014-08-10T07:54:32.000Z</time>
      </trkpt>
      <trkpt lat="46.02312" lon="-0.52951">
        <ele>83.184532165527</ele>
        <time>2014-08-10T07:54:35.000Z</time>
      </trkpt>
      <trkpt lat="46.02317" lon="-0.52942">
        <ele>82.783653259277</ele>
        <time>2014-08-10T07:54:37.000Z</time>
      </trkpt>
      <trkpt lat="46.02323" lon="-0.5293">
        <ele>82.372497558594</ele>
        <time>2014-08-10T07:54:40.000Z</time>
      </trkpt>
      <trkpt lat="46.02332" lon="-0.52914">
        <ele>81.923889160156</ele>
        <time>2014-08-10T07:54:43.000Z</time>
      </trkpt>
      <trkpt lat="46.02338" lon="-0.52904">
        <ele>81.49146270752</ele>
        <time>2014-08-10T07:54:45.000Z</time>
      </trkpt>
      <trkpt lat="46.02348" lon="-0.5289">
        <ele>81.11612701416</ele>
        <time>2014-08-10T07:54:48.000Z</time>
      </trkpt>
      <trkpt lat="46.02354" lon="-0.52882">
        <ele>80.797256469727</ele>
        <time>2014-08-10T07:54:51.000Z</time>
      </trkpt>
      <trkpt lat="46.02361" lon="-0.52874">
        <ele>80.561851501465</ele>
        <time>2014-08-10T07:54:54.000Z</time>
      </trkpt>
      <trkpt lat="46.02367" lon="-0.52864">
        <ele>80.425903320312</ele>
        <time>2014-08-10T07:54:57.000Z</time>
      </trkpt>
      <trkpt lat="46.02373" lon="-0.52856">
        <ele>80.330368041992</ele>
        <time>2014-08-10T07:55:00.000Z</time>
      </trkpt>
      <trkpt lat="46.02377" lon="-0.52847">
        <ele>80.275840759277</ele>
        <time>2014-08-10T07:55:03.000Z</time>
      </trkpt>
      <trkpt lat="46.0238" lon="-0.52834">
        <ele>80.227066040039</ele>
        <time>2014-08-10T07:55:06.000Z</time>
      </trkpt>
      <trkpt lat="46.02383" lon="-0.52825">
        <ele>80.18879699707</ele>
        <time>2014-08-10T07:55:08.000Z</time>
      </trkpt>
      <trkpt lat="46.02388" lon="-0.52816">
        <ele>80.171287536621</ele>
        <time>2014-08-10T07:55:11.000Z</time>
      </trkpt>
      <trkpt lat="46.02391" lon="-0.5281">
        <ele>80.169128417969</ele>
        <time>2014-08-10T07:55:14.000Z</time>
      </trkpt>
      <trkpt lat="46.02395" lon="-0.52806">
        <ele>80.191146850586</ele>
        <time>2014-08-10T07:55:17.000Z</time>
      </trkpt>
      <trkpt lat="46.02396" lon="-0.52805">
        <ele>80.232345581055</ele>
        <time>2014-08-10T07:55:19.000Z</time>
      </trkpt>
      <trkpt lat="46.02399" lon="-0.52807">
        <ele>80.299743652344</ele>
        <time>2014-08-10T07:55:22.000Z</time>
      </trkpt>
      <trkpt lat="46.02401" lon="-0.5281">
        <ele>80.372413635254</ele>
        <time>2014-08-10T07:55:24.000Z</time>
      </trkpt>
      <trkpt lat="46.02405" lon="-0.52817">
        <ele>80.46231842041</ele>
        <time>2014-08-10T07:55:27.000Z</time>
      </trkpt>
      <trkpt lat="46.02409" lon="-0.52824">
        <ele>80.561096191406</ele>
        <time>2014-08-10T07:55:30.000Z</time>
      </trkpt>
      <trkpt lat="46.02413" lon="-0.5283">
        <ele>80.674255371094</ele>
        <time>2014-08-10T07:55:33.000Z</time>
      </trkpt>
      <trkpt lat="46.02414" lon="-0.52837">
        <ele>80.769760131836</ele>
        <time>2014-08-10T07:55:36.000Z</time>
      </trkpt>
      <trkpt lat="46.02415" lon="-0.52842">
        <ele>80.857223510742</ele>
        <time>2014-08-10T07:55:39.000Z</time>
      </trkpt>
      <trkpt lat="46.02417" lon="-0.52845">
        <ele>80.92529296875</ele>
        <time>2014-08-10T07:55:42.000Z</time>
      </trkpt>
      <trkpt lat="46.02419" lon="-0.52845">
        <ele>80.982643127441</ele>
        <time>2014-08-10T07:55:44.000Z</time>
      </trkpt>
      <trkpt lat="46.02421" lon="-0.52843">
        <ele>81.031021118164</ele>
        <time>2014-08-10T07:55:47.000Z</time>
      </trkpt>
      <trkpt lat="46.02423" lon="-0.52839">
        <ele>81.091682434082</ele>
        <time>2014-08-10T07:55:50.000Z</time>
      </trkpt>
      <trkpt lat="46.02427" lon="-0.52835">
        <ele>81.173294067383</ele>
        <time>2014-08-10T07:55:52.000Z</time>
      </trkpt>
      <trkpt lat="46.02433" lon="-0.52831">
        <ele>81.285415649414</ele>
        <time>2014-08-10T07:55:54.000Z</time>
      </trkpt>
      <trkpt lat="46.02438" lon="-0.52827">
        <ele>81.42325592041</ele>
        <time>2014-08-10T07:55:56.000Z</time>
      </trkpt>
      <trkpt lat="46.02444" lon="-0.52821">
        <ele>81.605323791504</ele>
        <time>2014-08-10T07:55:59.000Z</time>
      </trkpt>
      <trkpt lat="46.02451" lon="-0.52816">
        <ele>81.820983886719</ele>
        <time>2014-08-10T07:56:02.000Z</time>
      </trkpt>
      <trkpt lat="46.02456" lon="-0.52812">
        <ele>82.052238464355</ele>
        <time>2014-08-10T07:56:04.000Z</time>
      </trkpt>
      <trkpt lat="46.02461" lon="-0.52809">
        <ele>82.287086486816</ele>
        <time>2014-08-10T07:56:06.000Z</time>
      </trkpt>
      <trkpt lat="46.02468" lon="-0.52803">
        <ele>82.54426574707</ele>
        <time>2014-08-10T07:56:09.000Z</time>
      </trkpt>
      <trkpt lat="46.02473" lon="-0.528">
        <ele>82.79069519043</ele>
        <time>2014-08-10T07:56:11.000Z</time>
      </trkpt>
      <trkpt lat="46.02477" lon="-0.52796">
        <ele>83.029350280762</ele>
        <time>2014-08-10T07:56:13.000Z</time>
      </trkpt>
      <trkpt lat="46.02485" lon="-0.52788">
        <ele>83.299743652344</ele>
        <time>2014-08-10T07:56:16.000Z</time>
      </trkpt>
      <trkpt lat="46.0249" lon="-0.52783">
        <ele>83.582977294922</ele>
        <time>2014-08-10T07:56:18.000Z</time>
      </trkpt>
      <trkpt lat="46.02494" lon="-0.52778">
        <ele>83.849197387695</ele>
        <time>2014-08-10T07:56:20.000Z</time>
      </trkpt>
      <trkpt lat="46.02499" lon="-0.52774">
        <ele>84.12345123291</ele>
        <time>2014-08-10T07:56:22.000Z</time>
      </trkpt>
      <trkpt lat="46.02507" lon="-0.52769">
        <ele>84.34741973877</ele>
        <time>2014-08-10T07:56:25.000Z</time>
      </trkpt>
      <trkpt lat="46.02512" lon="-0.52766">
        <ele>84.481719970703</ele>
        <time>2014-08-10T07:56:27.000Z</time>
      </trkpt>
      <trkpt lat="46.02519" lon="-0.52761">
        <ele>84.537956237793</ele>
        <time>2014-08-10T07:56:30.000Z</time>
      </trkpt>
      <trkpt lat="46.02528" lon="-0.52753">
        <ele>84.518844604492</ele>
        <time>2014-08-10T07:56:33.000Z</time>
      </trkpt>
      <trkpt lat="46.02536" lon="-0.52746">
        <ele>84.407562255859</ele>
        <time>2014-08-10T07:56:36.000Z</time>
      </trkpt>
      <trkpt lat="46.02544" lon="-0.5274">
        <ele>84.262130737305</ele>
        <time>2014-08-10T07:56:39.000Z</time>
      </trkpt>
      <trkpt lat="46.02549" lon="-0.52737">
        <ele>84.100570678711</ele>
        <time>2014-08-10T07:56:41.000Z</time>
      </trkpt>
      <trkpt lat="46.02556" lon="-0.52731">
        <ele>83.929306030273</ele>
        <time>2014-08-10T07:56:43.000Z</time>
      </trkpt>
      <trkpt lat="46.02565" lon="-0.52725">
        <ele>83.745681762695</ele>
        <time>2014-08-10T07:56:46.000Z</time>
      </trkpt>
      <trkpt lat="46.0257" lon="-0.52721">
        <ele>83.578956604004</ele>
        <time>2014-08-10T07:56:48.000Z</time>
      </trkpt>
      <trkpt lat="46.02574" lon="-0.52717">
        <ele>83.434684753418</ele>
        <time>2014-08-10T07:56:50.000Z</time>
      </trkpt>
      <trkpt lat="46.02582" lon="-0.52713">
        <ele>83.290023803711</ele>
        <time>2014-08-10T07:56:53.000Z</time>
      </trkpt>
      <trkpt lat="46.02589" lon="-0.52708">
        <ele>83.15168762207</ele>
        <time>2014-08-10T07:56:56.000Z</time>
      </trkpt>
      <trkpt lat="46.02594" lon="-0.52704">
        <ele>83.039657592773</ele>
        <time>2014-08-10T07:56:58.000Z</time>
      </trkpt>
      <trkpt lat="46.02598" lon="-0.527">
        <ele>82.937156677246</ele>
        <time>2014-08-10T07:57:00.000Z</time>
      </trkpt>
      <trkpt lat="46.02605" lon="-0.52694">
        <ele>82.831039428711</ele>
        <time>2014-08-10T07:57:03.000Z</time>
      </trkpt>
      <trkpt lat="46.02611" lon="-0.5269">
        <ele>82.74040222168</ele>
        <time>2014-08-10T07:57:05.000Z</time>
      </trkpt>
      <trkpt lat="46.02617" lon="-0.52686">
        <ele>82.663734436035</ele>
        <time>2014-08-10T07:57:07.000Z</time>
      </trkpt>
      <trkpt lat="46.02625" lon="-0.52679">
        <ele>82.584350585938</ele>
        <time>2014-08-10T07:57:10.000Z</time>
      </trkpt>
      <trkpt lat="46.02631" lon="-0.52674">
        <ele>82.507873535156</ele>
        <time>2014-08-10T07:57:12.000Z</time>
      </trkpt>
      <trkpt lat="46.02637" lon="-0.5267">
        <ele>82.442855834961</ele>
        <time>2014-08-10T07:57:14.000Z</time>
      </trkpt>
      <trkpt lat="46.02646" lon="-0.52663">
        <ele>82.372451782227</ele>
        <time>2014-08-10T07:57:17.000Z</time>
      </trkpt>
      <trkpt lat="46.02652" lon="-0.52658">
        <ele>82.297271728516</ele>
        <time>2014-08-10T07:57:19.000Z</time>
      </trkpt>
      <trkpt lat="46.02658" lon="-0.52649">
        <ele>82.224227905273</ele>
        <time>2014-08-10T07:57:22.000Z</time>
      </trkpt>
      <trkpt lat="46.02666" lon="-0.52645">
        <ele>82.148986816406</ele>
        <time>2014-08-10T07:57:25.000Z</time>
      </trkpt>
      <trkpt lat="46.02673" lon="-0.52643">
        <ele>82.148445129395</ele>
        <time>2014-08-10T07:57:28.000Z</time>
      </trkpt>
      <trkpt lat="46.0268" lon="-0.52638">
        <ele>82.252227783203</ele>
        <time>2014-08-10T07:57:31.000Z</time>
      </trkpt>
      <trkpt lat="46.02684" lon="-0.52633">
        <ele>82.428413391113</ele>
        <time>2014-08-10T07:57:33.000Z</time>
      </trkpt>
      <trkpt lat="46.02692" lon="-0.52627">
        <ele>82.718139648438</ele>
        <time>2014-08-10T07:57:36.000Z</time>
      </trkpt>
      <trkpt lat="46.02697" lon="-0.52623">
        <ele>83.083938598633</ele>
        <time>2014-08-10T07:57:38.000Z</time>
      </trkpt>
      <trkpt lat="46.027" lon="-0.52619">
        <ele>83.438774108887</ele>
        <time>2014-08-10T07:57:41.000Z</time>
      </trkpt>
      <trkpt lat="46.02702" lon="-0.52616">
        <ele>83.736373901367</ele>
        <time>2014-08-10T07:57:43.000Z</time>
      </trkpt>
      <trkpt lat="46.02704" lon="-0.52611">
        <ele>84.008934020996</ele>
        <time>2014-08-10T07:57:45.000Z</time>
      </trkpt>
      <trkpt lat="46.02705" lon="-0.52603">
        <ele>84.222480773926</ele>
        <time>2014-08-10T07:57:48.000Z</time>
      </trkpt>
      <trkpt lat="46.02706" lon="-0.52591">
        <ele>84.404479980469</ele>
        <time>2014-08-10T07:57:51.000Z</time>
      </trkpt>
      <trkpt lat="46.02707" lon="-0.52584">
        <ele>84.566299438477</ele>
        <time>2014-08-10T07:57:53.000Z</time>
      </trkpt>
      <trkpt lat="46.02709" lon="-0.52574">
        <ele>84.731903076172</ele>
        <time>2014-08-10T07:57:56.000Z</time>
      </trkpt>
      <trkpt lat="46.02709" lon="-0.52563">
        <ele>84.86742401123</ele>
        <time>2014-08-10T07:57:59.000Z</time>
      </trkpt>
      <trkpt lat="46.0271" lon="-0.52555">
        <ele>84.969917297363</ele>
        <time>2014-08-10T07:58:02.000Z</time>
      </trkpt>
      <trkpt lat="46.02713" lon="-0.52552">
        <ele>85.092147827148</ele>
        <time>2014-08-10T07:58:04.000Z</time>
      </trkpt>
      <trkpt lat="46.02717" lon="-0.52549">
        <ele>85.240234375</ele>
        <time>2014-08-10T07:58:07.000Z</time>
      </trkpt>
      <trkpt lat="46.02721" lon="-0.52546">
        <ele>85.41015625</ele>
        <time>2014-08-10T07:58:09.000Z</time>
      </trkpt>
      <trkpt lat="46.02728" lon="-0.52542">
        <ele>85.685546875</ele>
        <time>2014-08-10T07:58:12.000Z</time>
      </trkpt>
      <trkpt lat="46.02733" lon="-0.52539">
        <ele>86.025390625</ele>
        <time>2014-08-10T07:58:14.000Z</time>
      </trkpt>
      <trkpt lat="46.02737" lon="-0.52535">
        <ele>86.376953125</ele>
        <time>2014-08-10T07:58:16.000Z</time>
      </trkpt>
      <trkpt lat="46.02744" lon="-0.52529">
        <ele>86.763671875</ele>
        <time>2014-08-10T07:58:19.000Z</time>
      </trkpt>
      <trkpt lat="46.02751" lon="-0.52524">
        <ele>87.185615539551</ele>
        <time>2014-08-10T07:58:22.000Z</time>
      </trkpt>
      <trkpt lat="46.02757" lon="-0.52521">
        <ele>87.53498840332</ele>
        <time>2014-08-10T07:58:25.000Z</time>
      </trkpt>
      <trkpt lat="46.02763" lon="-0.52518">
        <ele>87.843650817871</ele>
        <time>2014-08-10T07:58:28.000Z</time>
      </trkpt>
      <trkpt lat="46.0277" lon="-0.52513">
        <ele>88.1259765625</ele>
        <time>2014-08-10T07:58:31.000Z</time>
      </trkpt>
      <trkpt lat="46.02778" lon="-0.52508">
        <ele>88.352813720703</ele>
        <time>2014-08-10T07:58:34.000Z</time>
      </trkpt>
      <trkpt lat="46.02787" lon="-0.52504">
        <ele>88.528793334961</ele>
        <time>2014-08-10T07:58:37.000Z</time>
      </trkpt>
      <trkpt lat="46.02795" lon="-0.525">
        <ele>88.708686828613</ele>
        <time>2014-08-10T07:58:40.000Z</time>
      </trkpt>
      <trkpt lat="46.02803" lon="-0.52496">
        <ele>88.889945983887</ele>
        <time>2014-08-10T07:58:43.000Z</time>
      </trkpt>
      <trkpt lat="46.02808" lon="-0.52494">
        <ele>89.052955627441</ele>
        <time>2014-08-10T07:58:45.000Z</time>
      </trkpt>
      <trkpt lat="46.02816" lon="-0.52491">
        <ele>89.209815979004</ele>
        <time>2014-08-10T07:58:48.000Z</time>
      </trkpt>
      <trkpt lat="46.02821" lon="-0.52489">
        <ele>89.347282409668</ele>
        <time>2014-08-10T07:58:50.000Z</time>
      </trkpt>
      <trkpt lat="46.02828" lon="-0.52486">
        <ele>89.472694396973</ele>
        <time>2014-08-10T07:58:53.000Z</time>
      </trkpt>
      <trkpt lat="46.02832" lon="-0.52482">
        <ele>89.579330444336</ele>
        <time>2014-08-10T07:58:55.000Z</time>
      </trkpt>
      <trkpt lat="46.02837" lon="-0.5248">
        <ele>89.683837890625</ele>
        <time>2014-08-10T07:58:57.000Z</time>
      </trkpt>
      <trkpt lat="46.02843" lon="-0.5248">
        <ele>89.781959533691</ele>
        <time>2014-08-10T07:58:59.000Z</time>
      </trkpt>
      <trkpt lat="46.02851" lon="-0.52479">
        <ele>89.900894165039</ele>
        <time>2014-08-10T07:59:02.000Z</time>
      </trkpt>
      <trkpt lat="46.02858" lon="-0.52478">
        <ele>90.024063110352</ele>
        <time>2014-08-10T07:59:05.000Z</time>
      </trkpt>
      <trkpt lat="46.02863" lon="-0.52475">
        <ele>90.153915405273</ele>
        <time>2014-08-10T07:59:07.000Z</time>
      </trkpt>
      <trkpt lat="46.02869" lon="-0.52473">
        <ele>90.289413452148</ele>
        <time>2014-08-10T07:59:09.000Z</time>
      </trkpt>
      <trkpt lat="46.02878" lon="-0.5247">
        <ele>90.435050964355</ele>
        <time>2014-08-10T07:59:12.000Z</time>
      </trkpt>
      <trkpt lat="46.02887" lon="-0.52467">
        <ele>90.578491210938</ele>
        <time>2014-08-10T07:59:15.000Z</time>
      </trkpt>
      <trkpt lat="46.02892" lon="-0.52464">
        <ele>90.710510253906</ele>
        <time>2014-08-10T07:59:17.000Z</time>
      </trkpt>
      <trkpt lat="46.02901" lon="-0.52459">
        <ele>90.856437683105</ele>
        <time>2014-08-10T07:59:20.000Z</time>
      </trkpt>
      <trkpt lat="46.0291" lon="-0.52453">
        <ele>91.003036499023</ele>
        <time>2014-08-10T07:59:23.000Z</time>
      </trkpt>
      <trkpt lat="46.02916" lon="-0.5245">
        <ele>91.136337280273</ele>
        <time>2014-08-10T07:59:25.000Z</time>
      </trkpt>
      <trkpt lat="46.02925" lon="-0.52447">
        <ele>91.32063293457</ele>
        <time>2014-08-10T07:59:28.000Z</time>
      </trkpt>
      <trkpt lat="46.02935" lon="-0.52441">
        <ele>91.594253540039</ele>
        <time>2014-08-10T07:59:31.000Z</time>
      </trkpt>
      <trkpt lat="46.02942" lon="-0.52435">
        <ele>91.894020080566</ele>
        <time>2014-08-10T07:59:33.000Z</time>
      </trkpt>
      <trkpt lat="46.02948" lon="-0.52429">
        <ele>92.239807128906</ele>
        <time>2014-08-10T07:59:36.000Z</time>
      </trkpt>
      <trkpt lat="46.02953" lon="-0.52425">
        <ele>92.609268188477</ele>
        <time>2014-08-10T07:59:38.000Z</time>
      </trkpt>
      <trkpt lat="46.02961" lon="-0.52416">
        <ele>92.978942871094</ele>
        <time>2014-08-10T07:59:41.000Z</time>
      </trkpt>
      <trkpt lat="46.0297" lon="-0.5241">
        <ele>93.288208007812</ele>
        <time>2014-08-10T07:59:44.000Z</time>
      </trkpt>
      <trkpt lat="46.02975" lon="-0.52405">
        <ele>93.566802978516</ele>
        <time>2014-08-10T07:59:46.000Z</time>
      </trkpt>
      <trkpt lat="46.02985" lon="-0.52397">
        <ele>93.81859588623</ele>
        <time>2014-08-10T07:59:49.000Z</time>
      </trkpt>
      <trkpt lat="46.02996" lon="-0.52388">
        <ele>94.053939819336</ele>
        <time>2014-08-10T07:59:52.000Z</time>
      </trkpt>
      <trkpt lat="46.03003" lon="-0.52383">
        <ele>94.206298828125</ele>
        <time>2014-08-10T07:59:54.000Z</time>
      </trkpt>
      <trkpt lat="46.03012" lon="-0.52376">
        <ele>94.27530670166</ele>
        <time>2014-08-10T07:59:57.000Z</time>
      </trkpt>
      <trkpt lat="46.03017" lon="-0.52371">
        <ele>94.292213439941</ele>
        <time>2014-08-10T07:59:59.000Z</time>
      </trkpt>
      <trkpt lat="46.03027" lon="-0.52364">
        <ele>94.23747253418</ele>
        <time>2014-08-10T08:00:02.000Z</time>
      </trkpt>
      <trkpt lat="46.03035" lon="-0.52357">
        <ele>94.128120422363</ele>
        <time>2014-08-10T08:00:05.000Z</time>
      </trkpt>
      <trkpt lat="46.03042" lon="-0.5235">
        <ele>93.982490539551</ele>
        <time>2014-08-10T08:00:08.000Z</time>
      </trkpt>
      <trkpt lat="46.03051" lon="-0.52344">
        <ele>93.86311340332</ele>
        <time>2014-08-10T08:00:11.000Z</time>
      </trkpt>
      <trkpt lat="46.03061" lon="-0.52338">
        <ele>93.76505279541</ele>
        <time>2014-08-10T08:00:14.000Z</time>
      </trkpt>
      <trkpt lat="46.03067" lon="-0.52331">
        <ele>93.676902770996</ele>
        <time>2014-08-10T08:00:16.000Z</time>
      </trkpt>
      <trkpt lat="46.03075" lon="-0.52319">
        <ele>93.565361022949</ele>
        <time>2014-08-10T08:00:19.000Z</time>
      </trkpt>
      <trkpt lat="46.0308" lon="-0.52311">
        <ele>93.451820373535</ele>
        <time>2014-08-10T08:00:21.000Z</time>
      </trkpt>
      <trkpt lat="46.03083" lon="-0.52308">
        <ele>93.338394165039</ele>
        <time>2014-08-10T08:00:23.000Z</time>
      </trkpt>
      <trkpt lat="46.03086" lon="-0.52307">
        <ele>93.203514099121</ele>
        <time>2014-08-10T08:00:26.000Z</time>
      </trkpt>
      <trkpt lat="46.03088" lon="-0.52304">
        <ele>93.060447692871</ele>
        <time>2014-08-10T08:00:28.000Z</time>
      </trkpt>
      <trkpt lat="46.0309" lon="-0.52302">
        <ele>92.936401367188</ele>
        <time>2014-08-10T08:00:30.000Z</time>
      </trkpt>
      <trkpt lat="46.03093" lon="-0.523">
        <ele>92.822326660156</ele>
        <time>2014-08-10T08:00:32.000Z</time>
      </trkpt>
      <trkpt lat="46.03098" lon="-0.52298">
        <ele>92.676719665527</ele>
        <time>2014-08-10T08:00:35.000Z</time>
      </trkpt>
      <trkpt lat="46.03101" lon="-0.52293">
        <ele>92.509407043457</ele>
        <time>2014-08-10T08:00:37.000Z</time>
      </trkpt>
      <trkpt lat="46.03105" lon="-0.52289">
        <ele>92.323165893555</ele>
        <time>2014-08-10T08:00:39.000Z</time>
      </trkpt>
      <trkpt lat="46.03111" lon="-0.52283">
        <ele>92.104797363281</ele>
        <time>2014-08-10T08:00:42.000Z</time>
      </trkpt>
      <trkpt lat="46.03115" lon="-0.52279">
        <ele>91.871543884277</ele>
        <time>2014-08-10T08:00:44.000Z</time>
      </trkpt>
      <trkpt lat="46.03119" lon="-0.52276">
        <ele>91.650680541992</ele>
        <time>2014-08-10T08:00:47.000Z</time>
      </trkpt>
      <trkpt lat="46.03122" lon="-0.52277">
        <ele>91.470611572266</ele>
        <time>2014-08-10T08:00:49.000Z</time>
      </trkpt>
      <trkpt lat="46.03125" lon="-0.52283">
        <ele>91.350891113281</ele>
        <time>2014-08-10T08:00:52.000Z</time>
      </trkpt>
      <trkpt lat="46.03127" lon="-0.52294">
        <ele>91.334594726562</ele>
        <time>2014-08-10T08:00:55.000Z</time>
      </trkpt>
      <trkpt lat="46.03126" lon="-0.523">
        <ele>91.388381958008</ele>
        <time>2014-08-10T08:00:57.000Z</time>
      </trkpt>
      <trkpt lat="46.03126" lon="-0.5231">
        <ele>91.523246765137</ele>
        <time>2014-08-10T08:01:00.000Z</time>
      </trkpt>
      <trkpt lat="46.03126" lon="-0.52317">
        <ele>91.693382263184</ele>
        <time>2014-08-10T08:01:02.000Z</time>
      </trkpt>
      <trkpt lat="46.03128" lon="-0.52329">
        <ele>91.889122009277</ele>
        <time>2014-08-10T08:01:05.000Z</time>
      </trkpt>
      <trkpt lat="46.03128" lon="-0.52336">
        <ele>92.07852935791</ele>
        <time>2014-08-10T08:01:07.000Z</time>
      </trkpt>
      <trkpt lat="46.03128" lon="-0.52345">
        <ele>92.27751159668</ele>
        <time>2014-08-10T08:01:09.000Z</time>
      </trkpt>
      <trkpt lat="46.03127" lon="-0.52357">
        <ele>92.49201965332</ele>
        <time>2014-08-10T08:01:12.000Z</time>
      </trkpt>
      <trkpt lat="46.03126" lon="-0.5237">
        <ele>92.739761352539</ele>
        <time>2014-08-10T08:01:15.000Z</time>
      </trkpt>
      <trkpt lat="46.03127" lon="-0.5238">
        <ele>92.98420715332</ele>
        <time>2014-08-10T08:01:18.000Z</time>
      </trkpt>
      <trkpt lat="46.03128" lon="-0.52387">
        <ele>93.216674804688</ele>
        <time>2014-08-10T08:01:20.000Z</time>
      </trkpt>
      <trkpt lat="46.03127" lon="-0.52399">
        <ele>93.473640441895</ele>
        <time>2014-08-10T08:01:23.000Z</time>
      </trkpt>
      <trkpt lat="46.03128" lon="-0.52412">
        <ele>93.71378326416</ele>
        <time>2014-08-10T08:01:26.000Z</time>
      </trkpt>
      <trkpt lat="46.03128" lon="-0.52426">
        <ele>93.933471679688</ele>
        <time>2014-08-10T08:01:29.000Z</time>
      </trkpt>
      <trkpt lat="46.03124" lon="-0.52439">
        <ele>94.196266174316</ele>
        <time>2014-08-10T08:01:32.000Z</time>
      </trkpt>
      <trkpt lat="46.03122" lon="-0.52452">
        <ele>94.490982055664</ele>
        <time>2014-08-10T08:01:35.000Z</time>
      </trkpt>
      <trkpt lat="46.03122" lon="-0.5246">
        <ele>94.744567871094</ele>
        <time>2014-08-10T08:01:37.000Z</time>
      </trkpt>
      <trkpt lat="46.03121" lon="-0.52467">
        <ele>94.975532531738</ele>
        <time>2014-08-10T08:01:39.000Z</time>
      </trkpt>
      <trkpt lat="46.03119" lon="-0.52476">
        <ele>95.207984924316</ele>
        <time>2014-08-10T08:01:42.000Z</time>
      </trkpt>
      <trkpt lat="46.03117" lon="-0.52481">
        <ele>95.402557373047</ele>
        <time>2014-08-10T08:01:44.000Z</time>
      </trkpt>
      <trkpt lat="46.03113" lon="-0.52491">
        <ele>95.609764099121</ele>
        <time>2014-08-10T08:01:47.000Z</time>
      </trkpt>
      <trkpt lat="46.03109" lon="-0.52504">
        <ele>95.860427856445</ele>
        <time>2014-08-10T08:01:50.000Z</time>
      </trkpt>
      <trkpt lat="46.0311" lon="-0.52516">
        <ele>96.088333129883</ele>
        <time>2014-08-10T08:01:53.000Z</time>
      </trkpt>
      <trkpt lat="46.03112" lon="-0.52525">
        <ele>96.254898071289</ele>
        <time>2014-08-10T08:01:55.000Z</time>
      </trkpt>
      <trkpt lat="46.03115" lon="-0.52537">
        <ele>96.344871520996</ele>
        <time>2014-08-10T08:01:58.000Z</time>
      </trkpt>
      <trkpt lat="46.03117" lon="-0.52544">
        <ele>96.364303588867</ele>
        <time>2014-08-10T08:02:00.000Z</time>
      </trkpt>
      <trkpt lat="46.03116" lon="-0.52551">
        <ele>96.326766967773</ele>
        <time>2014-08-10T08:02:02.000Z</time>
      </trkpt>
      <trkpt lat="46.03116" lon="-0.5256">
        <ele>96.292350769043</ele>
        <time>2014-08-10T08:02:05.000Z</time>
      </trkpt>
      <trkpt lat="46.03116" lon="-0.52565">
        <ele>96.280052185059</ele>
        <time>2014-08-10T08:02:08.000Z</time>
      </trkpt>
      <trkpt lat="46.03117" lon="-0.52569">
        <ele>96.297080993652</ele>
        <time>2014-08-10T08:02:10.000Z</time>
      </trkpt>
      <trkpt lat="46.03119" lon="-0.5257">
        <ele>96.297164916992</ele>
        <time>2014-08-10T08:02:12.000Z</time>
      </trkpt>
      <trkpt lat="46.03123" lon="-0.5257">
        <ele>96.249801635742</ele>
        <time>2014-08-10T08:02:15.000Z</time>
      </trkpt>
      <trkpt lat="46.03125" lon="-0.52571">
        <ele>96.167098999023</ele>
        <time>2014-08-10T08:02:17.000Z</time>
      </trkpt>
      <trkpt lat="46.0313" lon="-0.52571">
        <ele>96.030418395996</ele>
        <time>2014-08-10T08:02:20.000Z</time>
      </trkpt>
      <trkpt lat="46.03139" lon="-0.52569">
        <ele>95.802940368652</ele>
        <time>2014-08-10T08:02:23.000Z</time>
      </trkpt>
      <trkpt lat="46.03145" lon="-0.52569">
        <ele>95.537353515625</ele>
        <time>2014-08-10T08:02:25.000Z</time>
      </trkpt>
      <trkpt lat="46.03155" lon="-0.52569">
        <ele>95.209487915039</ele>
        <time>2014-08-10T08:02:28.000Z</time>
      </trkpt>
      <trkpt lat="46.03164" lon="-0.52565">
        <ele>94.807189941406</ele>
        <time>2014-08-10T08:02:30.000Z</time>
      </trkpt>
      <trkpt lat="46.03176" lon="-0.52554">
        <ele>94.227523803711</ele>
        <time>2014-08-10T08:02:33.000Z</time>
      </trkpt>
      <trkpt lat="46.03183" lon="-0.52549">
        <ele>93.613327026367</ele>
        <time>2014-08-10T08:02:35.000Z</time>
      </trkpt>
      <trkpt lat="46.03194" lon="-0.52551">
        <ele>92.857627868652</ele>
        <time>2014-08-10T08:02:38.000Z</time>
      </trkpt>
      <trkpt lat="46.03203" lon="-0.52561">
        <ele>92.104621887207</ele>
        <time>2014-08-10T08:02:41.000Z</time>
      </trkpt>
      <trkpt lat="46.0321" lon="-0.52562">
        <ele>91.353393554688</ele>
        <time>2014-08-10T08:02:44.000Z</time>
      </trkpt>
      <trkpt lat="46.03213" lon="-0.52562">
        <ele>90.768760681152</ele>
        <time>2014-08-10T08:02:46.000Z</time>
      </trkpt>
      <trkpt lat="46.03215" lon="-0.52562">
        <ele>90.271957397461</ele>
        <time>2014-08-10T08:02:48.000Z</time>
      </trkpt>
      <trkpt lat="46.03223" lon="-0.52561">
        <ele>89.847808837891</ele>
        <time>2014-08-10T08:02:51.000Z</time>
      </trkpt>
      <trkpt lat="46.03235" lon="-0.52559">
        <ele>89.292686462402</ele>
        <time>2014-08-10T08:02:54.000Z</time>
      </trkpt>
      <trkpt lat="46.03249" lon="-0.52553">
        <ele>88.515823364258</ele>
        <time>2014-08-10T08:02:57.000Z</time>
      </trkpt>
      <trkpt lat="46.03264" lon="-0.52548">
        <ele>87.673049926758</ele>
        <time>2014-08-10T08:03:00.000Z</time>
      </trkpt>
      <trkpt lat="46.03279" lon="-0.52546">
        <ele>86.790420532227</ele>
        <time>2014-08-10T08:03:03.000Z</time>
      </trkpt>
      <trkpt lat="46.03295" lon="-0.52542">
        <ele>85.934997558594</ele>
        <time>2014-08-10T08:03:06.000Z</time>
      </trkpt>
      <trkpt lat="46.03307" lon="-0.5254">
        <ele>85.23494720459</ele>
        <time>2014-08-10T08:03:08.000Z</time>
      </trkpt>
      <trkpt lat="46.03313" lon="-0.5254">
        <ele>84.831451416016</ele>
        <time>2014-08-10T08:03:10.000Z</time>
      </trkpt>
      <trkpt lat="46.03325" lon="-0.5254">
        <ele>84.508598327637</ele>
        <time>2014-08-10T08:03:13.000Z</time>
      </trkpt>
      <trkpt lat="46.03336" lon="-0.52538">
        <ele>84.205856323242</ele>
        <time>2014-08-10T08:03:16.000Z</time>
      </trkpt>
      <trkpt lat="46.03343" lon="-0.52533">
        <ele>83.909523010254</ele>
        <time>2014-08-10T08:03:18.000Z</time>
      </trkpt>
      <trkpt lat="46.03352" lon="-0.52531">
        <ele>83.627128601074</ele>
        <time>2014-08-10T08:03:20.000Z</time>
      </trkpt>
      <trkpt lat="46.03363" lon="-0.5253">
        <ele>83.317100524902</ele>
        <time>2014-08-10T08:03:23.000Z</time>
      </trkpt>
      <trkpt lat="46.03371" lon="-0.52529">
        <ele>83.003532409668</ele>
        <time>2014-08-10T08:03:25.000Z</time>
      </trkpt>
      <trkpt lat="46.03379" lon="-0.52526">
        <ele>82.696350097656</ele>
        <time>2014-08-10T08:03:27.000Z</time>
      </trkpt>
      <trkpt lat="46.03396" lon="-0.52521">
        <ele>82.35994720459</ele>
        <time>2014-08-10T08:03:30.000Z</time>
      </trkpt>
      <trkpt lat="46.0341" lon="-0.52521">
        <ele>82.039161682129</ele>
        <time>2014-08-10T08:03:33.000Z</time>
      </trkpt>
      <trkpt lat="46.0342" lon="-0.52517">
        <ele>81.671920776367</ele>
        <time>2014-08-10T08:03:35.000Z</time>
      </trkpt>
      <trkpt lat="46.03433" lon="-0.52516">
        <ele>81.22184753418</ele>
        <time>2014-08-10T08:03:38.000Z</time>
      </trkpt>
      <trkpt lat="46.03441" lon="-0.52515">
        <ele>80.741477966309</ele>
        <time>2014-08-10T08:03:40.000Z</time>
      </trkpt>
      <trkpt lat="46.03447" lon="-0.52514">
        <ele>80.305206298828</ele>
        <time>2014-08-10T08:03:42.000Z</time>
      </trkpt>
      <trkpt lat="46.03455" lon="-0.52514">
        <ele>79.833343505859</ele>
        <time>2014-08-10T08:03:45.000Z</time>
      </trkpt>
      <trkpt lat="46.03458" lon="-0.52513">
        <ele>79.420379638672</ele>
        <time>2014-08-10T08:03:48.000Z</time>
      </trkpt>
      <trkpt lat="46.0346" lon="-0.52515">
        <ele>79.141006469727</ele>
        <time>2014-08-10T08:03:51.000Z</time>
      </trkpt>
      <trkpt lat="46.03462" lon="-0.5252">
        <ele>78.984169006348</ele>
        <time>2014-08-10T08:03:54.000Z</time>
      </trkpt>
      <trkpt lat="46.03469" lon="-0.52531">
        <ele>78.975425720215</ele>
        <time>2014-08-10T08:03:57.000Z</time>
      </trkpt>
      <trkpt lat="46.03474" lon="-0.5254">
        <ele>79.100914001465</ele>
        <time>2014-08-10T08:04:00.000Z</time>
      </trkpt>
      <trkpt lat="46.03477" lon="-0.52546">
        <ele>79.317642211914</ele>
        <time>2014-08-10T08:04:02.000Z</time>
      </trkpt>
      <trkpt lat="46.03482" lon="-0.52553">
        <ele>79.567878723145</ele>
        <time>2014-08-10T08:04:04.000Z</time>
      </trkpt>
      <trkpt lat="46.03487" lon="-0.52559">
        <ele>79.800750732422</ele>
        <time>2014-08-10T08:04:06.000Z</time>
      </trkpt>
      <trkpt lat="46.03495" lon="-0.5257">
        <ele>80.024490356445</ele>
        <time>2014-08-10T08:04:09.000Z</time>
      </trkpt>
      <trkpt lat="46.035" lon="-0.52577">
        <ele>80.229644775391</ele>
        <time>2014-08-10T08:04:11.000Z</time>
      </trkpt>
      <trkpt lat="46.03505" lon="-0.52586">
        <ele>80.458084106445</ele>
        <time>2014-08-10T08:04:14.000Z</time>
      </trkpt>
      <trkpt lat="46.03509" lon="-0.52592">
        <ele>80.686096191406</ele>
        <time>2014-08-10T08:04:16.000Z</time>
      </trkpt>
      <trkpt lat="46.03515" lon="-0.52602">
        <ele>80.94743347168</ele>
        <time>2014-08-10T08:04:19.000Z</time>
      </trkpt>
      <trkpt lat="46.03519" lon="-0.52608">
        <ele>81.17512512207</ele>
        <time>2014-08-10T08:04:21.000Z</time>
      </trkpt>
      <trkpt lat="46.03525" lon="-0.52617">
        <ele>81.401054382324</ele>
        <time>2014-08-10T08:04:24.000Z</time>
      </trkpt>
      <trkpt lat="46.03528" lon="-0.52622">
        <ele>81.57869720459</ele>
        <time>2014-08-10T08:04:26.000Z</time>
      </trkpt>
      <trkpt lat="46.03532" lon="-0.52631">
        <ele>81.759078979492</ele>
        <time>2014-08-10T08:04:29.000Z</time>
      </trkpt>
      <trkpt lat="46.03536" lon="-0.52637">
        <ele>81.898170471191</ele>
        <time>2014-08-10T08:04:31.000Z</time>
      </trkpt>
      <trkpt lat="46.03541" lon="-0.52645">
        <ele>82.03450012207</ele>
        <time>2014-08-10T08:04:34.000Z</time>
      </trkpt>
      <trkpt lat="46.03544" lon="-0.52652">
        <ele>82.158401489258</ele>
        <time>2014-08-10T08:04:36.000Z</time>
      </trkpt>
      <trkpt lat="46.03549" lon="-0.52663">
        <ele>82.281112670898</ele>
        <time>2014-08-10T08:04:39.000Z</time>
      </trkpt>
      <trkpt lat="46.03554" lon="-0.52673">
        <ele>82.374053955078</ele>
        <time>2014-08-10T08:04:42.000Z</time>
      </trkpt>
      <trkpt lat="46.0356" lon="-0.52682">
        <ele>82.440216064453</ele>
        <time>2014-08-10T08:04:45.000Z</time>
      </trkpt>
      <trkpt lat="46.03564" lon="-0.52689">
        <ele>82.483184814453</ele>
        <time>2014-08-10T08:04:47.000Z</time>
      </trkpt>
      <trkpt lat="46.03569" lon="-0.52699">
        <ele>82.493835449219</ele>
        <time>2014-08-10T08:04:50.000Z</time>
      </trkpt>
      <trkpt lat="46.03575" lon="-0.52709">
        <ele>82.476951599121</ele>
        <time>2014-08-10T08:04:53.000Z</time>
      </trkpt>
      <trkpt lat="46.03579" lon="-0.52716">
        <ele>82.445404052734</ele>
        <time>2014-08-10T08:04:55.000Z</time>
      </trkpt>
      <trkpt lat="46.03583" lon="-0.52722">
        <ele>82.415924072266</ele>
        <time>2014-08-10T08:04:57.000Z</time>
      </trkpt>
      <trkpt lat="46.03588" lon="-0.52731">
        <ele>82.391494750977</ele>
        <time>2014-08-10T08:05:00.000Z</time>
      </trkpt>
      <trkpt lat="46.03594" lon="-0.5274">
        <ele>82.380859375</ele>
        <time>2014-08-10T08:05:03.000Z</time>
      </trkpt>
      <trkpt lat="46.03598" lon="-0.52746">
        <ele>82.37279510498</ele>
        <time>2014-08-10T08:05:05.000Z</time>
      </trkpt>
      <trkpt lat="46.03601" lon="-0.52753">
        <ele>82.40364074707</ele>
        <time>2014-08-10T08:05:07.000Z</time>
      </trkpt>
      <trkpt lat="46.03604" lon="-0.5276">
        <ele>82.500427246094</ele>
        <time>2014-08-10T08:05:09.000Z</time>
      </trkpt>
      <trkpt lat="46.0361" lon="-0.5277">
        <ele>82.661254882812</ele>
        <time>2014-08-10T08:05:12.000Z</time>
      </trkpt>
      <trkpt lat="46.03617" lon="-0.5278">
        <ele>82.876388549805</ele>
        <time>2014-08-10T08:05:15.000Z</time>
      </trkpt>
      <trkpt lat="46.03623" lon="-0.5279">
        <ele>83.149169921875</ele>
        <time>2014-08-10T08:05:18.000Z</time>
      </trkpt>
      <trkpt lat="46.03628" lon="-0.52796">
        <ele>83.410354614258</ele>
        <time>2014-08-10T08:05:20.000Z</time>
      </trkpt>
      <trkpt lat="46.03636" lon="-0.52806">
        <ele>83.65372467041</ele>
        <time>2014-08-10T08:05:23.000Z</time>
      </trkpt>
      <trkpt lat="46.03642" lon="-0.52815">
        <ele>83.872543334961</ele>
        <time>2014-08-10T08:05:26.000Z</time>
      </trkpt>
      <trkpt lat="46.03646" lon="-0.52824">
        <ele>84.079513549805</ele>
        <time>2014-08-10T08:05:29.000Z</time>
      </trkpt>
      <trkpt lat="46.03651" lon="-0.52832">
        <ele>84.268753051758</ele>
        <time>2014-08-10T08:05:32.000Z</time>
      </trkpt>
      <trkpt lat="46.03656" lon="-0.5284">
        <ele>84.471069335938</ele>
        <time>2014-08-10T08:05:35.000Z</time>
      </trkpt>
      <trkpt lat="46.03659" lon="-0.52845">
        <ele>84.675827026367</ele>
        <time>2014-08-10T08:05:37.000Z</time>
      </trkpt>
      <trkpt lat="46.03662" lon="-0.52851">
        <ele>84.87833404541</ele>
        <time>2014-08-10T08:05:39.000Z</time>
      </trkpt>
      <trkpt lat="46.03667" lon="-0.5286">
        <ele>85.093612670898</ele>
        <time>2014-08-10T08:05:42.000Z</time>
      </trkpt>
      <trkpt lat="46.03671" lon="-0.52868">
        <ele>85.363082885742</ele>
        <time>2014-08-10T08:05:45.000Z</time>
      </trkpt>
      <trkpt lat="46.03674" lon="-0.52878">
        <ele>85.703277587891</ele>
        <time>2014-08-10T08:05:48.000Z</time>
      </trkpt>
      <trkpt lat="46.03678" lon="-0.52888">
        <ele>86.110122680664</ele>
        <time>2014-08-10T08:05:51.000Z</time>
      </trkpt>
      <trkpt lat="46.03682" lon="-0.52897">
        <ele>86.557334899902</ele>
        <time>2014-08-10T08:05:54.000Z</time>
      </trkpt>
      <trkpt lat="46.03688" lon="-0.52904">
        <ele>87.005996704102</ele>
        <time>2014-08-10T08:05:58.000Z</time>
      </trkpt>
      <trkpt lat="46.03695" lon="-0.5291">
        <ele>87.394813537598</ele>
        <time>2014-08-10T08:06:00.000Z</time>
      </trkpt>
      <trkpt lat="46.03702" lon="-0.52913">
        <ele>87.678756713867</ele>
        <time>2014-08-10T08:06:03.000Z</time>
      </trkpt>
      <trkpt lat="46.03709" lon="-0.52918">
        <ele>87.865188598633</ele>
        <time>2014-08-10T08:06:06.000Z</time>
      </trkpt>
      <trkpt lat="46.03716" lon="-0.52923">
        <ele>87.966491699219</ele>
        <time>2014-08-10T08:06:09.000Z</time>
      </trkpt>
      <trkpt lat="46.03721" lon="-0.52927">
        <ele>88.00456237793</ele>
        <time>2014-08-10T08:06:11.000Z</time>
      </trkpt>
      <trkpt lat="46.03727" lon="-0.52931">
        <ele>88.01106262207</ele>
        <time>2014-08-10T08:06:14.000Z</time>
      </trkpt>
      <trkpt lat="46.03731" lon="-0.52935">
        <ele>88.022132873535</ele>
        <time>2014-08-10T08:06:16.000Z</time>
      </trkpt>
      <trkpt lat="46.03738" lon="-0.5294">
        <ele>88.035743713379</ele>
        <time>2014-08-10T08:06:19.000Z</time>
      </trkpt>
      <trkpt lat="46.03745" lon="-0.5295">
        <ele>88.093246459961</ele>
        <time>2014-08-10T08:06:22.000Z</time>
      </trkpt>
      <trkpt lat="46.03749" lon="-0.52956">
        <ele>88.174270629883</ele>
        <time>2014-08-10T08:06:24.000Z</time>
      </trkpt>
      <trkpt lat="46.03756" lon="-0.52965">
        <ele>88.289733886719</ele>
        <time>2014-08-10T08:06:27.000Z</time>
      </trkpt>
      <trkpt lat="46.03756" lon="-0.52978">
        <ele>88.488380432129</ele>
        <time>2014-08-10T08:06:30.000Z</time>
      </trkpt>
      <trkpt lat="46.03756" lon="-0.52991">
        <ele>88.766784667969</ele>
        <time>2014-08-10T08:06:33.000Z</time>
      </trkpt>
      <trkpt lat="46.03755" lon="-0.52998">
        <ele>89.06014251709</ele>
        <time>2014-08-10T08:06:35.000Z</time>
      </trkpt>
      <trkpt lat="46.03756" lon="-0.53006">
        <ele>89.338088989258</ele>
        <time>2014-08-10T08:06:37.000Z</time>
      </trkpt>
      <trkpt lat="46.03756" lon="-0.53017">
        <ele>89.578018188477</ele>
        <time>2014-08-10T08:06:40.000Z</time>
      </trkpt>
      <trkpt lat="46.03757" lon="-0.53027">
        <ele>89.729095458984</ele>
        <time>2014-08-10T08:06:43.000Z</time>
      </trkpt>
      <trkpt lat="46.03761" lon="-0.53033">
        <ele>89.775215148926</ele>
        <time>2014-08-10T08:06:45.000Z</time>
      </trkpt>
      <trkpt lat="46.03767" lon="-0.53039">
        <ele>89.734085083008</ele>
        <time>2014-08-10T08:06:48.000Z</time>
      </trkpt>
      <trkpt lat="46.03771" lon="-0.53039">
        <ele>89.670845031738</ele>
        <time>2014-08-10T08:06:50.000Z</time>
      </trkpt>
      <trkpt lat="46.03774" lon="-0.5304">
        <ele>89.593704223633</ele>
        <time>2014-08-10T08:06:52.000Z</time>
      </trkpt>
      <trkpt lat="46.03777" lon="-0.53041">
        <ele>89.502433776855</ele>
        <time>2014-08-10T08:06:54.000Z</time>
      </trkpt>
      <trkpt lat="46.03785" lon="-0.53041">
        <ele>89.392166137695</ele>
        <time>2014-08-10T08:06:57.000Z</time>
      </trkpt>
      <trkpt lat="46.0379" lon="-0.53039">
        <ele>89.283569335938</ele>
        <time>2014-08-10T08:06:59.000Z</time>
      </trkpt>
      <trkpt lat="46.03798" lon="-0.53037">
        <ele>89.143486022949</ele>
        <time>2014-08-10T08:07:02.000Z</time>
      </trkpt>
      <trkpt lat="46.03803" lon="-0.53036">
        <ele>88.988571166992</ele>
        <time>2014-08-10T08:07:04.000Z</time>
      </trkpt>
      <trkpt lat="46.0381" lon="-0.53033">
        <ele>88.802108764648</ele>
        <time>2014-08-10T08:07:07.000Z</time>
      </trkpt>
      <trkpt lat="46.03815" lon="-0.53031">
        <ele>88.616317749023</ele>
        <time>2014-08-10T08:07:09.000Z</time>
      </trkpt>
      <trkpt lat="46.03823" lon="-0.53029">
        <ele>88.405960083008</ele>
        <time>2014-08-10T08:07:12.000Z</time>
      </trkpt>
      <trkpt lat="46.03829" lon="-0.53029">
        <ele>88.211135864258</ele>
        <time>2014-08-10T08:07:14.000Z</time>
      </trkpt>
      <trkpt lat="46.03835" lon="-0.53028">
        <ele>88.015258789062</ele>
        <time>2014-08-10T08:07:17.000Z</time>
      </trkpt>
      <trkpt lat="46.03841" lon="-0.53023">
        <ele>87.819267272949</ele>
        <time>2014-08-10T08:08:36.000Z</time>
      </trkpt>
      <trkpt lat="46.03839" lon="-0.53026">
        <ele>87.680053710938</ele>
        <time>2014-08-10T08:08:38.000Z</time>
      </trkpt>
      <trkpt lat="46.03836" lon="-0.53028">
        <ele>87.611717224121</ele>
        <time>2014-08-10T08:08:41.000Z</time>
      </trkpt>
      <trkpt lat="46.03825" lon="-0.53029">
        <ele>87.634628295898</ele>
        <time>2014-08-10T08:08:54.000Z</time>
      </trkpt>
      <trkpt lat="46.0382" lon="-0.53032">
        <ele>87.726463317871</ele>
        <time>2014-08-10T08:08:56.000Z</time>
      </trkpt>
      <trkpt lat="46.03812" lon="-0.53036">
        <ele>87.925323486328</ele>
        <time>2014-08-10T08:08:59.000Z</time>
      </trkpt>
      <trkpt lat="46.03803" lon="-0.5304">
        <ele>88.158813476562</ele>
        <time>2014-08-10T08:09:02.000Z</time>
      </trkpt>
      <trkpt lat="46.03798" lon="-0.53043">
        <ele>88.407974243164</ele>
        <time>2014-08-10T08:09:04.000Z</time>
      </trkpt>
      <trkpt lat="46.0379" lon="-0.53046">
        <ele>88.643577575684</ele>
        <time>2014-08-10T08:09:07.000Z</time>
      </trkpt>
      <trkpt lat="46.03784" lon="-0.53048">
        <ele>88.870475769043</ele>
        <time>2014-08-10T08:09:09.000Z</time>
      </trkpt>
      <trkpt lat="46.03779" lon="-0.53049">
        <ele>89.059928894043</ele>
        <time>2014-08-10T08:09:11.000Z</time>
      </trkpt>
      <trkpt lat="46.0377" lon="-0.53048">
        <ele>89.22917175293</ele>
        <time>2014-08-10T08:09:14.000Z</time>
      </trkpt>
      <trkpt lat="46.03763" lon="-0.53043">
        <ele>89.393112182617</ele>
        <time>2014-08-10T08:09:17.000Z</time>
      </trkpt>
      <trkpt lat="46.03759" lon="-0.53034">
        <ele>89.527236938477</ele>
        <time>2014-08-10T08:09:20.000Z</time>
      </trkpt>
      <trkpt lat="46.03755" lon="-0.53026">
        <ele>89.646865844727</ele>
        <time>2014-08-10T08:09:23.000Z</time>
      </trkpt>
      <trkpt lat="46.03754" lon="-0.53021">
        <ele>89.751693725586</ele>
        <time>2014-08-10T08:09:26.000Z</time>
      </trkpt>
      <trkpt lat="46.03752" lon="-0.53018">
        <ele>89.832077026367</ele>
        <time>2014-08-10T08:09:28.000Z</time>
      </trkpt>
      <trkpt lat="46.0375" lon="-0.5301">
        <ele>89.893310546875</ele>
        <time>2014-08-10T08:09:31.000Z</time>
      </trkpt>
      <trkpt lat="46.03749" lon="-0.52997">
        <ele>89.920440673828</ele>
        <time>2014-08-10T08:09:34.000Z</time>
      </trkpt>
      <trkpt lat="46.03749" lon="-0.5299">
        <ele>89.881233215332</ele>
        <time>2014-08-10T08:09:36.000Z</time>
      </trkpt>
      <trkpt lat="46.03747" lon="-0.52982">
        <ele>89.786003112793</ele>
        <time>2014-08-10T08:09:38.000Z</time>
      </trkpt>
      <trkpt lat="46.03743" lon="-0.52971">
        <ele>89.610000610352</ele>
        <time>2014-08-10T08:09:41.000Z</time>
      </trkpt>
      <trkpt lat="46.03741" lon="-0.52964">
        <ele>89.380752563477</ele>
        <time>2014-08-10T08:09:43.000Z</time>
      </trkpt>
      <trkpt lat="46.03739" lon="-0.52954">
        <ele>89.105888366699</ele>
        <time>2014-08-10T08:09:46.000Z</time>
      </trkpt>
      <trkpt lat="46.03738" lon="-0.52947">
        <ele>88.838935852051</ele>
        <time>2014-08-10T08:09:49.000Z</time>
      </trkpt>
      <trkpt lat="46.03747" lon="-0.52956">
        <ele>88.651634216309</ele>
        <time>2014-08-10T08:10:03.000Z</time>
      </trkpt>
      <trkpt lat="46.03748" lon="-0.52962">
        <ele>88.572547912598</ele>
        <time>2014-08-10T08:10:06.000Z</time>
      </trkpt>
      <trkpt lat="46.0375" lon="-0.52967">
        <ele>88.565444946289</ele>
        <time>2014-08-10T08:10:08.000Z</time>
      </trkpt>
      <trkpt lat="46.03751" lon="-0.52976">
        <ele>88.67756652832</ele>
        <time>2014-08-10T08:10:11.000Z</time>
      </trkpt>
      <trkpt lat="46.03751" lon="-0.52983">
        <ele>88.886779785156</ele>
        <time>2014-08-10T08:10:14.000Z</time>
      </trkpt>
      <trkpt lat="46.03752" lon="-0.52989">
        <ele>89.095397949219</ele>
        <time>2014-08-10T08:10:17.000Z</time>
      </trkpt>
      <trkpt lat="46.03754" lon="-0.53005">
        <ele>89.335327148438</ele>
        <time>2014-08-10T08:10:32.000Z</time>
      </trkpt>
      <trkpt lat="46.03755" lon="-0.53011">
        <ele>89.539710998535</ele>
        <time>2014-08-10T08:10:34.000Z</time>
      </trkpt>
      <trkpt lat="46.03756" lon="-0.53019">
        <ele>89.682563781738</ele>
        <time>2014-08-10T08:10:37.000Z</time>
      </trkpt>
      <trkpt lat="46.03755" lon="-0.53026">
        <ele>89.779472351074</ele>
        <time>2014-08-10T08:10:40.000Z</time>
      </trkpt>
      <trkpt lat="46.03757" lon="-0.53033">
        <ele>89.838485717773</ele>
        <time>2014-08-10T08:10:43.000Z</time>
      </trkpt>
      <trkpt lat="46.03759" lon="-0.53036">
        <ele>89.81974029541</ele>
        <time>2014-08-10T08:10:46.000Z</time>
      </trkpt>
      <trkpt lat="46.03758" lon="-0.53038">
        <ele>89.810768127441</ele>
        <time>2014-08-10T08:10:48.000Z</time>
      </trkpt>
      <trkpt lat="46.03756" lon="-0.53037">
        <ele>89.815002441406</ele>
        <time>2014-08-10T08:10:50.000Z</time>
      </trkpt>
      <trkpt lat="46.03753" lon="-0.53029">
        <ele>89.831634521484</ele>
        <time>2014-08-10T08:10:53.000Z</time>
      </trkpt>
      <trkpt lat="46.03754" lon="-0.53018">
        <ele>89.843276977539</ele>
        <time>2014-08-10T08:10:56.000Z</time>
      </trkpt>
      <trkpt lat="46.03753" lon="-0.53006">
        <ele>89.870445251465</ele>
        <time>2014-08-10T08:10:59.000Z</time>
      </trkpt>
      <trkpt lat="46.03747" lon="-0.52995">
        <ele>89.885620117188</ele>
        <time>2014-08-10T08:11:01.000Z</time>
      </trkpt>
      <trkpt lat="46.03742" lon="-0.52979">
        <ele>89.793800354004</ele>
        <time>2014-08-10T08:11:04.000Z</time>
      </trkpt>
      <trkpt lat="46.03739" lon="-0.52961">
        <ele>89.568260192871</ele>
        <time>2014-08-10T08:11:07.000Z</time>
      </trkpt>
      <trkpt lat="46.03734" lon="-0.52945">
        <ele>89.259864807129</ele>
        <time>2014-08-10T08:11:10.000Z</time>
      </trkpt>
      <trkpt lat="46.03731" lon="-0.52938">
        <ele>88.906997680664</ele>
        <time>2014-08-10T08:11:12.000Z</time>
      </trkpt>
      <trkpt lat="46.03727" lon="-0.52933">
        <ele>88.551498413086</ele>
        <time>2014-08-10T08:11:14.000Z</time>
      </trkpt>
      <trkpt lat="46.03724" lon="-0.52931">
        <ele>88.291038513184</ele>
        <time>2014-08-10T08:11:16.000Z</time>
      </trkpt>
      <trkpt lat="46.03722" lon="-0.52925">
        <ele>88.121406555176</ele>
        <time>2014-08-10T08:11:19.000Z</time>
      </trkpt>
      <trkpt lat="46.03719" lon="-0.52923">
        <ele>88.042129516602</ele>
        <time>2014-08-10T08:11:21.000Z</time>
      </trkpt>
      <trkpt lat="46.03713" lon="-0.52919">
        <ele>88.000816345215</ele>
        <time>2014-08-10T08:11:24.000Z</time>
      </trkpt>
      <trkpt lat="46.0371" lon="-0.52916">
        <ele>87.968482971191</ele>
        <time>2014-08-10T08:11:26.000Z</time>
      </trkpt>
      <trkpt lat="46.03704" lon="-0.52913">
        <ele>87.93489074707</ele>
        <time>2014-08-10T08:11:29.000Z</time>
      </trkpt>
      <trkpt lat="46.03699" lon="-0.52909">
        <ele>87.912399291992</ele>
        <time>2014-08-10T08:11:32.000Z</time>
      </trkpt>
      <trkpt lat="46.03695" lon="-0.52906">
        <ele>87.880714416504</ele>
        <time>2014-08-10T08:11:34.000Z</time>
      </trkpt>
      <trkpt lat="46.03691" lon="-0.52904">
        <ele>87.843757629395</ele>
        <time>2014-08-10T08:11:37.000Z</time>
      </trkpt>
      <trkpt lat="46.03693" lon="-0.52905">
        <ele>87.804527282715</ele>
        <time>2014-08-10T08:11:41.000Z</time>
      </trkpt>
      <trkpt lat="46.03692" lon="-0.52909">
        <ele>87.819915771484</ele>
        <time>2014-08-10T08:12:15.000Z</time>
      </trkpt>
      <trkpt lat="46.03691" lon="-0.5291">
        <ele>87.862602233887</ele>
        <time>2014-08-10T08:12:18.000Z</time>
      </trkpt>
      <trkpt lat="46.03684" lon="-0.5292">
        <ele>88.041610717773</ele>
        <time>2014-08-10T08:12:32.000Z</time>
      </trkpt>
      <trkpt lat="46.0368" lon="-0.52924">
        <ele>88.265579223633</ele>
        <time>2014-08-10T08:12:35.000Z</time>
      </trkpt>
      <trkpt lat="46.03676" lon="-0.52928">
        <ele>88.527557373047</ele>
        <time>2014-08-10T08:12:37.000Z</time>
      </trkpt>
      <trkpt lat="46.03671" lon="-0.52929">
        <ele>88.773048400879</ele>
        <time>2014-08-10T08:12:40.000Z</time>
      </trkpt>
      <trkpt lat="46.0367" lon="-0.52931">
        <ele>89.013572692871</ele>
        <time>2014-08-10T08:12:42.000Z</time>
      </trkpt>
      <trkpt lat="46.03669" lon="-0.52933">
        <ele>89.146011352539</ele>
        <time>2014-08-10T08:12:44.000Z</time>
      </trkpt>
      <trkpt lat="46.03668" lon="-0.52936">
        <ele>89.257911682129</ele>
        <time>2014-08-10T08:12:46.000Z</time>
      </trkpt>
      <trkpt lat="46.03666" lon="-0.5294">
        <ele>89.360763549805</ele>
        <time>2014-08-10T08:12:49.000Z</time>
      </trkpt>
      <trkpt lat="46.03666" lon="-0.52942">
        <ele>89.441787719727</ele>
        <time>2014-08-10T08:12:52.000Z</time>
      </trkpt>
      <trkpt lat="46.03656" lon="-0.52953">
        <ele>89.590881347656</ele>
        <time>2014-08-10T08:13:09.000Z</time>
      </trkpt>
      <trkpt lat="46.03655" lon="-0.52956">
        <ele>89.742813110352</ele>
        <time>2014-08-10T08:13:11.000Z</time>
      </trkpt>
      <trkpt lat="46.03653" lon="-0.52961">
        <ele>89.899513244629</ele>
        <time>2014-08-10T08:13:14.000Z</time>
      </trkpt>
      <trkpt lat="46.03648" lon="-0.52968">
        <ele>90.068252563477</ele>
        <time>2014-08-10T08:13:17.000Z</time>
      </trkpt>
      <trkpt lat="46.03645" lon="-0.52972">
        <ele>90.245132446289</ele>
        <time>2014-08-10T08:13:19.000Z</time>
      </trkpt>
      <trkpt lat="46.03643" lon="-0.52973">
        <ele>90.350982666016</ele>
        <time>2014-08-10T08:13:21.000Z</time>
      </trkpt>
      <trkpt lat="46.03639" lon="-0.52971">
        <ele>90.438514709473</ele>
        <time>2014-08-10T08:13:24.000Z</time>
      </trkpt>
      <trkpt lat="46.03637" lon="-0.52972">
        <ele>90.508590698242</ele>
        <time>2014-08-10T08:13:26.000Z</time>
      </trkpt>
      <trkpt lat="46.03633" lon="-0.52974">
        <ele>90.552337646484</ele>
        <time>2014-08-10T08:13:29.000Z</time>
      </trkpt>
      <trkpt lat="46.03631" lon="-0.52976">
        <ele>90.586181640625</ele>
        <time>2014-08-10T08:13:31.000Z</time>
      </trkpt>
      <trkpt lat="46.0363" lon="-0.52983">
        <ele>90.633590698242</ele>
        <time>2014-08-10T08:13:34.000Z</time>
      </trkpt>
      <trkpt lat="46.03629" lon="-0.52992">
        <ele>90.705207824707</ele>
        <time>2014-08-10T08:13:36.000Z</time>
      </trkpt>
      <trkpt lat="46.03629" lon="-0.53001">
        <ele>90.792190551758</ele>
        <time>2014-08-10T08:13:39.000Z</time>
      </trkpt>
      <trkpt lat="46.03627" lon="-0.53011">
        <ele>90.881141662598</ele>
        <time>2014-08-10T08:13:42.000Z</time>
      </trkpt>
      <trkpt lat="46.03626" lon="-0.53019">
        <ele>90.970542907715</ele>
        <time>2014-08-10T08:13:44.000Z</time>
      </trkpt>
      <trkpt lat="46.03623" lon="-0.53031">
        <ele>91.051628112793</ele>
        <time>2014-08-10T08:13:47.000Z</time>
      </trkpt>
      <trkpt lat="46.03621" lon="-0.53043">
        <ele>91.119667053223</ele>
        <time>2014-08-10T08:13:50.000Z</time>
      </trkpt>
      <trkpt lat="46.03619" lon="-0.5305">
        <ele>91.16926574707</ele>
        <time>2014-08-10T08:13:52.000Z</time>
      </trkpt>
      <trkpt lat="46.03618" lon="-0.53057">
        <ele>91.21216583252</ele>
        <time>2014-08-10T08:13:54.000Z</time>
      </trkpt>
      <trkpt lat="46.03619" lon="-0.53066">
        <ele>91.256607055664</ele>
        <time>2014-08-10T08:13:57.000Z</time>
      </trkpt>
      <trkpt lat="46.03621" lon="-0.53074">
        <ele>91.301040649414</ele>
        <time>2014-08-10T08:14:00.000Z</time>
      </trkpt>
      <trkpt lat="46.03622" lon="-0.53084">
        <ele>91.349220275879</ele>
        <time>2014-08-10T08:14:03.000Z</time>
      </trkpt>
      <trkpt lat="46.03625" lon="-0.53093">
        <ele>91.408584594727</ele>
        <time>2014-08-10T08:14:06.000Z</time>
      </trkpt>
      <trkpt lat="46.03627" lon="-0.53098">
        <ele>91.472366333008</ele>
        <time>2014-08-10T08:14:08.000Z</time>
      </trkpt>
      <trkpt lat="46.0363" lon="-0.53107">
        <ele>91.535537719727</ele>
        <time>2014-08-10T08:14:11.000Z</time>
      </trkpt>
      <trkpt lat="46.03633" lon="-0.53114">
        <ele>91.590553283691</ele>
        <time>2014-08-10T08:14:13.000Z</time>
      </trkpt>
      <trkpt lat="46.03637" lon="-0.53124">
        <ele>91.63232421875</ele>
        <time>2014-08-10T08:14:16.000Z</time>
      </trkpt>
      <trkpt lat="46.0364" lon="-0.53134">
        <ele>91.652496337891</ele>
        <time>2014-08-10T08:14:19.000Z</time>
      </trkpt>
      <trkpt lat="46.03641" lon="-0.53141">
        <ele>91.660415649414</ele>
        <time>2014-08-10T08:14:21.000Z</time>
      </trkpt>
      <trkpt lat="46.03642" lon="-0.53154">
        <ele>91.653968811035</ele>
        <time>2014-08-10T08:14:24.000Z</time>
      </trkpt>
      <trkpt lat="46.03642" lon="-0.53163">
        <ele>91.639572143555</ele>
        <time>2014-08-10T08:14:26.000Z</time>
      </trkpt>
      <trkpt lat="46.03642" lon="-0.53171">
        <ele>91.610824584961</ele>
        <time>2014-08-10T08:14:28.000Z</time>
      </trkpt>
      <trkpt lat="46.0364" lon="-0.53184">
        <ele>91.551132202148</ele>
        <time>2014-08-10T08:14:31.000Z</time>
      </trkpt>
      <trkpt lat="46.0364" lon="-0.53196">
        <ele>91.456657409668</ele>
        <time>2014-08-10T08:14:34.000Z</time>
      </trkpt>
      <trkpt lat="46.0364" lon="-0.53205">
        <ele>91.337783813477</ele>
        <time>2014-08-10T08:14:36.000Z</time>
      </trkpt>
      <trkpt lat="46.03642" lon="-0.53215">
        <ele>91.188537597656</ele>
        <time>2014-08-10T08:14:38.000Z</time>
      </trkpt>
      <trkpt lat="46.03645" lon="-0.5323">
        <ele>90.993209838867</ele>
        <time>2014-08-10T08:14:41.000Z</time>
      </trkpt>
      <trkpt lat="46.03648" lon="-0.53239">
        <ele>90.801048278809</ele>
        <time>2014-08-10T08:14:43.000Z</time>
      </trkpt>
      <trkpt lat="46.03651" lon="-0.53253">
        <ele>90.594444274902</ele>
        <time>2014-08-10T08:14:46.000Z</time>
      </trkpt>
      <trkpt lat="46.03653" lon="-0.53262">
        <ele>90.377479553223</ele>
        <time>2014-08-10T08:14:48.000Z</time>
      </trkpt>
      <trkpt lat="46.03656" lon="-0.53277">
        <ele>90.142318725586</ele>
        <time>2014-08-10T08:14:51.000Z</time>
      </trkpt>
      <trkpt lat="46.03657" lon="-0.53288">
        <ele>89.931785583496</ele>
        <time>2014-08-10T08:14:53.000Z</time>
      </trkpt>
      <trkpt lat="46.03659" lon="-0.53304">
        <ele>89.704551696777</ele>
        <time>2014-08-10T08:14:56.000Z</time>
      </trkpt>
      <trkpt lat="46.0366" lon="-0.53316">
        <ele>89.498764038086</ele>
        <time>2014-08-10T08:14:58.000Z</time>
      </trkpt>
      <trkpt lat="46.03662" lon="-0.53327">
        <ele>89.307472229004</ele>
        <time>2014-08-10T08:15:00.000Z</time>
      </trkpt>
      <trkpt lat="46.03667" lon="-0.53341">
        <ele>89.170913696289</ele>
        <time>2014-08-10T08:15:03.000Z</time>
      </trkpt>
      <trkpt lat="46.0367" lon="-0.53356">
        <ele>89.078147888184</ele>
        <time>2014-08-10T08:15:06.000Z</time>
      </trkpt>
      <trkpt lat="46.03672" lon="-0.53366">
        <ele>89.039863586426</ele>
        <time>2014-08-10T08:15:08.000Z</time>
      </trkpt>
      <trkpt lat="46.03675" lon="-0.53382">
        <ele>89.039985656738</ele>
        <time>2014-08-10T08:15:11.000Z</time>
      </trkpt>
      <trkpt lat="46.03677" lon="-0.53398">
        <ele>89.069107055664</ele>
        <time>2014-08-10T08:15:14.000Z</time>
      </trkpt>
      <trkpt lat="46.03678" lon="-0.53411">
        <ele>89.095703125</ele>
        <time>2014-08-10T08:15:16.000Z</time>
      </trkpt>
      <trkpt lat="46.03679" lon="-0.53424">
        <ele>89.097862243652</ele>
        <time>2014-08-10T08:15:18.000Z</time>
      </trkpt>
      <trkpt lat="46.03678" lon="-0.5344">
        <ele>89.047439575195</ele>
        <time>2014-08-10T08:15:21.000Z</time>
      </trkpt>
      <trkpt lat="46.03677" lon="-0.5345">
        <ele>88.960342407227</ele>
        <time>2014-08-10T08:15:23.000Z</time>
      </trkpt>
      <trkpt lat="46.03676" lon="-0.5346">
        <ele>88.841941833496</ele>
        <time>2014-08-10T08:15:25.000Z</time>
      </trkpt>
      <trkpt lat="46.03674" lon="-0.53476">
        <ele>88.679138183594</ele>
        <time>2014-08-10T08:15:28.000Z</time>
      </trkpt>
      <trkpt lat="46.03672" lon="-0.53493">
        <ele>88.486305236816</ele>
        <time>2014-08-10T08:15:31.000Z</time>
      </trkpt>
      <trkpt lat="46.03669" lon="-0.53504">
        <ele>88.314346313477</ele>
        <time>2014-08-10T08:15:33.000Z</time>
      </trkpt>
      <trkpt lat="46.03666" lon="-0.53519">
        <ele>88.129318237305</ele>
        <time>2014-08-10T08:15:36.000Z</time>
      </trkpt>
      <trkpt lat="46.03659" lon="-0.53523">
        <ele>87.931686401367</ele>
        <time>2014-08-10T08:15:38.000Z</time>
      </trkpt>
      <trkpt lat="46.03649" lon="-0.53517">
        <ele>87.742668151855</ele>
        <time>2014-08-10T08:15:41.000Z</time>
      </trkpt>
      <trkpt lat="46.03642" lon="-0.53513">
        <ele>87.577003479004</ele>
        <time>2014-08-10T08:15:43.000Z</time>
      </trkpt>
      <trkpt lat="46.03632" lon="-0.53506">
        <ele>87.405433654785</ele>
        <time>2014-08-10T08:15:46.000Z</time>
      </trkpt>
      <trkpt lat="46.03621" lon="-0.535">
        <ele>87.238670349121</ele>
        <time>2014-08-10T08:15:49.000Z</time>
      </trkpt>
      <trkpt lat="46.03614" lon="-0.53496">
        <ele>87.073486328125</ele>
        <time>2014-08-10T08:15:51.000Z</time>
      </trkpt>
      <trkpt lat="46.03603" lon="-0.53489">
        <ele>86.879806518555</ele>
        <time>2014-08-10T08:15:54.000Z</time>
      </trkpt>
      <trkpt lat="46.03592" lon="-0.53482">
        <ele>86.632911682129</ele>
        <time>2014-08-10T08:15:57.000Z</time>
      </trkpt>
      <trkpt lat="46.03584" lon="-0.53477">
        <ele>86.359657287598</ele>
        <time>2014-08-10T08:15:59.000Z</time>
      </trkpt>
      <trkpt lat="46.03572" lon="-0.53469">
        <ele>86.008918762207</ele>
        <time>2014-08-10T08:16:02.000Z</time>
      </trkpt>
      <trkpt lat="46.03565" lon="-0.53463">
        <ele>85.6171875</ele>
        <time>2014-08-10T08:16:04.000Z</time>
      </trkpt>
      <trkpt lat="46.03554" lon="-0.53456">
        <ele>85.185562133789</ele>
        <time>2014-08-10T08:16:06.000Z</time>
      </trkpt>
      <trkpt lat="46.03541" lon="-0.53443">
        <ele>84.708557128906</ele>
        <time>2014-08-10T08:16:09.000Z</time>
      </trkpt>
      <trkpt lat="46.03527" lon="-0.53436">
        <ele>84.175399780273</ele>
        <time>2014-08-10T08:16:12.000Z</time>
      </trkpt>
      <trkpt lat="46.03518" lon="-0.53432">
        <ele>83.684913635254</ele>
        <time>2014-08-10T08:16:14.000Z</time>
      </trkpt>
      <trkpt lat="46.03508" lon="-0.53427">
        <ele>83.190963745117</ele>
        <time>2014-08-10T08:16:16.000Z</time>
      </trkpt>
      <trkpt lat="46.03491" lon="-0.5342">
        <ele>82.718101501465</ele>
        <time>2014-08-10T08:16:19.000Z</time>
      </trkpt>
      <trkpt lat="46.03481" lon="-0.53416">
        <ele>82.347702026367</ele>
        <time>2014-08-10T08:16:21.000Z</time>
      </trkpt>
      <trkpt lat="46.03466" lon="-0.5341">
        <ele>82.090637207031</ele>
        <time>2014-08-10T08:16:24.000Z</time>
      </trkpt>
      <trkpt lat="46.03455" lon="-0.53406">
        <ele>81.90567779541</ele>
        <time>2014-08-10T08:16:26.000Z</time>
      </trkpt>
      <trkpt lat="46.03438" lon="-0.534">
        <ele>81.805442810059</ele>
        <time>2014-08-10T08:16:29.000Z</time>
      </trkpt>
      <trkpt lat="46.03424" lon="-0.53396">
        <ele>81.789993286133</ele>
        <time>2014-08-10T08:16:31.000Z</time>
      </trkpt>
      <trkpt lat="46.03399" lon="-0.53389">
        <ele>81.883995056152</ele>
        <time>2014-08-10T08:16:34.000Z</time>
      </trkpt>
      <trkpt lat="46.03383" lon="-0.53386">
        <ele>82.051551818848</ele>
        <time>2014-08-10T08:16:36.000Z</time>
      </trkpt>
      <trkpt lat="46.0336" lon="-0.5338">
        <ele>82.30989074707</ele>
        <time>2014-08-10T08:16:39.000Z</time>
      </trkpt>
      <trkpt lat="46.03339" lon="-0.53376">
        <ele>82.636672973633</ele>
        <time>2014-08-10T08:16:42.000Z</time>
      </trkpt>
      <trkpt lat="46.03326" lon="-0.53373">
        <ele>83.025588989258</ele>
        <time>2014-08-10T08:16:44.000Z</time>
      </trkpt>
      <trkpt lat="46.03313" lon="-0.53371">
        <ele>83.41081237793</ele>
        <time>2014-08-10T08:16:46.000Z</time>
      </trkpt>
      <trkpt lat="46.03294" lon="-0.53368">
        <ele>83.863204956055</ele>
        <time>2014-08-10T08:16:49.000Z</time>
      </trkpt>
      <trkpt lat="46.03283" lon="-0.53366">
        <ele>84.31014251709</ele>
        <time>2014-08-10T08:16:51.000Z</time>
      </trkpt>
      <trkpt lat="46.03268" lon="-0.53365">
        <ele>84.798751831055</ele>
        <time>2014-08-10T08:16:54.000Z</time>
      </trkpt>
      <trkpt lat="46.03259" lon="-0.53364">
        <ele>85.29679107666</ele>
        <time>2014-08-10T08:16:56.000Z</time>
      </trkpt>
      <trkpt lat="46.03244" lon="-0.53362">
        <ele>85.798400878906</ele>
        <time>2014-08-10T08:16:59.000Z</time>
      </trkpt>
      <trkpt lat="46.03232" lon="-0.53361">
        <ele>86.204635620117</ele>
        <time>2014-08-10T08:17:02.000Z</time>
      </trkpt>
      <trkpt lat="46.03224" lon="-0.5336">
        <ele>86.550453186035</ele>
        <time>2014-08-10T08:17:04.000Z</time>
      </trkpt>
      <trkpt lat="46.03218" lon="-0.53359">
        <ele>86.804649353027</ele>
        <time>2014-08-10T08:17:07.000Z</time>
      </trkpt>
      <trkpt lat="46.03205" lon="-0.53358">
        <ele>87.02685546875</ele>
        <time>2014-08-10T08:17:10.000Z</time>
      </trkpt>
      <trkpt lat="46.03195" lon="-0.53355">
        <ele>87.208984375</ele>
        <time>2014-08-10T08:17:13.000Z</time>
      </trkpt>
      <trkpt lat="46.03185" lon="-0.53354">
        <ele>87.387939453125</ele>
        <time>2014-08-10T08:17:16.000Z</time>
      </trkpt>
      <trkpt lat="46.03178" lon="-0.53354">
        <ele>87.55078125</ele>
        <time>2014-08-10T08:17:18.000Z</time>
      </trkpt>
      <trkpt lat="46.03171" lon="-0.53355">
        <ele>87.707946777344</ele>
        <time>2014-08-10T08:17:20.000Z</time>
      </trkpt>
      <trkpt lat="46.03164" lon="-0.53355">
        <ele>87.847816467285</ele>
        <time>2014-08-10T08:17:22.000Z</time>
      </trkpt>
      <trkpt lat="46.03158" lon="-0.53355">
        <ele>87.962799072266</ele>
        <time>2014-08-10T08:17:24.000Z</time>
      </trkpt>
      <trkpt lat="46.03149" lon="-0.53355">
        <ele>88.088882446289</ele>
        <time>2014-08-10T08:17:27.000Z</time>
      </trkpt>
      <trkpt lat="46.03143" lon="-0.53355">
        <ele>88.238739013672</ele>
        <time>2014-08-10T08:17:29.000Z</time>
      </trkpt>
      <trkpt lat="46.03137" lon="-0.53355">
        <ele>88.400833129883</ele>
        <time>2014-08-10T08:17:31.000Z</time>
      </trkpt>
      <trkpt lat="46.03131" lon="-0.53357">
        <ele>88.55989074707</ele>
        <time>2014-08-10T08:17:34.000Z</time>
      </trkpt>
      <trkpt lat="46.03123" lon="-0.53356">
        <ele>88.741691589355</ele>
        <time>2014-08-10T08:17:36.000Z</time>
      </trkpt>
      <trkpt lat="46.03115" lon="-0.53355">
        <ele>88.92684173584</ele>
        <time>2014-08-10T08:17:39.000Z</time>
      </trkpt>
      <trkpt lat="46.03111" lon="-0.53353">
        <ele>89.115600585938</ele>
        <time>2014-08-10T08:17:41.000Z</time>
      </trkpt>
      <trkpt lat="46.03104" lon="-0.53354">
        <ele>89.308151245117</ele>
        <time>2014-08-10T08:17:44.000Z</time>
      </trkpt>
      <trkpt lat="46.03096" lon="-0.53356">
        <ele>89.511108398438</ele>
        <time>2014-08-10T08:17:47.000Z</time>
      </trkpt>
      <trkpt lat="46.03087" lon="-0.5336">
        <ele>89.685745239258</ele>
        <time>2014-08-10T08:17:50.000Z</time>
      </trkpt>
      <trkpt lat="46.03081" lon="-0.53362">
        <ele>89.816421508789</ele>
        <time>2014-08-10T08:17:52.000Z</time>
      </trkpt>
      <trkpt lat="46.03073" lon="-0.53364">
        <ele>89.90941619873</ele>
        <time>2014-08-10T08:17:54.000Z</time>
      </trkpt>
      <trkpt lat="46.03065" lon="-0.53367">
        <ele>89.969131469727</ele>
        <time>2014-08-10T08:17:56.000Z</time>
      </trkpt>
      <trkpt lat="46.03058" lon="-0.53369">
        <ele>89.999549865723</ele>
        <time>2014-08-10T08:17:58.000Z</time>
      </trkpt>
      <trkpt lat="46.03046" lon="-0.53373">
        <ele>90.008102416992</ele>
        <time>2014-08-10T08:18:01.000Z</time>
      </trkpt>
      <trkpt lat="46.03035" lon="-0.53376">
        <ele>90.01033782959</ele>
        <time>2014-08-10T08:18:04.000Z</time>
      </trkpt>
      <trkpt lat="46.03025" lon="-0.53379">
        <ele>90.02131652832</ele>
        <time>2014-08-10T08:18:07.000Z</time>
      </trkpt>
      <trkpt lat="46.03017" lon="-0.53381">
        <ele>90.037620544434</ele>
        <time>2014-08-10T08:18:09.000Z</time>
      </trkpt>
      <trkpt lat="46.03006" lon="-0.53383">
        <ele>90.063827514648</ele>
        <time>2014-08-10T08:18:12.000Z</time>
      </trkpt>
      <trkpt lat="46.02996" lon="-0.53384">
        <ele>90.122695922852</ele>
        <time>2014-08-10T08:18:15.000Z</time>
      </trkpt>
      <trkpt lat="46.02986" lon="-0.53386">
        <ele>90.235412597656</ele>
        <time>2014-08-10T08:18:18.000Z</time>
      </trkpt>
      <trkpt lat="46.0298" lon="-0.53387">
        <ele>90.376937866211</ele>
        <time>2014-08-10T08:18:20.000Z</time>
      </trkpt>
      <trkpt lat="46.02973" lon="-0.53389">
        <ele>90.551986694336</ele>
        <time>2014-08-10T08:18:22.000Z</time>
      </trkpt>
      <trkpt lat="46.02965" lon="-0.53391">
        <ele>90.769149780273</ele>
        <time>2014-08-10T08:18:25.000Z</time>
      </trkpt>
      <trkpt lat="46.02958" lon="-0.53392">
        <ele>91.001167297363</ele>
        <time>2014-08-10T08:18:27.000Z</time>
      </trkpt>
      <trkpt lat="46.02947" lon="-0.53393">
        <ele>91.254554748535</ele>
        <time>2014-08-10T08:18:30.000Z</time>
      </trkpt>
      <trkpt lat="46.0294" lon="-0.53395">
        <ele>91.524116516113</ele>
        <time>2014-08-10T08:18:32.000Z</time>
      </trkpt>
      <trkpt lat="46.02929" lon="-0.53398">
        <ele>91.831985473633</ele>
        <time>2014-08-10T08:18:35.000Z</time>
      </trkpt>
      <trkpt lat="46.02923" lon="-0.53399">
        <ele>92.136901855469</ele>
        <time>2014-08-10T08:18:37.000Z</time>
      </trkpt>
      <trkpt lat="46.02913" lon="-0.53401">
        <ele>92.45393371582</ele>
        <time>2014-08-10T08:18:40.000Z</time>
      </trkpt>
      <trkpt lat="46.02905" lon="-0.53403">
        <ele>92.709815979004</ele>
        <time>2014-08-10T08:18:42.000Z</time>
      </trkpt>
      <trkpt lat="46.02892" lon="-0.53404">
        <ele>92.945541381836</ele>
        <time>2014-08-10T08:18:45.000Z</time>
      </trkpt>
      <trkpt lat="46.02881" lon="-0.53404">
        <ele>93.131126403809</ele>
        <time>2014-08-10T08:18:47.000Z</time>
      </trkpt>
      <trkpt lat="46.02868" lon="-0.53408">
        <ele>93.298828125</ele>
        <time>2014-08-10T08:18:50.000Z</time>
      </trkpt>
      <trkpt lat="46.02862" lon="-0.53409">
        <ele>93.4208984375</ele>
        <time>2014-08-10T08:18:52.000Z</time>
      </trkpt>
      <trkpt lat="46.02849" lon="-0.53412">
        <ele>93.5556640625</ele>
        <time>2014-08-10T08:18:55.000Z</time>
      </trkpt>
      <trkpt lat="46.02842" lon="-0.53414">
        <ele>93.67578125</ele>
        <time>2014-08-10T08:18:57.000Z</time>
      </trkpt>
      <trkpt lat="46.02835" lon="-0.53415">
        <ele>93.7861328125</ele>
        <time>2014-08-10T08:18:59.000Z</time>
      </trkpt>
      <trkpt lat="46.02826" lon="-0.53418">
        <ele>93.864379882812</ele>
        <time>2014-08-10T08:19:02.000Z</time>
      </trkpt>
      <trkpt lat="46.02818" lon="-0.5342">
        <ele>93.923477172852</ele>
        <time>2014-08-10T08:19:04.000Z</time>
      </trkpt>
      <trkpt lat="46.0281" lon="-0.53422">
        <ele>93.94588470459</ele>
        <time>2014-08-10T08:19:06.000Z</time>
      </trkpt>
      <trkpt lat="46.02802" lon="-0.53422">
        <ele>93.946990966797</ele>
        <time>2014-08-10T08:19:09.000Z</time>
      </trkpt>
      <trkpt lat="46.02797" lon="-0.53424">
        <ele>93.924629211426</ele>
        <time>2014-08-10T08:19:11.000Z</time>
      </trkpt>
      <trkpt lat="46.02787" lon="-0.53431">
        <ele>93.875900268555</ele>
        <time>2014-08-10T08:19:14.000Z</time>
      </trkpt>
      <trkpt lat="46.02778" lon="-0.53436">
        <ele>93.807327270508</ele>
        <time>2014-08-10T08:19:17.000Z</time>
      </trkpt>
      <trkpt lat="46.02771" lon="-0.53442">
        <ele>93.717231750488</ele>
        <time>2014-08-10T08:19:20.000Z</time>
      </trkpt>
      <trkpt lat="46.02765" lon="-0.53447">
        <ele>93.604415893555</ele>
        <time>2014-08-10T08:19:23.000Z</time>
      </trkpt>
      <trkpt lat="46.02763" lon="-0.53452">
        <ele>93.472885131836</ele>
        <time>2014-08-10T08:19:26.000Z</time>
      </trkpt>
      <trkpt lat="46.0276" lon="-0.53459">
        <ele>93.333572387695</ele>
        <time>2014-08-10T08:19:29.000Z</time>
      </trkpt>
      <trkpt lat="46.02759" lon="-0.53463">
        <ele>93.200271606445</ele>
        <time>2014-08-10T08:19:31.000Z</time>
      </trkpt>
      <trkpt lat="46.0276" lon="-0.53471">
        <ele>93.061622619629</ele>
        <time>2014-08-10T08:19:34.000Z</time>
      </trkpt>
      <trkpt lat="46.02763" lon="-0.53476">
        <ele>92.930618286133</ele>
        <time>2014-08-10T08:19:36.000Z</time>
      </trkpt>
      <trkpt lat="46.02765" lon="-0.53481">
        <ele>92.808334350586</ele>
        <time>2014-08-10T08:19:38.000Z</time>
      </trkpt>
      <trkpt lat="46.0277" lon="-0.5349">
        <ele>92.690902709961</ele>
        <time>2014-08-10T08:19:41.000Z</time>
      </trkpt>
      <trkpt lat="46.02774" lon="-0.535">
        <ele>92.561660766602</ele>
        <time>2014-08-10T08:19:44.000Z</time>
      </trkpt>
      <trkpt lat="46.02777" lon="-0.53508">
        <ele>92.41716003418</ele>
        <time>2014-08-10T08:19:46.000Z</time>
      </trkpt>
      <trkpt lat="46.02782" lon="-0.5352">
        <ele>92.22469329834</ele>
        <time>2014-08-10T08:19:48.000Z</time>
      </trkpt>
      <trkpt lat="46.02787" lon="-0.53531">
        <ele>91.97900390625</ele>
        <time>2014-08-10T08:19:50.000Z</time>
      </trkpt>
      <trkpt lat="46.02793" lon="-0.53548">
        <ele>91.64478302002</ele>
        <time>2014-08-10T08:19:53.000Z</time>
      </trkpt>
      <trkpt lat="46.028" lon="-0.53564">
        <ele>91.210708618164</ele>
        <time>2014-08-10T08:19:56.000Z</time>
      </trkpt>
      <trkpt lat="46.02811" lon="-0.53584">
        <ele>90.654197692871</ele>
        <time>2014-08-10T08:19:59.000Z</time>
      </trkpt>
      <trkpt lat="46.02819" lon="-0.53599">
        <ele>90.181350708008</ele>
        <time>2014-08-10T08:20:02.000Z</time>
      </trkpt>
      <trkpt lat="46.02824" lon="-0.53608">
        <ele>89.789001464844</ele>
        <time>2014-08-10T08:20:04.000Z</time>
      </trkpt>
      <trkpt lat="46.02834" lon="-0.53622">
        <ele>89.519119262695</ele>
        <time>2014-08-10T08:20:07.000Z</time>
      </trkpt>
      <trkpt lat="46.02839" lon="-0.53638">
        <ele>89.389198303223</ele>
        <time>2014-08-10T08:20:10.000Z</time>
      </trkpt>
      <trkpt lat="46.02842" lon="-0.53643">
        <ele>89.424606323242</ele>
        <time>2014-08-10T08:20:13.000Z</time>
      </trkpt>
      <trkpt lat="46.02843" lon="-0.53647">
        <ele>89.440673828125</ele>
        <time>2014-08-10T08:20:15.000Z</time>
      </trkpt>
      <trkpt lat="46.02845" lon="-0.53648">
        <ele>89.436660766602</ele>
        <time>2014-08-10T08:20:17.000Z</time>
      </trkpt>
      <trkpt lat="46.02849" lon="-0.53653">
        <ele>89.41291809082</ele>
        <time>2014-08-10T08:20:20.000Z</time>
      </trkpt>
      <trkpt lat="46.02851" lon="-0.53658">
        <ele>89.370544433594</ele>
        <time>2014-08-10T08:20:22.000Z</time>
      </trkpt>
      <trkpt lat="46.02862" lon="-0.5367">
        <ele>89.280540466309</ele>
        <time>2014-08-10T08:20:25.000Z</time>
      </trkpt>
      <trkpt lat="46.02873" lon="-0.53684">
        <ele>89.128593444824</ele>
        <time>2014-08-10T08:20:28.000Z</time>
      </trkpt>
      <trkpt lat="46.02879" lon="-0.53696">
        <ele>88.952537536621</ele>
        <time>2014-08-10T08:20:30.000Z</time>
      </trkpt>
      <trkpt lat="46.02895" lon="-0.53717">
        <ele>88.679588317871</ele>
        <time>2014-08-10T08:20:33.000Z</time>
      </trkpt>
      <trkpt lat="46.02906" lon="-0.53734">
        <ele>88.320106506348</ele>
        <time>2014-08-10T08:20:35.000Z</time>
      </trkpt>
      <trkpt lat="46.02916" lon="-0.53748">
        <ele>87.923789978027</ele>
        <time>2014-08-10T08:20:37.000Z</time>
      </trkpt>
      <trkpt lat="46.02924" lon="-0.53763">
        <ele>87.580871582031</ele>
        <time>2014-08-10T08:20:40.000Z</time>
      </trkpt>
      <trkpt lat="46.02935" lon="-0.53779">
        <ele>87.228340148926</ele>
        <time>2014-08-10T08:20:43.000Z</time>
      </trkpt>
      <trkpt lat="46.02948" lon="-0.53803">
        <ele>86.922271728516</ele>
        <time>2014-08-10T08:20:46.000Z</time>
      </trkpt>
      <trkpt lat="46.02954" lon="-0.53816">
        <ele>86.662124633789</ele>
        <time>2014-08-10T08:20:48.000Z</time>
      </trkpt>
      <trkpt lat="46.02962" lon="-0.53831">
        <ele>86.421279907227</ele>
        <time>2014-08-10T08:20:51.000Z</time>
      </trkpt>
      <trkpt lat="46.0296" lon="-0.53838">
        <ele>86.209884643555</ele>
        <time>2014-08-10T08:20:54.000Z</time>
      </trkpt>
      <trkpt lat="46.02956" lon="-0.53836">
        <ele>86.082542419434</ele>
        <time>2014-08-10T08:20:56.000Z</time>
      </trkpt>
      <trkpt lat="46.02949" lon="-0.53843">
        <ele>86.070877075195</ele>
        <time>2014-08-10T08:20:59.000Z</time>
      </trkpt>
      <trkpt lat="46.02941" lon="-0.53849">
        <ele>86.162246704102</ele>
        <time>2014-08-10T08:21:01.000Z</time>
      </trkpt>
      <trkpt lat="46.02932" lon="-0.53852">
        <ele>86.38175201416</ele>
        <time>2014-08-10T08:21:03.000Z</time>
      </trkpt>
      <trkpt lat="46.02925" lon="-0.53855">
        <ele>86.632438659668</ele>
        <time>2014-08-10T08:21:06.000Z</time>
      </trkpt>
      <trkpt lat="46.02919" lon="-0.53857">
        <ele>86.876914978027</ele>
        <time>2014-08-10T08:21:08.000Z</time>
      </trkpt>
      <trkpt lat="46.02912" lon="-0.53861">
        <ele>87.096633911133</ele>
        <time>2014-08-10T08:21:11.000Z</time>
      </trkpt>
      <trkpt lat="46.02903" lon="-0.53865">
        <ele>87.29753112793</ele>
        <time>2014-08-10T08:21:14.000Z</time>
      </trkpt>
      <trkpt lat="46.02896" lon="-0.53868">
        <ele>87.467170715332</ele>
        <time>2014-08-10T08:21:16.000Z</time>
      </trkpt>
      <trkpt lat="46.02888" lon="-0.53871">
        <ele>87.619583129883</ele>
        <time>2014-08-10T08:21:18.000Z</time>
      </trkpt>
      <trkpt lat="46.02877" lon="-0.53875">
        <ele>87.790512084961</ele>
        <time>2014-08-10T08:21:21.000Z</time>
      </trkpt>
      <trkpt lat="46.02866" lon="-0.53878">
        <ele>87.990219116211</ele>
        <time>2014-08-10T08:21:24.000Z</time>
      </trkpt>
      <trkpt lat="46.02859" lon="-0.53879">
        <ele>88.197875976562</ele>
        <time>2014-08-10T08:21:26.000Z</time>
      </trkpt>
      <trkpt lat="46.02851" lon="-0.53882">
        <ele>88.419418334961</ele>
        <time>2014-08-10T08:21:28.000Z</time>
      </trkpt>
      <trkpt lat="46.0284" lon="-0.53885">
        <ele>88.669357299805</ele>
        <time>2014-08-10T08:21:31.000Z</time>
      </trkpt>
      <trkpt lat="46.02832" lon="-0.53888">
        <ele>88.914863586426</ele>
        <time>2014-08-10T08:21:33.000Z</time>
      </trkpt>
      <trkpt lat="46.0282" lon="-0.53891">
        <ele>89.221755981445</ele>
        <time>2014-08-10T08:21:36.000Z</time>
      </trkpt>
      <trkpt lat="46.02813" lon="-0.53894">
        <ele>89.566177368164</ele>
        <time>2014-08-10T08:21:38.000Z</time>
      </trkpt>
      <trkpt lat="46.02801" lon="-0.53898">
        <ele>89.989433288574</ele>
        <time>2014-08-10T08:21:41.000Z</time>
      </trkpt>
      <trkpt lat="46.0279" lon="-0.53903">
        <ele>90.472244262695</ele>
        <time>2014-08-10T08:21:44.000Z</time>
      </trkpt>
      <trkpt lat="46.02783" lon="-0.53906">
        <ele>90.990951538086</ele>
        <time>2014-08-10T08:21:46.000Z</time>
      </trkpt>
      <trkpt lat="46.02775" lon="-0.53909">
        <ele>91.484260559082</ele>
        <time>2014-08-10T08:21:48.000Z</time>
      </trkpt>
      <trkpt lat="46.02768" lon="-0.53913">
        <ele>91.988662719727</ele>
        <time>2014-08-10T08:21:50.000Z</time>
      </trkpt>
      <trkpt lat="46.02757" lon="-0.53917">
        <ele>92.515151977539</ele>
        <time>2014-08-10T08:21:53.000Z</time>
      </trkpt>
      <trkpt lat="46.02745" lon="-0.53919">
        <ele>93.018577575684</ele>
        <time>2014-08-10T08:21:56.000Z</time>
      </trkpt>
      <trkpt lat="46.02737" lon="-0.53922">
        <ele>93.481918334961</ele>
        <time>2014-08-10T08:21:58.000Z</time>
      </trkpt>
      <trkpt lat="46.02726" lon="-0.53927">
        <ele>93.923393249512</ele>
        <time>2014-08-10T08:22:01.000Z</time>
      </trkpt>
      <trkpt lat="46.02718" lon="-0.5393">
        <ele>94.317947387695</ele>
        <time>2014-08-10T08:22:03.000Z</time>
      </trkpt>
      <trkpt lat="46.0271" lon="-0.53934">
        <ele>94.621192932129</ele>
        <time>2014-08-10T08:22:05.000Z</time>
      </trkpt>
      <trkpt lat="46.02702" lon="-0.53936">
        <ele>94.876609802246</ele>
        <time>2014-08-10T08:22:07.000Z</time>
      </trkpt>
      <trkpt lat="46.02691" lon="-0.5394">
        <ele>95.164833068848</ele>
        <time>2014-08-10T08:22:10.000Z</time>
      </trkpt>
      <trkpt lat="46.02679" lon="-0.53944">
        <ele>95.467239379883</ele>
        <time>2014-08-10T08:22:13.000Z</time>
      </trkpt>
      <trkpt lat="46.02667" lon="-0.53948">
        <ele>95.81128692627</ele>
        <time>2014-08-10T08:22:16.000Z</time>
      </trkpt>
      <trkpt lat="46.02659" lon="-0.5395">
        <ele>96.130142211914</ele>
        <time>2014-08-10T08:22:18.000Z</time>
      </trkpt>
      <trkpt lat="46.02647" lon="-0.53954">
        <ele>96.423988342285</ele>
        <time>2014-08-10T08:22:21.000Z</time>
      </trkpt>
      <trkpt lat="46.02638" lon="-0.53956">
        <ele>96.651870727539</ele>
        <time>2014-08-10T08:22:23.000Z</time>
      </trkpt>
      <trkpt lat="46.02626" lon="-0.5396">
        <ele>96.798828125</ele>
        <time>2014-08-10T08:22:26.000Z</time>
      </trkpt>
      <trkpt lat="46.02617" lon="-0.53963">
        <ele>96.85676574707</ele>
        <time>2014-08-10T08:22:28.000Z</time>
      </trkpt>
      <trkpt lat="46.02605" lon="-0.53966">
        <ele>96.884346008301</ele>
        <time>2014-08-10T08:22:31.000Z</time>
      </trkpt>
      <trkpt lat="46.02597" lon="-0.53968">
        <ele>96.875938415527</ele>
        <time>2014-08-10T08:22:33.000Z</time>
      </trkpt>
      <trkpt lat="46.02584" lon="-0.53974">
        <ele>96.812545776367</ele>
        <time>2014-08-10T08:22:36.000Z</time>
      </trkpt>
      <trkpt lat="46.02578" lon="-0.53976">
        <ele>96.752830505371</ele>
        <time>2014-08-10T08:22:38.000Z</time>
      </trkpt>
      <trkpt lat="46.02571" lon="-0.53978">
        <ele>96.707832336426</ele>
        <time>2014-08-10T08:22:40.000Z</time>
      </trkpt>
      <trkpt lat="46.02567" lon="-0.53979">
        <ele>96.681457519531</ele>
        <time>2014-08-10T08:22:42.000Z</time>
      </trkpt>
      <trkpt lat="46.02561" lon="-0.53981">
        <ele>96.682762145996</ele>
        <time>2014-08-10T08:22:45.000Z</time>
      </trkpt>
      <trkpt lat="46.02554" lon="-0.53985">
        <ele>96.735595703125</ele>
        <time>2014-08-10T08:22:48.000Z</time>
      </trkpt>
      <trkpt lat="46.02549" lon="-0.53986">
        <ele>96.801071166992</ele>
        <time>2014-08-10T08:22:50.000Z</time>
      </trkpt>
      <trkpt lat="46.02541" lon="-0.53988">
        <ele>96.885971069336</ele>
        <time>2014-08-10T08:22:53.000Z</time>
      </trkpt>
      <trkpt lat="46.02536" lon="-0.53989">
        <ele>96.983459472656</ele>
        <time>2014-08-10T08:22:55.000Z</time>
      </trkpt>
      <trkpt lat="46.02529" lon="-0.53991">
        <ele>97.088043212891</ele>
        <time>2014-08-10T08:22:58.000Z</time>
      </trkpt>
      <trkpt lat="46.0252" lon="-0.53994">
        <ele>97.224365234375</ele>
        <time>2014-08-10T08:23:01.000Z</time>
      </trkpt>
      <trkpt lat="46.02514" lon="-0.53996">
        <ele>97.368034362793</ele>
        <time>2014-08-10T08:23:03.000Z</time>
      </trkpt>
      <trkpt lat="46.02505" lon="-0.53999">
        <ele>97.51944732666</ele>
        <time>2014-08-10T08:23:06.000Z</time>
      </trkpt>
      <trkpt lat="46.02498" lon="-0.54003">
        <ele>97.661460876465</ele>
        <time>2014-08-10T08:23:08.000Z</time>
      </trkpt>
      <trkpt lat="46.02488" lon="-0.54007">
        <ele>97.763900756836</ele>
        <time>2014-08-10T08:23:11.000Z</time>
      </trkpt>
      <trkpt lat="46.02478" lon="-0.54012">
        <ele>97.79833984375</ele>
        <time>2014-08-10T08:23:14.000Z</time>
      </trkpt>
      <trkpt lat="46.02468" lon="-0.54016">
        <ele>97.787170410156</ele>
        <time>2014-08-10T08:23:17.000Z</time>
      </trkpt>
      <trkpt lat="46.0246" lon="-0.54018">
        <ele>97.723266601562</ele>
        <time>2014-08-10T08:23:19.000Z</time>
      </trkpt>
      <trkpt lat="46.02449" lon="-0.54023">
        <ele>97.59806060791</ele>
        <time>2014-08-10T08:23:22.000Z</time>
      </trkpt>
      <trkpt lat="46.02441" lon="-0.54026">
        <ele>97.450073242188</ele>
        <time>2014-08-10T08:23:24.000Z</time>
      </trkpt>
      <trkpt lat="46.02433" lon="-0.54029">
        <ele>97.288475036621</ele>
        <time>2014-08-10T08:23:26.000Z</time>
      </trkpt>
      <trkpt lat="46.02421" lon="-0.54034">
        <ele>97.08472442627</ele>
        <time>2014-08-10T08:23:29.000Z</time>
      </trkpt>
      <trkpt lat="46.02409" lon="-0.54037">
        <ele>96.849632263184</ele>
        <time>2014-08-10T08:23:32.000Z</time>
      </trkpt>
      <trkpt lat="46.024" lon="-0.5404">
        <ele>96.630599975586</ele>
        <time>2014-08-10T08:23:34.000Z</time>
      </trkpt>
      <trkpt lat="46.02385" lon="-0.54044">
        <ele>96.411285400391</ele>
        <time>2014-08-10T08:23:37.000Z</time>
      </trkpt>
      <trkpt lat="46.02371" lon="-0.5405">
        <ele>96.177627563477</ele>
        <time>2014-08-10T08:23:40.000Z</time>
      </trkpt>
      <trkpt lat="46.02356" lon="-0.54056">
        <ele>95.945335388184</ele>
        <time>2014-08-10T08:23:43.000Z</time>
      </trkpt>
      <trkpt lat="46.02345" lon="-0.54058">
        <ele>95.76033782959</ele>
        <time>2014-08-10T08:23:45.000Z</time>
      </trkpt>
      <trkpt lat="46.02331" lon="-0.54063">
        <ele>95.560646057129</ele>
        <time>2014-08-10T08:23:48.000Z</time>
      </trkpt>
      <trkpt lat="46.0232" lon="-0.54066">
        <ele>95.357612609863</ele>
        <time>2014-08-10T08:23:50.000Z</time>
      </trkpt>
      <trkpt lat="46.02306" lon="-0.54067">
        <ele>95.181114196777</ele>
        <time>2014-08-10T08:23:53.000Z</time>
      </trkpt>
      <trkpt lat="46.0229" lon="-0.54069">
        <ele>95.032279968262</ele>
        <time>2014-08-10T08:23:56.000Z</time>
      </trkpt>
      <trkpt lat="46.02277" lon="-0.54073">
        <ele>94.836883544922</ele>
        <time>2014-08-10T08:23:59.000Z</time>
      </trkpt>
      <trkpt lat="46.02266" lon="-0.54075">
        <ele>94.66569519043</ele>
        <time>2014-08-10T08:24:01.000Z</time>
      </trkpt>
      <trkpt lat="46.02249" lon="-0.54078">
        <ele>94.507034301758</ele>
        <time>2014-08-10T08:24:04.000Z</time>
      </trkpt>
      <trkpt lat="46.02229" lon="-0.54086">
        <ele>94.528762817383</ele>
        <time>2014-08-10T08:24:07.000Z</time>
      </trkpt>
      <trkpt lat="46.02219" lon="-0.54088">
        <ele>94.671737670898</ele>
        <time>2014-08-10T08:24:09.000Z</time>
      </trkpt>
      <trkpt lat="46.022" lon="-0.54091">
        <ele>95.025001525879</ele>
        <time>2014-08-10T08:24:12.000Z</time>
      </trkpt>
      <trkpt lat="46.02189" lon="-0.54094">
        <ele>95.489868164062</ele>
        <time>2014-08-10T08:24:14.000Z</time>
      </trkpt>
      <trkpt lat="46.02176" lon="-0.54098">
        <ele>96.086456298828</ele>
        <time>2014-08-10T08:24:17.000Z</time>
      </trkpt>
      <trkpt lat="46.02171" lon="-0.54101">
        <ele>96.569030761719</ele>
        <time>2014-08-10T08:24:19.000Z</time>
      </trkpt>
      <trkpt lat="46.02164" lon="-0.54103">
        <ele>97.003028869629</ele>
        <time>2014-08-10T08:24:22.000Z</time>
      </trkpt>
      <trkpt lat="46.02161" lon="-0.54103">
        <ele>97.278549194336</ele>
        <time>2014-08-10T08:24:25.000Z</time>
      </trkpt>
      <trkpt lat="46.02159" lon="-0.54103">
        <ele>97.466323852539</ele>
        <time>2014-08-10T08:24:27.000Z</time>
      </trkpt>
      <trkpt lat="46.02157" lon="-0.54103">
        <ele>97.55574798584</ele>
        <time>2014-08-10T08:24:29.000Z</time>
      </trkpt>
      <trkpt lat="46.02155" lon="-0.54102">
        <ele>97.62353515625</ele>
        <time>2014-08-10T08:24:32.000Z</time>
      </trkpt>
      <trkpt lat="46.02158" lon="-0.54102">
        <ele>97.645172119141</ele>
        <time>2014-08-10T08:24:35.000Z</time>
      </trkpt>
      <trkpt lat="46.0216" lon="-0.54102">
        <ele>97.654724121094</ele>
        <time>2014-08-10T08:24:37.000Z</time>
      </trkpt>
      <trkpt lat="46.02164" lon="-0.54102">
        <ele>97.649444580078</ele>
        <time>2014-08-10T08:24:40.000Z</time>
      </trkpt>
      <trkpt lat="46.02171" lon="-0.541">
        <ele>97.602256774902</ele>
        <time>2014-08-10T08:24:42.000Z</time>
      </trkpt>
      <trkpt lat="46.02178" lon="-0.54097">
        <ele>97.485458374023</ele>
        <time>2014-08-10T08:24:45.000Z</time>
      </trkpt>
      <trkpt lat="46.02182" lon="-0.54096">
        <ele>97.341171264648</ele>
        <time>2014-08-10T08:24:47.000Z</time>
      </trkpt>
      <trkpt lat="46.02186" lon="-0.54095">
        <ele>97.173286437988</ele>
        <time>2014-08-10T08:24:50.000Z</time>
      </trkpt>
      <trkpt lat="46.02187" lon="-0.54092">
        <ele>97.013702392578</ele>
        <time>2014-08-10T08:24:53.000Z</time>
      </trkpt>
      <trkpt lat="46.02186" lon="-0.54088">
        <ele>96.925231933594</ele>
        <time>2014-08-10T08:24:56.000Z</time>
      </trkpt>
      <trkpt lat="46.02185" lon="-0.54082">
        <ele>96.926170349121</ele>
        <time>2014-08-10T08:24:58.000Z</time>
      </trkpt>
      <trkpt lat="46.02184" lon="-0.54076">
        <ele>96.996841430664</ele>
        <time>2014-08-10T08:25:00.000Z</time>
      </trkpt>
      <trkpt lat="46.02182" lon="-0.54065">
        <ele>97.149742126465</ele>
        <time>2014-08-10T08:25:03.000Z</time>
      </trkpt>
      <trkpt lat="46.0218" lon="-0.54055">
        <ele>97.353538513184</ele>
        <time>2014-08-10T08:25:06.000Z</time>
      </trkpt>
      <trkpt lat="46.02177" lon="-0.54049">
        <ele>97.564041137695</ele>
        <time>2014-08-10T08:25:08.000Z</time>
      </trkpt>
      <trkpt lat="46.02176" lon="-0.54038">
        <ele>97.784446716309</ele>
        <time>2014-08-10T08:25:11.000Z</time>
      </trkpt>
      <trkpt lat="46.02176" lon="-0.54028">
        <ele>97.999008178711</ele>
        <time>2014-08-10T08:25:14.000Z</time>
      </trkpt>
      <trkpt lat="46.02174" lon="-0.54023">
        <ele>98.18448638916</ele>
        <time>2014-08-10T08:25:16.000Z</time>
      </trkpt>
      <trkpt lat="46.02173" lon="-0.54021">
        <ele>98.331115722656</ele>
        <time>2014-08-10T08:25:18.000Z</time>
      </trkpt>
      <trkpt lat="46.02172" lon="-0.54018">
        <ele>98.452346801758</ele>
        <time>2014-08-10T08:25:21.000Z</time>
      </trkpt>
      <trkpt lat="46.02174" lon="-0.54017">
        <ele>98.526657104492</ele>
        <time>2014-08-10T08:25:23.000Z</time>
      </trkpt>
      <trkpt lat="46.02175" lon="-0.54015">
        <ele>98.569061279297</ele>
        <time>2014-08-10T08:25:26.000Z</time>
      </trkpt>
      <trkpt lat="46.02173" lon="-0.54">
        <ele>98.640731811523</ele>
        <time>2014-08-10T08:26:20.000Z</time>
      </trkpt>
      <trkpt lat="46.02173" lon="-0.53992">
        <ele>98.744430541992</ele>
        <time>2014-08-10T08:26:23.000Z</time>
      </trkpt>
      <trkpt lat="46.02172" lon="-0.53987">
        <ele>98.864334106445</ele>
        <time>2014-08-10T08:26:25.000Z</time>
      </trkpt>
      <trkpt lat="46.02172" lon="-0.53983">
        <ele>99.008079528809</ele>
        <time>2014-08-10T08:26:28.000Z</time>
      </trkpt>
      <trkpt lat="46.02172" lon="-0.5398">
        <ele>99.170066833496</ele>
        <time>2014-08-10T08:26:31.000Z</time>
      </trkpt>
      <trkpt lat="46.02171" lon="-0.53977">
        <ele>99.297645568848</ele>
        <time>2014-08-10T08:26:34.000Z</time>
      </trkpt>
      <trkpt lat="46.0217" lon="-0.53972">
        <ele>99.410308837891</ele>
        <time>2014-08-10T08:26:35.000Z</time>
      </trkpt>
      <trkpt lat="46.02168" lon="-0.53965">
        <ele>99.533721923828</ele>
        <time>2014-08-10T08:26:39.000Z</time>
      </trkpt>
      <trkpt lat="46.02166" lon="-0.5396">
        <ele>99.669982910156</ele>
        <time>2014-08-10T08:26:41.000Z</time>
      </trkpt>
      <trkpt lat="46.02165" lon="-0.53954">
        <ele>99.823020935059</ele>
        <time>2014-08-10T08:26:43.000Z</time>
      </trkpt>
      <trkpt lat="46.02163" lon="-0.53943">
        <ele>100.02392578125</ele>
        <time>2014-08-10T08:26:46.000Z</time>
      </trkpt>
      <trkpt lat="46.02162" lon="-0.53933">
        <ele>100.25206756592</ele>
        <time>2014-08-10T08:26:49.000Z</time>
      </trkpt>
      <trkpt lat="46.0216" lon="-0.53931">
        <ele>100.46463012695</ele>
        <time>2014-08-10T08:26:51.000Z</time>
      </trkpt>
      <trkpt lat="46.02161" lon="-0.53929">
        <ele>100.64916992188</ele>
        <time>2014-08-10T08:26:53.000Z</time>
      </trkpt>
      <trkpt lat="46.02161" lon="-0.53927">
        <ele>100.80453491211</ele>
        <time>2014-08-10T08:26:55.000Z</time>
      </trkpt>
      <trkpt lat="46.02163" lon="-0.53926">
        <ele>100.88519287109</ele>
        <time>2014-08-10T08:26:58.000Z</time>
      </trkpt>
      <trkpt lat="46.02163" lon="-0.53921">
        <ele>100.93707275391</ele>
        <time>2014-08-10T08:32:36.000Z</time>
      </trkpt>
      <trkpt lat="46.02163" lon="-0.53919">
        <ele>100.97756958008</ele>
        <time>2014-08-10T08:32:39.000Z</time>
      </trkpt>
      <trkpt lat="46.02161" lon="-0.53913">
        <ele>101.04210662842</ele>
        <time>2014-08-10T08:32:42.000Z</time>
      </trkpt>
      <trkpt lat="46.0216" lon="-0.53908">
        <ele>101.11960601807</ele>
        <time>2014-08-10T08:32:44.000Z</time>
      </trkpt>
      <trkpt lat="46.02159" lon="-0.53902">
        <ele>101.22937011719</ele>
        <time>2014-08-10T08:32:46.000Z</time>
      </trkpt>
      <trkpt lat="46.02156" lon="-0.53894">
        <ele>101.34453582764</ele>
        <time>2014-08-10T08:32:49.000Z</time>
      </trkpt>
      <trkpt lat="46.02155" lon="-0.53886">
        <ele>101.47471618652</ele>
        <time>2014-08-10T08:32:52.000Z</time>
      </trkpt>
      <trkpt lat="46.02155" lon="-0.53881">
        <ele>101.58702087402</ele>
        <time>2014-08-10T08:32:54.000Z</time>
      </trkpt>
      <trkpt lat="46.02153" lon="-0.53874">
        <ele>101.7063369751</ele>
        <time>2014-08-10T08:32:57.000Z</time>
      </trkpt>
      <trkpt lat="46.02151" lon="-0.53866">
        <ele>101.82371520996</ele>
        <time>2014-08-10T08:33:01.000Z</time>
      </trkpt>
      <trkpt lat="46.02151" lon="-0.53861">
        <ele>101.91990661621</ele>
        <time>2014-08-10T08:33:02.000Z</time>
      </trkpt>
      <trkpt lat="46.02151" lon="-0.53856">
        <ele>102.00164794922</ele>
        <time>2014-08-10T08:33:04.000Z</time>
      </trkpt>
      <trkpt lat="46.02149" lon="-0.5385">
        <ele>102.09552764893</ele>
        <time>2014-08-10T08:33:07.000Z</time>
      </trkpt>
      <trkpt lat="46.02148" lon="-0.53845">
        <ele>102.17687988281</ele>
        <time>2014-08-10T08:33:09.000Z</time>
      </trkpt>
      <trkpt lat="46.02147" lon="-0.53842">
        <ele>102.24778747559</ele>
        <time>2014-08-10T08:33:11.000Z</time>
      </trkpt>
      <trkpt lat="46.02147" lon="-0.53836">
        <ele>102.32303619385</ele>
        <time>2014-08-10T08:33:14.000Z</time>
      </trkpt>
      <trkpt lat="46.02145" lon="-0.5383">
        <ele>102.41198730469</ele>
        <time>2014-08-10T08:33:17.000Z</time>
      </trkpt>
      <trkpt lat="46.02143" lon="-0.53826">
        <ele>102.50457763672</ele>
        <time>2014-08-10T08:33:19.000Z</time>
      </trkpt>
      <trkpt lat="46.02141" lon="-0.5382">
        <ele>102.62490081787</ele>
        <time>2014-08-10T08:33:22.000Z</time>
      </trkpt>
      <trkpt lat="46.02141" lon="-0.53815">
        <ele>102.75661468506</ele>
        <time>2014-08-10T08:33:24.000Z</time>
      </trkpt>
      <trkpt lat="46.02141" lon="-0.53811">
        <ele>102.89813232422</ele>
        <time>2014-08-10T08:33:26.000Z</time>
      </trkpt>
      <trkpt lat="46.02142" lon="-0.53803">
        <ele>103.04479980469</ele>
        <time>2014-08-10T08:33:29.000Z</time>
      </trkpt>
      <trkpt lat="46.02141" lon="-0.53796">
        <ele>103.20114898682</ele>
        <time>2014-08-10T08:33:32.000Z</time>
      </trkpt>
      <trkpt lat="46.02141" lon="-0.5379">
        <ele>103.34680175781</ele>
        <time>2014-08-10T08:33:34.000Z</time>
      </trkpt>
      <trkpt lat="46.0214" lon="-0.53785">
        <ele>103.49786376953</ele>
        <time>2014-08-10T08:33:36.000Z</time>
      </trkpt>
      <trkpt lat="46.0214" lon="-0.53779">
        <ele>103.65293121338</ele>
        <time>2014-08-10T08:33:39.000Z</time>
      </trkpt>
      <trkpt lat="46.0214" lon="-0.53771">
        <ele>103.81799316406</ele>
        <time>2014-08-10T08:33:41.000Z</time>
      </trkpt>
      <trkpt lat="46.02139" lon="-0.53762">
        <ele>103.98764801025</ele>
        <time>2014-08-10T08:33:44.000Z</time>
      </trkpt>
      <trkpt lat="46.02138" lon="-0.53757">
        <ele>104.15647125244</ele>
        <time>2014-08-10T08:33:46.000Z</time>
      </trkpt>
      <trkpt lat="46.02134" lon="-0.53756">
        <ele>104.32273101807</ele>
        <time>2014-08-10T08:33:49.000Z</time>
      </trkpt>
      <trkpt lat="46.0213" lon="-0.53758">
        <ele>104.47436523438</ele>
        <time>2014-08-10T08:33:52.000Z</time>
      </trkpt>
      <trkpt lat="46.02123" lon="-0.5376">
        <ele>104.60556793213</ele>
        <time>2014-08-10T08:33:56.000Z</time>
      </trkpt>
      <trkpt lat="46.02114" lon="-0.53764">
        <ele>104.71813964844</ele>
        <time>2014-08-10T08:33:58.000Z</time>
      </trkpt>
      <trkpt lat="46.02109" lon="-0.53765">
        <ele>104.82470703125</ele>
        <time>2014-08-10T08:34:00.000Z</time>
      </trkpt>
      <trkpt lat="46.02101" lon="-0.53768">
        <ele>104.92539215088</ele>
        <time>2014-08-10T08:34:03.000Z</time>
      </trkpt>
      <trkpt lat="46.02094" lon="-0.5377">
        <ele>105.036277771</ele>
        <time>2014-08-10T08:34:06.000Z</time>
      </trkpt>
      <trkpt lat="46.0209" lon="-0.53773">
        <ele>105.12939453125</ele>
        <time>2014-08-10T08:34:08.000Z</time>
      </trkpt>
      <trkpt lat="46.02085" lon="-0.53775">
        <ele>105.21237945557</ele>
        <time>2014-08-10T08:34:10.000Z</time>
      </trkpt>
      <trkpt lat="46.0208" lon="-0.53776">
        <ele>105.27504730225</ele>
        <time>2014-08-10T08:34:12.000Z</time>
      </trkpt>
      <trkpt lat="46.02073" lon="-0.53777">
        <ele>105.30778503418</ele>
        <time>2014-08-10T08:34:15.000Z</time>
      </trkpt>
      <trkpt lat="46.02066" lon="-0.53778">
        <ele>105.30680084229</ele>
        <time>2014-08-10T08:34:17.000Z</time>
      </trkpt>
      <trkpt lat="46.02058" lon="-0.53781">
        <ele>105.28784179688</ele>
        <time>2014-08-10T08:34:20.000Z</time>
      </trkpt>
      <trkpt lat="46.02052" lon="-0.53782">
        <ele>105.2465057373</ele>
        <time>2014-08-10T08:34:24.000Z</time>
      </trkpt>
      <trkpt lat="46.02045" lon="-0.53783">
        <ele>105.19677734375</ele>
        <time>2014-08-10T08:34:26.000Z</time>
      </trkpt>
      <trkpt lat="46.0204" lon="-0.53785">
        <ele>105.15156555176</ele>
        <time>2014-08-10T08:34:28.000Z</time>
      </trkpt>
      <trkpt lat="46.02032" lon="-0.53788">
        <ele>105.10813140869</ele>
        <time>2014-08-10T08:34:31.000Z</time>
      </trkpt>
      <trkpt lat="46.02027" lon="-0.53789">
        <ele>105.07419586182</ele>
        <time>2014-08-10T08:34:33.000Z</time>
      </trkpt>
      <trkpt lat="46.02018" lon="-0.53791">
        <ele>105.04724121094</ele>
        <time>2014-08-10T08:34:36.000Z</time>
      </trkpt>
      <trkpt lat="46.02012" lon="-0.53793">
        <ele>105.02488708496</ele>
        <time>2014-08-10T08:34:38.000Z</time>
      </trkpt>
      <trkpt lat="46.02007" lon="-0.53796">
        <ele>105.00825500488</ele>
        <time>2014-08-10T08:34:40.000Z</time>
      </trkpt>
      <trkpt lat="46.02001" lon="-0.53799">
        <ele>105.00068664551</ele>
        <time>2014-08-10T08:34:43.000Z</time>
      </trkpt>
      <trkpt lat="46.01999" lon="-0.538">
        <ele>105.00038909912</ele>
        <time>2014-08-10T08:34:45.000Z</time>
      </trkpt>
      <trkpt lat="46.01994" lon="-0.53802">
        <ele>105.01454162598</ele>
        <time>2014-08-10T08:34:48.000Z</time>
      </trkpt>
      <trkpt lat="46.01988" lon="-0.53803">
        <ele>105.04527282715</ele>
        <time>2014-08-10T08:34:50.000Z</time>
      </trkpt>
      <trkpt lat="46.01976" lon="-0.53807">
        <ele>105.10578918457</ele>
        <time>2014-08-10T08:34:53.000Z</time>
      </trkpt>
      <trkpt lat="46.01969" lon="-0.53808">
        <ele>105.1806640625</ele>
        <time>2014-08-10T08:34:55.000Z</time>
      </trkpt>
      <trkpt lat="46.01962" lon="-0.5381">
        <ele>105.2685546875</ele>
        <time>2014-08-10T08:34:58.000Z</time>
      </trkpt>
      <trkpt lat="46.01957" lon="-0.53814">
        <ele>105.3564453125</ele>
        <time>2014-08-10T08:35:01.000Z</time>
      </trkpt>
      <trkpt lat="46.01954" lon="-0.53816">
        <ele>105.4375</ele>
        <time>2014-08-10T08:35:03.000Z</time>
      </trkpt>
      <trkpt lat="46.01951" lon="-0.53812">
        <ele>105.49609375</ele>
        <time>2014-08-10T08:35:05.000Z</time>
      </trkpt>
      <trkpt lat="46.01949" lon="-0.53805">
        <ele>105.54296875</ele>
        <time>2014-08-10T08:35:08.000Z</time>
      </trkpt>
      <trkpt lat="46.01949" lon="-0.53798">
        <ele>105.5751953125</ele>
        <time>2014-08-10T08:35:10.000Z</time>
      </trkpt>
      <trkpt lat="46.01948" lon="-0.5379">
        <ele>105.5966796875</ele>
        <time>2014-08-10T08:35:12.000Z</time>
      </trkpt>
      <trkpt lat="46.01947" lon="-0.53777">
        <ele>105.6142578125</ele>
        <time>2014-08-10T08:35:15.000Z</time>
      </trkpt>
      <trkpt lat="46.01947" lon="-0.5377">
        <ele>105.6240234375</ele>
        <time>2014-08-10T08:35:17.000Z</time>
      </trkpt>
      <trkpt lat="46.01946" lon="-0.53765">
        <ele>105.6318359375</ele>
        <time>2014-08-10T08:35:19.000Z</time>
      </trkpt>
      <trkpt lat="46.01944" lon="-0.53757">
        <ele>105.6435546875</ele>
        <time>2014-08-10T08:35:22.000Z</time>
      </trkpt>
      <trkpt lat="46.01942" lon="-0.53748">
        <ele>105.65866851807</ele>
        <time>2014-08-10T08:35:25.000Z</time>
      </trkpt>
      <trkpt lat="46.0194" lon="-0.53743">
        <ele>105.67155456543</ele>
        <time>2014-08-10T08:35:27.000Z</time>
      </trkpt>
      <trkpt lat="46.01937" lon="-0.53736">
        <ele>105.68595123291</ele>
        <time>2014-08-10T08:35:30.000Z</time>
      </trkpt>
      <trkpt lat="46.01936" lon="-0.53732">
        <ele>105.69760894775</ele>
        <time>2014-08-10T08:35:32.000Z</time>
      </trkpt>
      <trkpt lat="46.01936" lon="-0.53725">
        <ele>105.6982421875</ele>
        <time>2014-08-10T08:35:36.000Z</time>
      </trkpt>
      <trkpt lat="46.01937" lon="-0.5372">
        <ele>105.69071960449</ele>
        <time>2014-08-10T08:35:38.000Z</time>
      </trkpt>
      <trkpt lat="46.01938" lon="-0.53715">
        <ele>105.67878723145</ele>
        <time>2014-08-10T08:35:41.000Z</time>
      </trkpt>
      <trkpt lat="46.01939" lon="-0.53711">
        <ele>105.66511535645</ele>
        <time>2014-08-10T08:35:43.000Z</time>
      </trkpt>
      <trkpt lat="46.01939" lon="-0.53707">
        <ele>105.65023040771</ele>
        <time>2014-08-10T08:35:45.000Z</time>
      </trkpt>
      <trkpt lat="46.01938" lon="-0.53702">
        <ele>105.63682556152</ele>
        <time>2014-08-10T08:35:47.000Z</time>
      </trkpt>
      <trkpt lat="46.01939" lon="-0.53697">
        <ele>105.62607574463</ele>
        <time>2014-08-10T08:35:49.000Z</time>
      </trkpt>
      <trkpt lat="46.0194" lon="-0.53686">
        <ele>105.61560058594</ele>
        <time>2014-08-10T08:35:52.000Z</time>
      </trkpt>
      <trkpt lat="46.0194" lon="-0.53678">
        <ele>105.60441589355</ele>
        <time>2014-08-10T08:35:54.000Z</time>
      </trkpt>
      <trkpt lat="46.0194" lon="-0.53665">
        <ele>105.58996582031</ele>
        <time>2014-08-10T08:35:57.000Z</time>
      </trkpt>
      <trkpt lat="46.0194" lon="-0.53655">
        <ele>105.58824157715</ele>
        <time>2014-08-10T08:35:59.000Z</time>
      </trkpt>
      <trkpt lat="46.01941" lon="-0.53645">
        <ele>105.59676361084</ele>
        <time>2014-08-10T08:36:01.000Z</time>
      </trkpt>
      <trkpt lat="46.01941" lon="-0.53636">
        <ele>105.61368560791</ele>
        <time>2014-08-10T08:36:03.000Z</time>
      </trkpt>
      <trkpt lat="46.0194" lon="-0.53627">
        <ele>105.63624572754</ele>
        <time>2014-08-10T08:36:05.000Z</time>
      </trkpt>
      <trkpt lat="46.01939" lon="-0.53614">
        <ele>105.66534423828</ele>
        <time>2014-08-10T08:36:08.000Z</time>
      </trkpt>
      <trkpt lat="46.01938" lon="-0.53601">
        <ele>105.68811035156</ele>
        <time>2014-08-10T08:36:11.000Z</time>
      </trkpt>
      <trkpt lat="46.01939" lon="-0.53588">
        <ele>105.71263122559</ele>
        <time>2014-08-10T08:36:14.000Z</time>
      </trkpt>
      <trkpt lat="46.01938" lon="-0.53583">
        <ele>105.72955322266</ele>
        <time>2014-08-10T08:36:16.000Z</time>
      </trkpt>
      <trkpt lat="46.01937" lon="-0.53575">
        <ele>105.71466064453</ele>
        <time>2014-08-10T08:36:19.000Z</time>
      </trkpt>
      <trkpt lat="46.01937" lon="-0.53564">
        <ele>105.67600250244</ele>
        <time>2014-08-10T08:36:22.000Z</time>
      </trkpt>
      <trkpt lat="46.01939" lon="-0.53554">
        <ele>105.6201171875</ele>
        <time>2014-08-10T08:36:25.000Z</time>
      </trkpt>
      <trkpt lat="46.01939" lon="-0.53547">
        <ele>105.53981781006</ele>
        <time>2014-08-10T08:36:27.000Z</time>
      </trkpt>
      <trkpt lat="46.01939" lon="-0.5354">
        <ele>105.44053649902</ele>
        <time>2014-08-10T08:36:29.000Z</time>
      </trkpt>
      <trkpt lat="46.01938" lon="-0.53532">
        <ele>105.34733581543</ele>
        <time>2014-08-10T08:36:31.000Z</time>
      </trkpt>
      <trkpt lat="46.01938" lon="-0.5352">
        <ele>105.24505615234</ele>
        <time>2014-08-10T08:36:34.000Z</time>
      </trkpt>
      <trkpt lat="46.01937" lon="-0.53512">
        <ele>105.13737487793</ele>
        <time>2014-08-10T08:36:36.000Z</time>
      </trkpt>
      <trkpt lat="46.01938" lon="-0.53499">
        <ele>105.01132965088</ele>
        <time>2014-08-10T08:36:39.000Z</time>
      </trkpt>
      <trkpt lat="46.01938" lon="-0.53487">
        <ele>104.86220550537</ele>
        <time>2014-08-10T08:36:42.000Z</time>
      </trkpt>
      <trkpt lat="46.01933" lon="-0.53468">
        <ele>104.64289855957</ele>
        <time>2014-08-10T08:37:06.000Z</time>
      </trkpt>
      <trkpt lat="46.01929" lon="-0.53466">
        <ele>104.42453765869</ele>
        <time>2014-08-10T08:37:53.000Z</time>
      </trkpt>
      <trkpt lat="46.01928" lon="-0.53471">
        <ele>104.23429870605</ele>
        <time>2014-08-10T08:37:56.000Z</time>
      </trkpt>
      <trkpt lat="46.01925" lon="-0.53475">
        <ele>104.07496643066</ele>
        <time>2014-08-10T08:37:59.000Z</time>
      </trkpt>
      <trkpt lat="46.01922" lon="-0.53479">
        <ele>103.95259857178</ele>
        <time>2014-08-10T08:38:01.000Z</time>
      </trkpt>
      <trkpt lat="46.01918" lon="-0.53483">
        <ele>103.9076385498</ele>
        <time>2014-08-10T08:38:04.000Z</time>
      </trkpt>
      <trkpt lat="46.01912" lon="-0.53489">
        <ele>103.87937927246</ele>
        <time>2014-08-10T08:38:07.000Z</time>
      </trkpt>
      <trkpt lat="46.01908" lon="-0.53493">
        <ele>103.82845306396</ele>
        <time>2014-08-10T08:38:09.000Z</time>
      </trkpt>
      <trkpt lat="46.01899" lon="-0.53499">
        <ele>103.75524902344</ele>
        <time>2014-08-10T08:38:12.000Z</time>
      </trkpt>
      <trkpt lat="46.01892" lon="-0.53504">
        <ele>103.66474914551</ele>
        <time>2014-08-10T08:38:15.000Z</time>
      </trkpt>
      <trkpt lat="46.01884" lon="-0.53507">
        <ele>103.54837799072</ele>
        <time>2014-08-10T08:38:18.000Z</time>
      </trkpt>
      <trkpt lat="46.0187" lon="-0.53509">
        <ele>103.38362884521</ele>
        <time>2014-08-10T08:38:21.000Z</time>
      </trkpt>
      <trkpt lat="46.01861" lon="-0.53511">
        <ele>103.18518066406</ele>
        <time>2014-08-10T08:38:23.000Z</time>
      </trkpt>
      <trkpt lat="46.01852" lon="-0.53512">
        <ele>102.96714782715</ele>
        <time>2014-08-10T08:38:25.000Z</time>
      </trkpt>
      <trkpt lat="46.01845" lon="-0.53514">
        <ele>102.73628234863</ele>
        <time>2014-08-10T08:38:28.000Z</time>
      </trkpt>
      <trkpt lat="46.01834" lon="-0.53517">
        <ele>102.49090576172</ele>
        <time>2014-08-10T08:38:30.000Z</time>
      </trkpt>
      <trkpt lat="46.01824" lon="-0.53517">
        <ele>102.19209289551</ele>
        <time>2014-08-10T08:38:34.000Z</time>
      </trkpt>
      <trkpt lat="46.01816" lon="-0.53517">
        <ele>101.85266113281</ele>
        <time>2014-08-10T08:38:35.000Z</time>
      </trkpt>
      <trkpt lat="46.01802" lon="-0.5352">
        <ele>101.39450073242</ele>
        <time>2014-08-10T08:38:38.000Z</time>
      </trkpt>
      <trkpt lat="46.01783" lon="-0.53524">
        <ele>100.76095581055</ele>
        <time>2014-08-10T08:38:41.000Z</time>
      </trkpt>
      <trkpt lat="46.01772" lon="-0.53528">
        <ele>100.0694732666</ele>
        <time>2014-08-10T08:38:43.000Z</time>
      </trkpt>
      <trkpt lat="46.01755" lon="-0.53531">
        <ele>99.305335998535</ele>
        <time>2014-08-10T08:38:46.000Z</time>
      </trkpt>
      <trkpt lat="46.01744" lon="-0.53533">
        <ele>98.531356811523</ele>
        <time>2014-08-10T08:38:48.000Z</time>
      </trkpt>
      <trkpt lat="46.01733" lon="-0.53537">
        <ele>97.84391784668</ele>
        <time>2014-08-10T08:38:50.000Z</time>
      </trkpt>
      <trkpt lat="46.01722" lon="-0.53538">
        <ele>97.279335021973</ele>
        <time>2014-08-10T08:38:52.000Z</time>
      </trkpt>
      <trkpt lat="46.01707" lon="-0.53542">
        <ele>96.704727172852</ele>
        <time>2014-08-10T08:38:55.000Z</time>
      </trkpt>
      <trkpt lat="46.01691" lon="-0.53544">
        <ele>96.189643859863</ele>
        <time>2014-08-10T08:38:58.000Z</time>
      </trkpt>
      <trkpt lat="46.01674" lon="-0.53548">
        <ele>95.625823974609</ele>
        <time>2014-08-10T08:39:01.000Z</time>
      </trkpt>
      <trkpt lat="46.01658" lon="-0.5355">
        <ele>95.08666229248</ele>
        <time>2014-08-10T08:39:04.000Z</time>
      </trkpt>
      <trkpt lat="46.01643" lon="-0.53553">
        <ele>94.659805297852</ele>
        <time>2014-08-10T08:39:07.000Z</time>
      </trkpt>
      <trkpt lat="46.01633" lon="-0.53555">
        <ele>94.375076293945</ele>
        <time>2014-08-10T08:39:09.000Z</time>
      </trkpt>
      <trkpt lat="46.01616" lon="-0.5356">
        <ele>94.251800537109</ele>
        <time>2014-08-10T08:39:12.000Z</time>
      </trkpt>
      <trkpt lat="46.01606" lon="-0.53561">
        <ele>94.296279907227</ele>
        <time>2014-08-10T08:39:14.000Z</time>
      </trkpt>
      <trkpt lat="46.0159" lon="-0.53565">
        <ele>94.427597045898</ele>
        <time>2014-08-10T08:39:17.000Z</time>
      </trkpt>
      <trkpt lat="46.01575" lon="-0.53569">
        <ele>94.560623168945</ele>
        <time>2014-08-10T08:39:20.000Z</time>
      </trkpt>
      <trkpt lat="46.01567" lon="-0.5357">
        <ele>94.681007385254</ele>
        <time>2014-08-10T08:39:22.000Z</time>
      </trkpt>
      <trkpt lat="46.01561" lon="-0.53572">
        <ele>94.773223876953</ele>
        <time>2014-08-10T08:39:24.000Z</time>
      </trkpt>
      <trkpt lat="46.01556" lon="-0.53572">
        <ele>94.848434448242</ele>
        <time>2014-08-10T08:39:27.000Z</time>
      </trkpt>
      <trkpt lat="46.0155" lon="-0.53574">
        <ele>94.89070892334</ele>
        <time>2014-08-10T08:39:30.000Z</time>
      </trkpt>
      <trkpt lat="46.01546" lon="-0.53574">
        <ele>94.910354614258</ele>
        <time>2014-08-10T08:39:33.000Z</time>
      </trkpt>
      <trkpt lat="46.01547" lon="-0.53571">
        <ele>94.91862487793</ele>
        <time>2014-08-10T08:39:35.000Z</time>
      </trkpt>
      <trkpt lat="46.01552" lon="-0.53569">
        <ele>94.917556762695</ele>
        <time>2014-08-10T08:39:38.000Z</time>
      </trkpt>
      <trkpt lat="46.01558" lon="-0.53569">
        <ele>94.910614013672</ele>
        <time>2014-08-10T08:39:41.000Z</time>
      </trkpt>
      <trkpt lat="46.01563" lon="-0.53568">
        <ele>94.896667480469</ele>
        <time>2014-08-10T08:39:43.000Z</time>
      </trkpt>
      <trkpt lat="46.01571" lon="-0.53566">
        <ele>94.873123168945</ele>
        <time>2014-08-10T08:39:46.000Z</time>
      </trkpt>
      <trkpt lat="46.01576" lon="-0.53565">
        <ele>94.849044799805</ele>
        <time>2014-08-10T08:39:48.000Z</time>
      </trkpt>
      <trkpt lat="46.01584" lon="-0.53563">
        <ele>94.82080078125</ele>
        <time>2014-08-10T08:39:51.000Z</time>
      </trkpt>
      <trkpt lat="46.01591" lon="-0.53561">
        <ele>94.776977539062</ele>
        <time>2014-08-10T08:39:54.000Z</time>
      </trkpt>
      <trkpt lat="46.01596" lon="-0.53551">
        <ele>94.709800720215</ele>
        <time>2014-08-10T08:39:57.000Z</time>
      </trkpt>
      <trkpt lat="46.01596" lon="-0.53543">
        <ele>94.63289642334</ele>
        <time>2014-08-10T08:39:59.000Z</time>
      </trkpt>
      <trkpt lat="46.01595" lon="-0.53535">
        <ele>94.545471191406</ele>
        <time>2014-08-10T08:40:01.000Z</time>
      </trkpt>
      <trkpt lat="46.01595" lon="-0.53523">
        <ele>94.443435668945</ele>
        <time>2014-08-10T08:40:04.000Z</time>
      </trkpt>
      <trkpt lat="46.01594" lon="-0.53515">
        <ele>94.34358215332</ele>
        <time>2014-08-10T08:40:06.000Z</time>
      </trkpt>
      <trkpt lat="46.01592" lon="-0.53501">
        <ele>94.241828918457</ele>
        <time>2014-08-10T08:40:09.000Z</time>
      </trkpt>
      <trkpt lat="46.01591" lon="-0.5349">
        <ele>94.125244140625</ele>
        <time>2014-08-10T08:40:11.000Z</time>
      </trkpt>
      <trkpt lat="46.0159" lon="-0.53473">
        <ele>93.973121643066</ele>
        <time>2014-08-10T08:40:14.000Z</time>
      </trkpt>
      <trkpt lat="46.01589" lon="-0.53455">
        <ele>93.794906616211</ele>
        <time>2014-08-10T08:40:17.000Z</time>
      </trkpt>
      <trkpt lat="46.01587" lon="-0.53438">
        <ele>93.59285736084</ele>
        <time>2014-08-10T08:40:20.000Z</time>
      </trkpt>
      <trkpt lat="46.01586" lon="-0.53421">
        <ele>93.38166809082</ele>
        <time>2014-08-10T08:40:23.000Z</time>
      </trkpt>
      <trkpt lat="46.01585" lon="-0.53404">
        <ele>93.105758666992</ele>
        <time>2014-08-10T08:40:26.000Z</time>
      </trkpt>
      <trkpt lat="46.01585" lon="-0.53388">
        <ele>92.76741027832</ele>
        <time>2014-08-10T08:40:29.000Z</time>
      </trkpt>
      <trkpt lat="46.01585" lon="-0.53376">
        <ele>92.395164489746</ele>
        <time>2014-08-10T08:40:31.000Z</time>
      </trkpt>
      <trkpt lat="46.01584" lon="-0.53353">
        <ele>91.902526855469</ele>
        <time>2014-08-10T08:40:34.000Z</time>
      </trkpt>
      <trkpt lat="46.01585" lon="-0.53333">
        <ele>91.301856994629</ele>
        <time>2014-08-10T08:40:37.000Z</time>
      </trkpt>
      <trkpt lat="46.01585" lon="-0.53314">
        <ele>90.706420898438</ele>
        <time>2014-08-10T08:40:40.000Z</time>
      </trkpt>
      <trkpt lat="46.01584" lon="-0.53302">
        <ele>90.17121887207</ele>
        <time>2014-08-10T08:40:42.000Z</time>
      </trkpt>
      <trkpt lat="46.01583" lon="-0.53289">
        <ele>89.658348083496</ele>
        <time>2014-08-10T08:40:44.000Z</time>
      </trkpt>
      <trkpt lat="46.01582" lon="-0.53267">
        <ele>89.212303161621</ele>
        <time>2014-08-10T08:40:47.000Z</time>
      </trkpt>
      <trkpt lat="46.01582" lon="-0.53244">
        <ele>88.808303833008</ele>
        <time>2014-08-10T08:40:50.000Z</time>
      </trkpt>
      <trkpt lat="46.0158" lon="-0.53231">
        <ele>88.447090148926</ele>
        <time>2014-08-10T08:40:52.000Z</time>
      </trkpt>
      <trkpt lat="46.0158" lon="-0.53211">
        <ele>88.047012329102</ele>
        <time>2014-08-10T08:40:55.000Z</time>
      </trkpt>
      <trkpt lat="46.0158" lon="-0.53194">
        <ele>87.621406555176</ele>
        <time>2014-08-10T08:40:58.000Z</time>
      </trkpt>
      <trkpt lat="46.01578" lon="-0.53183">
        <ele>87.249923706055</ele>
        <time>2014-08-10T08:41:00.000Z</time>
      </trkpt>
      <trkpt lat="46.01581" lon="-0.53173">
        <ele>86.909774780273</ele>
        <time>2014-08-10T08:41:02.000Z</time>
      </trkpt>
      <trkpt lat="46.01588" lon="-0.53169">
        <ele>86.62117767334</ele>
        <time>2014-08-10T08:41:04.000Z</time>
      </trkpt>
      <trkpt lat="46.016" lon="-0.53167">
        <ele>86.499122619629</ele>
        <time>2014-08-10T08:41:07.000Z</time>
      </trkpt>
      <trkpt lat="46.01613" lon="-0.53166">
        <ele>86.558158874512</ele>
        <time>2014-08-10T08:41:10.000Z</time>
      </trkpt>
      <trkpt lat="46.01629" lon="-0.53162">
        <ele>86.774154663086</ele>
        <time>2014-08-10T08:41:13.000Z</time>
      </trkpt>
      <trkpt lat="46.01645" lon="-0.53157">
        <ele>87.177673339844</ele>
        <time>2014-08-10T08:41:16.000Z</time>
      </trkpt>
      <trkpt lat="46.01659" lon="-0.53154">
        <ele>87.674995422363</ele>
        <time>2014-08-10T08:41:19.000Z</time>
      </trkpt>
      <trkpt lat="46.01672" lon="-0.53151">
        <ele>88.22745513916</ele>
        <time>2014-08-10T08:41:22.000Z</time>
      </trkpt>
      <trkpt lat="46.0168" lon="-0.53149">
        <ele>88.796089172363</ele>
        <time>2014-08-10T08:41:24.000Z</time>
      </trkpt>
      <trkpt lat="46.01692" lon="-0.53146">
        <ele>89.414817810059</ele>
        <time>2014-08-10T08:41:27.000Z</time>
      </trkpt>
      <trkpt lat="46.01702" lon="-0.53143">
        <ele>90.056343078613</ele>
        <time>2014-08-10T08:41:29.000Z</time>
      </trkpt>
      <trkpt lat="46.01711" lon="-0.53139">
        <ele>90.741310119629</ele>
        <time>2014-08-10T08:41:32.000Z</time>
      </trkpt>
      <trkpt lat="46.0172" lon="-0.53136">
        <ele>91.44384765625</ele>
        <time>2014-08-10T08:41:35.000Z</time>
      </trkpt>
      <trkpt lat="46.01725" lon="-0.53135">
        <ele>92.112358093262</ele>
        <time>2014-08-10T08:41:37.000Z</time>
      </trkpt>
      <trkpt lat="46.01733" lon="-0.53134">
        <ele>92.736679077148</ele>
        <time>2014-08-10T08:41:40.000Z</time>
      </trkpt>
      <trkpt lat="46.01735" lon="-0.53133">
        <ele>93.255172729492</ele>
        <time>2014-08-10T08:41:43.000Z</time>
      </trkpt>
      <trkpt lat="46.01734" lon="-0.53137">
        <ele>93.606399536133</ele>
        <time>2014-08-10T08:41:46.000Z</time>
      </trkpt>
      <trkpt lat="46.01729" lon="-0.53137">
        <ele>93.734664916992</ele>
        <time>2014-08-10T08:41:49.000Z</time>
      </trkpt>
      <trkpt lat="46.01723" lon="-0.53137">
        <ele>93.709762573242</ele>
        <time>2014-08-10T08:41:52.000Z</time>
      </trkpt>
      <trkpt lat="46.01717" lon="-0.5314">
        <ele>93.451919555664</ele>
        <time>2014-08-10T08:41:55.000Z</time>
      </trkpt>
      <trkpt lat="46.01714" lon="-0.53138">
        <ele>93.125190734863</ele>
        <time>2014-08-10T08:41:57.000Z</time>
      </trkpt>
      <trkpt lat="46.01713" lon="-0.5313">
        <ele>92.837875366211</ele>
        <time>2014-08-10T08:42:00.000Z</time>
      </trkpt>
      <trkpt lat="46.01713" lon="-0.53124">
        <ele>92.659072875977</ele>
        <time>2014-08-10T08:42:02.000Z</time>
      </trkpt>
      <trkpt lat="46.01712" lon="-0.53115">
        <ele>92.572525024414</ele>
        <time>2014-08-10T08:42:04.000Z</time>
      </trkpt>
      <trkpt lat="46.01709" lon="-0.53106">
        <ele>92.573974609375</ele>
        <time>2014-08-10T08:42:06.000Z</time>
      </trkpt>
      <trkpt lat="46.01703" lon="-0.53094">
        <ele>92.558959960938</ele>
        <time>2014-08-10T08:42:09.000Z</time>
      </trkpt>
      <trkpt lat="46.01699" lon="-0.53083">
        <ele>92.480598449707</ele>
        <time>2014-08-10T08:42:12.000Z</time>
      </trkpt>
      <trkpt lat="46.01696" lon="-0.53067">
        <ele>92.319374084473</ele>
        <time>2014-08-10T08:42:15.000Z</time>
      </trkpt>
      <trkpt lat="46.01693" lon="-0.53052">
        <ele>92.111373901367</ele>
        <time>2014-08-10T08:42:18.000Z</time>
      </trkpt>
      <trkpt lat="46.01691" lon="-0.5304">
        <ele>91.893608093262</ele>
        <time>2014-08-10T08:42:20.000Z</time>
      </trkpt>
      <trkpt lat="46.01685" lon="-0.53023">
        <ele>91.65771484375</ele>
        <time>2014-08-10T08:42:23.000Z</time>
      </trkpt>
      <trkpt lat="46.01676" lon="-0.53006">
        <ele>91.3642578125</ele>
        <time>2014-08-10T08:42:27.000Z</time>
      </trkpt>
      <trkpt lat="46.01664" lon="-0.52996">
        <ele>90.971221923828</ele>
        <time>2014-08-10T08:42:29.000Z</time>
      </trkpt>
      <trkpt lat="46.01654" lon="-0.52985">
        <ele>90.503944396973</ele>
        <time>2014-08-10T08:42:32.000Z</time>
      </trkpt>
      <trkpt lat="46.01637" lon="-0.52969">
        <ele>89.858459472656</ele>
        <time>2014-08-10T08:42:35.000Z</time>
      </trkpt>
      <trkpt lat="46.0163" lon="-0.52961">
        <ele>89.197364807129</ele>
        <time>2014-08-10T08:42:37.000Z</time>
      </trkpt>
      <trkpt lat="46.01623" lon="-0.52947">
        <ele>88.538917541504</ele>
        <time>2014-08-10T08:42:39.000Z</time>
      </trkpt>
      <trkpt lat="46.01617" lon="-0.5294">
        <ele>87.93537902832</ele>
        <time>2014-08-10T08:42:41.000Z</time>
      </trkpt>
      <trkpt lat="46.01604" lon="-0.52931">
        <ele>87.231338500977</ele>
        <time>2014-08-10T08:42:44.000Z</time>
      </trkpt>
      <trkpt lat="46.01593" lon="-0.52923">
        <ele>86.55290222168</ele>
        <time>2014-08-10T08:42:46.000Z</time>
      </trkpt>
      <trkpt lat="46.01589" lon="-0.5291">
        <ele>85.890579223633</ele>
        <time>2014-08-10T08:42:48.000Z</time>
      </trkpt>
      <trkpt lat="46.01581" lon="-0.52892">
        <ele>85.272361755371</ele>
        <time>2014-08-10T08:42:51.000Z</time>
      </trkpt>
      <trkpt lat="46.01575" lon="-0.52882">
        <ele>84.73893737793</ele>
        <time>2014-08-10T08:42:53.000Z</time>
      </trkpt>
      <trkpt lat="46.01559" lon="-0.5287">
        <ele>84.329086303711</ele>
        <time>2014-08-10T08:42:56.000Z</time>
      </trkpt>
      <trkpt lat="46.01546" lon="-0.52861">
        <ele>84.017150878906</ele>
        <time>2014-08-10T08:42:59.000Z</time>
      </trkpt>
      <trkpt lat="46.01543" lon="-0.52849">
        <ele>83.733764648438</ele>
        <time>2014-08-10T08:43:01.000Z</time>
      </trkpt>
      <trkpt lat="46.01535" lon="-0.52843">
        <ele>83.438583374023</ele>
        <time>2014-08-10T08:43:03.000Z</time>
      </trkpt>
      <trkpt lat="46.01523" lon="-0.52838">
        <ele>83.034744262695</ele>
        <time>2014-08-10T08:43:06.000Z</time>
      </trkpt>
      <trkpt lat="46.01517" lon="-0.52832">
        <ele>82.643402099609</ele>
        <time>2014-08-10T08:43:08.000Z</time>
      </trkpt>
      <trkpt lat="46.0151" lon="-0.52826">
        <ele>82.272811889648</ele>
        <time>2014-08-10T08:43:10.000Z</time>
      </trkpt>
      <trkpt lat="46.01501" lon="-0.52816">
        <ele>81.857269287109</ele>
        <time>2014-08-10T08:43:13.000Z</time>
      </trkpt>
      <trkpt lat="46.01477" lon="-0.52805">
        <ele>81.31770324707</ele>
        <time>2014-08-10T08:43:15.000Z</time>
      </trkpt>
      <trkpt lat="46.01466" lon="-0.52786">
        <ele>80.79093170166</ele>
        <time>2014-08-10T08:43:18.000Z</time>
      </trkpt>
      <trkpt lat="46.01455" lon="-0.52776">
        <ele>80.230628967285</ele>
        <time>2014-08-10T08:43:20.000Z</time>
      </trkpt>
      <trkpt lat="46.01441" lon="-0.52772">
        <ele>79.601524353027</ele>
        <time>2014-08-10T08:43:23.000Z</time>
      </trkpt>
      <trkpt lat="46.01437" lon="-0.52772">
        <ele>79.023818969727</ele>
        <time>2014-08-10T08:43:25.000Z</time>
      </trkpt>
      <trkpt lat="46.01434" lon="-0.52772">
        <ele>78.615730285645</ele>
        <time>2014-08-10T08:43:28.000Z</time>
      </trkpt>
      <trkpt lat="46.01432" lon="-0.52773">
        <ele>78.303382873535</ele>
        <time>2014-08-10T08:43:30.000Z</time>
      </trkpt>
      <trkpt lat="46.01429" lon="-0.52773">
        <ele>78.069030761719</ele>
        <time>2014-08-10T08:43:33.000Z</time>
      </trkpt>
      <trkpt lat="46.01428" lon="-0.52772">
        <ele>77.957336425781</ele>
        <time>2014-08-10T08:43:35.000Z</time>
      </trkpt>
      <trkpt lat="46.01426" lon="-0.52772">
        <ele>77.863090515137</ele>
        <time>2014-08-10T08:43:38.000Z</time>
      </trkpt>
      <trkpt lat="46.01425" lon="-0.52773">
        <ele>77.787673950195</ele>
        <time>2014-08-10T08:43:40.000Z</time>
      </trkpt>
      <trkpt lat="46.01418" lon="-0.52774">
        <ele>77.666763305664</ele>
        <time>2014-08-10T08:43:59.000Z</time>
      </trkpt>
      <trkpt lat="46.01414" lon="-0.52772">
        <ele>77.572196960449</ele>
        <time>2014-08-10T08:44:01.000Z</time>
      </trkpt>
      <trkpt lat="46.0141" lon="-0.52771">
        <ele>77.529487609863</ele>
        <time>2014-08-10T08:44:03.000Z</time>
      </trkpt>
      <trkpt lat="46.014" lon="-0.52768">
        <ele>77.584457397461</ele>
        <time>2014-08-10T08:44:06.000Z</time>
      </trkpt>
      <trkpt lat="46.01393" lon="-0.52766">
        <ele>77.708106994629</ele>
        <time>2014-08-10T08:44:08.000Z</time>
      </trkpt>
      <trkpt lat="46.01387" lon="-0.52767">
        <ele>77.941062927246</ele>
        <time>2014-08-10T08:44:10.000Z</time>
      </trkpt>
      <trkpt lat="46.0138" lon="-0.5277">
        <ele>78.244750976562</ele>
        <time>2014-08-10T08:44:13.000Z</time>
      </trkpt>
      <trkpt lat="46.01375" lon="-0.52775">
        <ele>78.560897827148</ele>
        <time>2014-08-10T08:44:15.000Z</time>
      </trkpt>
      <trkpt lat="46.01366" lon="-0.5278">
        <ele>78.878349304199</ele>
        <time>2014-08-10T08:44:18.000Z</time>
      </trkpt>
      <trkpt lat="46.01358" lon="-0.52779">
        <ele>79.210861206055</ele>
        <time>2014-08-10T08:44:21.000Z</time>
      </trkpt>
      <trkpt lat="46.01351" lon="-0.5278">
        <ele>79.547523498535</ele>
        <time>2014-08-10T08:44:23.000Z</time>
      </trkpt>
      <trkpt lat="46.01346" lon="-0.52779">
        <ele>79.858703613281</ele>
        <time>2014-08-10T08:44:25.000Z</time>
      </trkpt>
      <trkpt lat="46.01337" lon="-0.52776">
        <ele>80.191200256348</ele>
        <time>2014-08-10T08:44:28.000Z</time>
      </trkpt>
      <trkpt lat="46.01329" lon="-0.52776">
        <ele>80.549949645996</ele>
        <time>2014-08-10T08:44:31.000Z</time>
      </trkpt>
      <trkpt lat="46.01324" lon="-0.52778">
        <ele>80.912857055664</ele>
        <time>2014-08-10T08:44:34.000Z</time>
      </trkpt>
      <trkpt lat="46.0132" lon="-0.52779">
        <ele>81.291282653809</ele>
        <time>2014-08-10T08:44:35.000Z</time>
      </trkpt>
      <trkpt lat="46.01315" lon="-0.52781">
        <ele>81.704231262207</ele>
        <time>2014-08-10T08:44:37.000Z</time>
      </trkpt>
      <trkpt lat="46.01307" lon="-0.52783">
        <ele>82.17781829834</ele>
        <time>2014-08-10T08:44:40.000Z</time>
      </trkpt>
      <trkpt lat="46.013" lon="-0.52785">
        <ele>82.646751403809</ele>
        <time>2014-08-10T08:44:42.000Z</time>
      </trkpt>
      <trkpt lat="46.01291" lon="-0.52786">
        <ele>83.193183898926</ele>
        <time>2014-08-10T08:44:45.000Z</time>
      </trkpt>
      <trkpt lat="46.01285" lon="-0.52784">
        <ele>83.762344360352</ele>
        <time>2014-08-10T08:44:47.000Z</time>
      </trkpt>
      <trkpt lat="46.01279" lon="-0.52783">
        <ele>84.340682983398</ele>
        <time>2014-08-10T08:44:49.000Z</time>
      </trkpt>
      <trkpt lat="46.01271" lon="-0.52781">
        <ele>84.911079406738</ele>
        <time>2014-08-10T08:44:52.000Z</time>
      </trkpt>
      <trkpt lat="46.01267" lon="-0.5278">
        <ele>85.445816040039</ele>
        <time>2014-08-10T08:44:54.000Z</time>
      </trkpt>
      <trkpt lat="46.01263" lon="-0.52778">
        <ele>85.868812561035</ele>
        <time>2014-08-10T08:44:56.000Z</time>
      </trkpt>
      <trkpt lat="46.01259" lon="-0.52775">
        <ele>86.251495361328</ele>
        <time>2014-08-10T08:44:58.000Z</time>
      </trkpt>
      <trkpt lat="46.01253" lon="-0.52769">
        <ele>86.617797851562</ele>
        <time>2014-08-10T08:45:01.000Z</time>
      </trkpt>
      <trkpt lat="46.01245" lon="-0.52765">
        <ele>86.925109863281</ele>
        <time>2014-08-10T08:45:04.000Z</time>
      </trkpt>
      <trkpt lat="46.01239" lon="-0.52762">
        <ele>87.19913482666</ele>
        <time>2014-08-10T08:45:07.000Z</time>
      </trkpt>
      <trkpt lat="46.01229" lon="-0.52764">
        <ele>87.519996643066</ele>
        <time>2014-08-10T08:45:09.000Z</time>
      </trkpt>
      <trkpt lat="46.01221" lon="-0.5277">
        <ele>87.881660461426</ele>
        <time>2014-08-10T08:45:13.000Z</time>
      </trkpt>
      <trkpt lat="46.0122" lon="-0.52772">
        <ele>88.197532653809</ele>
        <time>2014-08-10T08:45:14.000Z</time>
      </trkpt>
      <trkpt lat="46.01218" lon="-0.52774">
        <ele>88.48063659668</ele>
        <time>2014-08-10T08:45:17.000Z</time>
      </trkpt>
      <trkpt lat="46.01216" lon="-0.52776">
        <ele>88.752464294434</ele>
        <time>2014-08-10T08:45:19.000Z</time>
      </trkpt>
      <trkpt lat="46.01214" lon="-0.52776">
        <ele>88.949745178223</ele>
        <time>2014-08-10T08:45:24.000Z</time>
      </trkpt>
      <trkpt lat="46.01221" lon="-0.52767">
        <ele>88.933006286621</ele>
        <time>2014-08-10T08:45:38.000Z</time>
      </trkpt>
      <trkpt lat="46.01223" lon="-0.52765">
        <ele>88.860046386719</ele>
        <time>2014-08-10T08:45:40.000Z</time>
      </trkpt>
      <trkpt lat="46.01223" lon="-0.52762">
        <ele>88.73331451416</ele>
        <time>2014-08-10T08:45:43.000Z</time>
      </trkpt>
      <trkpt lat="46.01221" lon="-0.52763">
        <ele>88.603225708008</ele>
        <time>2014-08-10T08:45:45.000Z</time>
      </trkpt>
      <trkpt lat="46.01219" lon="-0.52762">
        <ele>88.471588134766</ele>
        <time>2014-08-10T08:45:47.000Z</time>
      </trkpt>
      <trkpt lat="46.01215" lon="-0.52759">
        <ele>88.466781616211</ele>
        <time>2014-08-10T08:45:50.000Z</time>
      </trkpt>
      <trkpt lat="46.01213" lon="-0.52757">
        <ele>88.494171142578</ele>
        <time>2014-08-10T08:45:52.000Z</time>
      </trkpt>
      <trkpt lat="46.01211" lon="-0.52754">
        <ele>88.53288269043</ele>
        <time>2014-08-10T08:45:54.000Z</time>
      </trkpt>
      <trkpt lat="46.0121" lon="-0.52749">
        <ele>88.506385803223</ele>
        <time>2014-08-10T08:45:57.000Z</time>
      </trkpt>
      <trkpt lat="46.01213" lon="-0.52746">
        <ele>88.409614562988</ele>
        <time>2014-08-10T08:45:59.000Z</time>
      </trkpt>
      <trkpt lat="46.01215" lon="-0.52743">
        <ele>88.223258972168</ele>
        <time>2014-08-10T08:46:02.000Z</time>
      </trkpt>
      <trkpt lat="46.01207" lon="-0.5273">
        <ele>87.887939453125</ele>
        <time>2014-08-10T08:46:18.000Z</time>
      </trkpt>
      <trkpt lat="46.01204" lon="-0.52729">
        <ele>87.555465698242</ele>
        <time>2014-08-10T08:46:20.000Z</time>
      </trkpt>
      <trkpt lat="46.01202" lon="-0.52726">
        <ele>87.25016784668</ele>
        <time>2014-08-10T08:46:23.000Z</time>
      </trkpt>
      <trkpt lat="46.012" lon="-0.52724">
        <ele>86.994125366211</ele>
        <time>2014-08-10T08:46:26.000Z</time>
      </trkpt>
      <trkpt lat="46.01197" lon="-0.52723">
        <ele>86.828384399414</ele>
        <time>2014-08-10T08:46:28.000Z</time>
      </trkpt>
      <trkpt lat="46.01191" lon="-0.52724">
        <ele>86.883750915527</ele>
        <time>2014-08-10T08:46:31.000Z</time>
      </trkpt>
      <trkpt lat="46.01188" lon="-0.52724">
        <ele>86.985336303711</ele>
        <time>2014-08-10T08:46:33.000Z</time>
      </trkpt>
      <trkpt lat="46.01184" lon="-0.52725">
        <ele>87.157897949219</ele>
        <time>2014-08-10T08:46:35.000Z</time>
      </trkpt>
      <trkpt lat="46.01178" lon="-0.52728">
        <ele>87.43286895752</ele>
        <time>2014-08-10T08:46:38.000Z</time>
      </trkpt>
      <trkpt lat="46.01174" lon="-0.52725">
        <ele>87.691688537598</ele>
        <time>2014-08-10T08:46:41.000Z</time>
      </trkpt>
      <trkpt lat="46.01171" lon="-0.52723">
        <ele>87.895606994629</ele>
        <time>2014-08-10T08:46:44.000Z</time>
      </trkpt>
      <trkpt lat="46.01167" lon="-0.52722">
        <ele>88.086471557617</ele>
        <time>2014-08-10T08:46:46.000Z</time>
      </trkpt>
      <trkpt lat="46.01162" lon="-0.52721">
        <ele>88.231605529785</ele>
        <time>2014-08-10T08:46:48.000Z</time>
      </trkpt>
      <trkpt lat="46.01157" lon="-0.52719">
        <ele>88.286880493164</ele>
        <time>2014-08-10T08:46:51.000Z</time>
      </trkpt>
      <trkpt lat="46.01156" lon="-0.52717">
        <ele>88.327377319336</ele>
        <time>2014-08-10T08:46:53.000Z</time>
      </trkpt>
      <trkpt lat="46.01153" lon="-0.52712">
        <ele>88.318176269531</ele>
        <time>2014-08-10T08:46:56.000Z</time>
      </trkpt>
      <trkpt lat="46.01151" lon="-0.52708">
        <ele>88.23917388916</ele>
        <time>2014-08-10T08:46:58.000Z</time>
      </trkpt>
      <trkpt lat="46.01144" lon="-0.52702">
        <ele>88.129005432129</ele>
        <time>2014-08-10T08:47:01.000Z</time>
      </trkpt>
      <trkpt lat="46.01137" lon="-0.52696">
        <ele>87.983917236328</ele>
        <time>2014-08-10T08:47:04.000Z</time>
      </trkpt>
      <trkpt lat="46.01132" lon="-0.52693">
        <ele>87.862831115723</ele>
        <time>2014-08-10T08:47:06.000Z</time>
      </trkpt>
      <trkpt lat="46.01126" lon="-0.52688">
        <ele>87.753196716309</ele>
        <time>2014-08-10T08:47:09.000Z</time>
      </trkpt>
      <trkpt lat="46.01122" lon="-0.52681">
        <ele>87.640586853027</ele>
        <time>2014-08-10T08:47:12.000Z</time>
      </trkpt>
      <trkpt lat="46.01117" lon="-0.52676">
        <ele>87.53279876709</ele>
        <time>2014-08-10T08:47:15.000Z</time>
      </trkpt>
      <trkpt lat="46.01115" lon="-0.52671">
        <ele>87.416641235352</ele>
        <time>2014-08-10T08:47:18.000Z</time>
      </trkpt>
      <trkpt lat="46.01114" lon="-0.52669">
        <ele>87.275535583496</ele>
        <time>2014-08-10T08:47:21.000Z</time>
      </trkpt>
      <trkpt lat="46.01108" lon="-0.5267">
        <ele>87.208564758301</ele>
        <time>2014-08-10T08:47:34.000Z</time>
      </trkpt>
      <trkpt lat="46.01103" lon="-0.52671">
        <ele>87.227828979492</ele>
        <time>2014-08-10T08:47:37.000Z</time>
      </trkpt>
      <trkpt lat="46.01099" lon="-0.52674">
        <ele>87.330520629883</ele>
        <time>2014-08-10T08:47:40.000Z</time>
      </trkpt>
      <trkpt lat="46.01093" lon="-0.52676">
        <ele>87.537231445312</ele>
        <time>2014-08-10T08:47:43.000Z</time>
      </trkpt>
      <trkpt lat="46.01086" lon="-0.52679">
        <ele>87.836753845215</ele>
        <time>2014-08-10T08:47:46.000Z</time>
      </trkpt>
      <trkpt lat="46.01077" lon="-0.5268">
        <ele>88.096168518066</ele>
        <time>2014-08-10T08:47:49.000Z</time>
      </trkpt>
      <trkpt lat="46.01072" lon="-0.52679">
        <ele>88.29451751709</ele>
        <time>2014-08-10T08:47:51.000Z</time>
      </trkpt>
      <trkpt lat="46.01068" lon="-0.52676">
        <ele>88.389556884766</ele>
        <time>2014-08-10T08:47:53.000Z</time>
      </trkpt>
      <trkpt lat="46.01065" lon="-0.52669">
        <ele>88.344657897949</ele>
        <time>2014-08-10T08:47:55.000Z</time>
      </trkpt>
      <trkpt lat="46.01063" lon="-0.52662">
        <ele>88.132164001465</ele>
        <time>2014-08-10T08:47:58.000Z</time>
      </trkpt>
      <trkpt lat="46.01059" lon="-0.52651">
        <ele>87.743019104004</ele>
        <time>2014-08-10T08:48:00.000Z</time>
      </trkpt>
      <trkpt lat="46.01056" lon="-0.52643">
        <ele>87.265609741211</ele>
        <time>2014-08-10T08:48:02.000Z</time>
      </trkpt>
      <trkpt lat="46.0105" lon="-0.52632">
        <ele>86.660842895508</ele>
        <time>2014-08-10T08:48:05.000Z</time>
      </trkpt>
      <trkpt lat="46.01046" lon="-0.52623">
        <ele>86.005500793457</ele>
        <time>2014-08-10T08:48:07.000Z</time>
      </trkpt>
      <trkpt lat="46.01043" lon="-0.52615">
        <ele>85.341896057129</ele>
        <time>2014-08-10T08:48:10.000Z</time>
      </trkpt>
      <trkpt lat="46.01036" lon="-0.52604">
        <ele>84.692031860352</ele>
        <time>2014-08-10T08:48:12.000Z</time>
      </trkpt>
      <trkpt lat="46.01031" lon="-0.52595">
        <ele>84.024635314941</ele>
        <time>2014-08-10T08:48:14.000Z</time>
      </trkpt>
      <trkpt lat="46.01023" lon="-0.52582">
        <ele>83.362648010254</ele>
        <time>2014-08-10T08:48:17.000Z</time>
      </trkpt>
      <trkpt lat="46.01019" lon="-0.52573">
        <ele>82.734848022461</ele>
        <time>2014-08-10T08:48:20.000Z</time>
      </trkpt>
      <trkpt lat="46.01014" lon="-0.52565">
        <ele>82.131408691406</ele>
        <time>2014-08-10T08:48:23.000Z</time>
      </trkpt>
      <trkpt lat="46.0101" lon="-0.52555">
        <ele>81.57536315918</ele>
        <time>2014-08-10T08:48:26.000Z</time>
      </trkpt>
      <trkpt lat="46.01007" lon="-0.52545">
        <ele>81.048873901367</ele>
        <time>2014-08-10T08:48:28.000Z</time>
      </trkpt>
      <trkpt lat="46.01002" lon="-0.52527">
        <ele>80.521629333496</ele>
        <time>2014-08-10T08:48:31.000Z</time>
      </trkpt>
      <trkpt lat="46.00993" lon="-0.52503">
        <ele>79.835830688477</ele>
        <time>2014-08-10T08:48:34.000Z</time>
      </trkpt>
      <trkpt lat="46.0099" lon="-0.52492">
        <ele>79.166366577148</ele>
        <time>2014-08-10T08:48:36.000Z</time>
      </trkpt>
      <trkpt lat="46.00984" lon="-0.52469">
        <ele>78.531349182129</ele>
        <time>2014-08-10T08:48:39.000Z</time>
      </trkpt>
      <trkpt lat="46.00967" lon="-0.52454">
        <ele>78.026504516602</ele>
        <time>2014-08-10T08:48:42.000Z</time>
      </trkpt>
      <trkpt lat="46.00956" lon="-0.52452">
        <ele>77.734298706055</ele>
        <time>2014-08-10T08:48:44.000Z</time>
      </trkpt>
      <trkpt lat="46.00941" lon="-0.52453">
        <ele>77.754196166992</ele>
        <time>2014-08-10T08:48:47.000Z</time>
      </trkpt>
      <trkpt lat="46.00931" lon="-0.52454">
        <ele>77.877464294434</ele>
        <time>2014-08-10T08:48:49.000Z</time>
      </trkpt>
      <trkpt lat="46.00921" lon="-0.52454">
        <ele>78.104820251465</ele>
        <time>2014-08-10T08:48:51.000Z</time>
      </trkpt>
      <trkpt lat="46.00906" lon="-0.52456">
        <ele>78.299789428711</ele>
        <time>2014-08-10T08:48:54.000Z</time>
      </trkpt>
      <trkpt lat="46.00901" lon="-0.52454">
        <ele>78.459312438965</ele>
        <time>2014-08-10T08:48:56.000Z</time>
      </trkpt>
      <trkpt lat="46.00893" lon="-0.52452">
        <ele>78.562965393066</ele>
        <time>2014-08-10T08:48:58.000Z</time>
      </trkpt>
      <trkpt lat="46.00885" lon="-0.52451">
        <ele>78.63077545166</ele>
        <time>2014-08-10T08:49:00.000Z</time>
      </trkpt>
      <trkpt lat="46.00871" lon="-0.52452">
        <ele>78.64820098877</ele>
        <time>2014-08-10T08:49:03.000Z</time>
      </trkpt>
      <trkpt lat="46.00856" lon="-0.52453">
        <ele>78.652908325195</ele>
        <time>2014-08-10T08:49:06.000Z</time>
      </trkpt>
      <trkpt lat="46.00842" lon="-0.52455">
        <ele>78.632827758789</ele>
        <time>2014-08-10T08:49:09.000Z</time>
      </trkpt>
      <trkpt lat="46.00835" lon="-0.52455">
        <ele>78.60506439209</ele>
        <time>2014-08-10T08:49:11.000Z</time>
      </trkpt>
      <trkpt lat="46.00823" lon="-0.52456">
        <ele>78.532028198242</ele>
        <time>2014-08-10T08:49:14.000Z</time>
      </trkpt>
      <trkpt lat="46.00811" lon="-0.52457">
        <ele>78.424446105957</ele>
        <time>2014-08-10T08:49:17.000Z</time>
      </trkpt>
      <trkpt lat="46.00801" lon="-0.52454">
        <ele>78.287857055664</ele>
        <time>2014-08-10T08:49:19.000Z</time>
      </trkpt>
      <trkpt lat="46.00791" lon="-0.52452">
        <ele>78.11701965332</ele>
        <time>2014-08-10T08:49:22.000Z</time>
      </trkpt>
      <trkpt lat="46.00787" lon="-0.5245">
        <ele>77.928161621094</ele>
        <time>2014-08-10T08:49:25.000Z</time>
      </trkpt>
      <trkpt lat="46.00785" lon="-0.5245">
        <ele>77.771987915039</ele>
        <time>2014-08-10T08:49:27.000Z</time>
      </trkpt>
      <trkpt lat="46.00781" lon="-0.5245">
        <ele>77.644996643066</ele>
        <time>2014-08-10T08:49:29.000Z</time>
      </trkpt>
      <trkpt lat="46.00779" lon="-0.52449">
        <ele>77.542419433594</ele>
        <time>2014-08-10T08:49:31.000Z</time>
      </trkpt>
      <trkpt lat="46.00776" lon="-0.52447">
        <ele>77.472457885742</ele>
        <time>2014-08-10T08:49:33.000Z</time>
      </trkpt>
      <trkpt lat="46.00773" lon="-0.52447">
        <ele>77.402587890625</ele>
        <time>2014-08-10T08:49:36.000Z</time>
      </trkpt>
      <trkpt lat="46.00769" lon="-0.52447">
        <ele>77.322105407715</ele>
        <time>2014-08-10T08:49:39.000Z</time>
      </trkpt>
      <trkpt lat="46.00737" lon="-0.52441">
        <ele>76.971664428711</ele>
        <time>2014-08-10T08:49:44.000Z</time>
      </trkpt>
      <trkpt lat="46.00723" lon="-0.52441">
        <ele>76.438926696777</ele>
        <time>2014-08-10T08:49:46.000Z</time>
      </trkpt>
      <trkpt lat="46.00706" lon="-0.52443">
        <ele>75.688819885254</ele>
        <time>2014-08-10T08:49:49.000Z</time>
      </trkpt>
      <trkpt lat="46.0069" lon="-0.52441">
        <ele>74.739273071289</ele>
        <time>2014-08-10T08:49:51.000Z</time>
      </trkpt>
      <trkpt lat="46.0067" lon="-0.52437">
        <ele>73.504463195801</ele>
        <time>2014-08-10T08:49:54.000Z</time>
      </trkpt>
      <trkpt lat="46.00658" lon="-0.52441">
        <ele>72.510131835938</ele>
        <time>2014-08-10T08:49:56.000Z</time>
      </trkpt>
      <trkpt lat="46.00644" lon="-0.52446">
        <ele>71.695922851562</ele>
        <time>2014-08-10T08:49:59.000Z</time>
      </trkpt>
      <trkpt lat="46.00635" lon="-0.52449">
        <ele>71.093116760254</ele>
        <time>2014-08-10T08:50:01.000Z</time>
      </trkpt>
      <trkpt lat="46.00623" lon="-0.52454">
        <ele>70.672073364258</ele>
        <time>2014-08-10T08:50:04.000Z</time>
      </trkpt>
      <trkpt lat="46.00613" lon="-0.52464">
        <ele>70.528244018555</ele>
        <time>2014-08-10T08:50:07.000Z</time>
      </trkpt>
      <trkpt lat="46.006" lon="-0.52462">
        <ele>70.359794616699</ele>
        <time>2014-08-10T08:50:10.000Z</time>
      </trkpt>
      <trkpt lat="46.00589" lon="-0.52468">
        <ele>70.137603759766</ele>
        <time>2014-08-10T08:50:12.000Z</time>
      </trkpt>
      <trkpt lat="46.00575" lon="-0.52477">
        <ele>69.882499694824</ele>
        <time>2014-08-10T08:50:15.000Z</time>
      </trkpt>
      <trkpt lat="46.00562" lon="-0.52484">
        <ele>69.66325378418</ele>
        <time>2014-08-10T08:50:17.000Z</time>
      </trkpt>
      <trkpt lat="46.00547" lon="-0.52492">
        <ele>69.492935180664</ele>
        <time>2014-08-10T08:50:19.000Z</time>
      </trkpt>
      <trkpt lat="46.00532" lon="-0.52501">
        <ele>69.444961547852</ele>
        <time>2014-08-10T08:50:22.000Z</time>
      </trkpt>
      <trkpt lat="46.0052" lon="-0.52501">
        <ele>69.492965698242</ele>
        <time>2014-08-10T08:50:24.000Z</time>
      </trkpt>
      <trkpt lat="46.00505" lon="-0.5251">
        <ele>69.693908691406</ele>
        <time>2014-08-10T08:50:27.000Z</time>
      </trkpt>
      <trkpt lat="46.00496" lon="-0.52518">
        <ele>69.955032348633</ele>
        <time>2014-08-10T08:50:29.000Z</time>
      </trkpt>
      <trkpt lat="46.00483" lon="-0.52522">
        <ele>70.209571838379</ele>
        <time>2014-08-10T08:50:32.000Z</time>
      </trkpt>
      <trkpt lat="46.0047" lon="-0.5253">
        <ele>70.440361022949</ele>
        <time>2014-08-10T08:50:35.000Z</time>
      </trkpt>
      <trkpt lat="46.00462" lon="-0.52538">
        <ele>70.671463012695</ele>
        <time>2014-08-10T08:50:37.000Z</time>
      </trkpt>
      <trkpt lat="46.00451" lon="-0.52546">
        <ele>70.810546875</ele>
        <time>2014-08-10T08:50:40.000Z</time>
      </trkpt>
      <trkpt lat="46.00442" lon="-0.52551">
        <ele>70.884788513184</ele>
        <time>2014-08-10T08:50:42.000Z</time>
      </trkpt>
      <trkpt lat="46.00434" lon="-0.52555">
        <ele>70.936401367188</ele>
        <time>2014-08-10T08:50:44.000Z</time>
      </trkpt>
      <trkpt lat="46.00428" lon="-0.52559">
        <ele>70.952423095703</ele>
        <time>2014-08-10T08:50:46.000Z</time>
      </trkpt>
      <trkpt lat="46.00424" lon="-0.52567">
        <ele>70.95142364502</ele>
        <time>2014-08-10T08:50:49.000Z</time>
      </trkpt>
      <trkpt lat="46.00426" lon="-0.52575">
        <ele>70.970962524414</ele>
        <time>2014-08-10T08:50:52.000Z</time>
      </trkpt>
      <trkpt lat="46.00427" lon="-0.52581">
        <ele>71.017471313477</ele>
        <time>2014-08-10T08:50:54.000Z</time>
      </trkpt>
      <trkpt lat="46.00433" lon="-0.52591">
        <ele>71.141212463379</ele>
        <time>2014-08-10T08:50:57.000Z</time>
      </trkpt>
      <trkpt lat="46.00436" lon="-0.52605">
        <ele>71.357437133789</ele>
        <time>2014-08-10T08:51:00.000Z</time>
      </trkpt>
      <trkpt lat="46.0044" lon="-0.52614">
        <ele>71.627914428711</ele>
        <time>2014-08-10T08:51:02.000Z</time>
      </trkpt>
      <trkpt lat="46.00443" lon="-0.52624">
        <ele>71.928810119629</ele>
        <time>2014-08-10T08:51:04.000Z</time>
      </trkpt>
      <trkpt lat="46.00448" lon="-0.52632">
        <ele>72.272415161133</ele>
        <time>2014-08-10T08:51:06.000Z</time>
      </trkpt>
      <trkpt lat="46.00454" lon="-0.52645">
        <ele>72.638000488281</ele>
        <time>2014-08-10T08:51:09.000Z</time>
      </trkpt>
      <trkpt lat="46.00462" lon="-0.52656">
        <ele>73.011245727539</ele>
        <time>2014-08-10T08:51:12.000Z</time>
      </trkpt>
      <trkpt lat="46.00468" lon="-0.52664">
        <ele>73.386863708496</ele>
        <time>2014-08-10T08:51:14.000Z</time>
      </trkpt>
      <trkpt lat="46.00473" lon="-0.52672">
        <ele>73.761703491211</ele>
        <time>2014-08-10T08:51:16.000Z</time>
      </trkpt>
      <trkpt lat="46.00481" lon="-0.52683">
        <ele>74.178062438965</ele>
        <time>2014-08-10T08:51:19.000Z</time>
      </trkpt>
      <trkpt lat="46.00487" lon="-0.5269">
        <ele>74.577430725098</ele>
        <time>2014-08-10T08:51:21.000Z</time>
      </trkpt>
      <trkpt lat="46.00492" lon="-0.52697">
        <ele>74.964851379395</ele>
        <time>2014-08-10T08:51:23.000Z</time>
      </trkpt>
      <trkpt lat="46.005" lon="-0.52709">
        <ele>75.430778503418</ele>
        <time>2014-08-10T08:51:27.000Z</time>
      </trkpt>
      <trkpt lat="46.00504" lon="-0.52718">
        <ele>75.918342590332</ele>
        <time>2014-08-10T08:51:28.000Z</time>
      </trkpt>
      <trkpt lat="46.00507" lon="-0.52727">
        <ele>76.378059387207</ele>
        <time>2014-08-10T08:51:30.000Z</time>
      </trkpt>
      <trkpt lat="46.0051" lon="-0.5274">
        <ele>76.874061584473</ele>
        <time>2014-08-10T08:51:33.000Z</time>
      </trkpt>
      <trkpt lat="46.00511" lon="-0.52755">
        <ele>77.392295837402</ele>
        <time>2014-08-10T08:51:37.000Z</time>
      </trkpt>
      <trkpt lat="46.00511" lon="-0.52765">
        <ele>77.815582275391</ele>
        <time>2014-08-10T08:51:38.000Z</time>
      </trkpt>
      <trkpt lat="46.00512" lon="-0.5278">
        <ele>78.232162475586</ele>
        <time>2014-08-10T08:51:41.000Z</time>
      </trkpt>
      <trkpt lat="46.00513" lon="-0.5279">
        <ele>78.625862121582</ele>
        <time>2014-08-10T08:51:43.000Z</time>
      </trkpt>
      <trkpt lat="46.00514" lon="-0.528">
        <ele>78.962303161621</ele>
        <time>2014-08-10T08:51:45.000Z</time>
      </trkpt>
      <trkpt lat="46.00515" lon="-0.52814">
        <ele>79.269317626953</ele>
        <time>2014-08-10T08:51:48.000Z</time>
      </trkpt>
      <trkpt lat="46.00517" lon="-0.5283">
        <ele>79.608154296875</ele>
        <time>2014-08-10T08:51:51.000Z</time>
      </trkpt>
      <trkpt lat="46.00518" lon="-0.52847">
        <ele>79.939926147461</ele>
        <time>2014-08-10T08:51:54.000Z</time>
      </trkpt>
      <trkpt lat="46.00519" lon="-0.52857">
        <ele>80.257476806641</ele>
        <time>2014-08-10T08:51:56.000Z</time>
      </trkpt>
      <trkpt lat="46.0052" lon="-0.52875">
        <ele>80.594528198242</ele>
        <time>2014-08-10T08:51:59.000Z</time>
      </trkpt>
      <trkpt lat="46.00521" lon="-0.52884">
        <ele>80.898818969727</ele>
        <time>2014-08-10T08:52:01.000Z</time>
      </trkpt>
      <trkpt lat="46.00523" lon="-0.52901">
        <ele>81.193260192871</ele>
        <time>2014-08-10T08:52:05.000Z</time>
      </trkpt>
      <trkpt lat="46.00524" lon="-0.52918">
        <ele>81.500106811523</ele>
        <time>2014-08-10T08:52:07.000Z</time>
      </trkpt>
      <trkpt lat="46.00526" lon="-0.52935">
        <ele>81.860092163086</ele>
        <time>2014-08-10T08:52:10.000Z</time>
      </trkpt>
      <trkpt lat="46.00526" lon="-0.52947">
        <ele>82.212074279785</ele>
        <time>2014-08-10T08:52:12.000Z</time>
      </trkpt>
      <trkpt lat="46.00528" lon="-0.52965">
        <ele>82.629135131836</ele>
        <time>2014-08-10T08:52:15.000Z</time>
      </trkpt>
      <trkpt lat="46.00529" lon="-0.52976">
        <ele>83.042678833008</ele>
        <time>2014-08-10T08:52:17.000Z</time>
      </trkpt>
      <trkpt lat="46.00531" lon="-0.52993">
        <ele>83.484573364258</ele>
        <time>2014-08-10T08:52:20.000Z</time>
      </trkpt>
      <trkpt lat="46.00532" lon="-0.53004">
        <ele>83.909072875977</ele>
        <time>2014-08-10T08:52:22.000Z</time>
      </trkpt>
      <trkpt lat="46.00534" lon="-0.53021">
        <ele>84.363677978516</ele>
        <time>2014-08-10T08:52:26.000Z</time>
      </trkpt>
      <trkpt lat="46.00536" lon="-0.53037">
        <ele>84.817665100098</ele>
        <time>2014-08-10T08:52:28.000Z</time>
      </trkpt>
      <trkpt lat="46.00537" lon="-0.53053">
        <ele>85.304679870605</ele>
        <time>2014-08-10T08:52:31.000Z</time>
      </trkpt>
      <trkpt lat="46.00539" lon="-0.53062">
        <ele>85.753463745117</ele>
        <time>2014-08-10T08:52:33.000Z</time>
      </trkpt>
      <trkpt lat="46.00541" lon="-0.53078">
        <ele>86.236991882324</ele>
        <time>2014-08-10T08:52:36.000Z</time>
      </trkpt>
      <trkpt lat="46.00542" lon="-0.53089">
        <ele>86.71142578125</ele>
        <time>2014-08-10T08:52:38.000Z</time>
      </trkpt>
      <trkpt lat="46.00542" lon="-0.53098">
        <ele>87.142677307129</ele>
        <time>2014-08-10T08:52:40.000Z</time>
      </trkpt>
      <trkpt lat="46.00544" lon="-0.5311">
        <ele>87.577026367188</ele>
        <time>2014-08-10T08:52:43.000Z</time>
      </trkpt>
      <trkpt lat="46.00546" lon="-0.53125">
        <ele>88.052932739258</ele>
        <time>2014-08-10T08:52:46.000Z</time>
      </trkpt>
      <trkpt lat="46.00547" lon="-0.53135">
        <ele>88.485473632812</ele>
        <time>2014-08-10T08:52:48.000Z</time>
      </trkpt>
      <trkpt lat="46.00548" lon="-0.53145">
        <ele>88.915023803711</ele>
        <time>2014-08-10T08:52:50.000Z</time>
      </trkpt>
      <trkpt lat="46.00549" lon="-0.53155">
        <ele>89.363525390625</ele>
        <time>2014-08-10T08:52:52.000Z</time>
      </trkpt>
      <trkpt lat="46.00551" lon="-0.53171">
        <ele>89.812026977539</ele>
        <time>2014-08-10T08:52:55.000Z</time>
      </trkpt>
      <trkpt lat="46.00552" lon="-0.53186">
        <ele>90.178680419922</ele>
        <time>2014-08-10T08:52:58.000Z</time>
      </trkpt>
      <trkpt lat="46.00554" lon="-0.53196">
        <ele>90.488555908203</ele>
        <time>2014-08-10T08:53:00.000Z</time>
      </trkpt>
      <trkpt lat="46.00555" lon="-0.53206">
        <ele>90.741630554199</ele>
        <time>2014-08-10T08:53:02.000Z</time>
      </trkpt>
      <trkpt lat="46.00555" lon="-0.53215">
        <ele>90.928703308105</ele>
        <time>2014-08-10T08:53:05.000Z</time>
      </trkpt>
      <trkpt lat="46.00557" lon="-0.53225">
        <ele>91.037826538086</ele>
        <time>2014-08-10T08:53:07.000Z</time>
      </trkpt>
      <trkpt lat="46.00557" lon="-0.53229">
        <ele>91.126121520996</ele>
        <time>2014-08-10T08:53:10.000Z</time>
      </trkpt>
      <trkpt lat="46.00566" lon="-0.53225">
        <ele>91.444007873535</ele>
        <time>2014-08-10T08:53:12.000Z</time>
      </trkpt>
      <trkpt lat="46.00567" lon="-0.53224">
        <ele>91.771545410156</ele>
        <time>2014-08-10T08:53:14.000Z</time>
      </trkpt>
      <trkpt lat="46.00572" lon="-0.53222">
        <ele>92.221389770508</ele>
        <time>2014-08-10T08:53:17.000Z</time>
      </trkpt>
      <trkpt lat="46.00579" lon="-0.53219">
        <ele>92.839553833008</ele>
        <time>2014-08-10T08:53:20.000Z</time>
      </trkpt>
      <trkpt lat="46.00581" lon="-0.53219">
        <ele>93.505630493164</ele>
        <time>2014-08-10T08:53:22.000Z</time>
      </trkpt>
      <trkpt lat="46.00591" lon="-0.53215">
        <ele>94.140159606934</ele>
        <time>2014-08-10T08:53:53.000Z</time>
      </trkpt>
      <trkpt lat="46.00597" lon="-0.53214">
        <ele>94.858009338379</ele>
        <time>2014-08-10T08:53:56.000Z</time>
      </trkpt>
      <trkpt lat="46.00603" lon="-0.53213">
        <ele>95.533897399902</ele>
        <time>2014-08-10T08:53:58.000Z</time>
      </trkpt>
      <trkpt lat="46.00612" lon="-0.53207">
        <ele>96.180450439453</ele>
        <time>2014-08-10T08:54:01.000Z</time>
      </trkpt>
      <trkpt lat="46.0062" lon="-0.532">
        <ele>96.893814086914</ele>
        <time>2014-08-10T08:54:04.000Z</time>
      </trkpt>
      <trkpt lat="46.00628" lon="-0.53194">
        <ele>97.532936096191</ele>
        <time>2014-08-10T08:54:07.000Z</time>
      </trkpt>
      <trkpt lat="46.00636" lon="-0.53189">
        <ele>98.197067260742</ele>
        <time>2014-08-10T08:54:10.000Z</time>
      </trkpt>
      <trkpt lat="46.00642" lon="-0.53186">
        <ele>98.859390258789</ele>
        <time>2014-08-10T08:54:12.000Z</time>
      </trkpt>
      <trkpt lat="46.0065" lon="-0.53182">
        <ele>99.498641967773</ele>
        <time>2014-08-10T08:54:15.000Z</time>
      </trkpt>
      <trkpt lat="46.00657" lon="-0.5318">
        <ele>100.11389160156</ele>
        <time>2014-08-10T08:54:17.000Z</time>
      </trkpt>
      <trkpt lat="46.00664" lon="-0.53176">
        <ele>100.71771240234</ele>
        <time>2014-08-10T08:54:20.000Z</time>
      </trkpt>
      <trkpt lat="46.00668" lon="-0.53175">
        <ele>101.24394226074</ele>
        <time>2014-08-10T08:54:22.000Z</time>
      </trkpt>
      <trkpt lat="46.00672" lon="-0.53174">
        <ele>101.73526763916</ele>
        <time>2014-08-10T08:54:24.000Z</time>
      </trkpt>
      <trkpt lat="46.00677" lon="-0.53172">
        <ele>102.1603012085</ele>
        <time>2014-08-10T08:54:27.000Z</time>
      </trkpt>
      <trkpt lat="46.00681" lon="-0.53169">
        <ele>102.55476379395</ele>
        <time>2014-08-10T08:54:29.000Z</time>
      </trkpt>
      <trkpt lat="46.00686" lon="-0.53166">
        <ele>102.89654541016</ele>
        <time>2014-08-10T08:54:31.000Z</time>
      </trkpt>
      <trkpt lat="46.00692" lon="-0.5316">
        <ele>103.23703765869</ele>
        <time>2014-08-10T08:54:34.000Z</time>
      </trkpt>
      <trkpt lat="46.00699" lon="-0.53154">
        <ele>103.57387542725</ele>
        <time>2014-08-10T08:54:37.000Z</time>
      </trkpt>
      <trkpt lat="46.00706" lon="-0.53147">
        <ele>103.88761901855</ele>
        <time>2014-08-10T08:54:40.000Z</time>
      </trkpt>
      <trkpt lat="46.0071" lon="-0.53144">
        <ele>104.17378234863</ele>
        <time>2014-08-10T08:54:42.000Z</time>
      </trkpt>
      <trkpt lat="46.00717" lon="-0.5314">
        <ele>104.46583557129</ele>
        <time>2014-08-10T08:54:45.000Z</time>
      </trkpt>
      <trkpt lat="46.00721" lon="-0.53138">
        <ele>104.73974609375</ele>
        <time>2014-08-10T08:54:47.000Z</time>
      </trkpt>
      <trkpt lat="46.00728" lon="-0.53131">
        <ele>105.00944519043</ele>
        <time>2014-08-10T08:54:50.000Z</time>
      </trkpt>
      <trkpt lat="46.00734" lon="-0.53122">
        <ele>105.24769592285</ele>
        <time>2014-08-10T08:54:53.000Z</time>
      </trkpt>
      <trkpt lat="46.00742" lon="-0.53116">
        <ele>105.49894714355</ele>
        <time>2014-08-10T08:54:56.000Z</time>
      </trkpt>
      <trkpt lat="46.00746" lon="-0.53113">
        <ele>105.70497131348</ele>
        <time>2014-08-10T08:54:58.000Z</time>
      </trkpt>
      <trkpt lat="46.00747" lon="-0.53112">
        <ele>105.88228607178</ele>
        <time>2014-08-10T08:55:00.000Z</time>
      </trkpt>
      <trkpt lat="46.0075" lon="-0.53109">
        <ele>106.02333068848</ele>
        <time>2014-08-10T08:55:03.000Z</time>
      </trkpt>
      <trkpt lat="46.00754" lon="-0.53105">
        <ele>106.143699646</ele>
        <time>2014-08-10T08:55:06.000Z</time>
      </trkpt>
      <trkpt lat="46.00758" lon="-0.53101">
        <ele>106.21138000488</ele>
        <time>2014-08-10T08:55:09.000Z</time>
      </trkpt>
      <trkpt lat="46.0076" lon="-0.53097">
        <ele>106.2391204834</ele>
        <time>2014-08-10T08:55:11.000Z</time>
      </trkpt>
      <trkpt lat="46.00764" lon="-0.53094">
        <ele>106.26828765869</ele>
        <time>2014-08-10T08:55:13.000Z</time>
      </trkpt>
      <trkpt lat="46.00768" lon="-0.53091">
        <ele>106.29907226562</ele>
        <time>2014-08-10T08:55:15.000Z</time>
      </trkpt>
      <trkpt lat="46.00773" lon="-0.53089">
        <ele>106.37284088135</ele>
        <time>2014-08-10T08:55:18.000Z</time>
      </trkpt>
      <trkpt lat="46.00779" lon="-0.53087">
        <ele>106.49868011475</ele>
        <time>2014-08-10T08:55:21.000Z</time>
      </trkpt>
      <trkpt lat="46.00784" lon="-0.53083">
        <ele>106.65174865723</ele>
        <time>2014-08-10T08:55:23.000Z</time>
      </trkpt>
      <trkpt lat="46.00788" lon="-0.5308">
        <ele>106.80871582031</ele>
        <time>2014-08-10T08:55:25.000Z</time>
      </trkpt>
      <trkpt lat="46.00797" lon="-0.53073">
        <ele>106.99797058105</ele>
        <time>2014-08-10T08:55:28.000Z</time>
      </trkpt>
      <trkpt lat="46.00806" lon="-0.53065">
        <ele>107.18302154541</ele>
        <time>2014-08-10T08:55:31.000Z</time>
      </trkpt>
      <trkpt lat="46.00814" lon="-0.53058">
        <ele>107.34438323975</ele>
        <time>2014-08-10T08:55:34.000Z</time>
      </trkpt>
      <trkpt lat="46.00819" lon="-0.53052">
        <ele>107.48317718506</ele>
        <time>2014-08-10T08:55:36.000Z</time>
      </trkpt>
      <trkpt lat="46.00827" lon="-0.53042">
        <ele>107.59226226807</ele>
        <time>2014-08-10T08:55:39.000Z</time>
      </trkpt>
      <trkpt lat="46.00834" lon="-0.53036">
        <ele>107.67289733887</ele>
        <time>2014-08-10T08:55:41.000Z</time>
      </trkpt>
      <trkpt lat="46.00845" lon="-0.53031">
        <ele>107.72253417969</ele>
        <time>2014-08-10T08:55:44.000Z</time>
      </trkpt>
      <trkpt lat="46.0085" lon="-0.53028">
        <ele>107.74306488037</ele>
        <time>2014-08-10T08:55:46.000Z</time>
      </trkpt>
      <trkpt lat="46.00857" lon="-0.53021">
        <ele>107.75004577637</ele>
        <time>2014-08-10T08:55:49.000Z</time>
      </trkpt>
      <trkpt lat="46.00865" lon="-0.53019">
        <ele>107.79072570801</ele>
        <time>2014-08-10T08:55:52.000Z</time>
      </trkpt>
      <trkpt lat="46.00874" lon="-0.53017">
        <ele>107.85013580322</ele>
        <time>2014-08-10T08:55:55.000Z</time>
      </trkpt>
      <trkpt lat="46.0088" lon="-0.53013">
        <ele>107.91723632812</ele>
        <time>2014-08-10T08:55:57.000Z</time>
      </trkpt>
      <trkpt lat="46.00886" lon="-0.5301">
        <ele>108.00075531006</ele>
        <time>2014-08-10T08:55:59.000Z</time>
      </trkpt>
      <trkpt lat="46.00895" lon="-0.53004">
        <ele>108.12184143066</ele>
        <time>2014-08-10T08:56:02.000Z</time>
      </trkpt>
      <trkpt lat="46.00907" lon="-0.52998">
        <ele>108.25532531738</ele>
        <time>2014-08-10T08:56:05.000Z</time>
      </trkpt>
      <trkpt lat="46.00919" lon="-0.52991">
        <ele>108.30104827881</ele>
        <time>2014-08-10T08:56:07.000Z</time>
      </trkpt>
      <trkpt lat="46.00933" lon="-0.52986">
        <ele>108.17936706543</ele>
        <time>2014-08-10T08:56:10.000Z</time>
      </trkpt>
      <trkpt lat="46.00946" lon="-0.52981">
        <ele>107.9055557251</ele>
        <time>2014-08-10T08:56:13.000Z</time>
      </trkpt>
      <trkpt lat="46.00952" lon="-0.52972">
        <ele>107.4395904541</ele>
        <time>2014-08-10T08:56:16.000Z</time>
      </trkpt>
      <trkpt lat="46.0096" lon="-0.52965">
        <ele>106.7813949585</ele>
        <time>2014-08-10T08:56:19.000Z</time>
      </trkpt>
      <trkpt lat="46.00966" lon="-0.5296">
        <ele>106.05930328369</ele>
        <time>2014-08-10T08:56:21.000Z</time>
      </trkpt>
      <trkpt lat="46.00977" lon="-0.52952">
        <ele>105.28873443604</ele>
        <time>2014-08-10T08:56:24.000Z</time>
      </trkpt>
      <trkpt lat="46.00986" lon="-0.52946">
        <ele>104.49824523926</ele>
        <time>2014-08-10T08:56:26.000Z</time>
      </trkpt>
      <trkpt lat="46.01004" lon="-0.52926">
        <ele>103.46530914307</ele>
        <time>2014-08-10T08:56:29.000Z</time>
      </trkpt>
      <trkpt lat="46.01015" lon="-0.52917">
        <ele>102.45721435547</ele>
        <time>2014-08-10T08:56:31.000Z</time>
      </trkpt>
      <trkpt lat="46.01033" lon="-0.52895">
        <ele>101.30531311035</ele>
        <time>2014-08-10T08:56:34.000Z</time>
      </trkpt>
      <trkpt lat="46.0104" lon="-0.52889">
        <ele>100.29838562012</ele>
        <time>2014-08-10T08:56:36.000Z</time>
      </trkpt>
      <trkpt lat="46.0106" lon="-0.52874">
        <ele>99.319961547852</ele>
        <time>2014-08-10T08:56:39.000Z</time>
      </trkpt>
      <trkpt lat="46.01073" lon="-0.52867">
        <ele>98.710548400879</ele>
        <time>2014-08-10T08:56:41.000Z</time>
      </trkpt>
      <trkpt lat="46.01092" lon="-0.5286">
        <ele>98.148178100586</ele>
        <time>2014-08-10T08:56:44.000Z</time>
      </trkpt>
      <trkpt lat="46.011" lon="-0.52852">
        <ele>97.708068847656</ele>
        <time>2014-08-10T08:56:46.000Z</time>
      </trkpt>
      <trkpt lat="46.01112" lon="-0.52838">
        <ele>97.097030639648</ele>
        <time>2014-08-10T08:56:49.000Z</time>
      </trkpt>
      <trkpt lat="46.01121" lon="-0.52823">
        <ele>96.415672302246</ele>
        <time>2014-08-10T08:56:52.000Z</time>
      </trkpt>
      <trkpt lat="46.01136" lon="-0.52799">
        <ele>95.470664978027</ele>
        <time>2014-08-10T08:56:55.000Z</time>
      </trkpt>
      <trkpt lat="46.01145" lon="-0.52787">
        <ele>94.454063415527</ele>
        <time>2014-08-10T08:56:57.000Z</time>
      </trkpt>
      <trkpt lat="46.01153" lon="-0.52772">
        <ele>93.390914916992</ele>
        <time>2014-08-10T08:57:00.000Z</time>
      </trkpt>
      <trkpt lat="46.01154" lon="-0.52771">
        <ele>92.538055419922</ele>
        <time>2014-08-10T08:57:03.000Z</time>
      </trkpt>
      <trkpt lat="46.01158" lon="-0.52771">
        <ele>91.859680175781</ele>
        <time>2014-08-10T08:57:06.000Z</time>
      </trkpt>
      <trkpt lat="46.01161" lon="-0.5277">
        <ele>91.467559814453</ele>
        <time>2014-08-10T08:57:08.000Z</time>
      </trkpt>
      <trkpt lat="46.01164" lon="-0.52768">
        <ele>91.190490722656</ele>
        <time>2014-08-10T08:57:10.000Z</time>
      </trkpt>
      <trkpt lat="46.01178" lon="-0.52761">
        <ele>90.930015563965</ele>
        <time>2014-08-10T08:57:13.000Z</time>
      </trkpt>
      <trkpt lat="46.01181" lon="-0.52756">
        <ele>90.611946105957</ele>
        <time>2014-08-10T08:57:15.000Z</time>
      </trkpt>
      <trkpt lat="46.0118" lon="-0.5275">
        <ele>90.272689819336</ele>
        <time>2014-08-10T08:57:18.000Z</time>
      </trkpt>
      <trkpt lat="46.01181" lon="-0.52746">
        <ele>89.888481140137</ele>
        <time>2014-08-10T08:57:21.000Z</time>
      </trkpt>
      <trkpt lat="46.01184" lon="-0.52745">
        <ele>89.51309967041</ele>
        <time>2014-08-10T08:57:23.000Z</time>
      </trkpt>
      <trkpt lat="46.01187" lon="-0.52742">
        <ele>89.233253479004</ele>
        <time>2014-08-10T08:57:26.000Z</time>
      </trkpt>
      <trkpt lat="46.01188" lon="-0.52739">
        <ele>88.967552185059</ele>
        <time>2014-08-10T08:57:28.000Z</time>
      </trkpt>
      <trkpt lat="46.01191" lon="-0.52734">
        <ele>88.655532836914</ele>
        <time>2014-08-10T08:57:31.000Z</time>
      </trkpt>
      <trkpt lat="46.01194" lon="-0.52729">
        <ele>88.300636291504</ele>
        <time>2014-08-10T08:57:34.000Z</time>
      </trkpt>
      <trkpt lat="46.01197" lon="-0.52727">
        <ele>87.90811920166</ele>
        <time>2014-08-10T08:57:36.000Z</time>
      </trkpt>
      <trkpt lat="46.01201" lon="-0.52727">
        <ele>87.550437927246</ele>
        <time>2014-08-10T08:57:38.000Z</time>
      </trkpt>
      <trkpt lat="46.01204" lon="-0.52729">
        <ele>87.248146057129</ele>
        <time>2014-08-10T08:57:41.000Z</time>
      </trkpt>
      <trkpt lat="46.01206" lon="-0.52732">
        <ele>87.078880310059</ele>
        <time>2014-08-10T08:57:43.000Z</time>
      </trkpt>
      <trkpt lat="46.01209" lon="-0.52737">
        <ele>87.076103210449</ele>
        <time>2014-08-10T08:57:45.000Z</time>
      </trkpt>
      <trkpt lat="46.01212" lon="-0.52744">
        <ele>87.235717773438</ele>
        <time>2014-08-10T08:57:48.000Z</time>
      </trkpt>
      <trkpt lat="46.0121" lon="-0.52748">
        <ele>87.505920410156</ele>
        <time>2014-08-10T08:57:51.000Z</time>
      </trkpt>
      <trkpt lat="46.01211" lon="-0.52749">
        <ele>87.800117492676</ele>
        <time>2014-08-10T08:57:53.000Z</time>
      </trkpt>
      <trkpt lat="46.01213" lon="-0.52752">
        <ele>88.063682556152</ele>
        <time>2014-08-10T08:57:56.000Z</time>
      </trkpt>
      <trkpt lat="46.01215" lon="-0.52754">
        <ele>88.26643371582</ele>
        <time>2014-08-10T08:57:58.000Z</time>
      </trkpt>
      <trkpt lat="46.01217" lon="-0.52757">
        <ele>88.375503540039</ele>
        <time>2014-08-10T08:58:00.000Z</time>
      </trkpt>
      <trkpt lat="46.0122" lon="-0.52759">
        <ele>88.40079498291</ele>
        <time>2014-08-10T08:58:03.000Z</time>
      </trkpt>
      <trkpt lat="46.01225" lon="-0.52757">
        <ele>88.352279663086</ele>
        <time>2014-08-10T08:58:06.000Z</time>
      </trkpt>
      <trkpt lat="46.0123" lon="-0.52753">
        <ele>88.230842590332</ele>
        <time>2014-08-10T08:58:09.000Z</time>
      </trkpt>
      <trkpt lat="46.01233" lon="-0.52751">
        <ele>88.075271606445</ele>
        <time>2014-08-10T08:58:12.000Z</time>
      </trkpt>
      <trkpt lat="46.01237" lon="-0.52748">
        <ele>87.853149414062</ele>
        <time>2014-08-10T08:58:15.000Z</time>
      </trkpt>
      <trkpt lat="46.01242" lon="-0.52746">
        <ele>87.555351257324</ele>
        <time>2014-08-10T08:58:18.000Z</time>
      </trkpt>
      <trkpt lat="46.01246" lon="-0.52745">
        <ele>87.252731323242</ele>
        <time>2014-08-10T08:58:20.000Z</time>
      </trkpt>
      <trkpt lat="46.01256" lon="-0.52738">
        <ele>86.748031616211</ele>
        <time>2014-08-10T08:58:23.000Z</time>
      </trkpt>
      <trkpt lat="46.01263" lon="-0.52733">
        <ele>86.097763061523</ele>
        <time>2014-08-10T08:58:25.000Z</time>
      </trkpt>
      <trkpt lat="46.01272" lon="-0.52727">
        <ele>85.290481567383</ele>
        <time>2014-08-10T08:58:28.000Z</time>
      </trkpt>
      <trkpt lat="46.0128" lon="-0.52724">
        <ele>84.423736572266</ele>
        <time>2014-08-10T08:58:31.000Z</time>
      </trkpt>
      <trkpt lat="46.01292" lon="-0.5272">
        <ele>83.436141967773</ele>
        <time>2014-08-10T08:58:34.000Z</time>
      </trkpt>
      <trkpt lat="46.01302" lon="-0.52715">
        <ele>82.534004211426</ele>
        <time>2014-08-10T08:58:37.000Z</time>
      </trkpt>
      <trkpt lat="46.01306" lon="-0.52705">
        <ele>81.648178100586</ele>
        <time>2014-08-10T08:58:40.000Z</time>
      </trkpt>
      <trkpt lat="46.01305" lon="-0.52703">
        <ele>80.955673217773</ele>
        <time>2014-08-10T08:58:43.000Z</time>
      </trkpt>
      <trkpt lat="46.01323" lon="-0.52689">
        <ele>80.122146606445</ele>
        <time>2014-08-10T08:59:14.000Z</time>
      </trkpt>
      <trkpt lat="46.01326" lon="-0.52686">
        <ele>79.407196044922</ele>
        <time>2014-08-10T08:59:17.000Z</time>
      </trkpt>
      <trkpt lat="46.01328" lon="-0.52684">
        <ele>78.841812133789</ele>
        <time>2014-08-10T08:59:19.000Z</time>
      </trkpt>
      <trkpt lat="46.01329" lon="-0.52683">
        <ele>78.427436828613</ele>
        <time>2014-08-10T08:59:22.000Z</time>
      </trkpt>
      <trkpt lat="46.0134" lon="-0.52685">
        <ele>78.000343322754</ele>
        <time>2014-08-10T08:59:38.000Z</time>
      </trkpt>
      <trkpt lat="46.01344" lon="-0.52686">
        <ele>77.845069885254</ele>
        <time>2014-08-10T08:59:40.000Z</time>
      </trkpt>
      <trkpt lat="46.01348" lon="-0.52686">
        <ele>77.728927612305</ele>
        <time>2014-08-10T08:59:43.000Z</time>
      </trkpt>
      <trkpt lat="46.01352" lon="-0.52686">
        <ele>77.611808776855</ele>
        <time>2014-08-10T08:59:45.000Z</time>
      </trkpt>
      <trkpt lat="46.01357" lon="-0.52684">
        <ele>77.462394714355</ele>
        <time>2014-08-10T08:59:47.000Z</time>
      </trkpt>
      <trkpt lat="46.01366" lon="-0.52684">
        <ele>77.304397583008</ele>
        <time>2014-08-10T08:59:50.000Z</time>
      </trkpt>
      <trkpt lat="46.01375" lon="-0.52687">
        <ele>77.124649047852</ele>
        <time>2014-08-10T08:59:52.000Z</time>
      </trkpt>
      <trkpt lat="46.01384" lon="-0.52686">
        <ele>76.909652709961</ele>
        <time>2014-08-10T08:59:54.000Z</time>
      </trkpt>
      <trkpt lat="46.01392" lon="-0.52681">
        <ele>76.641212463379</ele>
        <time>2014-08-10T08:59:56.000Z</time>
      </trkpt>
      <trkpt lat="46.01401" lon="-0.52668">
        <ele>76.298538208008</ele>
        <time>2014-08-10T08:59:59.000Z</time>
      </trkpt>
      <trkpt lat="46.01413" lon="-0.52655">
        <ele>75.854919433594</ele>
        <time>2014-08-10T09:00:02.000Z</time>
      </trkpt>
      <trkpt lat="46.01426" lon="-0.52646">
        <ele>75.459487915039</ele>
        <time>2014-08-10T09:00:05.000Z</time>
      </trkpt>
      <trkpt lat="46.01434" lon="-0.52648">
        <ele>75.218162536621</ele>
        <time>2014-08-10T09:00:08.000Z</time>
      </trkpt>
      <trkpt lat="46.01437" lon="-0.52651">
        <ele>75.106262207031</ele>
        <time>2014-08-10T09:00:11.000Z</time>
      </trkpt>
      <trkpt lat="46.01442" lon="-0.52646">
        <ele>75.131393432617</ele>
        <time>2014-08-10T09:00:14.000Z</time>
      </trkpt>
      <trkpt lat="46.01447" lon="-0.52639">
        <ele>75.318229675293</ele>
        <time>2014-08-10T09:00:17.000Z</time>
      </trkpt>
      <trkpt lat="46.01452" lon="-0.52634">
        <ele>75.507766723633</ele>
        <time>2014-08-10T09:00:20.000Z</time>
      </trkpt>
      <trkpt lat="46.01456" lon="-0.52632">
        <ele>75.626647949219</ele>
        <time>2014-08-10T09:00:22.000Z</time>
      </trkpt>
      <trkpt lat="46.01461" lon="-0.52629">
        <ele>75.740562438965</ele>
        <time>2014-08-10T09:00:25.000Z</time>
      </trkpt>
      <trkpt lat="46.01465" lon="-0.52628">
        <ele>75.871391296387</ele>
        <time>2014-08-10T09:00:27.000Z</time>
      </trkpt>
      <trkpt lat="46.01468" lon="-0.52626">
        <ele>76.013717651367</ele>
        <time>2014-08-10T09:00:29.000Z</time>
      </trkpt>
      <trkpt lat="46.01472" lon="-0.52622">
        <ele>76.156845092773</ele>
        <time>2014-08-10T09:00:31.000Z</time>
      </trkpt>
      <trkpt lat="46.01477" lon="-0.52618">
        <ele>76.299354553223</ele>
        <time>2014-08-10T09:00:33.000Z</time>
      </trkpt>
      <trkpt lat="46.01485" lon="-0.5261">
        <ele>76.452850341797</ele>
        <time>2014-08-10T09:00:36.000Z</time>
      </trkpt>
      <trkpt lat="46.01493" lon="-0.52604">
        <ele>76.632553100586</ele>
        <time>2014-08-10T09:00:39.000Z</time>
      </trkpt>
      <trkpt lat="46.01501" lon="-0.52605">
        <ele>76.886238098145</ele>
        <time>2014-08-10T09:00:42.000Z</time>
      </trkpt>
      <trkpt lat="46.01508" lon="-0.52608">
        <ele>77.285118103027</ele>
        <time>2014-08-10T09:00:45.000Z</time>
      </trkpt>
      <trkpt lat="46.01524" lon="-0.52596">
        <ele>77.944046020508</ele>
        <time>2014-08-10T09:01:02.000Z</time>
      </trkpt>
      <trkpt lat="46.01533" lon="-0.52583">
        <ele>78.689010620117</ele>
        <time>2014-08-10T09:01:05.000Z</time>
      </trkpt>
      <trkpt lat="46.01538" lon="-0.5258">
        <ele>79.46443939209</ele>
        <time>2014-08-10T09:01:07.000Z</time>
      </trkpt>
      <trkpt lat="46.01546" lon="-0.52577">
        <ele>80.282333374023</ele>
        <time>2014-08-10T09:01:10.000Z</time>
      </trkpt>
      <trkpt lat="46.0155" lon="-0.52578">
        <ele>81.043045043945</ele>
        <time>2014-08-10T09:01:12.000Z</time>
      </trkpt>
      <trkpt lat="46.01554" lon="-0.52585">
        <ele>81.653358459473</ele>
        <time>2014-08-10T09:01:14.000Z</time>
      </trkpt>
      <trkpt lat="46.01561" lon="-0.52589">
        <ele>82.268760681152</ele>
        <time>2014-08-10T09:01:16.000Z</time>
      </trkpt>
      <trkpt lat="46.01566" lon="-0.52591">
        <ele>82.909950256348</ele>
        <time>2014-08-10T09:01:18.000Z</time>
      </trkpt>
      <trkpt lat="46.01573" lon="-0.52586">
        <ele>83.555389404297</ele>
        <time>2014-08-10T09:01:21.000Z</time>
      </trkpt>
      <trkpt lat="46.01577" lon="-0.52581">
        <ele>84.156845092773</ele>
        <time>2014-08-10T09:01:23.000Z</time>
      </trkpt>
      <trkpt lat="46.01582" lon="-0.52577">
        <ele>84.70694732666</ele>
        <time>2014-08-10T09:01:26.000Z</time>
      </trkpt>
      <trkpt lat="46.01585" lon="-0.52568">
        <ele>85.091049194336</ele>
        <time>2014-08-10T09:01:29.000Z</time>
      </trkpt>
      <trkpt lat="46.01587" lon="-0.52562">
        <ele>85.348556518555</ele>
        <time>2014-08-10T09:01:31.000Z</time>
      </trkpt>
      <trkpt lat="46.01593" lon="-0.52558">
        <ele>85.517684936523</ele>
        <time>2014-08-10T09:01:34.000Z</time>
      </trkpt>
      <trkpt lat="46.016" lon="-0.52555">
        <ele>85.681419372559</ele>
        <time>2014-08-10T09:01:37.000Z</time>
      </trkpt>
      <trkpt lat="46.01604" lon="-0.52552">
        <ele>85.793716430664</ele>
        <time>2014-08-10T09:01:39.000Z</time>
      </trkpt>
      <trkpt lat="46.01608" lon="-0.52549">
        <ele>85.957626342773</ele>
        <time>2014-08-10T09:01:41.000Z</time>
      </trkpt>
      <trkpt lat="46.0161" lon="-0.52546">
        <ele>86.142021179199</ele>
        <time>2014-08-10T09:01:44.000Z</time>
      </trkpt>
      <trkpt lat="46.01611" lon="-0.52545">
        <ele>86.282791137695</ele>
        <time>2014-08-10T09:01:46.000Z</time>
      </trkpt>
      <trkpt lat="46.01617" lon="-0.52539">
        <ele>86.399757385254</ele>
        <time>2014-08-10T09:01:49.000Z</time>
      </trkpt>
      <trkpt lat="46.01622" lon="-0.5253">
        <ele>86.50464630127</ele>
        <time>2014-08-10T09:01:52.000Z</time>
      </trkpt>
      <trkpt lat="46.01629" lon="-0.52522">
        <ele>86.61750793457</ele>
        <time>2014-08-10T09:01:55.000Z</time>
      </trkpt>
      <trkpt lat="46.01629" lon="-0.52515">
        <ele>86.68278503418</ele>
        <time>2014-08-10T09:01:57.000Z</time>
      </trkpt>
      <trkpt lat="46.01627" lon="-0.52511">
        <ele>86.684829711914</ele>
        <time>2014-08-10T09:02:00.000Z</time>
      </trkpt>
      <trkpt lat="46.01626" lon="-0.5251">
        <ele>86.642616271973</ele>
        <time>2014-08-10T09:02:02.000Z</time>
      </trkpt>
      <trkpt lat="46.01625" lon="-0.52509">
        <ele>86.560928344727</ele>
        <time>2014-08-10T09:02:05.000Z</time>
      </trkpt>
      <trkpt lat="46.01633" lon="-0.52492">
        <ele>86.40966796875</ele>
        <time>2014-08-10T09:02:15.000Z</time>
      </trkpt>
      <trkpt lat="46.01641" lon="-0.52486">
        <ele>86.348426818848</ele>
        <time>2014-08-10T09:02:18.000Z</time>
      </trkpt>
      <trkpt lat="46.01648" lon="-0.52491">
        <ele>86.484413146973</ele>
        <time>2014-08-10T09:02:21.000Z</time>
      </trkpt>
      <trkpt lat="46.01652" lon="-0.5249">
        <ele>86.672187805176</ele>
        <time>2014-08-10T09:02:23.000Z</time>
      </trkpt>
      <trkpt lat="46.01657" lon="-0.52483">
        <ele>86.866348266602</ele>
        <time>2014-08-10T09:02:26.000Z</time>
      </trkpt>
      <trkpt lat="46.01663" lon="-0.52476">
        <ele>87.096755981445</ele>
        <time>2014-08-10T09:02:29.000Z</time>
      </trkpt>
      <trkpt lat="46.01666" lon="-0.52474">
        <ele>87.299674987793</ele>
        <time>2014-08-10T09:02:31.000Z</time>
      </trkpt>
      <trkpt lat="46.0167" lon="-0.52477">
        <ele>87.410522460938</ele>
        <time>2014-08-10T09:02:33.000Z</time>
      </trkpt>
      <trkpt lat="46.01674" lon="-0.52484">
        <ele>87.584449768066</ele>
        <time>2014-08-10T09:02:36.000Z</time>
      </trkpt>
      <trkpt lat="46.01677" lon="-0.5249">
        <ele>87.85718536377</ele>
        <time>2014-08-10T09:02:38.000Z</time>
      </trkpt>
      <trkpt lat="46.0168" lon="-0.52494">
        <ele>88.185470581055</ele>
        <time>2014-08-10T09:02:40.000Z</time>
      </trkpt>
      <trkpt lat="46.01687" lon="-0.52491">
        <ele>88.491920471191</ele>
        <time>2014-08-10T09:02:43.000Z</time>
      </trkpt>
      <trkpt lat="46.01693" lon="-0.52481">
        <ele>88.67414855957</ele>
        <time>2014-08-10T09:02:46.000Z</time>
      </trkpt>
      <trkpt lat="46.01698" lon="-0.52471">
        <ele>88.658676147461</ele>
        <time>2014-08-10T09:02:49.000Z</time>
      </trkpt>
      <trkpt lat="46.01697" lon="-0.52461">
        <ele>88.441207885742</ele>
        <time>2014-08-10T09:02:52.000Z</time>
      </trkpt>
      <trkpt lat="46.01697" lon="-0.52455">
        <ele>88.095581054688</ele>
        <time>2014-08-10T09:02:54.000Z</time>
      </trkpt>
      <trkpt lat="46.01702" lon="-0.5245">
        <ele>87.727905273438</ele>
        <time>2014-08-10T09:02:57.000Z</time>
      </trkpt>
      <trkpt lat="46.01707" lon="-0.52446">
        <ele>87.413734436035</ele>
        <time>2014-08-10T09:03:00.000Z</time>
      </trkpt>
      <trkpt lat="46.01712" lon="-0.52443">
        <ele>87.192581176758</ele>
        <time>2014-08-10T09:03:03.000Z</time>
      </trkpt>
      <trkpt lat="46.01714" lon="-0.52444">
        <ele>87.117919921875</ele>
        <time>2014-08-10T09:03:05.000Z</time>
      </trkpt>
      <trkpt lat="46.01715" lon="-0.52448">
        <ele>87.160034179688</ele>
        <time>2014-08-10T09:03:07.000Z</time>
      </trkpt>
      <trkpt lat="46.01718" lon="-0.52455">
        <ele>87.307174682617</ele>
        <time>2014-08-10T09:03:10.000Z</time>
      </trkpt>
      <trkpt lat="46.01722" lon="-0.52455">
        <ele>87.49910736084</ele>
        <time>2014-08-10T09:03:12.000Z</time>
      </trkpt>
      <trkpt lat="46.01726" lon="-0.52453">
        <ele>87.695678710938</ele>
        <time>2014-08-10T09:03:14.000Z</time>
      </trkpt>
      <trkpt lat="46.01733" lon="-0.52446">
        <ele>87.829475402832</ele>
        <time>2014-08-10T09:03:17.000Z</time>
      </trkpt>
      <trkpt lat="46.0174" lon="-0.52438">
        <ele>87.881164550781</ele>
        <time>2014-08-10T09:03:20.000Z</time>
      </trkpt>
      <trkpt lat="46.01746" lon="-0.52431">
        <ele>87.823455810547</ele>
        <time>2014-08-10T09:03:22.000Z</time>
      </trkpt>
      <trkpt lat="46.01753" lon="-0.52424">
        <ele>87.704544067383</ele>
        <time>2014-08-10T09:03:24.000Z</time>
      </trkpt>
      <trkpt lat="46.01765" lon="-0.52418">
        <ele>87.546867370605</ele>
        <time>2014-08-10T09:03:27.000Z</time>
      </trkpt>
      <trkpt lat="46.01773" lon="-0.52415">
        <ele>87.410781860352</ele>
        <time>2014-08-10T09:03:29.000Z</time>
      </trkpt>
      <trkpt lat="46.01783" lon="-0.5241">
        <ele>87.271339416504</ele>
        <time>2014-08-10T09:03:32.000Z</time>
      </trkpt>
      <trkpt lat="46.01791" lon="-0.52406">
        <ele>87.13346862793</ele>
        <time>2014-08-10T09:03:34.000Z</time>
      </trkpt>
      <trkpt lat="46.01804" lon="-0.52401">
        <ele>87.004005432129</ele>
        <time>2014-08-10T09:03:37.000Z</time>
      </trkpt>
      <trkpt lat="46.01812" lon="-0.52397">
        <ele>86.894065856934</ele>
        <time>2014-08-10T09:03:39.000Z</time>
      </trkpt>
      <trkpt lat="46.01819" lon="-0.52393">
        <ele>86.773788452148</ele>
        <time>2014-08-10T09:03:42.000Z</time>
      </trkpt>
      <trkpt lat="46.0182" lon="-0.52391">
        <ele>86.683746337891</ele>
        <time>2014-08-10T09:03:46.000Z</time>
      </trkpt>
      <trkpt lat="46.01822" lon="-0.52389">
        <ele>86.596565246582</ele>
        <time>2014-08-10T09:03:48.000Z</time>
      </trkpt>
      <trkpt lat="46.01824" lon="-0.52385">
        <ele>86.50106048584</ele>
        <time>2014-08-10T09:03:51.000Z</time>
      </trkpt>
      <trkpt lat="46.01823" lon="-0.52384">
        <ele>86.403129577637</ele>
        <time>2014-08-10T09:03:54.000Z</time>
      </trkpt>
      <trkpt lat="46.01822" lon="-0.5238">
        <ele>86.283813476562</ele>
        <time>2014-08-10T09:03:57.000Z</time>
      </trkpt>
      <trkpt lat="46.01822" lon="-0.52374">
        <ele>86.113571166992</ele>
        <time>2014-08-10T09:03:59.000Z</time>
      </trkpt>
      <trkpt lat="46.01824" lon="-0.52361">
        <ele>85.834732055664</ele>
        <time>2014-08-10T09:04:02.000Z</time>
      </trkpt>
      <trkpt lat="46.01823" lon="-0.52354">
        <ele>85.519584655762</ele>
        <time>2014-08-10T09:04:04.000Z</time>
      </trkpt>
      <trkpt lat="46.01819" lon="-0.52336">
        <ele>85.01033782959</ele>
        <time>2014-08-10T09:04:29.000Z</time>
      </trkpt>
      <trkpt lat="46.01817" lon="-0.52331">
        <ele>84.48176574707</ele>
        <time>2014-08-10T09:04:32.000Z</time>
      </trkpt>
      <trkpt lat="46.01815" lon="-0.52322">
        <ele>83.959342956543</ele>
        <time>2014-08-10T09:04:35.000Z</time>
      </trkpt>
      <trkpt lat="46.01817" lon="-0.52312">
        <ele>83.532249450684</ele>
        <time>2014-08-10T09:04:37.000Z</time>
      </trkpt>
      <trkpt lat="46.01817" lon="-0.52304">
        <ele>83.13459777832</ele>
        <time>2014-08-10T09:04:39.000Z</time>
      </trkpt>
      <trkpt lat="46.01813" lon="-0.52302">
        <ele>82.909286499023</ele>
        <time>2014-08-10T09:04:42.000Z</time>
      </trkpt>
      <trkpt lat="46.01814" lon="-0.52298">
        <ele>82.735458374023</ele>
        <time>2014-08-10T09:04:45.000Z</time>
      </trkpt>
      <trkpt lat="46.01815" lon="-0.52291">
        <ele>82.582542419434</ele>
        <time>2014-08-10T09:04:48.000Z</time>
      </trkpt>
      <trkpt lat="46.01815" lon="-0.52287">
        <ele>82.445838928223</ele>
        <time>2014-08-10T09:04:50.000Z</time>
      </trkpt>
      <trkpt lat="46.01818" lon="-0.52287">
        <ele>82.367324829102</ele>
        <time>2014-08-10T09:04:53.000Z</time>
      </trkpt>
      <trkpt lat="46.0182" lon="-0.52287">
        <ele>82.343017578125</ele>
        <time>2014-08-10T09:04:56.000Z</time>
      </trkpt>
      <trkpt lat="46.01822" lon="-0.52286">
        <ele>82.3427734375</ele>
        <time>2014-08-10T09:04:58.000Z</time>
      </trkpt>
      <trkpt lat="46.01825" lon="-0.52282">
        <ele>82.374282836914</ele>
        <time>2014-08-10T09:05:01.000Z</time>
      </trkpt>
      <trkpt lat="46.01825" lon="-0.52274">
        <ele>82.384857177734</ele>
        <time>2014-08-10T09:05:04.000Z</time>
      </trkpt>
      <trkpt lat="46.01826" lon="-0.52268">
        <ele>82.360610961914</ele>
        <time>2014-08-10T09:05:06.000Z</time>
      </trkpt>
      <trkpt lat="46.01829" lon="-0.52264">
        <ele>82.317565917969</ele>
        <time>2014-08-10T09:05:08.000Z</time>
      </trkpt>
      <trkpt lat="46.01834" lon="-0.52255">
        <ele>82.251243591309</ele>
        <time>2014-08-10T09:05:11.000Z</time>
      </trkpt>
      <trkpt lat="46.01838" lon="-0.52247">
        <ele>82.142837524414</ele>
        <time>2014-08-10T09:05:13.000Z</time>
      </trkpt>
      <trkpt lat="46.01842" lon="-0.52236">
        <ele>82.026962280273</ele>
        <time>2014-08-10T09:05:16.000Z</time>
      </trkpt>
      <trkpt lat="46.01842" lon="-0.52228">
        <ele>81.895278930664</ele>
        <time>2014-08-10T09:05:18.000Z</time>
      </trkpt>
      <trkpt lat="46.01842" lon="-0.52218">
        <ele>81.724769592285</ele>
        <time>2014-08-10T09:05:20.000Z</time>
      </trkpt>
      <trkpt lat="46.01842" lon="-0.52208">
        <ele>81.520210266113</ele>
        <time>2014-08-10T09:05:22.000Z</time>
      </trkpt>
      <trkpt lat="46.01841" lon="-0.52196">
        <ele>81.296951293945</ele>
        <time>2014-08-10T09:05:25.000Z</time>
      </trkpt>
      <trkpt lat="46.01838" lon="-0.52186">
        <ele>81.069229125977</ele>
        <time>2014-08-10T09:05:28.000Z</time>
      </trkpt>
      <trkpt lat="46.01836" lon="-0.52176">
        <ele>80.816764831543</ele>
        <time>2014-08-10T09:05:31.000Z</time>
      </trkpt>
      <trkpt lat="46.01837" lon="-0.52168">
        <ele>80.574737548828</ele>
        <time>2014-08-10T09:05:35.000Z</time>
      </trkpt>
      <trkpt lat="46.01843" lon="-0.52161">
        <ele>80.362045288086</ele>
        <time>2014-08-10T09:05:37.000Z</time>
      </trkpt>
      <trkpt lat="46.01848" lon="-0.52157">
        <ele>80.195289611816</ele>
        <time>2014-08-10T09:05:40.000Z</time>
      </trkpt>
      <trkpt lat="46.01849" lon="-0.52156">
        <ele>80.082595825195</ele>
        <time>2014-08-10T09:05:43.000Z</time>
      </trkpt>
      <trkpt lat="46.01852" lon="-0.52154">
        <ele>80.028335571289</ele>
        <time>2014-08-10T09:05:46.000Z</time>
      </trkpt>
      <trkpt lat="46.01855" lon="-0.52152">
        <ele>80.006851196289</ele>
        <time>2014-08-10T09:05:48.000Z</time>
      </trkpt>
      <trkpt lat="46.0186" lon="-0.52146">
        <ele>79.981880187988</ele>
        <time>2014-08-10T09:05:51.000Z</time>
      </trkpt>
      <trkpt lat="46.01863" lon="-0.52142">
        <ele>79.955184936523</ele>
        <time>2014-08-10T09:05:53.000Z</time>
      </trkpt>
      <trkpt lat="46.0187" lon="-0.52136">
        <ele>79.909385681152</ele>
        <time>2014-08-10T09:05:56.000Z</time>
      </trkpt>
      <trkpt lat="46.01874" lon="-0.52132">
        <ele>79.852020263672</ele>
        <time>2014-08-10T09:05:59.000Z</time>
      </trkpt>
      <trkpt lat="46.01874" lon="-0.52128">
        <ele>79.766220092773</ele>
        <time>2014-08-10T09:06:02.000Z</time>
      </trkpt>
      <trkpt lat="46.01874" lon="-0.52126">
        <ele>79.687576293945</ele>
        <time>2014-08-10T09:06:04.000Z</time>
      </trkpt>
      <trkpt lat="46.0188" lon="-0.52121">
        <ele>79.612686157227</ele>
        <time>2014-08-10T09:06:53.000Z</time>
      </trkpt>
      <trkpt lat="46.01882" lon="-0.52121">
        <ele>79.560775756836</ele>
        <time>2014-08-10T09:06:56.000Z</time>
      </trkpt>
      <trkpt lat="46.01889" lon="-0.52109">
        <ele>79.465454101562</ele>
        <time>2014-08-10T09:08:36.000Z</time>
      </trkpt>
      <trkpt lat="46.01891" lon="-0.52101">
        <ele>79.352584838867</ele>
        <time>2014-08-10T09:08:39.000Z</time>
      </trkpt>
      <trkpt lat="46.01892" lon="-0.5209">
        <ele>79.177932739258</ele>
        <time>2014-08-10T09:08:42.000Z</time>
      </trkpt>
      <trkpt lat="46.01894" lon="-0.52079">
        <ele>78.929817199707</ele>
        <time>2014-08-10T09:08:45.000Z</time>
      </trkpt>
      <trkpt lat="46.01896" lon="-0.52072">
        <ele>78.616081237793</ele>
        <time>2014-08-10T09:08:47.000Z</time>
      </trkpt>
      <trkpt lat="46.01903" lon="-0.52069">
        <ele>78.368721008301</ele>
        <time>2014-08-10T09:08:50.000Z</time>
      </trkpt>
      <trkpt lat="46.01906" lon="-0.52071">
        <ele>78.198394775391</ele>
        <time>2014-08-10T09:08:52.000Z</time>
      </trkpt>
      <trkpt lat="46.0191" lon="-0.52073">
        <ele>78.135559082031</ele>
        <time>2014-08-10T09:08:54.000Z</time>
      </trkpt>
      <trkpt lat="46.01918" lon="-0.52075">
        <ele>78.205360412598</ele>
        <time>2014-08-10T09:08:57.000Z</time>
      </trkpt>
      <trkpt lat="46.01927" lon="-0.52079">
        <ele>78.300506591797</ele>
        <time>2014-08-10T09:09:00.000Z</time>
      </trkpt>
      <trkpt lat="46.01933" lon="-0.52082">
        <ele>78.371627807617</ele>
        <time>2014-08-10T09:09:02.000Z</time>
      </trkpt>
      <trkpt lat="46.01941" lon="-0.52086">
        <ele>78.378616333008</ele>
        <time>2014-08-10T09:09:05.000Z</time>
      </trkpt>
      <trkpt lat="46.01945" lon="-0.52087">
        <ele>78.333457946777</ele>
        <time>2014-08-10T09:09:07.000Z</time>
      </trkpt>
      <trkpt lat="46.01953" lon="-0.5209">
        <ele>78.202835083008</ele>
        <time>2014-08-10T09:09:10.000Z</time>
      </trkpt>
      <trkpt lat="46.0196" lon="-0.52095">
        <ele>78.09211730957</ele>
        <time>2014-08-10T09:09:13.000Z</time>
      </trkpt>
      <trkpt lat="46.01965" lon="-0.52097">
        <ele>77.97257232666</ele>
        <time>2014-08-10T09:09:15.000Z</time>
      </trkpt>
      <trkpt lat="46.01971" lon="-0.52101">
        <ele>77.871772766113</ele>
        <time>2014-08-10T09:09:18.000Z</time>
      </trkpt>
      <trkpt lat="46.01974" lon="-0.52104">
        <ele>77.78857421875</ele>
        <time>2014-08-10T09:09:20.000Z</time>
      </trkpt>
      <trkpt lat="46.01975" lon="-0.52111">
        <ele>77.785255432129</ele>
        <time>2014-08-10T09:09:23.000Z</time>
      </trkpt>
      <trkpt lat="46.01974" lon="-0.52118">
        <ele>77.847923278809</ele>
        <time>2014-08-10T09:09:26.000Z</time>
      </trkpt>
      <trkpt lat="46.01978" lon="-0.52125">
        <ele>77.957931518555</ele>
        <time>2014-08-10T09:09:29.000Z</time>
      </trkpt>
      <trkpt lat="46.01981" lon="-0.52133">
        <ele>78.114883422852</ele>
        <time>2014-08-10T09:09:32.000Z</time>
      </trkpt>
      <trkpt lat="46.01983" lon="-0.52138">
        <ele>78.290481567383</ele>
        <time>2014-08-10T09:09:34.000Z</time>
      </trkpt>
      <trkpt lat="46.01987" lon="-0.52146">
        <ele>78.456924438477</ele>
        <time>2014-08-10T09:09:37.000Z</time>
      </trkpt>
      <trkpt lat="46.01988" lon="-0.52152">
        <ele>78.600967407227</ele>
        <time>2014-08-10T09:09:39.000Z</time>
      </trkpt>
      <trkpt lat="46.01989" lon="-0.52161">
        <ele>78.773086547852</ele>
        <time>2014-08-10T09:09:42.000Z</time>
      </trkpt>
      <trkpt lat="46.01991" lon="-0.5217">
        <ele>78.936248779297</ele>
        <time>2014-08-10T09:09:45.000Z</time>
      </trkpt>
      <trkpt lat="46.01991" lon="-0.52177">
        <ele>79.061859130859</ele>
        <time>2014-08-10T09:09:48.000Z</time>
      </trkpt>
      <trkpt lat="46.01991" lon="-0.52183">
        <ele>79.139068603516</ele>
        <time>2014-08-10T09:09:51.000Z</time>
      </trkpt>
      <trkpt lat="46.01991" lon="-0.52188">
        <ele>79.175804138184</ele>
        <time>2014-08-10T09:09:53.000Z</time>
      </trkpt>
      <trkpt lat="46.01992" lon="-0.52192">
        <ele>79.145011901855</ele>
        <time>2014-08-10T09:09:55.000Z</time>
      </trkpt>
      <trkpt lat="46.01992" lon="-0.52196">
        <ele>79.074768066406</ele>
        <time>2014-08-10T09:09:57.000Z</time>
      </trkpt>
      <trkpt lat="46.01993" lon="-0.522">
        <ele>79.011001586914</ele>
        <time>2014-08-10T09:10:00.000Z</time>
      </trkpt>
      <trkpt lat="46.01993" lon="-0.52203">
        <ele>78.954750061035</ele>
        <time>2014-08-10T09:10:03.000Z</time>
      </trkpt>
      <trkpt lat="46.01993" lon="-0.52206">
        <ele>78.902709960938</ele>
        <time>2014-08-10T09:10:05.000Z</time>
      </trkpt>
      <trkpt lat="46.01992" lon="-0.52209">
        <ele>78.867225646973</ele>
        <time>2014-08-10T09:10:07.000Z</time>
      </trkpt>
      <trkpt lat="46.01989" lon="-0.52217">
        <ele>78.857971191406</ele>
        <time>2014-08-10T09:10:10.000Z</time>
      </trkpt>
      <trkpt lat="46.01988" lon="-0.52226">
        <ele>78.848823547363</ele>
        <time>2014-08-10T09:10:13.000Z</time>
      </trkpt>
      <trkpt lat="46.01988" lon="-0.52236">
        <ele>78.825843811035</ele>
        <time>2014-08-10T09:10:16.000Z</time>
      </trkpt>
      <trkpt lat="46.01987" lon="-0.52245">
        <ele>78.793701171875</ele>
        <time>2014-08-10T09:10:19.000Z</time>
      </trkpt>
      <trkpt lat="46.01986" lon="-0.52255">
        <ele>78.765090942383</ele>
        <time>2014-08-10T09:10:22.000Z</time>
      </trkpt>
      <trkpt lat="46.01986" lon="-0.52265">
        <ele>78.74503326416</ele>
        <time>2014-08-10T09:10:25.000Z</time>
      </trkpt>
      <trkpt lat="46.01987" lon="-0.52272">
        <ele>78.74666595459</ele>
        <time>2014-08-10T09:10:27.000Z</time>
      </trkpt>
      <trkpt lat="46.01987" lon="-0.52282">
        <ele>78.787460327148</ele>
        <time>2014-08-10T09:10:30.000Z</time>
      </trkpt>
      <trkpt lat="46.01987" lon="-0.5229">
        <ele>78.859390258789</ele>
        <time>2014-08-10T09:10:32.000Z</time>
      </trkpt>
      <trkpt lat="46.01988" lon="-0.52303">
        <ele>78.94384765625</ele>
        <time>2014-08-10T09:10:35.000Z</time>
      </trkpt>
      <trkpt lat="46.01989" lon="-0.52312">
        <ele>79.022926330566</ele>
        <time>2014-08-10T09:10:37.000Z</time>
      </trkpt>
      <trkpt lat="46.01989" lon="-0.52323">
        <ele>79.115425109863</ele>
        <time>2014-08-10T09:10:40.000Z</time>
      </trkpt>
      <trkpt lat="46.0199" lon="-0.5233">
        <ele>79.195602416992</ele>
        <time>2014-08-10T09:10:42.000Z</time>
      </trkpt>
      <trkpt lat="46.01992" lon="-0.5234">
        <ele>79.267143249512</ele>
        <time>2014-08-10T09:10:45.000Z</time>
      </trkpt>
      <trkpt lat="46.01997" lon="-0.52338">
        <ele>79.280166625977</ele>
        <time>2014-08-10T09:10:47.000Z</time>
      </trkpt>
      <trkpt lat="46.02" lon="-0.52336">
        <ele>79.253028869629</ele>
        <time>2014-08-10T09:10:49.000Z</time>
      </trkpt>
      <trkpt lat="46.02002" lon="-0.52334">
        <ele>79.165382385254</ele>
        <time>2014-08-10T09:10:51.000Z</time>
      </trkpt>
      <trkpt lat="46.02008" lon="-0.52329">
        <ele>78.988166809082</ele>
        <time>2014-08-10T09:10:54.000Z</time>
      </trkpt>
      <trkpt lat="46.02013" lon="-0.52325">
        <ele>78.747200012207</ele>
        <time>2014-08-10T09:10:56.000Z</time>
      </trkpt>
      <trkpt lat="46.02018" lon="-0.52322">
        <ele>78.482276916504</ele>
        <time>2014-08-10T09:10:58.000Z</time>
      </trkpt>
      <trkpt lat="46.02024" lon="-0.52319">
        <ele>78.179481506348</ele>
        <time>2014-08-10T09:11:00.000Z</time>
      </trkpt>
      <trkpt lat="46.02032" lon="-0.52314">
        <ele>77.82356262207</ele>
        <time>2014-08-10T09:11:03.000Z</time>
      </trkpt>
      <trkpt lat="46.0204" lon="-0.52309">
        <ele>77.472770690918</ele>
        <time>2014-08-10T09:11:06.000Z</time>
      </trkpt>
      <trkpt lat="46.02048" lon="-0.52306">
        <ele>77.114891052246</ele>
        <time>2014-08-10T09:11:08.000Z</time>
      </trkpt>
      <trkpt lat="46.02057" lon="-0.52303">
        <ele>76.736068725586</ele>
        <time>2014-08-10T09:11:11.000Z</time>
      </trkpt>
      <trkpt lat="46.02063" lon="-0.52301">
        <ele>76.374610900879</ele>
        <time>2014-08-10T09:11:13.000Z</time>
      </trkpt>
      <trkpt lat="46.02068" lon="-0.52298">
        <ele>76.060493469238</ele>
        <time>2014-08-10T09:11:15.000Z</time>
      </trkpt>
      <trkpt lat="46.02074" lon="-0.52295">
        <ele>75.791458129883</ele>
        <time>2014-08-10T09:11:17.000Z</time>
      </trkpt>
      <trkpt lat="46.02082" lon="-0.5229">
        <ele>75.531517028809</ele>
        <time>2014-08-10T09:11:20.000Z</time>
      </trkpt>
      <trkpt lat="46.02089" lon="-0.52286">
        <ele>75.347549438477</ele>
        <time>2014-08-10T09:11:23.000Z</time>
      </trkpt>
      <trkpt lat="46.02095" lon="-0.52282">
        <ele>75.204284667969</ele>
        <time>2014-08-10T09:11:26.000Z</time>
      </trkpt>
      <trkpt lat="46.02101" lon="-0.52279">
        <ele>75.091384887695</ele>
        <time>2014-08-10T09:11:29.000Z</time>
      </trkpt>
      <trkpt lat="46.02108" lon="-0.52278">
        <ele>74.985382080078</ele>
        <time>2014-08-10T09:11:32.000Z</time>
      </trkpt>
      <trkpt lat="46.02113" lon="-0.5228">
        <ele>74.914756774902</ele>
        <time>2014-08-10T09:11:34.000Z</time>
      </trkpt>
      <trkpt lat="46.02118" lon="-0.52286">
        <ele>74.827003479004</ele>
        <time>2014-08-10T09:11:37.000Z</time>
      </trkpt>
      <trkpt lat="46.02119" lon="-0.52293">
        <ele>74.737144470215</ele>
        <time>2014-08-10T09:11:39.000Z</time>
      </trkpt>
      <trkpt lat="46.0212" lon="-0.52299">
        <ele>74.653343200684</ele>
        <time>2014-08-10T09:11:41.000Z</time>
      </trkpt>
      <trkpt lat="46.02121" lon="-0.52307">
        <ele>74.591194152832</ele>
        <time>2014-08-10T09:11:44.000Z</time>
      </trkpt>
      <trkpt lat="46.02123" lon="-0.52313">
        <ele>74.544929504395</ele>
        <time>2014-08-10T09:11:46.000Z</time>
      </trkpt>
      <trkpt lat="46.02124" lon="-0.52323">
        <ele>74.522682189941</ele>
        <time>2014-08-10T09:11:49.000Z</time>
      </trkpt>
      <trkpt lat="46.02126" lon="-0.5233">
        <ele>74.510559082031</ele>
        <time>2014-08-10T09:11:51.000Z</time>
      </trkpt>
      <trkpt lat="46.02127" lon="-0.52341">
        <ele>74.528366088867</ele>
        <time>2014-08-10T09:11:54.000Z</time>
      </trkpt>
      <trkpt lat="46.02129" lon="-0.52353">
        <ele>74.587783813477</ele>
        <time>2014-08-10T09:11:57.000Z</time>
      </trkpt>
      <trkpt lat="46.0213" lon="-0.52362">
        <ele>74.675277709961</ele>
        <time>2014-08-10T09:11:59.000Z</time>
      </trkpt>
      <trkpt lat="46.02131" lon="-0.52373">
        <ele>74.80012512207</ele>
        <time>2014-08-10T09:12:02.000Z</time>
      </trkpt>
      <trkpt lat="46.02133" lon="-0.52384">
        <ele>74.963500976562</ele>
        <time>2014-08-10T09:12:05.000Z</time>
      </trkpt>
      <trkpt lat="46.02134" lon="-0.52391">
        <ele>75.130340576172</ele>
        <time>2014-08-10T09:12:07.000Z</time>
      </trkpt>
      <trkpt lat="46.02136" lon="-0.52399">
        <ele>75.291427612305</ele>
        <time>2014-08-10T09:12:09.000Z</time>
      </trkpt>
      <trkpt lat="46.02137" lon="-0.52411">
        <ele>75.475524902344</ele>
        <time>2014-08-10T09:12:12.000Z</time>
      </trkpt>
      <trkpt lat="46.02138" lon="-0.52419">
        <ele>75.652267456055</ele>
        <time>2014-08-10T09:12:14.000Z</time>
      </trkpt>
      <trkpt lat="46.0214" lon="-0.52431">
        <ele>75.830581665039</ele>
        <time>2014-08-10T09:12:17.000Z</time>
      </trkpt>
      <trkpt lat="46.02142" lon="-0.52443">
        <ele>76.017684936523</ele>
        <time>2014-08-10T09:12:20.000Z</time>
      </trkpt>
      <trkpt lat="46.02144" lon="-0.52454">
        <ele>76.204261779785</ele>
        <time>2014-08-10T09:12:23.000Z</time>
      </trkpt>
      <trkpt lat="46.02145" lon="-0.52461">
        <ele>76.359420776367</ele>
        <time>2014-08-10T09:12:25.000Z</time>
      </trkpt>
      <trkpt lat="46.02145" lon="-0.52468">
        <ele>76.499526977539</ele>
        <time>2014-08-10T09:12:27.000Z</time>
      </trkpt>
      <trkpt lat="46.02146" lon="-0.52475">
        <ele>76.612693786621</ele>
        <time>2014-08-10T09:12:29.000Z</time>
      </trkpt>
      <trkpt lat="46.02147" lon="-0.52487">
        <ele>76.711059570312</ele>
        <time>2014-08-10T09:12:32.000Z</time>
      </trkpt>
      <trkpt lat="46.02149" lon="-0.52498">
        <ele>76.79899597168</ele>
        <time>2014-08-10T09:12:35.000Z</time>
      </trkpt>
      <trkpt lat="46.0215" lon="-0.5251">
        <ele>76.922500610352</ele>
        <time>2014-08-10T09:12:38.000Z</time>
      </trkpt>
      <trkpt lat="46.02151" lon="-0.52522">
        <ele>77.088836669922</ele>
        <time>2014-08-10T09:12:41.000Z</time>
      </trkpt>
      <trkpt lat="46.02151" lon="-0.5253">
        <ele>77.276268005371</ele>
        <time>2014-08-10T09:12:43.000Z</time>
      </trkpt>
      <trkpt lat="46.02153" lon="-0.5254">
        <ele>77.49284362793</ele>
        <time>2014-08-10T09:12:46.000Z</time>
      </trkpt>
      <trkpt lat="46.02156" lon="-0.5255">
        <ele>77.736488342285</ele>
        <time>2014-08-10T09:12:49.000Z</time>
      </trkpt>
      <trkpt lat="46.02158" lon="-0.52561">
        <ele>77.978378295898</ele>
        <time>2014-08-10T09:12:52.000Z</time>
      </trkpt>
      <trkpt lat="46.0216" lon="-0.52572">
        <ele>78.218040466309</ele>
        <time>2014-08-10T09:12:55.000Z</time>
      </trkpt>
      <trkpt lat="46.02162" lon="-0.52584">
        <ele>78.479843139648</ele>
        <time>2014-08-10T09:12:58.000Z</time>
      </trkpt>
      <trkpt lat="46.02164" lon="-0.52596">
        <ele>78.747207641602</ele>
        <time>2014-08-10T09:13:01.000Z</time>
      </trkpt>
      <trkpt lat="46.02166" lon="-0.52607">
        <ele>79.021820068359</ele>
        <time>2014-08-10T09:13:04.000Z</time>
      </trkpt>
      <trkpt lat="46.02167" lon="-0.52614">
        <ele>79.278053283691</ele>
        <time>2014-08-10T09:13:06.000Z</time>
      </trkpt>
      <trkpt lat="46.0217" lon="-0.52625">
        <ele>79.525985717773</ele>
        <time>2014-08-10T09:13:09.000Z</time>
      </trkpt>
      <trkpt lat="46.02172" lon="-0.52636">
        <ele>79.763305664062</ele>
        <time>2014-08-10T09:13:12.000Z</time>
      </trkpt>
      <trkpt lat="46.02172" lon="-0.52647">
        <ele>79.995544433594</ele>
        <time>2014-08-10T09:13:15.000Z</time>
      </trkpt>
      <trkpt lat="46.02173" lon="-0.52656">
        <ele>80.213768005371</ele>
        <time>2014-08-10T09:13:18.000Z</time>
      </trkpt>
      <trkpt lat="46.02173" lon="-0.52664">
        <ele>80.439277648926</ele>
        <time>2014-08-10T09:13:21.000Z</time>
      </trkpt>
      <trkpt lat="46.02173" lon="-0.52673">
        <ele>80.640670776367</ele>
        <time>2014-08-10T09:13:24.000Z</time>
      </trkpt>
      <trkpt lat="46.02174" lon="-0.52678">
        <ele>80.804611206055</ele>
        <time>2014-08-10T09:13:26.000Z</time>
      </trkpt>
      <trkpt lat="46.02175" lon="-0.52688">
        <ele>80.930801391602</ele>
        <time>2014-08-10T09:13:29.000Z</time>
      </trkpt>
      <trkpt lat="46.02176" lon="-0.52695">
        <ele>81.026718139648</ele>
        <time>2014-08-10T09:13:31.000Z</time>
      </trkpt>
      <trkpt lat="46.02177" lon="-0.52705">
        <ele>81.096580505371</ele>
        <time>2014-08-10T09:13:34.000Z</time>
      </trkpt>
      <trkpt lat="46.02178" lon="-0.52713">
        <ele>81.153091430664</ele>
        <time>2014-08-10T09:13:36.000Z</time>
      </trkpt>
      <trkpt lat="46.0218" lon="-0.52724">
        <ele>81.206741333008</ele>
        <time>2014-08-10T09:13:39.000Z</time>
      </trkpt>
      <trkpt lat="46.02182" lon="-0.52735">
        <ele>81.254745483398</ele>
        <time>2014-08-10T09:13:42.000Z</time>
      </trkpt>
      <trkpt lat="46.02182" lon="-0.52746">
        <ele>81.308929443359</ele>
        <time>2014-08-10T09:13:45.000Z</time>
      </trkpt>
      <trkpt lat="46.02183" lon="-0.52753">
        <ele>81.350448608398</ele>
        <time>2014-08-10T09:13:47.000Z</time>
      </trkpt>
      <trkpt lat="46.02184" lon="-0.52763">
        <ele>81.373985290527</ele>
        <time>2014-08-10T09:13:50.000Z</time>
      </trkpt>
      <trkpt lat="46.02185" lon="-0.52774">
        <ele>81.381210327148</ele>
        <time>2014-08-10T09:13:53.000Z</time>
      </trkpt>
      <trkpt lat="46.02185" lon="-0.52781">
        <ele>81.377899169922</ele>
        <time>2014-08-10T09:13:55.000Z</time>
      </trkpt>
      <trkpt lat="46.02187" lon="-0.52792">
        <ele>81.3466796875</ele>
        <time>2014-08-10T09:13:58.000Z</time>
      </trkpt>
      <trkpt lat="46.02189" lon="-0.52803">
        <ele>81.302734375</ele>
        <time>2014-08-10T09:14:01.000Z</time>
      </trkpt>
      <trkpt lat="46.02191" lon="-0.52815">
        <ele>81.2529296875</ele>
        <time>2014-08-10T09:14:04.000Z</time>
      </trkpt>
      <trkpt lat="46.02192" lon="-0.52822">
        <ele>81.2001953125</ele>
        <time>2014-08-10T09:14:06.000Z</time>
      </trkpt>
      <trkpt lat="46.02194" lon="-0.52834">
        <ele>81.138343811035</ele>
        <time>2014-08-10T09:14:09.000Z</time>
      </trkpt>
      <trkpt lat="46.02196" lon="-0.52845">
        <ele>81.057968139648</ele>
        <time>2014-08-10T09:14:12.000Z</time>
      </trkpt>
      <trkpt lat="46.02198" lon="-0.52855">
        <ele>80.964599609375</ele>
        <time>2014-08-10T09:14:15.000Z</time>
      </trkpt>
      <trkpt lat="46.02199" lon="-0.52863">
        <ele>80.873817443848</ele>
        <time>2014-08-10T09:14:17.000Z</time>
      </trkpt>
      <trkpt lat="46.022" lon="-0.52871">
        <ele>80.783836364746</ele>
        <time>2014-08-10T09:14:19.000Z</time>
      </trkpt>
      <trkpt lat="46.02202" lon="-0.52882">
        <ele>80.690711975098</ele>
        <time>2014-08-10T09:14:22.000Z</time>
      </trkpt>
      <trkpt lat="46.02203" lon="-0.52894">
        <ele>80.619445800781</ele>
        <time>2014-08-10T09:14:25.000Z</time>
      </trkpt>
      <trkpt lat="46.02206" lon="-0.52906">
        <ele>80.569107055664</ele>
        <time>2014-08-10T09:14:28.000Z</time>
      </trkpt>
      <trkpt lat="46.02208" lon="-0.52918">
        <ele>80.541061401367</ele>
        <time>2014-08-10T09:14:31.000Z</time>
      </trkpt>
      <trkpt lat="46.02209" lon="-0.52925">
        <ele>80.598556518555</ele>
        <time>2014-08-10T09:14:33.000Z</time>
      </trkpt>
      <trkpt lat="46.0221" lon="-0.52936">
        <ele>80.779792785645</ele>
        <time>2014-08-10T09:14:36.000Z</time>
      </trkpt>
      <trkpt lat="46.02212" lon="-0.52948">
        <ele>81.08487701416</ele>
        <time>2014-08-10T09:14:39.000Z</time>
      </trkpt>
      <trkpt lat="46.02214" lon="-0.52959">
        <ele>81.510772705078</ele>
        <time>2014-08-10T09:14:42.000Z</time>
      </trkpt>
      <trkpt lat="46.02216" lon="-0.5297">
        <ele>82.034576416016</ele>
        <time>2014-08-10T09:14:45.000Z</time>
      </trkpt>
      <trkpt lat="46.02217" lon="-0.5298">
        <ele>82.582183837891</ele>
        <time>2014-08-10T09:14:48.000Z</time>
      </trkpt>
      <trkpt lat="46.02218" lon="-0.52987">
        <ele>83.086730957031</ele>
        <time>2014-08-10T09:14:50.000Z</time>
      </trkpt>
      <trkpt lat="46.0222" lon="-0.52995">
        <ele>83.560485839844</ele>
        <time>2014-08-10T09:14:53.000Z</time>
      </trkpt>
      <trkpt lat="46.0222" lon="-0.53004">
        <ele>84.021217346191</ele>
        <time>2014-08-10T09:14:56.000Z</time>
      </trkpt>
      <trkpt lat="46.02218" lon="-0.53013">
        <ele>84.499282836914</ele>
        <time>2014-08-10T09:14:59.000Z</time>
      </trkpt>
      <trkpt lat="46.02214" lon="-0.53019">
        <ele>84.973793029785</ele>
        <time>2014-08-10T09:15:02.000Z</time>
      </trkpt>
      <trkpt lat="46.02209" lon="-0.53021">
        <ele>85.400817871094</ele>
        <time>2014-08-10T09:15:04.000Z</time>
      </trkpt>
      <trkpt lat="46.02204" lon="-0.53024">
        <ele>85.789207458496</ele>
        <time>2014-08-10T09:15:07.000Z</time>
      </trkpt>
      <trkpt lat="46.02198" lon="-0.53027">
        <ele>86.120712280273</ele>
        <time>2014-08-10T09:15:10.000Z</time>
      </trkpt>
      <trkpt lat="46.02193" lon="-0.53029">
        <ele>86.372848510742</ele>
        <time>2014-08-10T09:15:13.000Z</time>
      </trkpt>
      <trkpt lat="46.02189" lon="-0.53032">
        <ele>86.570159912109</ele>
        <time>2014-08-10T09:15:15.000Z</time>
      </trkpt>
      <trkpt lat="46.02185" lon="-0.53036">
        <ele>86.832168579102</ele>
        <time>2014-08-10T09:15:18.000Z</time>
      </trkpt>
      <trkpt lat="46.0218" lon="-0.5304">
        <ele>87.118614196777</ele>
        <time>2014-08-10T09:15:21.000Z</time>
      </trkpt>
      <trkpt lat="46.02177" lon="-0.53042">
        <ele>87.394943237305</ele>
        <time>2014-08-10T09:15:23.000Z</time>
      </trkpt>
      <trkpt lat="46.02173" lon="-0.53046">
        <ele>87.707229614258</ele>
        <time>2014-08-10T09:15:26.000Z</time>
      </trkpt>
      <trkpt lat="46.0217" lon="-0.53048">
        <ele>88.027725219727</ele>
        <time>2014-08-10T09:15:28.000Z</time>
      </trkpt>
      <trkpt lat="46.02167" lon="-0.53049">
        <ele>88.291305541992</ele>
        <time>2014-08-10T09:15:30.000Z</time>
      </trkpt>
      <trkpt lat="46.02163" lon="-0.5305">
        <ele>88.506149291992</ele>
        <time>2014-08-10T09:15:32.000Z</time>
      </trkpt>
      <trkpt lat="46.02159" lon="-0.53053">
        <ele>88.75016784668</ele>
        <time>2014-08-10T09:15:35.000Z</time>
      </trkpt>
      <trkpt lat="46.02156" lon="-0.53055">
        <ele>88.95637512207</ele>
        <time>2014-08-10T09:15:37.000Z</time>
      </trkpt>
      <trkpt lat="46.02152" lon="-0.53059">
        <ele>89.18293762207</ele>
        <time>2014-08-10T09:15:40.000Z</time>
      </trkpt>
      <trkpt lat="46.02148" lon="-0.53062">
        <ele>89.44499206543</ele>
        <time>2014-08-10T09:15:43.000Z</time>
      </trkpt>
      <trkpt lat="46.02146" lon="-0.53065">
        <ele>89.73664855957</ele>
        <time>2014-08-10T09:15:45.000Z</time>
      </trkpt>
      <trkpt lat="46.02143" lon="-0.53067">
        <ele>90.00666809082</ele>
        <time>2014-08-10T09:15:47.000Z</time>
      </trkpt>
      <trkpt lat="46.0214" lon="-0.53071">
        <ele>90.302604675293</ele>
        <time>2014-08-10T09:15:50.000Z</time>
      </trkpt>
      <trkpt lat="46.02135" lon="-0.53074">
        <ele>90.58812713623</ele>
        <time>2014-08-10T09:15:53.000Z</time>
      </trkpt>
      <trkpt lat="46.02132" lon="-0.53077">
        <ele>90.862777709961</ele>
        <time>2014-08-10T09:15:55.000Z</time>
      </trkpt>
      <trkpt lat="46.02128" lon="-0.5308">
        <ele>91.14054107666</ele>
        <time>2014-08-10T09:15:58.000Z</time>
      </trkpt>
      <trkpt lat="46.02124" lon="-0.53083">
        <ele>91.430397033691</ele>
        <time>2014-08-10T09:16:01.000Z</time>
      </trkpt>
      <trkpt lat="46.02121" lon="-0.53086">
        <ele>91.683601379395</ele>
        <time>2014-08-10T09:16:03.000Z</time>
      </trkpt>
      <trkpt lat="46.02117" lon="-0.53088">
        <ele>91.912246704102</ele>
        <time>2014-08-10T09:16:06.000Z</time>
      </trkpt>
      <trkpt lat="46.02113" lon="-0.5309">
        <ele>92.112060546875</ele>
        <time>2014-08-10T09:16:09.000Z</time>
      </trkpt>
      <trkpt lat="46.0211" lon="-0.53091">
        <ele>92.275802612305</ele>
        <time>2014-08-10T09:16:11.000Z</time>
      </trkpt>
      <trkpt lat="46.02106" lon="-0.53095">
        <ele>92.429161071777</ele>
        <time>2014-08-10T09:16:14.000Z</time>
      </trkpt>
      <trkpt lat="46.02104" lon="-0.53098">
        <ele>92.588653564453</ele>
        <time>2014-08-10T09:16:16.000Z</time>
      </trkpt>
      <trkpt lat="46.021" lon="-0.53101">
        <ele>92.763122558594</ele>
        <time>2014-08-10T09:16:19.000Z</time>
      </trkpt>
      <trkpt lat="46.02098" lon="-0.53103">
        <ele>92.951400756836</ele>
        <time>2014-08-10T09:16:21.000Z</time>
      </trkpt>
      <trkpt lat="46.02094" lon="-0.53107">
        <ele>93.175880432129</ele>
        <time>2014-08-10T09:16:24.000Z</time>
      </trkpt>
      <trkpt lat="46.0209" lon="-0.5311">
        <ele>93.396286010742</ele>
        <time>2014-08-10T09:16:27.000Z</time>
      </trkpt>
      <trkpt lat="46.02087" lon="-0.53113">
        <ele>93.622451782227</ele>
        <time>2014-08-10T09:16:30.000Z</time>
      </trkpt>
      <trkpt lat="46.02084" lon="-0.53115">
        <ele>93.844497680664</ele>
        <time>2014-08-10T09:16:33.000Z</time>
      </trkpt>
      <trkpt lat="46.02081" lon="-0.53117">
        <ele>94.072235107422</ele>
        <time>2014-08-10T09:16:35.000Z</time>
      </trkpt>
      <trkpt lat="46.02078" lon="-0.53119">
        <ele>94.310508728027</ele>
        <time>2014-08-10T09:16:38.000Z</time>
      </trkpt>
      <trkpt lat="46.02077" lon="-0.53123">
        <ele>94.570129394531</ele>
        <time>2014-08-10T09:16:40.000Z</time>
      </trkpt>
      <trkpt lat="46.02073" lon="-0.53125">
        <ele>94.85799407959</ele>
        <time>2014-08-10T09:16:43.000Z</time>
      </trkpt>
      <trkpt lat="46.02068" lon="-0.53127">
        <ele>95.164001464844</ele>
        <time>2014-08-10T09:16:46.000Z</time>
      </trkpt>
      <trkpt lat="46.02066" lon="-0.53129">
        <ele>95.483711242676</ele>
        <time>2014-08-10T09:16:48.000Z</time>
      </trkpt>
      <trkpt lat="46.02062" lon="-0.53133">
        <ele>95.820152282715</ele>
        <time>2014-08-10T09:16:51.000Z</time>
      </trkpt>
      <trkpt lat="46.0206" lon="-0.53135">
        <ele>96.142471313477</ele>
        <time>2014-08-10T09:16:53.000Z</time>
      </trkpt>
      <trkpt lat="46.02058" lon="-0.53137">
        <ele>96.442283630371</ele>
        <time>2014-08-10T09:16:55.000Z</time>
      </trkpt>
      <trkpt lat="46.02054" lon="-0.53139">
        <ele>96.738906860352</ele>
        <time>2014-08-10T09:16:58.000Z</time>
      </trkpt>
      <trkpt lat="46.0205" lon="-0.53141">
        <ele>97.040504455566</ele>
        <time>2014-08-10T09:17:01.000Z</time>
      </trkpt>
      <trkpt lat="46.02047" lon="-0.53144">
        <ele>97.326805114746</ele>
        <time>2014-08-10T09:17:04.000Z</time>
      </trkpt>
      <trkpt lat="46.02044" lon="-0.53147">
        <ele>97.62858581543</ele>
        <time>2014-08-10T09:17:07.000Z</time>
      </trkpt>
      <trkpt lat="46.0204" lon="-0.5315">
        <ele>97.935829162598</ele>
        <time>2014-08-10T09:17:10.000Z</time>
      </trkpt>
      <trkpt lat="46.02038" lon="-0.53152">
        <ele>98.225692749023</ele>
        <time>2014-08-10T09:17:12.000Z</time>
      </trkpt>
      <trkpt lat="46.02034" lon="-0.53155">
        <ele>98.52067565918</ele>
        <time>2014-08-10T09:17:15.000Z</time>
      </trkpt>
      <trkpt lat="46.02032" lon="-0.53157">
        <ele>98.787742614746</ele>
        <time>2014-08-10T09:17:17.000Z</time>
      </trkpt>
      <trkpt lat="46.02029" lon="-0.53161">
        <ele>99.057998657227</ele>
        <time>2014-08-10T09:17:20.000Z</time>
      </trkpt>
      <trkpt lat="46.02025" lon="-0.53163">
        <ele>99.330223083496</ele>
        <time>2014-08-10T09:17:23.000Z</time>
      </trkpt>
      <trkpt lat="46.02023" lon="-0.53165">
        <ele>99.59033203125</ele>
        <time>2014-08-10T09:17:25.000Z</time>
      </trkpt>
      <trkpt lat="46.02021" lon="-0.53168">
        <ele>99.831436157227</ele>
        <time>2014-08-10T09:17:28.000Z</time>
      </trkpt>
      <trkpt lat="46.02016" lon="-0.5317">
        <ele>100.07237243652</ele>
        <time>2014-08-10T09:17:31.000Z</time>
      </trkpt>
      <trkpt lat="46.02012" lon="-0.53171">
        <ele>100.28359985352</ele>
        <time>2014-08-10T09:17:34.000Z</time>
      </trkpt>
      <trkpt lat="46.02009" lon="-0.53173">
        <ele>100.46486663818</ele>
        <time>2014-08-10T09:17:36.000Z</time>
      </trkpt>
      <trkpt lat="46.02005" lon="-0.53176">
        <ele>100.65815734863</ele>
        <time>2014-08-10T09:17:39.000Z</time>
      </trkpt>
      <trkpt lat="46.02002" lon="-0.53178">
        <ele>100.84149169922</ele>
        <time>2014-08-10T09:17:41.000Z</time>
      </trkpt>
      <trkpt lat="46.01999" lon="-0.53179">
        <ele>101.00256347656</ele>
        <time>2014-08-10T09:17:43.000Z</time>
      </trkpt>
      <trkpt lat="46.01994" lon="-0.53182">
        <ele>101.1234588623</ele>
        <time>2014-08-10T09:17:46.000Z</time>
      </trkpt>
      <trkpt lat="46.01988" lon="-0.53184">
        <ele>101.21312713623</ele>
        <time>2014-08-10T09:17:49.000Z</time>
      </trkpt>
      <trkpt lat="46.01985" lon="-0.53186">
        <ele>101.26344299316</ele>
        <time>2014-08-10T09:17:51.000Z</time>
      </trkpt>
      <trkpt lat="46.01983" lon="-0.5319">
        <ele>101.29399108887</ele>
        <time>2014-08-10T09:17:53.000Z</time>
      </trkpt>
      <trkpt lat="46.01981" lon="-0.53194">
        <ele>101.32252502441</ele>
        <time>2014-08-10T09:17:55.000Z</time>
      </trkpt>
      <trkpt lat="46.01975" lon="-0.53197">
        <ele>101.349609375</ele>
        <time>2014-08-10T09:17:58.000Z</time>
      </trkpt>
      <trkpt lat="46.01971" lon="-0.532">
        <ele>101.38929748535</ele>
        <time>2014-08-10T09:18:00.000Z</time>
      </trkpt>
      <trkpt lat="46.01969" lon="-0.53204">
        <ele>101.43592834473</ele>
        <time>2014-08-10T09:18:02.000Z</time>
      </trkpt>
      <trkpt lat="46.01966" lon="-0.53207">
        <ele>101.4732208252</ele>
        <time>2014-08-10T09:18:04.000Z</time>
      </trkpt>
      <trkpt lat="46.01963" lon="-0.5321">
        <ele>101.50372314453</ele>
        <time>2014-08-10T09:18:06.000Z</time>
      </trkpt>
      <trkpt lat="46.01959" lon="-0.53214">
        <ele>101.55123138428</ele>
        <time>2014-08-10T09:18:09.000Z</time>
      </trkpt>
      <trkpt lat="46.01954" lon="-0.53219">
        <ele>101.59719085693</ele>
        <time>2014-08-10T09:18:12.000Z</time>
      </trkpt>
      <trkpt lat="46.0195" lon="-0.53222">
        <ele>101.63980865479</ele>
        <time>2014-08-10T09:18:14.000Z</time>
      </trkpt>
      <trkpt lat="46.01944" lon="-0.53224">
        <ele>101.67065429688</ele>
        <time>2014-08-10T09:18:17.000Z</time>
      </trkpt>
      <trkpt lat="46.01938" lon="-0.53223">
        <ele>101.67546844482</ele>
        <time>2014-08-10T09:18:20.000Z</time>
      </trkpt>
      <trkpt lat="46.01931" lon="-0.53223">
        <ele>101.64918518066</ele>
        <time>2014-08-10T09:18:23.000Z</time>
      </trkpt>
      <trkpt lat="46.01926" lon="-0.53223">
        <ele>101.60414123535</ele>
        <time>2014-08-10T09:18:26.000Z</time>
      </trkpt>
      <trkpt lat="46.01922" lon="-0.53225">
        <ele>101.55087280273</ele>
        <time>2014-08-10T09:18:28.000Z</time>
      </trkpt>
      <trkpt lat="46.01917" lon="-0.53226">
        <ele>101.49653625488</ele>
        <time>2014-08-10T09:18:31.000Z</time>
      </trkpt>
      <trkpt lat="46.01915" lon="-0.53221">
        <ele>101.42784118652</ele>
        <time>2014-08-10T09:18:33.000Z</time>
      </trkpt>
      <trkpt lat="46.01915" lon="-0.53214">
        <ele>101.33931732178</ele>
        <time>2014-08-10T09:18:36.000Z</time>
      </trkpt>
      <trkpt lat="46.01913" lon="-0.53209">
        <ele>101.229347229</ele>
        <time>2014-08-10T09:18:38.000Z</time>
      </trkpt>
      <trkpt lat="46.01912" lon="-0.53201">
        <ele>101.07959747314</ele>
        <time>2014-08-10T09:18:41.000Z</time>
      </trkpt>
      <trkpt lat="46.01912" lon="-0.53196">
        <ele>100.90451812744</ele>
        <time>2014-08-10T09:18:43.000Z</time>
      </trkpt>
      <trkpt lat="46.01911" lon="-0.53187">
        <ele>100.72120666504</ele>
        <time>2014-08-10T09:18:46.000Z</time>
      </trkpt>
      <trkpt lat="46.01911" lon="-0.53182">
        <ele>100.54860687256</ele>
        <time>2014-08-10T09:18:48.000Z</time>
      </trkpt>
      <trkpt lat="46.01911" lon="-0.53176">
        <ele>100.38008880615</ele>
        <time>2014-08-10T09:18:50.000Z</time>
      </trkpt>
      <trkpt lat="46.01911" lon="-0.53171">
        <ele>100.22891235352</ele>
        <time>2014-08-10T09:18:52.000Z</time>
      </trkpt>
      <trkpt lat="46.01911" lon="-0.53163">
        <ele>100.09268188477</ele>
        <time>2014-08-10T09:18:55.000Z</time>
      </trkpt>
      <trkpt lat="46.01911" lon="-0.53156">
        <ele>99.996894836426</ele>
        <time>2014-08-10T09:18:58.000Z</time>
      </trkpt>
      <trkpt lat="46.0191" lon="-0.53155">
        <ele>99.926048278809</ele>
        <time>2014-08-10T09:19:00.000Z</time>
      </trkpt>
      <trkpt lat="46.01908" lon="-0.53135">
        <ele>99.876953125</ele>
        <time>2014-08-10T09:22:02.000Z</time>
      </trkpt>
      <trkpt lat="46.01907" lon="-0.53128">
        <ele>99.851036071777</ele>
        <time>2014-08-10T09:22:04.000Z</time>
      </trkpt>
      <trkpt lat="46.01905" lon="-0.53121">
        <ele>99.836547851562</ele>
        <time>2014-08-10T09:22:06.000Z</time>
      </trkpt>
      <trkpt lat="46.01902" lon="-0.53111">
        <ele>99.816665649414</ele>
        <time>2014-08-10T09:22:09.000Z</time>
      </trkpt>
      <trkpt lat="46.019" lon="-0.53108">
        <ele>99.794784545898</ele>
        <time>2014-08-10T09:22:11.000Z</time>
      </trkpt>
      <trkpt lat="46.01897" lon="-0.53106">
        <ele>99.769912719727</ele>
        <time>2014-08-10T09:22:14.000Z</time>
      </trkpt>
      <trkpt lat="46.01895" lon="-0.53107">
        <ele>99.738288879395</ele>
        <time>2014-08-10T09:22:16.000Z</time>
      </trkpt>
      <trkpt lat="46.01891" lon="-0.53109">
        <ele>99.697135925293</ele>
        <time>2014-08-10T09:22:18.000Z</time>
      </trkpt>
      <trkpt lat="46.01887" lon="-0.53112">
        <ele>99.647384643555</ele>
        <time>2014-08-10T09:22:21.000Z</time>
      </trkpt>
      <trkpt lat="46.01883" lon="-0.53113">
        <ele>99.58805847168</ele>
        <time>2014-08-10T09:22:22.000Z</time>
      </trkpt>
      <trkpt lat="46.01877" lon="-0.53115">
        <ele>99.515274047852</ele>
        <time>2014-08-10T09:22:25.000Z</time>
      </trkpt>
      <trkpt lat="46.01871" lon="-0.53116">
        <ele>99.429985046387</ele>
        <time>2014-08-10T09:22:27.000Z</time>
      </trkpt>
      <trkpt lat="46.0186" lon="-0.53117">
        <ele>99.319480895996</ele>
        <time>2014-08-10T09:22:30.000Z</time>
      </trkpt>
      <trkpt lat="46.0185" lon="-0.5312">
        <ele>99.184112548828</ele>
        <time>2014-08-10T09:22:33.000Z</time>
      </trkpt>
      <trkpt lat="46.01841" lon="-0.53122">
        <ele>99.02742767334</ele>
        <time>2014-08-10T09:22:36.000Z</time>
      </trkpt>
      <trkpt lat="46.01833" lon="-0.53122">
        <ele>98.86457824707</ele>
        <time>2014-08-10T09:22:39.000Z</time>
      </trkpt>
      <trkpt lat="46.01829" lon="-0.53122">
        <ele>98.689926147461</ele>
        <time>2014-08-10T09:22:41.000Z</time>
      </trkpt>
      <trkpt lat="46.01824" lon="-0.53124">
        <ele>98.518135070801</ele>
        <time>2014-08-10T09:22:44.000Z</time>
      </trkpt>
      <trkpt lat="46.01817" lon="-0.53125">
        <ele>98.326484680176</ele>
        <time>2014-08-10T09:22:47.000Z</time>
      </trkpt>
      <trkpt lat="46.01812" lon="-0.53127">
        <ele>98.128021240234</ele>
        <time>2014-08-10T09:22:49.000Z</time>
      </trkpt>
      <trkpt lat="46.01804" lon="-0.53129">
        <ele>97.894302368164</ele>
        <time>2014-08-10T09:22:52.000Z</time>
      </trkpt>
      <trkpt lat="46.018" lon="-0.5313">
        <ele>97.658409118652</ele>
        <time>2014-08-10T09:22:54.000Z</time>
      </trkpt>
      <trkpt lat="46.01799" lon="-0.53129">
        <ele>97.460891723633</ele>
        <time>2014-08-10T09:22:59.000Z</time>
      </trkpt>
      <trkpt lat="46.01788" lon="-0.5313">
        <ele>97.227394104004</ele>
        <time>2014-08-10T09:23:18.000Z</time>
      </trkpt>
      <trkpt lat="46.0178" lon="-0.53132">
        <ele>96.966819763184</ele>
        <time>2014-08-10T09:23:20.000Z</time>
      </trkpt>
      <trkpt lat="46.01762" lon="-0.53136">
        <ele>96.61092376709</ele>
        <time>2014-08-10T09:23:23.000Z</time>
      </trkpt>
      <trkpt lat="46.0175" lon="-0.53135">
        <ele>96.195297241211</ele>
        <time>2014-08-10T09:23:25.000Z</time>
      </trkpt>
      <trkpt lat="46.01726" lon="-0.53142">
        <ele>95.391746520996</ele>
        <time>2014-08-10T09:23:28.000Z</time>
      </trkpt>
      <trkpt lat="46.01704" lon="-0.53145">
        <ele>94.360832214355</ele>
        <time>2014-08-10T09:23:31.000Z</time>
      </trkpt>
      <trkpt lat="46.01689" lon="-0.53149">
        <ele>93.187995910645</ele>
        <time>2014-08-10T09:23:33.000Z</time>
      </trkpt>
      <trkpt lat="46.01668" lon="-0.53156">
        <ele>91.887756347656</ele>
        <time>2014-08-10T09:23:36.000Z</time>
      </trkpt>
      <trkpt lat="46.01654" lon="-0.5316">
        <ele>90.580375671387</ele>
        <time>2014-08-10T09:23:38.000Z</time>
      </trkpt>
      <trkpt lat="46.01633" lon="-0.53164">
        <ele>89.50178527832</ele>
        <time>2014-08-10T09:23:41.000Z</time>
      </trkpt>
      <trkpt lat="46.01612" lon="-0.53167">
        <ele>88.600975036621</ele>
        <time>2014-08-10T09:23:44.000Z</time>
      </trkpt>
      <trkpt lat="46.01602" lon="-0.5317">
        <ele>87.844825744629</ele>
        <time>2014-08-10T09:23:46.000Z</time>
      </trkpt>
      <trkpt lat="46.0159" lon="-0.53172">
        <ele>87.296646118164</ele>
        <time>2014-08-10T09:23:49.000Z</time>
      </trkpt>
      <trkpt lat="46.01582" lon="-0.53175">
        <ele>86.830322265625</ele>
        <time>2014-08-10T09:23:52.000Z</time>
      </trkpt>
      <trkpt lat="46.01577" lon="-0.53175">
        <ele>86.556594848633</ele>
        <time>2014-08-10T09:23:54.000Z</time>
      </trkpt>
      <trkpt lat="46.0157" lon="-0.53177">
        <ele>86.494247436523</ele>
        <time>2014-08-10T09:23:57.000Z</time>
      </trkpt>
      <trkpt lat="46.01562" lon="-0.5318">
        <ele>86.57536315918</ele>
        <time>2014-08-10T09:24:00.000Z</time>
      </trkpt>
      <trkpt lat="46.01553" lon="-0.53181">
        <ele>86.80778503418</ele>
        <time>2014-08-10T09:24:03.000Z</time>
      </trkpt>
      <trkpt lat="46.01546" lon="-0.53183">
        <ele>87.118560791016</ele>
        <time>2014-08-10T09:24:05.000Z</time>
      </trkpt>
      <trkpt lat="46.01537" lon="-0.53185">
        <ele>87.47762298584</ele>
        <time>2014-08-10T09:24:08.000Z</time>
      </trkpt>
      <trkpt lat="46.0153" lon="-0.53186">
        <ele>87.829696655273</ele>
        <time>2014-08-10T09:24:10.000Z</time>
      </trkpt>
      <trkpt lat="46.01521" lon="-0.53187">
        <ele>88.188011169434</ele>
        <time>2014-08-10T09:24:13.000Z</time>
      </trkpt>
      <trkpt lat="46.01514" lon="-0.5319">
        <ele>88.53874206543</ele>
        <time>2014-08-10T09:24:15.000Z</time>
      </trkpt>
      <trkpt lat="46.01508" lon="-0.5319">
        <ele>88.885223388672</ele>
        <time>2014-08-10T09:24:18.000Z</time>
      </trkpt>
      <trkpt lat="46.01498" lon="-0.53193">
        <ele>89.227882385254</ele>
        <time>2014-08-10T09:24:20.000Z</time>
      </trkpt>
      <trkpt lat="46.01492" lon="-0.53194">
        <ele>89.511215209961</ele>
        <time>2014-08-10T09:24:22.000Z</time>
      </trkpt>
      <trkpt lat="46.01484" lon="-0.53196">
        <ele>89.711318969727</ele>
        <time>2014-08-10T09:24:25.000Z</time>
      </trkpt>
      <trkpt lat="46.01478" lon="-0.53197">
        <ele>89.843223571777</ele>
        <time>2014-08-10T09:24:27.000Z</time>
      </trkpt>
      <trkpt lat="46.01468" lon="-0.532">
        <ele>89.915809631348</ele>
        <time>2014-08-10T09:24:30.000Z</time>
      </trkpt>
      <trkpt lat="46.01461" lon="-0.532">
        <ele>89.89771270752</ele>
        <time>2014-08-10T09:24:32.000Z</time>
      </trkpt>
      <trkpt lat="46.01453" lon="-0.53202">
        <ele>89.869033813477</ele>
        <time>2014-08-10T09:24:35.000Z</time>
      </trkpt>
      <trkpt lat="46.01448" lon="-0.53203">
        <ele>89.835029602051</ele>
        <time>2014-08-10T09:24:37.000Z</time>
      </trkpt>
      <trkpt lat="46.01443" lon="-0.53204">
        <ele>89.797897338867</ele>
        <time>2014-08-10T09:24:39.000Z</time>
      </trkpt>
      <trkpt lat="46.01434" lon="-0.53205">
        <ele>89.751243591309</ele>
        <time>2014-08-10T09:24:42.000Z</time>
      </trkpt>
      <trkpt lat="46.01427" lon="-0.53207">
        <ele>89.70531463623</ele>
        <time>2014-08-10T09:24:44.000Z</time>
      </trkpt>
      <trkpt lat="46.0142" lon="-0.53207">
        <ele>89.655014038086</ele>
        <time>2014-08-10T09:24:46.000Z</time>
      </trkpt>
      <trkpt lat="46.0141" lon="-0.53207">
        <ele>89.617012023926</ele>
        <time>2014-08-10T09:24:48.000Z</time>
      </trkpt>
      <trkpt lat="46.01397" lon="-0.53205">
        <ele>89.610153198242</ele>
        <time>2014-08-10T09:24:50.000Z</time>
      </trkpt>
      <trkpt lat="46.01383" lon="-0.53208">
        <ele>89.659461975098</ele>
        <time>2014-08-10T09:24:53.000Z</time>
      </trkpt>
      <trkpt lat="46.01372" lon="-0.53214">
        <ele>89.760147094727</ele>
        <time>2014-08-10T09:24:55.000Z</time>
      </trkpt>
      <trkpt lat="46.01355" lon="-0.5322">
        <ele>89.930526733398</ele>
        <time>2014-08-10T09:24:58.000Z</time>
      </trkpt>
      <trkpt lat="46.01346" lon="-0.53223">
        <ele>90.121231079102</ele>
        <time>2014-08-10T09:25:00.000Z</time>
      </trkpt>
      <trkpt lat="46.01333" lon="-0.53225">
        <ele>90.328338623047</ele>
        <time>2014-08-10T09:25:03.000Z</time>
      </trkpt>
      <trkpt lat="46.0132" lon="-0.53229">
        <ele>90.690559387207</ele>
        <time>2014-08-10T09:25:06.000Z</time>
      </trkpt>
      <trkpt lat="46.01309" lon="-0.5323">
        <ele>91.180145263672</ele>
        <time>2014-08-10T09:25:09.000Z</time>
      </trkpt>
      <trkpt lat="46.01301" lon="-0.5323">
        <ele>91.742637634277</ele>
        <time>2014-08-10T09:25:12.000Z</time>
      </trkpt>
      <trkpt lat="46.01295" lon="-0.53232">
        <ele>92.358734130859</ele>
        <time>2014-08-10T09:25:14.000Z</time>
      </trkpt>
      <trkpt lat="46.01287" lon="-0.53235">
        <ele>93.063552856445</ele>
        <time>2014-08-10T09:25:17.000Z</time>
      </trkpt>
      <trkpt lat="46.01282" lon="-0.53236">
        <ele>93.650955200195</ele>
        <time>2014-08-10T09:25:19.000Z</time>
      </trkpt>
      <trkpt lat="46.01274" lon="-0.53237">
        <ele>94.185447692871</ele>
        <time>2014-08-10T09:25:22.000Z</time>
      </trkpt>
      <trkpt lat="46.01266" lon="-0.53239">
        <ele>94.706977844238</ele>
        <time>2014-08-10T09:25:25.000Z</time>
      </trkpt>
      <trkpt lat="46.01262" lon="-0.53239">
        <ele>95.218963623047</ele>
        <time>2014-08-10T09:25:27.000Z</time>
      </trkpt>
      <trkpt lat="46.01254" lon="-0.53241">
        <ele>95.708786010742</ele>
        <time>2014-08-10T09:25:30.000Z</time>
      </trkpt>
      <trkpt lat="46.01247" lon="-0.53243">
        <ele>96.241737365723</ele>
        <time>2014-08-10T09:25:33.000Z</time>
      </trkpt>
      <trkpt lat="46.01242" lon="-0.53244">
        <ele>96.75382232666</ele>
        <time>2014-08-10T09:25:35.000Z</time>
      </trkpt>
      <trkpt lat="46.01234" lon="-0.53247">
        <ele>97.291976928711</ele>
        <time>2014-08-10T09:25:38.000Z</time>
      </trkpt>
      <trkpt lat="46.01227" lon="-0.53247">
        <ele>97.90657043457</ele>
        <time>2014-08-10T09:25:41.000Z</time>
      </trkpt>
      <trkpt lat="46.01222" lon="-0.53248">
        <ele>98.498641967773</ele>
        <time>2014-08-10T09:25:43.000Z</time>
      </trkpt>
      <trkpt lat="46.01215" lon="-0.53251">
        <ele>99.116188049316</ele>
        <time>2014-08-10T09:25:46.000Z</time>
      </trkpt>
      <trkpt lat="46.01207" lon="-0.53252">
        <ele>99.78157043457</ele>
        <time>2014-08-10T09:25:49.000Z</time>
      </trkpt>
      <trkpt lat="46.01203" lon="-0.53254">
        <ele>100.39196014404</ele>
        <time>2014-08-10T09:25:51.000Z</time>
      </trkpt>
      <trkpt lat="46.01196" lon="-0.53255">
        <ele>100.99222564697</ele>
        <time>2014-08-10T09:25:54.000Z</time>
      </trkpt>
      <trkpt lat="46.01191" lon="-0.53256">
        <ele>101.59837341309</ele>
        <time>2014-08-10T09:25:56.000Z</time>
      </trkpt>
      <trkpt lat="46.01186" lon="-0.53257">
        <ele>102.13896179199</ele>
        <time>2014-08-10T09:25:58.000Z</time>
      </trkpt>
      <trkpt lat="46.01178" lon="-0.5326">
        <ele>102.67752838135</ele>
        <time>2014-08-10T09:26:01.000Z</time>
      </trkpt>
      <trkpt lat="46.01171" lon="-0.53262">
        <ele>103.26838684082</ele>
        <time>2014-08-10T09:26:04.000Z</time>
      </trkpt>
      <trkpt lat="46.01166" lon="-0.53263">
        <ele>103.80041503906</ele>
        <time>2014-08-10T09:26:06.000Z</time>
      </trkpt>
      <trkpt lat="46.01161" lon="-0.53264">
        <ele>104.29530334473</ele>
        <time>2014-08-10T09:26:08.000Z</time>
      </trkpt>
      <trkpt lat="46.01154" lon="-0.53266">
        <ele>104.78791809082</ele>
        <time>2014-08-10T09:26:11.000Z</time>
      </trkpt>
      <trkpt lat="46.01146" lon="-0.53267">
        <ele>105.22418212891</ele>
        <time>2014-08-10T09:26:14.000Z</time>
      </trkpt>
      <trkpt lat="46.01138" lon="-0.53268">
        <ele>105.60347747803</ele>
        <time>2014-08-10T09:26:17.000Z</time>
      </trkpt>
      <trkpt lat="46.01131" lon="-0.53269">
        <ele>105.97998046875</ele>
        <time>2014-08-10T09:26:20.000Z</time>
      </trkpt>
      <trkpt lat="46.01124" lon="-0.53269">
        <ele>106.38468933105</ele>
        <time>2014-08-10T09:26:23.000Z</time>
      </trkpt>
      <trkpt lat="46.0112" lon="-0.53269">
        <ele>106.76015472412</ele>
        <time>2014-08-10T09:26:25.000Z</time>
      </trkpt>
      <trkpt lat="46.01115" lon="-0.53271">
        <ele>107.10356140137</ele>
        <time>2014-08-10T09:26:27.000Z</time>
      </trkpt>
      <trkpt lat="46.01107" lon="-0.53272">
        <ele>107.44511413574</ele>
        <time>2014-08-10T09:26:30.000Z</time>
      </trkpt>
      <trkpt lat="46.01102" lon="-0.53272">
        <ele>107.77378845215</ele>
        <time>2014-08-10T09:26:32.000Z</time>
      </trkpt>
      <trkpt lat="46.01094" lon="-0.53273">
        <ele>108.10080718994</ele>
        <time>2014-08-10T09:26:35.000Z</time>
      </trkpt>
      <trkpt lat="46.01088" lon="-0.53275">
        <ele>108.44004058838</ele>
        <time>2014-08-10T09:26:37.000Z</time>
      </trkpt>
      <trkpt lat="46.01081" lon="-0.53276">
        <ele>108.78642272949</ele>
        <time>2014-08-10T09:26:39.000Z</time>
      </trkpt>
      <trkpt lat="46.01072" lon="-0.53277">
        <ele>109.10911560059</ele>
        <time>2014-08-10T09:26:42.000Z</time>
      </trkpt>
      <trkpt lat="46.01065" lon="-0.53279">
        <ele>109.40065765381</ele>
        <time>2014-08-10T09:26:44.000Z</time>
      </trkpt>
      <trkpt lat="46.01056" lon="-0.53282">
        <ele>109.65623474121</ele>
        <time>2014-08-10T09:26:47.000Z</time>
      </trkpt>
      <trkpt lat="46.01049" lon="-0.53283">
        <ele>109.88362884521</ele>
        <time>2014-08-10T09:26:49.000Z</time>
      </trkpt>
      <trkpt lat="46.01039" lon="-0.53285">
        <ele>110.10172271729</ele>
        <time>2014-08-10T09:26:52.000Z</time>
      </trkpt>
      <trkpt lat="46.01028" lon="-0.53287">
        <ele>110.31378173828</ele>
        <time>2014-08-10T09:26:55.000Z</time>
      </trkpt>
      <trkpt lat="46.01022" lon="-0.53288">
        <ele>110.52764892578</ele>
        <time>2014-08-10T09:26:57.000Z</time>
      </trkpt>
      <trkpt lat="46.01016" lon="-0.5329">
        <ele>110.72233581543</ele>
        <time>2014-08-10T09:27:00.000Z</time>
      </trkpt>
      <trkpt lat="46.01007" lon="-0.53292">
        <ele>110.92497253418</ele>
        <time>2014-08-10T09:27:02.000Z</time>
      </trkpt>
      <trkpt lat="46.00997" lon="-0.53294">
        <ele>111.10276031494</ele>
        <time>2014-08-10T09:27:05.000Z</time>
      </trkpt>
      <trkpt lat="46.00991" lon="-0.53295">
        <ele>111.23001861572</ele>
        <time>2014-08-10T09:27:07.000Z</time>
      </trkpt>
      <trkpt lat="46.00982" lon="-0.53295">
        <ele>111.33280181885</ele>
        <time>2014-08-10T09:27:10.000Z</time>
      </trkpt>
      <trkpt lat="46.00977" lon="-0.53296">
        <ele>111.41178131104</ele>
        <time>2014-08-10T09:27:12.000Z</time>
      </trkpt>
      <trkpt lat="46.00972" lon="-0.53296">
        <ele>111.45511627197</ele>
        <time>2014-08-10T09:27:15.000Z</time>
      </trkpt>
      <trkpt lat="46.0097" lon="-0.53295">
        <ele>111.48178863525</ele>
        <time>2014-08-10T09:27:17.000Z</time>
      </trkpt>
      <trkpt lat="46.0097" lon="-0.53295">
        <ele>111.51010894775</ele>
        <time>2014-08-10T09:27:21.000Z</time>
      </trkpt>
      <trkpt lat="46.00961" lon="-0.53297">
        <ele>111.52425384521</ele>
        <time>2014-08-10T09:27:30.000Z</time>
      </trkpt>
      <trkpt lat="46.00954" lon="-0.533">
        <ele>111.51564788818</ele>
        <time>2014-08-10T09:28:26.000Z</time>
      </trkpt>
      <trkpt lat="46.0095" lon="-0.533">
        <ele>111.50146484375</ele>
        <time>2014-08-10T09:28:28.000Z</time>
      </trkpt>
      <trkpt lat="46.00945" lon="-0.533">
        <ele>111.47982025146</ele>
        <time>2014-08-10T09:28:30.000Z</time>
      </trkpt>
      <trkpt lat="46.00937" lon="-0.53302">
        <ele>111.45538330078</ele>
        <time>2014-08-10T09:28:33.000Z</time>
      </trkpt>
      <trkpt lat="46.00932" lon="-0.53302">
        <ele>111.43759918213</ele>
        <time>2014-08-10T09:28:35.000Z</time>
      </trkpt>
      <trkpt lat="46.00928" lon="-0.53302">
        <ele>111.43927001953</ele>
        <time>2014-08-10T09:28:38.000Z</time>
      </trkpt>
      <trkpt lat="46.00925" lon="-0.53303">
        <ele>111.43200683594</ele>
        <time>2014-08-10T09:28:40.000Z</time>
      </trkpt>
      <trkpt lat="46.00924" lon="-0.53304">
        <ele>111.41627502441</ele>
        <time>2014-08-10T09:28:42.000Z</time>
      </trkpt>
      <trkpt lat="46.0092" lon="-0.53305">
        <ele>111.40236663818</ele>
        <time>2014-08-10T09:28:45.000Z</time>
      </trkpt>
      <trkpt lat="46.00917" lon="-0.53305">
        <ele>111.38564300537</ele>
        <time>2014-08-10T09:28:47.000Z</time>
      </trkpt>
      <trkpt lat="46.00915" lon="-0.53303">
        <ele>111.38255310059</ele>
        <time>2014-08-10T09:28:50.000Z</time>
      </trkpt>
      <trkpt lat="46.00919" lon="-0.533">
        <ele>111.41774749756</ele>
        <time>2014-08-10T09:28:52.000Z</time>
      </trkpt>
      <trkpt lat="46.00922" lon="-0.53302">
        <ele>111.4395904541</ele>
        <time>2014-08-10T09:28:54.000Z</time>
      </trkpt>
      <trkpt lat="46.00925" lon="-0.53303">
        <ele>111.44779968262</ele>
        <time>2014-08-10T09:28:56.000Z</time>
      </trkpt>
      <trkpt lat="46.00929" lon="-0.53303">
        <ele>111.45375823975</ele>
        <time>2014-08-10T09:29:00.000Z</time>
      </trkpt>
      <trkpt lat="46.00933" lon="-0.53302">
        <ele>111.45239257812</ele>
        <time>2014-08-10T09:29:02.000Z</time>
      </trkpt>
      <trkpt lat="46.00936" lon="-0.53302">
        <ele>111.4229888916</ele>
        <time>2014-08-10T09:29:04.000Z</time>
      </trkpt>
      <trkpt lat="46.0094" lon="-0.533">
        <ele>111.42204284668</ele>
        <time>2014-08-10T09:29:06.000Z</time>
      </trkpt>
      <trkpt lat="46.00945" lon="-0.53298">
        <ele>111.45082092285</ele>
        <time>2014-08-10T09:29:09.000Z</time>
      </trkpt>
      <trkpt lat="46.00949" lon="-0.53297">
        <ele>111.4907989502</ele>
        <time>2014-08-10T09:29:12.000Z</time>
      </trkpt>
      <trkpt lat="46.00951" lon="-0.53294">
        <ele>111.54709625244</ele>
        <time>2014-08-10T09:29:14.000Z</time>
      </trkpt>
      <trkpt lat="46.00947" lon="-0.53294">
        <ele>111.6061630249</ele>
        <time>2014-08-10T09:29:17.000Z</time>
      </trkpt>
      <trkpt lat="46.00944" lon="-0.53295">
        <ele>111.65361022949</ele>
        <time>2014-08-10T09:29:19.000Z</time>
      </trkpt>
      <trkpt lat="46.00942" lon="-0.53296">
        <ele>111.67431640625</ele>
        <time>2014-08-10T09:29:21.000Z</time>
      </trkpt>
      <trkpt lat="46.00941" lon="-0.53297">
        <ele>111.67646789551</ele>
        <time>2014-08-10T09:29:24.000Z</time>
      </trkpt>
      <trkpt lat="46.00936" lon="-0.53303">
        <ele>111.60927581787</ele>
        <time>2014-08-10T09:33:33.000Z</time>
      </trkpt>
      <trkpt lat="46.00932" lon="-0.53304">
        <ele>111.5359954834</ele>
        <time>2014-08-10T09:33:36.000Z</time>
      </trkpt>
      <trkpt lat="46.00925" lon="-0.53304">
        <ele>111.46769714355</ele>
        <time>2014-08-10T09:33:38.000Z</time>
      </trkpt>
      <trkpt lat="46.00918" lon="-0.53305">
        <ele>111.40864562988</ele>
        <time>2014-08-10T09:33:40.000Z</time>
      </trkpt>
      <trkpt lat="46.00911" lon="-0.53306">
        <ele>111.32692718506</ele>
        <time>2014-08-10T09:33:42.000Z</time>
      </trkpt>
      <trkpt lat="46.009" lon="-0.53309">
        <ele>111.21939849854</ele>
        <time>2014-08-10T09:33:45.000Z</time>
      </trkpt>
      <trkpt lat="46.00887" lon="-0.53311">
        <ele>111.03712463379</ele>
        <time>2014-08-10T09:33:48.000Z</time>
      </trkpt>
      <trkpt lat="46.00876" lon="-0.53314">
        <ele>110.77252197266</ele>
        <time>2014-08-10T09:33:51.000Z</time>
      </trkpt>
      <trkpt lat="46.00868" lon="-0.53316">
        <ele>110.46034240723</ele>
        <time>2014-08-10T09:33:53.000Z</time>
      </trkpt>
      <trkpt lat="46.0086" lon="-0.53318">
        <ele>110.11944580078</ele>
        <time>2014-08-10T09:33:55.000Z</time>
      </trkpt>
      <trkpt lat="46.00848" lon="-0.53321">
        <ele>109.76340484619</ele>
        <time>2014-08-10T09:33:58.000Z</time>
      </trkpt>
      <trkpt lat="46.0084" lon="-0.53323">
        <ele>109.42668151855</ele>
        <time>2014-08-10T09:34:00.000Z</time>
      </trkpt>
      <trkpt lat="46.00828" lon="-0.53325">
        <ele>109.07468414307</ele>
        <time>2014-08-10T09:34:03.000Z</time>
      </trkpt>
      <trkpt lat="46.00816" lon="-0.53328">
        <ele>108.650390625</ele>
        <time>2014-08-10T09:34:06.000Z</time>
      </trkpt>
      <trkpt lat="46.00804" lon="-0.5333">
        <ele>108.18359375</ele>
        <time>2014-08-10T09:34:08.000Z</time>
      </trkpt>
      <trkpt lat="46.00788" lon="-0.53332">
        <ele>107.66157531738</ele>
        <time>2014-08-10T09:34:11.000Z</time>
      </trkpt>
      <trkpt lat="46.00777" lon="-0.53335">
        <ele>107.09356689453</ele>
        <time>2014-08-10T09:34:13.000Z</time>
      </trkpt>
      <trkpt lat="46.00759" lon="-0.53337">
        <ele>106.48095703125</ele>
        <time>2014-08-10T09:34:16.000Z</time>
      </trkpt>
      <trkpt lat="46.00748" lon="-0.53341">
        <ele>105.8636932373</ele>
        <time>2014-08-10T09:34:18.000Z</time>
      </trkpt>
      <trkpt lat="46.00728" lon="-0.53346">
        <ele>105.02363586426</ele>
        <time>2014-08-10T09:34:21.000Z</time>
      </trkpt>
      <trkpt lat="46.00705" lon="-0.53351">
        <ele>103.95750427246</ele>
        <time>2014-08-10T09:34:24.000Z</time>
      </trkpt>
      <trkpt lat="46.0069" lon="-0.53355">
        <ele>102.76237487793</ele>
        <time>2014-08-10T09:34:26.000Z</time>
      </trkpt>
      <trkpt lat="46.00666" lon="-0.5336">
        <ele>101.32512664795</ele>
        <time>2014-08-10T09:34:29.000Z</time>
      </trkpt>
      <trkpt lat="46.00642" lon="-0.53365">
        <ele>99.590858459473</ele>
        <time>2014-08-10T09:34:32.000Z</time>
      </trkpt>
      <trkpt lat="46.00626" lon="-0.53367">
        <ele>97.910804748535</ele>
        <time>2014-08-10T09:34:34.000Z</time>
      </trkpt>
      <trkpt lat="46.00602" lon="-0.53372">
        <ele>96.188705444336</ele>
        <time>2014-08-10T09:34:37.000Z</time>
      </trkpt>
      <trkpt lat="46.0059" lon="-0.53374">
        <ele>94.508071899414</ele>
        <time>2014-08-10T09:34:39.000Z</time>
      </trkpt>
      <trkpt lat="46.00578" lon="-0.53372">
        <ele>93.004081726074</ele>
        <time>2014-08-10T09:34:42.000Z</time>
      </trkpt>
      <trkpt lat="46.00573" lon="-0.53364">
        <ele>91.867294311523</ele>
        <time>2014-08-10T09:34:44.000Z</time>
      </trkpt>
      <trkpt lat="46.00571" lon="-0.53347">
        <ele>91.025650024414</ele>
        <time>2014-08-10T09:34:47.000Z</time>
      </trkpt>
      <trkpt lat="46.00569" lon="-0.5333">
        <ele>90.635971069336</ele>
        <time>2014-08-10T09:34:50.000Z</time>
      </trkpt>
      <trkpt lat="46.00568" lon="-0.53317">
        <ele>90.481262207031</ele>
        <time>2014-08-10T09:34:52.000Z</time>
      </trkpt>
      <trkpt lat="46.00566" lon="-0.53298">
        <ele>90.595199584961</ele>
        <time>2014-08-10T09:34:55.000Z</time>
      </trkpt>
      <trkpt lat="46.00564" lon="-0.53284">
        <ele>90.80046081543</ele>
        <time>2014-08-10T09:34:57.000Z</time>
      </trkpt>
      <trkpt lat="46.00562" lon="-0.53272">
        <ele>90.999229431152</ele>
        <time>2014-08-10T09:34:59.000Z</time>
      </trkpt>
      <trkpt lat="46.00559" lon="-0.53252">
        <ele>91.180908203125</ele>
        <time>2014-08-10T09:35:02.000Z</time>
      </trkpt>
      <trkpt lat="46.00558" lon="-0.5324">
        <ele>91.311882019043</ele>
        <time>2014-08-10T09:35:04.000Z</time>
      </trkpt>
      <trkpt lat="46.00555" lon="-0.53219">
        <ele>91.316909790039</ele>
        <time>2014-08-10T09:35:07.000Z</time>
      </trkpt>
      <trkpt lat="46.00553" lon="-0.53195">
        <ele>91.227836608887</ele>
        <time>2014-08-10T09:35:10.000Z</time>
      </trkpt>
      <trkpt lat="46.00551" lon="-0.5318">
        <ele>91.103332519531</ele>
        <time>2014-08-10T09:35:12.000Z</time>
      </trkpt>
      <trkpt lat="46.00549" lon="-0.53164">
        <ele>90.879043579102</ele>
        <time>2014-08-10T09:35:14.000Z</time>
      </trkpt>
      <trkpt lat="46.00548" lon="-0.53144">
        <ele>90.545761108398</ele>
        <time>2014-08-10T09:35:17.000Z</time>
      </trkpt>
      <trkpt lat="46.00546" lon="-0.53131">
        <ele>90.167724609375</ele>
        <time>2014-08-10T09:35:19.000Z</time>
      </trkpt>
      <trkpt lat="46.00544" lon="-0.53107">
        <ele>89.671447753906</ele>
        <time>2014-08-10T09:35:22.000Z</time>
      </trkpt>
      <trkpt lat="46.00541" lon="-0.53087">
        <ele>89.034912109375</ele>
        <time>2014-08-10T09:35:24.000Z</time>
      </trkpt>
      <trkpt lat="46.00539" lon="-0.53071">
        <ele>88.355255126953</ele>
        <time>2014-08-10T09:35:26.000Z</time>
      </trkpt>
      <trkpt lat="46.00536" lon="-0.53042">
        <ele>87.58740234375</ele>
        <time>2014-08-10T09:35:29.000Z</time>
      </trkpt>
      <trkpt lat="46.00532" lon="-0.53005">
        <ele>86.702217102051</ele>
        <time>2014-08-10T09:35:32.000Z</time>
      </trkpt>
      <trkpt lat="46.00528" lon="-0.52969">
        <ele>85.75944519043</ele>
        <time>2014-08-10T09:35:35.000Z</time>
      </trkpt>
      <trkpt lat="46.00526" lon="-0.52935">
        <ele>84.786026000977</ele>
        <time>2014-08-10T09:35:38.000Z</time>
      </trkpt>
      <trkpt lat="46.00523" lon="-0.5291">
        <ele>83.79704284668</ele>
        <time>2014-08-10T09:35:40.000Z</time>
      </trkpt>
      <trkpt lat="46.00513" lon="-0.52875">
        <ele>82.810806274414</ele>
        <time>2014-08-10T09:35:43.000Z</time>
      </trkpt>
      <trkpt lat="46.00518" lon="-0.52852">
        <ele>82.005714416504</ele>
        <time>2014-08-10T09:35:45.000Z</time>
      </trkpt>
      <trkpt lat="46.00516" lon="-0.52827">
        <ele>81.328285217285</ele>
        <time>2014-08-10T09:35:47.000Z</time>
      </trkpt>
      <trkpt lat="46.00515" lon="-0.5281">
        <ele>80.754257202148</ele>
        <time>2014-08-10T09:35:50.000Z</time>
      </trkpt>
      <trkpt lat="46.00512" lon="-0.52779">
        <ele>80.154090881348</ele>
        <time>2014-08-10T09:35:52.000Z</time>
      </trkpt>
      <trkpt lat="46.00508" lon="-0.5274">
        <ele>79.5205078125</ele>
        <time>2014-08-10T09:35:55.000Z</time>
      </trkpt>
      <trkpt lat="46.00501" lon="-0.52713">
        <ele>78.707443237305</ele>
        <time>2014-08-10T09:35:58.000Z</time>
      </trkpt>
      <trkpt lat="46.00487" lon="-0.52686">
        <ele>77.71272277832</ele>
        <time>2014-08-10T09:36:01.000Z</time>
      </trkpt>
      <trkpt lat="46.00473" lon="-0.52664">
        <ele>76.611053466797</ele>
        <time>2014-08-10T09:36:04.000Z</time>
      </trkpt>
      <trkpt lat="46.00459" lon="-0.52641">
        <ele>75.492790222168</ele>
        <time>2014-08-10T09:36:07.000Z</time>
      </trkpt>
      <trkpt lat="46.00445" lon="-0.52614">
        <ele>74.410018920898</ele>
        <time>2014-08-10T09:36:10.000Z</time>
      </trkpt>
      <trkpt lat="46.00426" lon="-0.52587">
        <ele>73.336380004883</ele>
        <time>2014-08-10T09:36:13.000Z</time>
      </trkpt>
      <trkpt lat="46.00417" lon="-0.52568">
        <ele>72.449066162109</ele>
        <time>2014-08-10T09:36:15.000Z</time>
      </trkpt>
      <trkpt lat="46.00402" lon="-0.52557">
        <ele>71.66731262207</ele>
        <time>2014-08-10T09:36:17.000Z</time>
      </trkpt>
      <trkpt lat="46.00377" lon="-0.52549">
        <ele>70.956039428711</ele>
        <time>2014-08-10T09:36:20.000Z</time>
      </trkpt>
      <trkpt lat="46.00358" lon="-0.52539">
        <ele>70.360069274902</ele>
        <time>2014-08-10T09:36:23.000Z</time>
      </trkpt>
      <trkpt lat="46.00344" lon="-0.52515">
        <ele>69.92561340332</ele>
        <time>2014-08-10T09:36:26.000Z</time>
      </trkpt>
      <trkpt lat="46.00331" lon="-0.5249">
        <ele>69.525955200195</ele>
        <time>2014-08-10T09:36:29.000Z</time>
      </trkpt>
      <trkpt lat="46.00317" lon="-0.52464">
        <ele>69.054412841797</ele>
        <time>2014-08-10T09:36:32.000Z</time>
      </trkpt>
      <trkpt lat="46.00308" lon="-0.52448">
        <ele>68.565933227539</ele>
        <time>2014-08-10T09:36:34.000Z</time>
      </trkpt>
      <trkpt lat="46.00293" lon="-0.52419">
        <ele>67.904907226562</ele>
        <time>2014-08-10T09:36:37.000Z</time>
      </trkpt>
      <trkpt lat="46.00278" lon="-0.52393">
        <ele>67.068023681641</ele>
        <time>2014-08-10T09:36:40.000Z</time>
      </trkpt>
      <trkpt lat="46.00269" lon="-0.52374">
        <ele>66.156669616699</ele>
        <time>2014-08-10T09:36:42.000Z</time>
      </trkpt>
      <trkpt lat="46.00259" lon="-0.52358">
        <ele>65.286102294922</ele>
        <time>2014-08-10T09:36:44.000Z</time>
      </trkpt>
      <trkpt lat="46.00259" lon="-0.5232">
        <ele>64.413200378418</ele>
        <time>2014-08-10T09:36:47.000Z</time>
      </trkpt>
      <trkpt lat="46.00261" lon="-0.52281">
        <ele>63.620311737061</ele>
        <time>2014-08-10T09:36:50.000Z</time>
      </trkpt>
      <trkpt lat="46.00263" lon="-0.5225">
        <ele>62.917854309082</ele>
        <time>2014-08-10T09:36:53.000Z</time>
      </trkpt>
      <trkpt lat="46.00265" lon="-0.5223">
        <ele>62.323608398438</ele>
        <time>2014-08-10T09:36:55.000Z</time>
      </trkpt>
      <trkpt lat="46.00279" lon="-0.52204">
        <ele>61.886402130127</ele>
        <time>2014-08-10T09:36:58.000Z</time>
      </trkpt>
      <trkpt lat="46.00294" lon="-0.52178">
        <ele>61.621532440186</ele>
        <time>2014-08-10T09:37:01.000Z</time>
      </trkpt>
      <trkpt lat="46.00302" lon="-0.5216">
        <ele>61.548046112061</ele>
        <time>2014-08-10T09:37:03.000Z</time>
      </trkpt>
      <trkpt lat="46.0031" lon="-0.52144">
        <ele>61.632690429688</ele>
        <time>2014-08-10T09:37:05.000Z</time>
      </trkpt>
      <trkpt lat="46.00314" lon="-0.52124">
        <ele>61.731517791748</ele>
        <time>2014-08-10T09:37:07.000Z</time>
      </trkpt>
      <trkpt lat="46.00316" lon="-0.52105">
        <ele>61.759788513184</ele>
        <time>2014-08-10T09:37:09.000Z</time>
      </trkpt>
      <trkpt lat="46.00312" lon="-0.52076">
        <ele>61.68115234375</ele>
        <time>2014-08-10T09:37:12.000Z</time>
      </trkpt>
      <trkpt lat="46.00313" lon="-0.52057">
        <ele>61.639465332031</ele>
        <time>2014-08-10T09:37:14.000Z</time>
      </trkpt>
      <trkpt lat="46.00308" lon="-0.52029">
        <ele>61.612903594971</ele>
        <time>2014-08-10T09:37:17.000Z</time>
      </trkpt>
      <trkpt lat="46.00302" lon="-0.52015">
        <ele>61.593208312988</ele>
        <time>2014-08-10T09:37:19.000Z</time>
      </trkpt>
      <trkpt lat="46.00302" lon="-0.52002">
        <ele>61.637584686279</ele>
        <time>2014-08-10T09:37:22.000Z</time>
      </trkpt>
      <trkpt lat="46.00276" lon="-0.51955">
        <ele>61.634899139404</ele>
        <time>2014-08-10T09:37:27.000Z</time>
      </trkpt>
      <trkpt lat="46.00268" lon="-0.51942">
        <ele>61.558349609375</ele>
        <time>2014-08-10T09:37:29.000Z</time>
      </trkpt>
      <trkpt lat="46.00257" lon="-0.51921">
        <ele>61.433361053467</ele>
        <time>2014-08-10T09:37:32.000Z</time>
      </trkpt>
      <trkpt lat="46.00246" lon="-0.51897">
        <ele>61.209739685059</ele>
        <time>2014-08-10T09:37:35.000Z</time>
      </trkpt>
      <trkpt lat="46.00235" lon="-0.51874">
        <ele>60.81339263916</ele>
        <time>2014-08-10T09:37:38.000Z</time>
      </trkpt>
      <trkpt lat="46.00224" lon="-0.5185">
        <ele>60.392223358154</ele>
        <time>2014-08-10T09:37:41.000Z</time>
      </trkpt>
      <trkpt lat="46.00212" lon="-0.51825">
        <ele>59.82933807373</ele>
        <time>2014-08-10T09:37:44.000Z</time>
      </trkpt>
      <trkpt lat="46.00205" lon="-0.51808">
        <ele>59.128784179688</ele>
        <time>2014-08-10T09:37:46.000Z</time>
      </trkpt>
      <trkpt lat="46.00193" lon="-0.51784">
        <ele>58.329612731934</ele>
        <time>2014-08-10T09:37:49.000Z</time>
      </trkpt>
      <trkpt lat="46.00182" lon="-0.51758">
        <ele>57.471260070801</ele>
        <time>2014-08-10T09:37:52.000Z</time>
      </trkpt>
      <trkpt lat="46.00171" lon="-0.51745">
        <ele>56.6376953125</ele>
        <time>2014-08-10T09:37:54.000Z</time>
      </trkpt>
      <trkpt lat="46.00167" lon="-0.51724">
        <ele>55.901874542236</ele>
        <time>2014-08-10T09:37:56.000Z</time>
      </trkpt>
      <trkpt lat="46.00166" lon="-0.51693">
        <ele>55.236534118652</ele>
        <time>2014-08-10T09:37:59.000Z</time>
      </trkpt>
      <trkpt lat="46.00168" lon="-0.51661">
        <ele>54.707427978516</ele>
        <time>2014-08-10T09:38:02.000Z</time>
      </trkpt>
      <trkpt lat="46.00168" lon="-0.51629">
        <ele>54.300819396973</ele>
        <time>2014-08-10T09:38:05.000Z</time>
      </trkpt>
      <trkpt lat="46.00161" lon="-0.51595">
        <ele>53.897583007812</ele>
        <time>2014-08-10T09:38:08.000Z</time>
      </trkpt>
      <trkpt lat="46.00152" lon="-0.51561">
        <ele>53.388988494873</ele>
        <time>2014-08-10T09:38:11.000Z</time>
      </trkpt>
      <trkpt lat="46.00148" lon="-0.51539">
        <ele>52.854236602783</ele>
        <time>2014-08-10T09:38:13.000Z</time>
      </trkpt>
      <trkpt lat="46.00146" lon="-0.51516">
        <ele>52.285224914551</ele>
        <time>2014-08-10T09:38:15.000Z</time>
      </trkpt>
      <trkpt lat="46.00144" lon="-0.51498">
        <ele>51.717163085938</ele>
        <time>2014-08-10T09:38:17.000Z</time>
      </trkpt>
      <trkpt lat="46.0014" lon="-0.51472">
        <ele>51.15962600708</ele>
        <time>2014-08-10T09:38:20.000Z</time>
      </trkpt>
      <trkpt lat="46.00133" lon="-0.51457">
        <ele>50.723217010498</ele>
        <time>2014-08-10T09:38:23.000Z</time>
      </trkpt>
      <trkpt lat="46.00129" lon="-0.51444">
        <ele>50.361686706543</ele>
        <time>2014-08-10T09:38:26.000Z</time>
      </trkpt>
      <trkpt lat="46.0013" lon="-0.51437">
        <ele>50.085960388184</ele>
        <time>2014-08-10T09:38:28.000Z</time>
      </trkpt>
      <trkpt lat="46.0013" lon="-0.51435">
        <ele>49.882385253906</ele>
        <time>2014-08-10T09:38:30.000Z</time>
      </trkpt>
      <trkpt lat="46.00127" lon="-0.51424">
        <ele>49.752098083496</ele>
        <time>2014-08-10T09:39:36.000Z</time>
      </trkpt>
      <trkpt lat="46.00118" lon="-0.51418">
        <ele>49.674129486084</ele>
        <time>2014-08-10T09:39:38.000Z</time>
      </trkpt>
      <trkpt lat="46.00111" lon="-0.51391">
        <ele>49.522563934326</ele>
        <time>2014-08-10T09:39:41.000Z</time>
      </trkpt>
      <trkpt lat="46.00104" lon="-0.51365">
        <ele>49.253646850586</ele>
        <time>2014-08-10T09:39:44.000Z</time>
      </trkpt>
      <trkpt lat="46.001" lon="-0.51349">
        <ele>48.887153625488</ele>
        <time>2014-08-10T09:39:46.000Z</time>
      </trkpt>
      <trkpt lat="46.00095" lon="-0.51332">
        <ele>48.422389984131</ele>
        <time>2014-08-10T09:39:48.000Z</time>
      </trkpt>
      <trkpt lat="46.00088" lon="-0.51305">
        <ele>47.859016418457</ele>
        <time>2014-08-10T09:39:51.000Z</time>
      </trkpt>
      <trkpt lat="46.00083" lon="-0.51286">
        <ele>47.332496643066</ele>
        <time>2014-08-10T09:39:53.000Z</time>
      </trkpt>
      <trkpt lat="46.00073" lon="-0.51259">
        <ele>46.830791473389</ele>
        <time>2014-08-10T09:39:56.000Z</time>
      </trkpt>
      <trkpt lat="46.00064" lon="-0.51244">
        <ele>46.352027893066</ele>
        <time>2014-08-10T09:39:59.000Z</time>
      </trkpt>
      <trkpt lat="46.00053" lon="-0.51201">
        <ele>45.849376678467</ele>
        <time>2014-08-10T09:40:03.000Z</time>
      </trkpt>
      <trkpt lat="46.00048" lon="-0.51176">
        <ele>45.394924163818</ele>
        <time>2014-08-10T09:40:06.000Z</time>
      </trkpt>
      <trkpt lat="46.00045" lon="-0.51151">
        <ele>45.054931640625</ele>
        <time>2014-08-10T09:40:09.000Z</time>
      </trkpt>
      <trkpt lat="46.00043" lon="-0.51137">
        <ele>44.886474609375</ele>
        <time>2014-08-10T09:40:11.000Z</time>
      </trkpt>
      <trkpt lat="46.00042" lon="-0.51122">
        <ele>44.852535247803</ele>
        <time>2014-08-10T09:40:13.000Z</time>
      </trkpt>
      <trkpt lat="46.00041" lon="-0.51101">
        <ele>45.043800354004</ele>
        <time>2014-08-10T09:40:16.000Z</time>
      </trkpt>
      <trkpt lat="46.00039" lon="-0.51083">
        <ele>45.354381561279</ele>
        <time>2014-08-10T09:40:19.000Z</time>
      </trkpt>
      <trkpt lat="46.00038" lon="-0.51073">
        <ele>45.640434265137</ele>
        <time>2014-08-10T09:40:21.000Z</time>
      </trkpt>
      <trkpt lat="46.00038" lon="-0.51062">
        <ele>45.889904022217</ele>
        <time>2014-08-10T09:40:23.000Z</time>
      </trkpt>
      <trkpt lat="46.00036" lon="-0.51044">
        <ele>46.125289916992</ele>
        <time>2014-08-10T09:40:26.000Z</time>
      </trkpt>
      <trkpt lat="46.00035" lon="-0.5103">
        <ele>46.31812286377</ele>
        <time>2014-08-10T09:40:28.000Z</time>
      </trkpt>
      <trkpt lat="46.00028" lon="-0.51019">
        <ele>46.528484344482</ele>
        <time>2014-08-10T09:40:31.000Z</time>
      </trkpt>
      <trkpt lat="46.00016" lon="-0.51017">
        <ele>46.84464263916</ele>
        <time>2014-08-10T09:40:34.000Z</time>
      </trkpt>
      <trkpt lat="46.00011" lon="-0.51016">
        <ele>47.204582214355</ele>
        <time>2014-08-10T09:40:36.000Z</time>
      </trkpt>
      <trkpt lat="46.00003" lon="-0.51015">
        <ele>47.603141784668</ele>
        <time>2014-08-10T09:40:39.000Z</time>
      </trkpt>
      <trkpt lat="45.99999" lon="-0.51016">
        <ele>47.994655609131</ele>
        <time>2014-08-10T09:40:41.000Z</time>
      </trkpt>
      <trkpt lat="45.9999" lon="-0.51015">
        <ele>48.276870727539</ele>
        <time>2014-08-10T09:40:44.000Z</time>
      </trkpt>
      <trkpt lat="45.99984" lon="-0.51015">
        <ele>48.421421051025</ele>
        <time>2014-08-10T09:40:46.000Z</time>
      </trkpt>
      <trkpt lat="45.99975" lon="-0.51014">
        <ele>48.48365020752</ele>
        <time>2014-08-10T09:40:49.000Z</time>
      </trkpt>
      <trkpt lat="45.99969" lon="-0.51014">
        <ele>48.452026367188</ele>
        <time>2014-08-10T09:40:51.000Z</time>
      </trkpt>
      <trkpt lat="45.99962" lon="-0.51014">
        <ele>48.373748779297</ele>
        <time>2014-08-10T09:40:53.000Z</time>
      </trkpt>
      <trkpt lat="45.99952" lon="-0.51013">
        <ele>48.292938232422</ele>
        <time>2014-08-10T09:40:56.000Z</time>
      </trkpt>
      <trkpt lat="45.99941" lon="-0.51011">
        <ele>48.205459594727</ele>
        <time>2014-08-10T09:40:59.000Z</time>
      </trkpt>
      <trkpt lat="45.9993" lon="-0.5101">
        <ele>48.115844726562</ele>
        <time>2014-08-10T09:41:02.000Z</time>
      </trkpt>
      <trkpt lat="45.99923" lon="-0.51009">
        <ele>48.02571105957</ele>
        <time>2014-08-10T09:41:04.000Z</time>
      </trkpt>
      <trkpt lat="45.99915" lon="-0.51009">
        <ele>47.930904388428</ele>
        <time>2014-08-10T09:41:06.000Z</time>
      </trkpt>
      <trkpt lat="45.99903" lon="-0.51008">
        <ele>47.810111999512</ele>
        <time>2014-08-10T09:41:09.000Z</time>
      </trkpt>
      <trkpt lat="45.99891" lon="-0.51006">
        <ele>47.657814025879</ele>
        <time>2014-08-10T09:41:12.000Z</time>
      </trkpt>
      <trkpt lat="45.99882" lon="-0.51004">
        <ele>47.488910675049</ele>
        <time>2014-08-10T09:41:14.000Z</time>
      </trkpt>
      <trkpt lat="45.99865" lon="-0.51002">
        <ele>47.263050079346</ele>
        <time>2014-08-10T09:41:17.000Z</time>
      </trkpt>
      <trkpt lat="45.99855" lon="-0.51001">
        <ele>47.018325805664</ele>
        <time>2014-08-10T09:41:19.000Z</time>
      </trkpt>
      <trkpt lat="45.99846" lon="-0.51001">
        <ele>46.773002624512</ele>
        <time>2014-08-10T09:41:21.000Z</time>
      </trkpt>
      <trkpt lat="45.99831" lon="-0.51002">
        <ele>46.521293640137</ele>
        <time>2014-08-10T09:41:24.000Z</time>
      </trkpt>
      <trkpt lat="45.99821" lon="-0.51004">
        <ele>46.326854705811</ele>
        <time>2014-08-10T09:41:26.000Z</time>
      </trkpt>
      <trkpt lat="45.99807" lon="-0.51009">
        <ele>46.225410461426</ele>
        <time>2014-08-10T09:41:29.000Z</time>
      </trkpt>
      <trkpt lat="45.99798" lon="-0.51011">
        <ele>46.17847442627</ele>
        <time>2014-08-10T09:41:31.000Z</time>
      </trkpt>
      <trkpt lat="45.99786" lon="-0.51016">
        <ele>46.196990966797</ele>
        <time>2014-08-10T09:41:34.000Z</time>
      </trkpt>
      <trkpt lat="45.99778" lon="-0.5102">
        <ele>46.283142089844</ele>
        <time>2014-08-10T09:41:36.000Z</time>
      </trkpt>
      <trkpt lat="45.99765" lon="-0.51024">
        <ele>46.368034362793</ele>
        <time>2014-08-10T09:41:39.000Z</time>
      </trkpt>
      <trkpt lat="45.99752" lon="-0.51031">
        <ele>46.448318481445</ele>
        <time>2014-08-10T09:41:42.000Z</time>
      </trkpt>
      <trkpt lat="45.99743" lon="-0.51033">
        <ele>46.510398864746</ele>
        <time>2014-08-10T09:41:44.000Z</time>
      </trkpt>
      <trkpt lat="45.9973" lon="-0.51037">
        <ele>46.547260284424</ele>
        <time>2014-08-10T09:41:47.000Z</time>
      </trkpt>
      <trkpt lat="45.99717" lon="-0.51037">
        <ele>46.570934295654</ele>
        <time>2014-08-10T09:41:50.000Z</time>
      </trkpt>
      <trkpt lat="45.99704" lon="-0.51033">
        <ele>46.585487365723</ele>
        <time>2014-08-10T09:41:53.000Z</time>
      </trkpt>
      <trkpt lat="45.99695" lon="-0.51031">
        <ele>46.589653015137</ele>
        <time>2014-08-10T09:41:55.000Z</time>
      </trkpt>
      <trkpt lat="45.99687" lon="-0.51027">
        <ele>46.603828430176</ele>
        <time>2014-08-10T09:41:57.000Z</time>
      </trkpt>
      <trkpt lat="45.99675" lon="-0.5102">
        <ele>46.643291473389</ele>
        <time>2014-08-10T09:42:00.000Z</time>
      </trkpt>
      <trkpt lat="45.99667" lon="-0.51014">
        <ele>46.699295043945</ele>
        <time>2014-08-10T09:42:02.000Z</time>
      </trkpt>
      <trkpt lat="45.99661" lon="-0.51006">
        <ele>46.777992248535</ele>
        <time>2014-08-10T09:42:04.000Z</time>
      </trkpt>
      <trkpt lat="45.99655" lon="-0.50998">
        <ele>46.891212463379</ele>
        <time>2014-08-10T09:42:06.000Z</time>
      </trkpt>
      <trkpt lat="45.99646" lon="-0.50985">
        <ele>47.097911834717</ele>
        <time>2014-08-10T09:42:09.000Z</time>
      </trkpt>
      <trkpt lat="45.99638" lon="-0.50971">
        <ele>47.400886535645</ele>
        <time>2014-08-10T09:42:12.000Z</time>
      </trkpt>
      <trkpt lat="45.99633" lon="-0.50957">
        <ele>47.806293487549</ele>
        <time>2014-08-10T09:42:15.000Z</time>
      </trkpt>
      <trkpt lat="45.99628" lon="-0.50944">
        <ele>48.295391082764</ele>
        <time>2014-08-10T09:42:18.000Z</time>
      </trkpt>
      <trkpt lat="45.99624" lon="-0.50936">
        <ele>48.820152282715</ele>
        <time>2014-08-10T09:42:20.000Z</time>
      </trkpt>
      <trkpt lat="45.99622" lon="-0.50929">
        <ele>49.313385009766</ele>
        <time>2014-08-10T09:42:22.000Z</time>
      </trkpt>
      <trkpt lat="45.99617" lon="-0.50919">
        <ele>49.796672821045</ele>
        <time>2014-08-10T09:42:25.000Z</time>
      </trkpt>
      <trkpt lat="45.99614" lon="-0.50912">
        <ele>50.234039306641</ele>
        <time>2014-08-10T09:42:27.000Z</time>
      </trkpt>
      <trkpt lat="45.9961" lon="-0.509">
        <ele>50.659896850586</ele>
        <time>2014-08-10T09:42:30.000Z</time>
      </trkpt>
      <trkpt lat="45.99605" lon="-0.50888">
        <ele>51.125129699707</ele>
        <time>2014-08-10T09:42:33.000Z</time>
      </trkpt>
      <trkpt lat="45.99601" lon="-0.50878">
        <ele>51.630321502686</ele>
        <time>2014-08-10T09:42:36.000Z</time>
      </trkpt>
      <trkpt lat="45.99599" lon="-0.50874">
        <ele>52.072460174561</ele>
        <time>2014-08-10T09:42:38.000Z</time>
      </trkpt>
      <trkpt lat="45.99596" lon="-0.50871">
        <ele>52.480842590332</ele>
        <time>2014-08-10T09:42:41.000Z</time>
      </trkpt>
      <trkpt lat="45.99595" lon="-0.50871">
        <ele>52.797954559326</ele>
        <time>2014-08-10T09:42:43.000Z</time>
      </trkpt>
      <trkpt lat="45.9959" lon="-0.50876">
        <ele>53.00008392334</ele>
        <time>2014-08-10T09:42:46.000Z</time>
      </trkpt>
      <trkpt lat="45.99587" lon="-0.5088">
        <ele>53.091682434082</ele>
        <time>2014-08-10T09:42:48.000Z</time>
      </trkpt>
      <trkpt lat="45.99581" lon="-0.50886">
        <ele>53.145973205566</ele>
        <time>2014-08-10T09:42:51.000Z</time>
      </trkpt>
      <trkpt lat="45.99574" lon="-0.50892">
        <ele>53.166839599609</ele>
        <time>2014-08-10T09:42:54.000Z</time>
      </trkpt>
      <trkpt lat="45.99562" lon="-0.50902">
        <ele>53.185638427734</ele>
        <time>2014-08-10T09:42:57.000Z</time>
      </trkpt>
      <trkpt lat="45.99551" lon="-0.50909">
        <ele>53.231300354004</ele>
        <time>2014-08-10T09:42:59.000Z</time>
      </trkpt>
      <trkpt lat="45.99538" lon="-0.50922">
        <ele>53.285907745361</ele>
        <time>2014-08-10T09:43:02.000Z</time>
      </trkpt>
      <trkpt lat="45.99526" lon="-0.50933">
        <ele>53.360466003418</ele>
        <time>2014-08-10T09:43:05.000Z</time>
      </trkpt>
      <trkpt lat="45.99519" lon="-0.5094">
        <ele>53.443225860596</ele>
        <time>2014-08-10T09:43:07.000Z</time>
      </trkpt>
      <trkpt lat="45.99508" lon="-0.50952">
        <ele>53.551063537598</ele>
        <time>2014-08-10T09:43:10.000Z</time>
      </trkpt>
      <trkpt lat="45.99496" lon="-0.50963">
        <ele>53.670612335205</ele>
        <time>2014-08-10T09:43:13.000Z</time>
      </trkpt>
      <trkpt lat="45.99487" lon="-0.50969">
        <ele>53.804706573486</ele>
        <time>2014-08-10T09:43:15.000Z</time>
      </trkpt>
      <trkpt lat="45.99479" lon="-0.50976">
        <ele>53.929046630859</ele>
        <time>2014-08-10T09:43:17.000Z</time>
      </trkpt>
      <trkpt lat="45.99467" lon="-0.50986">
        <ele>54.043884277344</ele>
        <time>2014-08-10T09:43:20.000Z</time>
      </trkpt>
      <trkpt lat="45.9946" lon="-0.50992">
        <ele>54.127857208252</ele>
        <time>2014-08-10T09:43:22.000Z</time>
      </trkpt>
      <trkpt lat="45.99449" lon="-0.51001">
        <ele>54.170238494873</ele>
        <time>2014-08-10T09:43:25.000Z</time>
      </trkpt>
      <trkpt lat="45.99442" lon="-0.51007">
        <ele>54.178245544434</ele>
        <time>2014-08-10T09:43:27.000Z</time>
      </trkpt>
      <trkpt lat="45.99431" lon="-0.51017">
        <ele>54.157817840576</ele>
        <time>2014-08-10T09:43:30.000Z</time>
      </trkpt>
      <trkpt lat="45.99424" lon="-0.51024">
        <ele>54.117462158203</ele>
        <time>2014-08-10T09:43:32.000Z</time>
      </trkpt>
      <trkpt lat="45.99417" lon="-0.51032">
        <ele>54.045524597168</ele>
        <time>2014-08-10T09:43:34.000Z</time>
      </trkpt>
      <trkpt lat="45.99409" lon="-0.51045">
        <ele>53.936401367188</ele>
        <time>2014-08-10T09:43:37.000Z</time>
      </trkpt>
      <trkpt lat="45.99398" lon="-0.5106">
        <ele>53.809711456299</ele>
        <time>2014-08-10T09:43:40.000Z</time>
      </trkpt>
      <trkpt lat="45.99391" lon="-0.51071">
        <ele>53.666584014893</ele>
        <time>2014-08-10T09:43:42.000Z</time>
      </trkpt>
      <trkpt lat="45.9938" lon="-0.51086">
        <ele>53.511585235596</ele>
        <time>2014-08-10T09:43:45.000Z</time>
      </trkpt>
      <trkpt lat="45.99373" lon="-0.51097">
        <ele>53.371543884277</ele>
        <time>2014-08-10T09:43:47.000Z</time>
      </trkpt>
      <trkpt lat="45.9936" lon="-0.51115">
        <ele>53.273204803467</ele>
        <time>2014-08-10T09:43:50.000Z</time>
      </trkpt>
      <trkpt lat="45.9935" lon="-0.51128">
        <ele>53.220275878906</ele>
        <time>2014-08-10T09:43:52.000Z</time>
      </trkpt>
      <trkpt lat="45.99339" lon="-0.5114">
        <ele>53.230358123779</ele>
        <time>2014-08-10T09:43:54.000Z</time>
      </trkpt>
      <trkpt lat="45.99323" lon="-0.51152">
        <ele>53.269550323486</ele>
        <time>2014-08-10T09:43:57.000Z</time>
      </trkpt>
      <trkpt lat="45.99313" lon="-0.51162">
        <ele>53.2685546875</ele>
        <time>2014-08-10T09:43:59.000Z</time>
      </trkpt>
      <trkpt lat="45.99303" lon="-0.51175">
        <ele>53.172172546387</ele>
        <time>2014-08-10T09:44:01.000Z</time>
      </trkpt>
      <trkpt lat="45.99289" lon="-0.51189">
        <ele>52.963329315186</ele>
        <time>2014-08-10T09:44:04.000Z</time>
      </trkpt>
      <trkpt lat="45.99276" lon="-0.51207">
        <ele>52.631050109863</ele>
        <time>2014-08-10T09:44:07.000Z</time>
      </trkpt>
      <trkpt lat="45.99267" lon="-0.51219">
        <ele>52.249439239502</ele>
        <time>2014-08-10T09:44:09.000Z</time>
      </trkpt>
      <trkpt lat="45.99253" lon="-0.51237">
        <ele>51.868003845215</ele>
        <time>2014-08-10T09:44:12.000Z</time>
      </trkpt>
      <trkpt lat="45.99245" lon="-0.51248">
        <ele>51.550884246826</ele>
        <time>2014-08-10T09:44:14.000Z</time>
      </trkpt>
      <trkpt lat="45.9924" lon="-0.51261">
        <ele>51.212993621826</ele>
        <time>2014-08-10T09:44:16.000Z</time>
      </trkpt>
      <trkpt lat="45.99229" lon="-0.51273">
        <ele>50.869667053223</ele>
        <time>2014-08-10T09:44:19.000Z</time>
      </trkpt>
      <trkpt lat="45.99217" lon="-0.51284">
        <ele>50.504596710205</ele>
        <time>2014-08-10T09:44:22.000Z</time>
      </trkpt>
      <trkpt lat="45.99202" lon="-0.51298">
        <ele>50.125190734863</ele>
        <time>2014-08-10T09:44:25.000Z</time>
      </trkpt>
      <trkpt lat="45.99194" lon="-0.51305">
        <ele>49.757827758789</ele>
        <time>2014-08-10T09:44:27.000Z</time>
      </trkpt>
      <trkpt lat="45.99182" lon="-0.51313">
        <ele>49.510547637939</ele>
        <time>2014-08-10T09:44:30.000Z</time>
      </trkpt>
      <trkpt lat="45.9917" lon="-0.51322">
        <ele>49.364524841309</ele>
        <time>2014-08-10T09:44:33.000Z</time>
      </trkpt>
      <trkpt lat="45.99162" lon="-0.51328">
        <ele>49.26725769043</ele>
        <time>2014-08-10T09:44:35.000Z</time>
      </trkpt>
      <trkpt lat="45.99153" lon="-0.51334">
        <ele>49.194290161133</ele>
        <time>2014-08-10T09:44:37.000Z</time>
      </trkpt>
      <trkpt lat="45.99141" lon="-0.51342">
        <ele>49.092945098877</ele>
        <time>2014-08-10T09:44:40.000Z</time>
      </trkpt>
      <trkpt lat="45.99129" lon="-0.5135">
        <ele>48.954723358154</ele>
        <time>2014-08-10T09:44:43.000Z</time>
      </trkpt>
      <trkpt lat="45.99121" lon="-0.51356">
        <ele>48.791759490967</ele>
        <time>2014-08-10T09:44:45.000Z</time>
      </trkpt>
      <trkpt lat="45.99113" lon="-0.51363">
        <ele>48.633922576904</ele>
        <time>2014-08-10T09:44:47.000Z</time>
      </trkpt>
      <trkpt lat="45.99104" lon="-0.51371">
        <ele>48.503837585449</ele>
        <time>2014-08-10T09:44:49.000Z</time>
      </trkpt>
      <trkpt lat="45.99092" lon="-0.51383">
        <ele>48.410087585449</ele>
        <time>2014-08-10T09:44:52.000Z</time>
      </trkpt>
      <trkpt lat="45.99084" lon="-0.51392">
        <ele>48.351459503174</ele>
        <time>2014-08-10T09:44:54.000Z</time>
      </trkpt>
      <trkpt lat="45.99075" lon="-0.51404">
        <ele>48.308311462402</ele>
        <time>2014-08-10T09:44:57.000Z</time>
      </trkpt>
      <trkpt lat="45.99067" lon="-0.51413">
        <ele>48.277866363525</ele>
        <time>2014-08-10T09:44:59.000Z</time>
      </trkpt>
      <trkpt lat="45.99055" lon="-0.51426">
        <ele>48.197189331055</ele>
        <time>2014-08-10T09:45:02.000Z</time>
      </trkpt>
      <trkpt lat="45.99046" lon="-0.51435">
        <ele>48.075145721436</ele>
        <time>2014-08-10T09:45:04.000Z</time>
      </trkpt>
      <trkpt lat="45.99033" lon="-0.51446">
        <ele>47.895042419434</ele>
        <time>2014-08-10T09:45:07.000Z</time>
      </trkpt>
      <trkpt lat="45.9902" lon="-0.51459">
        <ele>47.661304473877</ele>
        <time>2014-08-10T09:45:10.000Z</time>
      </trkpt>
      <trkpt lat="45.99009" lon="-0.51468">
        <ele>47.412380218506</ele>
        <time>2014-08-10T09:45:12.000Z</time>
      </trkpt>
      <trkpt lat="45.98994" lon="-0.51469">
        <ele>47.248252868652</ele>
        <time>2014-08-10T09:45:14.000Z</time>
      </trkpt>
      <trkpt lat="45.98983" lon="-0.51475">
        <ele>47.081981658936</ele>
        <time>2014-08-10T09:45:16.000Z</time>
      </trkpt>
      <trkpt lat="45.98967" lon="-0.51484">
        <ele>46.905006408691</ele>
        <time>2014-08-10T09:45:19.000Z</time>
      </trkpt>
      <trkpt lat="45.98959" lon="-0.51496">
        <ele>46.7080078125</ele>
        <time>2014-08-10T09:45:21.000Z</time>
      </trkpt>
      <trkpt lat="45.98943" lon="-0.51506">
        <ele>46.426719665527</ele>
        <time>2014-08-10T09:45:24.000Z</time>
      </trkpt>
      <trkpt lat="45.9893" lon="-0.51514">
        <ele>45.998683929443</ele>
        <time>2014-08-10T09:45:26.000Z</time>
      </trkpt>
      <trkpt lat="45.98905" lon="-0.51533">
        <ele>45.307121276855</ele>
        <time>2014-08-10T09:45:29.000Z</time>
      </trkpt>
      <trkpt lat="45.98892" lon="-0.51543">
        <ele>44.501312255859</ele>
        <time>2014-08-10T09:45:31.000Z</time>
      </trkpt>
      <trkpt lat="45.98871" lon="-0.51559">
        <ele>43.534942626953</ele>
        <time>2014-08-10T09:45:34.000Z</time>
      </trkpt>
      <trkpt lat="45.98856" lon="-0.51568">
        <ele>42.554550170898</ele>
        <time>2014-08-10T09:45:36.000Z</time>
      </trkpt>
      <trkpt lat="45.98833" lon="-0.51582">
        <ele>41.574684143066</ele>
        <time>2014-08-10T09:45:39.000Z</time>
      </trkpt>
      <trkpt lat="45.98812" lon="-0.51593">
        <ele>40.906337738037</ele>
        <time>2014-08-10T09:45:42.000Z</time>
      </trkpt>
      <trkpt lat="45.98796" lon="-0.51602">
        <ele>40.430461883545</ele>
        <time>2014-08-10T09:45:44.000Z</time>
      </trkpt>
      <trkpt lat="45.98771" lon="-0.51616">
        <ele>40.226024627686</ele>
        <time>2014-08-10T09:45:47.000Z</time>
      </trkpt>
      <trkpt lat="45.98756" lon="-0.51625">
        <ele>40.165721893311</ele>
        <time>2014-08-10T09:45:49.000Z</time>
      </trkpt>
      <trkpt lat="45.98735" lon="-0.51638">
        <ele>40.245933532715</ele>
        <time>2014-08-10T09:45:52.000Z</time>
      </trkpt>
      <trkpt lat="45.98714" lon="-0.51651">
        <ele>40.345420837402</ele>
        <time>2014-08-10T09:45:55.000Z</time>
      </trkpt>
      <trkpt lat="45.98694" lon="-0.51663">
        <ele>40.464363098145</ele>
        <time>2014-08-10T09:45:58.000Z</time>
      </trkpt>
      <trkpt lat="45.98674" lon="-0.51675">
        <ele>40.535652160645</ele>
        <time>2014-08-10T09:46:01.000Z</time>
      </trkpt>
      <trkpt lat="45.98664" lon="-0.51692">
        <ele>40.466346740723</ele>
        <time>2014-08-10T09:46:03.000Z</time>
      </trkpt>
      <trkpt lat="45.98646" lon="-0.51691">
        <ele>40.315185546875</ele>
        <time>2014-08-10T09:46:06.000Z</time>
      </trkpt>
      <trkpt lat="45.98631" lon="-0.51699">
        <ele>40.039970397949</ele>
        <time>2014-08-10T09:46:09.000Z</time>
      </trkpt>
      <trkpt lat="45.98619" lon="-0.51714">
        <ele>39.596588134766</ele>
        <time>2014-08-10T09:46:12.000Z</time>
      </trkpt>
      <trkpt lat="45.98615" lon="-0.51722">
        <ele>39.10636138916</ele>
        <time>2014-08-10T09:46:14.000Z</time>
      </trkpt>
      <trkpt lat="45.98617" lon="-0.51746">
        <ele>38.600608825684</ele>
        <time>2014-08-10T09:46:17.000Z</time>
      </trkpt>
      <trkpt lat="45.98619" lon="-0.51763">
        <ele>38.189514160156</ele>
        <time>2014-08-10T09:46:19.000Z</time>
      </trkpt>
      <trkpt lat="45.98624" lon="-0.51787">
        <ele>37.987079620361</ele>
        <time>2014-08-10T09:46:22.000Z</time>
      </trkpt>
      <trkpt lat="45.98629" lon="-0.51817">
        <ele>38.054656982422</ele>
        <time>2014-08-10T09:46:25.000Z</time>
      </trkpt>
      <trkpt lat="45.98633" lon="-0.51835">
        <ele>38.274909973145</ele>
        <time>2014-08-10T09:46:27.000Z</time>
      </trkpt>
      <trkpt lat="45.98638" lon="-0.51858">
        <ele>38.832176208496</ele>
        <time>2014-08-10T09:46:30.000Z</time>
      </trkpt>
      <trkpt lat="45.98641" lon="-0.51876">
        <ele>39.527534484863</ele>
        <time>2014-08-10T09:46:33.000Z</time>
      </trkpt>
      <trkpt lat="45.98643" lon="-0.51879">
        <ele>40.160694122314</ele>
        <time>2014-08-10T09:46:36.000Z</time>
      </trkpt>
      <trkpt lat="45.98644" lon="-0.51882">
        <ele>40.696571350098</ele>
        <time>2014-08-10T09:46:39.000Z</time>
      </trkpt>
      <trkpt lat="45.98644" lon="-0.51886">
        <ele>41.172817230225</ele>
        <time>2014-08-10T09:46:41.000Z</time>
      </trkpt>
      <trkpt lat="45.98644" lon="-0.51894">
        <ele>41.509590148926</ele>
        <time>2014-08-10T09:46:44.000Z</time>
      </trkpt>
      <trkpt lat="45.98645" lon="-0.51914">
        <ele>41.850364685059</ele>
        <time>2014-08-10T09:46:47.000Z</time>
      </trkpt>
      <trkpt lat="45.98643" lon="-0.51939">
        <ele>42.251274108887</ele>
        <time>2014-08-10T09:46:50.000Z</time>
      </trkpt>
      <trkpt lat="45.98643" lon="-0.51951">
        <ele>42.667762756348</ele>
        <time>2014-08-10T09:46:52.000Z</time>
      </trkpt>
      <trkpt lat="45.98641" lon="-0.51967">
        <ele>43.096801757812</ele>
        <time>2014-08-10T09:46:55.000Z</time>
      </trkpt>
      <trkpt lat="45.98639" lon="-0.51982">
        <ele>43.490531921387</ele>
        <time>2014-08-10T09:46:58.000Z</time>
      </trkpt>
      <trkpt lat="45.98637" lon="-0.51991">
        <ele>43.732002258301</ele>
        <time>2014-08-10T09:47:00.000Z</time>
      </trkpt>
      <trkpt lat="45.98636" lon="-0.52001">
        <ele>43.903839111328</ele>
        <time>2014-08-10T09:47:02.000Z</time>
      </trkpt>
      <trkpt lat="45.98634" lon="-0.52011">
        <ele>44.033683776855</ele>
        <time>2014-08-10T09:47:04.000Z</time>
      </trkpt>
      <trkpt lat="45.98632" lon="-0.52024">
        <ele>44.135353088379</ele>
        <time>2014-08-10T09:47:07.000Z</time>
      </trkpt>
      <trkpt lat="45.98634" lon="-0.52035">
        <ele>44.24800491333</ele>
        <time>2014-08-10T09:47:10.000Z</time>
      </trkpt>
      <trkpt lat="45.98635" lon="-0.52043">
        <ele>44.37589263916</ele>
        <time>2014-08-10T09:47:12.000Z</time>
      </trkpt>
      <trkpt lat="45.98634" lon="-0.52056">
        <ele>44.506580352783</ele>
        <time>2014-08-10T09:47:15.000Z</time>
      </trkpt>
      <trkpt lat="45.98634" lon="-0.5207">
        <ele>44.66886138916</ele>
        <time>2014-08-10T09:47:18.000Z</time>
      </trkpt>
      <trkpt lat="45.98634" lon="-0.52083">
        <ele>44.855041503906</ele>
        <time>2014-08-10T09:47:21.000Z</time>
      </trkpt>
      <trkpt lat="45.98635" lon="-0.52095">
        <ele>45.060649871826</ele>
        <time>2014-08-10T09:47:24.000Z</time>
      </trkpt>
      <trkpt lat="45.98635" lon="-0.52102">
        <ele>45.272758483887</ele>
        <time>2014-08-10T09:47:26.000Z</time>
      </trkpt>
      <trkpt lat="45.98636" lon="-0.52111">
        <ele>45.512401580811</ele>
        <time>2014-08-10T09:47:29.000Z</time>
      </trkpt>
      <trkpt lat="45.98636" lon="-0.52118">
        <ele>45.746486663818</ele>
        <time>2014-08-10T09:47:31.000Z</time>
      </trkpt>
      <trkpt lat="45.98635" lon="-0.52124">
        <ele>45.9714012146</ele>
        <time>2014-08-10T09:47:33.000Z</time>
      </trkpt>
      <trkpt lat="45.98635" lon="-0.52131">
        <ele>46.16775894165</ele>
        <time>2014-08-10T09:47:35.000Z</time>
      </trkpt>
      <trkpt lat="45.98635" lon="-0.52137">
        <ele>46.360984802246</ele>
        <time>2014-08-10T09:47:37.000Z</time>
      </trkpt>
      <trkpt lat="45.98637" lon="-0.52145">
        <ele>46.548774719238</ele>
        <time>2014-08-10T09:47:40.000Z</time>
      </trkpt>
      <trkpt lat="45.98637" lon="-0.52149">
        <ele>46.723964691162</ele>
        <time>2014-08-10T09:47:42.000Z</time>
      </trkpt>
      <trkpt lat="45.98637" lon="-0.52153">
        <ele>46.888278961182</ele>
        <time>2014-08-10T09:47:45.000Z</time>
      </trkpt>
      <trkpt lat="45.98637" lon="-0.52156">
        <ele>47.045860290527</ele>
        <time>2014-08-10T09:47:47.000Z</time>
      </trkpt>
      <trkpt lat="45.98638" lon="-0.52162">
        <ele>47.202373504639</ele>
        <time>2014-08-10T09:47:50.000Z</time>
      </trkpt>
      <trkpt lat="45.98637" lon="-0.52168">
        <ele>47.328540802002</ele>
        <time>2014-08-10T09:47:53.000Z</time>
      </trkpt>
      <trkpt lat="45.98638" lon="-0.52173">
        <ele>47.445693969727</ele>
        <time>2014-08-10T09:47:56.000Z</time>
      </trkpt>
      <trkpt lat="45.98638" lon="-0.52175">
        <ele>47.545845031738</ele>
        <time>2014-08-10T09:48:01.000Z</time>
      </trkpt>
      <trkpt lat="45.98638" lon="-0.52179">
        <ele>47.625011444092</ele>
        <time>2014-08-10T09:48:03.000Z</time>
      </trkpt>
      <trkpt lat="45.98638" lon="-0.52185">
        <ele>47.677925109863</ele>
        <time>2014-08-10T09:48:05.000Z</time>
      </trkpt>
      <trkpt lat="45.98638" lon="-0.52195">
        <ele>47.723724365234</ele>
        <time>2014-08-10T09:48:08.000Z</time>
      </trkpt>
      <trkpt lat="45.98637" lon="-0.52204">
        <ele>47.762634277344</ele>
        <time>2014-08-10T09:48:11.000Z</time>
      </trkpt>
      <trkpt lat="45.98637" lon="-0.52211">
        <ele>47.810218811035</ele>
        <time>2014-08-10T09:48:13.000Z</time>
      </trkpt>
      <trkpt lat="45.98637" lon="-0.52217">
        <ele>47.865543365479</ele>
        <time>2014-08-10T09:48:15.000Z</time>
      </trkpt>
      <trkpt lat="45.98638" lon="-0.52226">
        <ele>47.93497467041</ele>
        <time>2014-08-10T09:48:18.000Z</time>
      </trkpt>
      <trkpt lat="45.98638" lon="-0.52233">
        <ele>48.000289916992</ele>
        <time>2014-08-10T09:48:20.000Z</time>
      </trkpt>
      <trkpt lat="45.98637" lon="-0.52243">
        <ele>48.06583404541</ele>
        <time>2014-08-10T09:48:23.000Z</time>
      </trkpt>
      <trkpt lat="45.98637" lon="-0.5225">
        <ele>48.120887756348</ele>
        <time>2014-08-10T09:48:25.000Z</time>
      </trkpt>
      <trkpt lat="45.98637" lon="-0.52259">
        <ele>48.183647155762</ele>
        <time>2014-08-10T09:48:28.000Z</time>
      </trkpt>
      <trkpt lat="45.98636" lon="-0.52266">
        <ele>48.236297607422</ele>
        <time>2014-08-10T09:48:30.000Z</time>
      </trkpt>
      <trkpt lat="45.98635" lon="-0.52281">
        <ele>48.306644439697</ele>
        <time>2014-08-10T09:48:33.000Z</time>
      </trkpt>
      <trkpt lat="45.98635" lon="-0.52292">
        <ele>48.397541046143</ele>
        <time>2014-08-10T09:48:35.000Z</time>
      </trkpt>
      <trkpt lat="45.98635" lon="-0.52301">
        <ele>48.510864257812</ele>
        <time>2014-08-10T09:48:37.000Z</time>
      </trkpt>
      <trkpt lat="45.98634" lon="-0.52318">
        <ele>48.629486083984</ele>
        <time>2014-08-10T09:48:40.000Z</time>
      </trkpt>
      <trkpt lat="45.98633" lon="-0.52335">
        <ele>48.750846862793</ele>
        <time>2014-08-10T09:48:43.000Z</time>
      </trkpt>
      <trkpt lat="45.98632" lon="-0.52347">
        <ele>48.838367462158</ele>
        <time>2014-08-10T09:48:45.000Z</time>
      </trkpt>
      <trkpt lat="45.98632" lon="-0.52363">
        <ele>48.889736175537</ele>
        <time>2014-08-10T09:48:48.000Z</time>
      </trkpt>
      <trkpt lat="45.98631" lon="-0.52379">
        <ele>48.908622741699</ele>
        <time>2014-08-10T09:48:51.000Z</time>
      </trkpt>
      <trkpt lat="45.98633" lon="-0.52393">
        <ele>48.9296875</ele>
        <time>2014-08-10T09:48:54.000Z</time>
      </trkpt>
      <trkpt lat="45.98643" lon="-0.52393">
        <ele>49.056640625</ele>
        <time>2014-08-10T09:48:57.000Z</time>
      </trkpt>
      <trkpt lat="45.98655" lon="-0.5239">
        <ele>49.3203125</ele>
        <time>2014-08-10T09:49:00.000Z</time>
      </trkpt>
      <trkpt lat="45.98662" lon="-0.52388">
        <ele>49.6865234375</ele>
        <time>2014-08-10T09:49:02.000Z</time>
      </trkpt>
      <trkpt lat="45.98669" lon="-0.52387">
        <ele>50.126495361328</ele>
        <time>2014-08-10T09:49:04.000Z</time>
      </trkpt>
      <trkpt lat="45.98681" lon="-0.52385">
        <ele>50.584613800049</ele>
        <time>2014-08-10T09:49:07.000Z</time>
      </trkpt>
      <trkpt lat="45.98689" lon="-0.52384">
        <ele>50.951526641846</ele>
        <time>2014-08-10T09:49:09.000Z</time>
      </trkpt>
      <trkpt lat="45.98701" lon="-0.52383">
        <ele>51.230796813965</ele>
        <time>2014-08-10T09:49:12.000Z</time>
      </trkpt>
      <trkpt lat="45.98709" lon="-0.52382">
        <ele>51.447364807129</ele>
        <time>2014-08-10T09:49:14.000Z</time>
      </trkpt>
      <trkpt lat="45.98721" lon="-0.5238">
        <ele>51.64232635498</ele>
        <time>2014-08-10T09:49:17.000Z</time>
      </trkpt>
      <trkpt lat="45.98733" lon="-0.52378">
        <ele>51.83177947998</ele>
        <time>2014-08-10T09:49:20.000Z</time>
      </trkpt>
      <trkpt lat="45.98741" lon="-0.52378">
        <ele>52.017768859863</ele>
        <time>2014-08-10T09:49:22.000Z</time>
      </trkpt>
      <trkpt lat="45.98749" lon="-0.52377">
        <ele>52.187683105469</ele>
        <time>2014-08-10T09:49:24.000Z</time>
      </trkpt>
      <trkpt lat="45.98765" lon="-0.52376">
        <ele>52.344928741455</ele>
        <time>2014-08-10T09:49:27.000Z</time>
      </trkpt>
      <trkpt lat="45.98777" lon="-0.52373">
        <ele>52.469928741455</ele>
        <time>2014-08-10T09:49:30.000Z</time>
      </trkpt>
      <trkpt lat="45.98783" lon="-0.52371">
        <ele>52.557472229004</ele>
        <time>2014-08-10T09:49:32.000Z</time>
      </trkpt>
      <trkpt lat="45.98786" lon="-0.5236">
        <ele>52.606708526611</ele>
        <time>2014-08-10T09:49:35.000Z</time>
      </trkpt>
      <trkpt lat="45.98788" lon="-0.52346">
        <ele>52.613739013672</ele>
        <time>2014-08-10T09:49:38.000Z</time>
      </trkpt>
      <trkpt lat="45.98786" lon="-0.52332">
        <ele>52.583171844482</ele>
        <time>2014-08-10T09:49:41.000Z</time>
      </trkpt>
      <trkpt lat="45.98786" lon="-0.52323">
        <ele>52.554206848145</ele>
        <time>2014-08-10T09:49:43.000Z</time>
      </trkpt>
      <trkpt lat="45.98789" lon="-0.52315">
        <ele>52.537097930908</ele>
        <time>2014-08-10T09:49:45.000Z</time>
      </trkpt>
      <trkpt lat="45.988" lon="-0.52311">
        <ele>52.555267333984</ele>
        <time>2014-08-10T09:49:48.000Z</time>
      </trkpt>
      <trkpt lat="45.98811" lon="-0.52307">
        <ele>52.609027862549</ele>
        <time>2014-08-10T09:49:51.000Z</time>
      </trkpt>
      <trkpt lat="45.98818" lon="-0.52305">
        <ele>52.69633102417</ele>
        <time>2014-08-10T09:49:53.000Z</time>
      </trkpt>
      <trkpt lat="45.98825" lon="-0.52302">
        <ele>52.783275604248</ele>
        <time>2014-08-10T09:49:55.000Z</time>
      </trkpt>
      <trkpt lat="45.98835" lon="-0.52302">
        <ele>52.861572265625</ele>
        <time>2014-08-10T09:49:58.000Z</time>
      </trkpt>
      <trkpt lat="45.98845" lon="-0.52307">
        <ele>52.89302444458</ele>
        <time>2014-08-10T09:50:01.000Z</time>
      </trkpt>
      <trkpt lat="45.98851" lon="-0.5231">
        <ele>52.887329101562</ele>
        <time>2014-08-10T09:50:03.000Z</time>
      </trkpt>
      <trkpt lat="45.98861" lon="-0.52311">
        <ele>52.845848083496</ele>
        <time>2014-08-10T09:50:06.000Z</time>
      </trkpt>
      <trkpt lat="45.98867" lon="-0.52308">
        <ele>52.77734375</ele>
        <time>2014-08-10T09:50:08.000Z</time>
      </trkpt>
      <trkpt lat="45.98874" lon="-0.52297">
        <ele>52.685546875</ele>
        <time>2014-08-10T09:50:11.000Z</time>
      </trkpt>
      <trkpt lat="45.98875" lon="-0.52282">
        <ele>52.6123046875</ele>
        <time>2014-08-10T09:50:14.000Z</time>
      </trkpt>
      <trkpt lat="45.98875" lon="-0.52272">
        <ele>52.5546875</ele>
        <time>2014-08-10T09:50:16.000Z</time>
      </trkpt>
      <trkpt lat="45.98875" lon="-0.52261">
        <ele>52.51953125</ele>
        <time>2014-08-10T09:50:18.000Z</time>
      </trkpt>
      <trkpt lat="45.98876" lon="-0.5225">
        <ele>52.498912811279</ele>
        <time>2014-08-10T09:50:20.000Z</time>
      </trkpt>
      <trkpt lat="45.98878" lon="-0.5224">
        <ele>52.451873779297</ele>
        <time>2014-08-10T09:50:22.000Z</time>
      </trkpt>
      <trkpt lat="45.98886" lon="-0.52238">
        <ele>52.37890625</ele>
        <time>2014-08-10T09:50:25.000Z</time>
      </trkpt>
      <trkpt lat="45.9889" lon="-0.52245">
        <ele>52.324287414551</ele>
        <time>2014-08-10T09:50:28.000Z</time>
      </trkpt>
      <trkpt lat="45.98893" lon="-0.52249">
        <ele>52.279289245605</ele>
        <time>2014-08-10T09:50:31.000Z</time>
      </trkpt>
      <trkpt lat="45.98895" lon="-0.5225">
        <ele>52.23316192627</ele>
        <time>2014-08-10T09:50:33.000Z</time>
      </trkpt>
      <trkpt lat="45.98895" lon="-0.52248">
        <ele>52.218585968018</ele>
        <time>2014-08-10T09:50:35.000Z</time>
      </trkpt>
      <trkpt lat="45.98895" lon="-0.52245">
        <ele>52.224342346191</ele>
        <time>2014-08-10T09:50:37.000Z</time>
      </trkpt>
      <trkpt lat="45.98895" lon="-0.52243">
        <ele>52.205360412598</ele>
        <time>2014-08-10T09:50:39.000Z</time>
      </trkpt>
      <trkpt lat="45.98893" lon="-0.52241">
        <ele>52.173175811768</ele>
        <time>2014-08-10T09:50:42.000Z</time>
      </trkpt>
      <trkpt lat="45.98893" lon="-0.52241">
        <ele>52.173175811768</ele>
        <time>2014-08-10T09:50:49.000Z</time>
      </trkpt>
    </trkseg>
  </trk>
</gpx>